﻿<?xml version="1.0" encoding="utf-8"?><gpx creator="Garmin Desktop App" version="1.1" xsi:schemaLocation="http://www.topografix.com/GPX/1/1 http://www.topografix.com/GPX/1/1/gpx.xsd http://www.garmin.com/xmlschemas/WaypointExtension/v1 http://www8.garmin.com/xmlschemas/WaypointExtensionv1.xsd http://www.garmin.com/xmlschemas/TrackPointExtension/v1 http://www.garmin.com/xmlschemas/TrackPointExtensionv1.xsd http://www.garmin.com/xmlschemas/GpxExtensions/v3 http://www8.garmin.com/xmlschemas/GpxExtensionsv3.xsd http://www.garmin.com/xmlschemas/ActivityExtension/v1 http://www8.garmin.com/xmlschemas/ActivityExtensionv1.xsd http://www.garmin.com/xmlschemas/AdventuresExtensions/v1 http://www8.garmin.com/xmlschemas/AdventuresExtensionv1.xsd http://www.garmin.com/xmlschemas/PressureExtension/v1 http://www.garmin.com/xmlschemas/PressureExtensionv1.xsd http://www.garmin.com/xmlschemas/TripExtensions/v1 http://www.garmin.com/xmlschemas/TripExtensionsv1.xsd http://www.garmin.com/xmlschemas/TripMetaDataExtensions/v1 http://www.garmin.com/xmlschemas/TripMetaDataExtensionsv1.xsd http://www.garmin.com/xmlschemas/ViaPointTransportationModeExtensions/v1 http://www.garmin.com/xmlschemas/ViaPointTransportationModeExtensionsv1.xsd http://www.garmin.com/xmlschemas/CreationTimeExtension/v1 http://www.garmin.com/xmlschemas/CreationTimeExtensionsv1.xsd http://www.garmin.com/xmlschemas/AccelerationExtension/v1 http://www.garmin.com/xmlschemas/AccelerationExtensionv1.xsd http://www.garmin.com/xmlschemas/PowerExtension/v1 http://www.garmin.com/xmlschemas/PowerExtensionv1.xsd http://www.garmin.com/xmlschemas/VideoExtension/v1 http://www.garmin.com/xmlschemas/VideoExtensionv1.xsd" xmlns="http://www.topografix.com/GPX/1/1" xmlns:xsi="http://www.w3.org/2001/XMLSchema-instance" xmlns:wptx1="http://www.garmin.com/xmlschemas/WaypointExtension/v1" xmlns:gpxtrx="http://www.garmin.com/xmlschemas/GpxExtensions/v3" xmlns:gpxtpx="http://www.garmin.com/xmlschemas/TrackPointExtension/v1" xmlns:gpxx="http://www.garmin.com/xmlschemas/GpxExtensions/v3" xmlns:trp="http://www.garmin.com/xmlschemas/TripExtensions/v1" xmlns:adv="http://www.garmin.com/xmlschemas/AdventuresExtensions/v1" xmlns:prs="http://www.garmin.com/xmlschemas/PressureExtension/v1" xmlns:tmd="http://www.garmin.com/xmlschemas/TripMetaDataExtensions/v1" xmlns:vptm="http://www.garmin.com/xmlschemas/ViaPointTransportationModeExtensions/v1" xmlns:ctx="http://www.garmin.com/xmlschemas/CreationTimeExtension/v1" xmlns:gpxacc="http://www.garmin.com/xmlschemas/AccelerationExtension/v1" xmlns:gpxpx="http://www.garmin.com/xmlschemas/PowerExtension/v1" xmlns:vidx1="http://www.garmin.com/xmlschemas/VideoExtension/v1">

  <metadata>
    <link href="http://www.garmin.com">
      <text>Garmin International</text>
    </link>
    <time>2025-05-08T16:00:15Z</time>
    <bounds maxlat="37.363484976813197" maxlon="-5.339879002422094" minlat="36.008621994405985" minlon="-6.185589982196689" />
  </metadata>

  <trk>
    <name>250508_G_Track</name>
    <extensions>
      <gpxx:TrackExtension>
        <gpxx:DisplayColor>DarkGray</gpxx:DisplayColor>
      </gpxx:TrackExtension>
    </extensions>
    <trkseg>
      <trkpt lat="37.362023005262017" lon="-5.959488982334733">
        <ele>24.649999999999999</ele>
        <time>2025-05-08T06:08:09Z</time>
      </trkpt>
      <trkpt lat="37.362026022747159" lon="-5.959490993991494">
        <ele>24.649999999999999</ele>
        <time>2025-05-08T06:09:02Z</time>
      </trkpt>
      <trkpt lat="37.362024011090398" lon="-5.959483031183481">
        <ele>24.649999999999999</ele>
        <time>2025-05-08T06:09:54Z</time>
      </trkpt>
      <trkpt lat="37.362026022747159" lon="-5.959486970677972">
        <ele>25.129999999999999</ele>
        <time>2025-05-08T06:10:44Z</time>
      </trkpt>
      <trkpt lat="37.362025016918778" lon="-5.959479007869959">
        <ele>25.609999999999999</ele>
        <time>2025-05-08T06:11:33Z</time>
      </trkpt>
      <trkpt lat="37.362045971676707" lon="-5.959493005648255">
        <ele>26.09</ele>
        <time>2025-05-08T06:12:01Z</time>
      </trkpt>
      <trkpt lat="37.362337997183204" lon="-5.959934983402491">
        <ele>15.52</ele>
        <time>2025-05-08T06:12:09Z</time>
      </trkpt>
      <trkpt lat="37.36288801766932" lon="-5.960592040792108">
        <ele>10.710000000000001</ele>
        <time>2025-05-08T06:12:20Z</time>
      </trkpt>
      <trkpt lat="37.363085998222232" lon="-5.96083402633667">
        <ele>10.23</ele>
        <time>2025-05-08T06:12:24Z</time>
      </trkpt>
      <trkpt lat="37.363133020699024" lon="-5.960894040763378">
        <ele>9.75</ele>
        <time>2025-05-08T06:12:25Z</time>
      </trkpt>
      <trkpt lat="37.363484976813197" lon="-5.961351022124291">
        <ele>10.710000000000001</ele>
        <time>2025-05-08T06:12:35Z</time>
      </trkpt>
      <trkpt lat="37.363451030105352" lon="-5.961498962715268">
        <ele>12.630000000000001</ele>
        <time>2025-05-08T06:12:41Z</time>
      </trkpt>
      <trkpt lat="37.363405013456941" lon="-5.961574986577034">
        <ele>12.630000000000001</ele>
        <time>2025-05-08T06:12:42Z</time>
      </trkpt>
      <trkpt lat="37.363394033163786" lon="-5.961594013497233">
        <ele>12.630000000000001</ele>
        <time>2025-05-08T06:12:43Z</time>
      </trkpt>
      <trkpt lat="37.363380035385489" lon="-5.961811020970345">
        <ele>13.119999999999999</ele>
        <time>2025-05-08T06:12:51Z</time>
      </trkpt>
      <trkpt lat="37.363365031778812" lon="-5.961863994598389">
        <ele>13.119999999999999</ele>
        <time>2025-05-08T06:12:52Z</time>
      </trkpt>
      <trkpt lat="37.363286996260285" lon="-5.961911017075181">
        <ele>13.119999999999999</ele>
        <time>2025-05-08T06:12:53Z</time>
      </trkpt>
      <trkpt lat="37.363288002088666" lon="-5.9619100112468">
        <ele>13.119999999999999</ele>
        <time>2025-05-08T06:12:54Z</time>
      </trkpt>
      <trkpt lat="37.363234022632241" lon="-5.961924009025097">
        <ele>13.119999999999999</ele>
        <time>2025-05-08T06:12:55Z</time>
      </trkpt>
      <trkpt lat="37.363256989046931" lon="-5.96173700876534">
        <ele>12.630000000000001</ele>
        <time>2025-05-08T06:12:56Z</time>
      </trkpt>
      <trkpt lat="37.36323201097548" lon="-5.961707001551986">
        <ele>12.630000000000001</ele>
        <time>2025-05-08T06:12:57Z</time>
      </trkpt>
      <trkpt lat="37.363203009590507" lon="-5.961672971025109">
        <ele>12.630000000000001</ele>
        <time>2025-05-08T06:12:58Z</time>
      </trkpt>
      <trkpt lat="37.363170990720391" lon="-5.961635001003742">
        <ele>12.15</ele>
        <time>2025-05-08T06:12:59Z</time>
      </trkpt>
      <trkpt lat="37.363137966021895" lon="-5.961596025153995">
        <ele>11.67</ele>
        <time>2025-05-08T06:13:00Z</time>
      </trkpt>
      <trkpt lat="37.363113993778825" lon="-5.96156501211226">
        <ele>11.67</ele>
        <time>2025-05-08T06:13:01Z</time>
      </trkpt>
      <trkpt lat="37.362782992422581" lon="-5.961163016036153">
        <ele>8.789999999999999</ele>
        <time>2025-05-08T06:13:08Z</time>
      </trkpt>
      <trkpt lat="37.362240012735128" lon="-5.9605129994452">
        <ele>6.87</ele>
        <time>2025-05-08T06:13:17Z</time>
      </trkpt>
      <trkpt lat="37.3620929941535" lon="-5.960334967821837">
        <ele>6.39</ele>
        <time>2025-05-08T06:13:21Z</time>
      </trkpt>
      <trkpt lat="37.362059969455004" lon="-5.960294986143708">
        <ele>6.39</ele>
        <time>2025-05-08T06:13:22Z</time>
      </trkpt>
      <trkpt lat="37.361990986391902" lon="-5.96021200530231">
        <ele>6.87</ele>
        <time>2025-05-08T06:13:24Z</time>
      </trkpt>
      <trkpt lat="37.36189803108573" lon="-5.960100023075938">
        <ele>6.87</ele>
        <time>2025-05-08T06:13:26Z</time>
      </trkpt>
      <trkpt lat="37.361700972542167" lon="-5.959852002561092">
        <ele>6.87</ele>
        <time>2025-05-08T06:13:30Z</time>
      </trkpt>
      <trkpt lat="37.361157992854714" lon="-5.959098972380161">
        <ele>11.19</ele>
        <time>2025-05-08T06:13:39Z</time>
      </trkpt>
      <trkpt lat="37.36039599403739" lon="-5.95774102024734">
        <ele>12.630000000000001</ele>
        <time>2025-05-08T06:13:52Z</time>
      </trkpt>
      <trkpt lat="37.360130036249757" lon="-5.957356039434671">
        <ele>13.119999999999999</ele>
        <time>2025-05-08T06:13:56Z</time>
      </trkpt>
      <trkpt lat="37.360046971589327" lon="-5.957265011966229">
        <ele>13.119999999999999</ele>
        <time>2025-05-08T06:13:57Z</time>
      </trkpt>
      <trkpt lat="37.359974971041083" lon="-5.957185970619321">
        <ele>13.119999999999999</ele>
        <time>2025-05-08T06:13:58Z</time>
      </trkpt>
      <trkpt lat="37.35988100990653" lon="-5.957144983112812">
        <ele>13.119999999999999</ele>
        <time>2025-05-08T06:13:59Z</time>
      </trkpt>
      <trkpt lat="37.359784031286836" lon="-5.957101983949542">
        <ele>13.6</ele>
        <time>2025-05-08T06:14:00Z</time>
      </trkpt>
      <trkpt lat="37.359700966626406" lon="-5.957121010869741">
        <ele>13.6</ele>
        <time>2025-05-08T06:14:01Z</time>
      </trkpt>
      <trkpt lat="37.359596025198698" lon="-5.957146994769573">
        <ele>14.08</ele>
        <time>2025-05-08T06:14:02Z</time>
      </trkpt>
      <trkpt lat="37.359490999951959" lon="-5.957180019468069">
        <ele>14.08</ele>
        <time>2025-05-08T06:14:03Z</time>
      </trkpt>
      <trkpt lat="37.359379017725587" lon="-5.957231987267733">
        <ele>14.56</ele>
        <time>2025-05-08T06:14:04Z</time>
      </trkpt>
      <trkpt lat="37.358801001682878" lon="-5.957499034702778">
        <ele>14.08</ele>
        <time>2025-05-08T06:14:09Z</time>
      </trkpt>
      <trkpt lat="37.35867602750659" lon="-5.957549996674061">
        <ele>14.56</ele>
        <time>2025-05-08T06:14:10Z</time>
      </trkpt>
      <trkpt lat="37.358555998653173" lon="-5.957531975582242">
        <ele>14.56</ele>
        <time>2025-05-08T06:14:11Z</time>
      </trkpt>
      <trkpt lat="37.358434963971376" lon="-5.957485036924481">
        <ele>14.56</ele>
        <time>2025-05-08T06:14:12Z</time>
      </trkpt>
      <trkpt lat="37.358319964259863" lon="-5.957433991134167">
        <ele>15.039999999999999</ele>
        <time>2025-05-08T06:14:13Z</time>
      </trkpt>
      <trkpt lat="37.35820303671062" lon="-5.957383029162884">
        <ele>15.039999999999999</ele>
        <time>2025-05-08T06:14:14Z</time>
      </trkpt>
      <trkpt lat="37.358082002028823" lon="-5.957328965887427">
        <ele>15.039999999999999</ele>
        <time>2025-05-08T06:14:16Z</time>
      </trkpt>
      <trkpt lat="37.357836998999119" lon="-5.957249002531171">
        <ele>15.039999999999999</ele>
        <time>2025-05-08T06:14:17Z</time>
      </trkpt>
      <trkpt lat="37.357721999287605" lon="-5.957244979217649">
        <ele>14.56</ele>
        <time>2025-05-08T06:14:18Z</time>
      </trkpt>
      <trkpt lat="37.357599036768079" lon="-5.957287978380919">
        <ele>14.56</ele>
        <time>2025-05-08T06:14:19Z</time>
      </trkpt>
      <trkpt lat="37.357464004307985" lon="-5.957336006686091">
        <ele>14.56</ele>
        <time>2025-05-08T06:14:20Z</time>
      </trkpt>
      <trkpt lat="37.357349004596472" lon="-5.957413036376238">
        <ele>14.56</ele>
        <time>2025-05-08T06:14:21Z</time>
      </trkpt>
      <trkpt lat="37.355855014175177" lon="-5.958504024893045">
        <ele>15.52</ele>
        <time>2025-05-08T06:14:32Z</time>
      </trkpt>
      <trkpt lat="37.353913011029363" lon="-5.959701966494322">
        <ele>16.48</ele>
        <time>2025-05-08T06:14:44Z</time>
      </trkpt>
      <trkpt lat="37.351848967373371" lon="-5.960716009140015">
        <ele>16</ele>
        <time>2025-05-08T06:14:56Z</time>
      </trkpt>
      <trkpt lat="37.349102972075343" lon="-5.962326005101204">
        <ele>17.920000000000002</ele>
        <time>2025-05-08T06:15:12Z</time>
      </trkpt>
      <trkpt lat="37.347085028886795" lon="-5.963982017710805">
        <ele>16.960000000000001</ele>
        <time>2025-05-08T06:15:25Z</time>
      </trkpt>
      <trkpt lat="37.345203040167689" lon="-5.96603499725461">
        <ele>14.08</ele>
        <time>2025-05-08T06:15:39Z</time>
      </trkpt>
      <trkpt lat="37.343655992299318" lon="-5.967823024839163">
        <ele>11.67</ele>
        <time>2025-05-08T06:15:51Z</time>
      </trkpt>
      <trkpt lat="37.34275502152741" lon="-5.969206038862467">
        <ele>11.67</ele>
        <time>2025-05-08T06:16:00Z</time>
      </trkpt>
      <trkpt lat="37.342269038781524" lon="-5.970629034563899">
        <ele>9.75</ele>
        <time>2025-05-08T06:16:08Z</time>
      </trkpt>
      <trkpt lat="37.341670989990234" lon="-5.972528960555792">
        <ele>8.310000000000001</ele>
        <time>2025-05-08T06:16:19Z</time>
      </trkpt>
      <trkpt lat="37.341560013592243" lon="-5.972787961363792">
        <ele>8.789999999999999</ele>
        <time>2025-05-08T06:16:20Z</time>
      </trkpt>
      <trkpt lat="37.341265976428986" lon="-5.973509978502989">
        <ele>11.19</ele>
        <time>2025-05-08T06:16:24Z</time>
      </trkpt>
      <trkpt lat="37.341164974495769" lon="-5.973655991256237">
        <ele>11.67</ele>
        <time>2025-05-08T06:16:25Z</time>
      </trkpt>
      <trkpt lat="37.341049974784255" lon="-5.973779037594795">
        <ele>12.15</ele>
        <time>2025-05-08T06:16:26Z</time>
      </trkpt>
      <trkpt lat="37.340928018093109" lon="-5.973871992900968">
        <ele>12.15</ele>
        <time>2025-05-08T06:16:27Z</time>
      </trkpt>
      <trkpt lat="37.340806983411312" lon="-5.973964026197791">
        <ele>12.630000000000001</ele>
        <time>2025-05-08T06:16:28Z</time>
      </trkpt>
      <trkpt lat="37.34065099619329" lon="-5.974023034796119">
        <ele>12.630000000000001</ele>
        <time>2025-05-08T06:16:29Z</time>
      </trkpt>
      <trkpt lat="37.340509006753564" lon="-5.974042983725667">
        <ele>13.119999999999999</ele>
        <time>2025-05-08T06:16:30Z</time>
      </trkpt>
      <trkpt lat="37.340379003435373" lon="-5.974062010645866">
        <ele>13.119999999999999</ele>
        <time>2025-05-08T06:16:31Z</time>
      </trkpt>
      <trkpt lat="37.340226033702493" lon="-5.974044995382428">
        <ele>13.6</ele>
        <time>2025-05-08T06:16:32Z</time>
      </trkpt>
      <trkpt lat="37.340098964050412" lon="-5.973987998440862">
        <ele>14.08</ele>
        <time>2025-05-08T06:16:33Z</time>
      </trkpt>
      <trkpt lat="37.339971978217363" lon="-5.973927984014154">
        <ele>14.56</ele>
        <time>2025-05-08T06:16:34Z</time>
      </trkpt>
      <trkpt lat="37.339837029576302" lon="-5.973846009001136">
        <ele>15.039999999999999</ele>
        <time>2025-05-08T06:16:35Z</time>
      </trkpt>
      <trkpt lat="37.339733010157943" lon="-5.973734026774764">
        <ele>15.039999999999999</ele>
        <time>2025-05-08T06:16:36Z</time>
      </trkpt>
      <trkpt lat="37.339627984911203" lon="-5.973622966557741">
        <ele>15.039999999999999</ele>
        <time>2025-05-08T06:16:37Z</time>
      </trkpt>
      <trkpt lat="37.339528994634748" lon="-5.973487012088299">
        <ele>15.52</ele>
        <time>2025-05-08T06:16:38Z</time>
      </trkpt>
      <trkpt lat="37.339449031278491" lon="-5.97333999350667">
        <ele>15.52</ele>
        <time>2025-05-08T06:16:39Z</time>
      </trkpt>
      <trkpt lat="37.339368984103203" lon="-5.973194986581802">
        <ele>15.52</ele>
        <time>2025-05-08T06:16:40Z</time>
      </trkpt>
      <trkpt lat="37.339307041838765" lon="-5.973019972443581">
        <ele>15.52</ele>
        <time>2025-05-08T06:16:41Z</time>
      </trkpt>
      <trkpt lat="37.339266976341605" lon="-5.97284403629601">
        <ele>15.52</ele>
        <time>2025-05-08T06:16:42Z</time>
      </trkpt>
      <trkpt lat="37.33884796500206" lon="-5.971494968980551">
        <ele>14.56</ele>
        <time>2025-05-08T06:16:50Z</time>
      </trkpt>
      <trkpt lat="37.338771019130945" lon="-5.97134099341929">
        <ele>14.08</ele>
        <time>2025-05-08T06:16:51Z</time>
      </trkpt>
      <trkpt lat="37.338674962520599" lon="-5.971197998151183">
        <ele>13.6</ele>
        <time>2025-05-08T06:16:52Z</time>
      </trkpt>
      <trkpt lat="37.338582007214427" lon="-5.971090961247683">
        <ele>13.119999999999999</ele>
        <time>2025-05-08T06:16:53Z</time>
      </trkpt>
      <trkpt lat="37.338429959490895" lon="-5.970989959314466">
        <ele>12.15</ele>
        <time>2025-05-08T06:16:54Z</time>
      </trkpt>
      <trkpt lat="37.338295010849833" lon="-5.970904966816306">
        <ele>11.67</ele>
        <time>2025-05-08T06:16:55Z</time>
      </trkpt>
      <trkpt lat="37.338144974783063" lon="-5.970834977924824">
        <ele>11.19</ele>
        <time>2025-05-08T06:16:56Z</time>
      </trkpt>
      <trkpt lat="37.337993010878563" lon="-5.970763983204961">
        <ele>10.710000000000001</ele>
        <time>2025-05-08T06:16:57Z</time>
      </trkpt>
      <trkpt lat="37.336688032373786" lon="-5.970178004354239">
        <ele>10.710000000000001</ele>
        <time>2025-05-08T06:17:07Z</time>
      </trkpt>
      <trkpt lat="37.336170030757785" lon="-5.969972983002663">
        <ele>11.19</ele>
        <time>2025-05-08T06:17:14Z</time>
      </trkpt>
      <trkpt lat="37.336116973310709" lon="-5.969953034073114">
        <ele>11.19</ele>
        <time>2025-05-08T06:17:15Z</time>
      </trkpt>
      <trkpt lat="37.336067017167807" lon="-5.969933001324534">
        <ele>11.19</ele>
        <time>2025-05-08T06:17:16Z</time>
      </trkpt>
      <trkpt lat="37.336019994691014" lon="-5.969914980232716">
        <ele>11.19</ele>
        <time>2025-05-08T06:17:17Z</time>
      </trkpt>
      <trkpt lat="37.335973978042603" lon="-5.969896959140897">
        <ele>11.67</ele>
        <time>2025-05-08T06:17:18Z</time>
      </trkpt>
      <trkpt lat="37.335764011368155" lon="-5.969823030754924">
        <ele>12.630000000000001</ele>
        <time>2025-05-08T06:17:28Z</time>
      </trkpt>
      <trkpt lat="37.335540968924761" lon="-5.969740971922875">
        <ele>13.119999999999999</ele>
        <time>2025-05-08T06:17:38Z</time>
      </trkpt>
      <trkpt lat="37.33521499671042" lon="-5.969632007181644">
        <ele>14.56</ele>
        <time>2025-05-08T06:17:43Z</time>
      </trkpt>
      <trkpt lat="37.334303967654705" lon="-5.96932296641171">
        <ele>18.879999999999999</ele>
        <time>2025-05-08T06:17:53Z</time>
      </trkpt>
      <trkpt lat="37.333365026861429" lon="-5.968975033611059">
        <ele>20.809999999999999</ele>
        <time>2025-05-08T06:18:02Z</time>
      </trkpt>
      <trkpt lat="37.332292981445789" lon="-5.968583011999726">
        <ele>19.359999999999999</ele>
        <time>2025-05-08T06:18:12Z</time>
      </trkpt>
      <trkpt lat="37.332188040018082" lon="-5.968546969816089">
        <ele>18.879999999999999</ele>
        <time>2025-05-08T06:18:13Z</time>
      </trkpt>
      <trkpt lat="37.332079997286201" lon="-5.968516040593386">
        <ele>18.399999999999999</ele>
        <time>2025-05-08T06:18:14Z</time>
      </trkpt>
      <trkpt lat="37.331299977377057" lon="-5.968279000371695">
        <ele>15.52</ele>
        <time>2025-05-08T06:18:23Z</time>
      </trkpt>
      <trkpt lat="37.331061009317636" lon="-5.968224015086889">
        <ele>14.08</ele>
        <time>2025-05-08T06:18:27Z</time>
      </trkpt>
      <trkpt lat="37.330830004066229" lon="-5.968171963468194">
        <ele>14.08</ele>
        <time>2025-05-08T06:18:36Z</time>
      </trkpt>
      <trkpt lat="37.330803014338017" lon="-5.968171041458845">
        <ele>14.56</ele>
        <time>2025-05-08T06:18:48Z</time>
      </trkpt>
      <trkpt lat="37.330360030755401" lon="-5.968205993995071">
        <ele>15.52</ele>
        <time>2025-05-08T06:18:56Z</time>
      </trkpt>
      <trkpt lat="37.330253999680281" lon="-5.968257961794734">
        <ele>16.48</ele>
        <time>2025-05-08T06:18:58Z</time>
      </trkpt>
      <trkpt lat="37.330203959718347" lon="-5.968281012028456">
        <ele>16.48</ele>
        <time>2025-05-08T06:18:59Z</time>
      </trkpt>
      <trkpt lat="37.330150986090302" lon="-5.968305990099907">
        <ele>16.48</ele>
        <time>2025-05-08T06:19:00Z</time>
      </trkpt>
      <trkpt lat="37.33003699220717" lon="-5.968359969556332">
        <ele>16.48</ele>
        <time>2025-05-08T06:19:02Z</time>
      </trkpt>
      <trkpt lat="37.32997102662921" lon="-5.968390982598066">
        <ele>16.48</ele>
        <time>2025-05-08T06:19:03Z</time>
      </trkpt>
      <trkpt lat="37.3298420291394" lon="-5.968512017279863">
        <ele>16.48</ele>
        <time>2025-05-08T06:19:05Z</time>
      </trkpt>
      <trkpt lat="37.329775979742408" lon="-5.968564990907908">
        <ele>16.48</ele>
        <time>2025-05-08T06:19:06Z</time>
      </trkpt>
      <trkpt lat="37.329710014164448" lon="-5.968617964535952">
        <ele>16.48</ele>
        <time>2025-05-08T06:19:07Z</time>
      </trkpt>
      <trkpt lat="37.329643964767456" lon="-5.968642020598054">
        <ele>16.960000000000001</ele>
        <time>2025-05-08T06:19:08Z</time>
      </trkpt>
      <trkpt lat="37.329566013067961" lon="-5.96863497979939">
        <ele>16.960000000000001</ele>
        <time>2025-05-08T06:19:09Z</time>
      </trkpt>
      <trkpt lat="37.329486971721053" lon="-5.968628022819758">
        <ele>16.960000000000001</ele>
        <time>2025-05-08T06:19:10Z</time>
      </trkpt>
      <trkpt lat="37.329412959516048" lon="-5.96859198063612">
        <ele>16.960000000000001</ele>
        <time>2025-05-08T06:19:11Z</time>
      </trkpt>
      <trkpt lat="37.329355040565133" lon="-5.968525009229779">
        <ele>16.960000000000001</ele>
        <time>2025-05-08T06:19:12Z</time>
      </trkpt>
      <trkpt lat="37.329121017828584" lon="-5.968353012576699">
        <ele>16.48</ele>
        <time>2025-05-08T06:19:15Z</time>
      </trkpt>
      <trkpt lat="37.329018004238605" lon="-5.968395005911589">
        <ele>16.48</ele>
        <time>2025-05-08T06:19:17Z</time>
      </trkpt>
      <trkpt lat="37.328954972326756" lon="-5.96842098981142">
        <ele>16.48</ele>
        <time>2025-05-08T06:19:18Z</time>
      </trkpt>
      <trkpt lat="37.328878026455641" lon="-5.968452002853155">
        <ele>16.48</ele>
        <time>2025-05-08T06:19:19Z</time>
      </trkpt>
      <trkpt lat="37.328792028129101" lon="-5.968487961217761">
        <ele>16.960000000000001</ele>
        <time>2025-05-08T06:19:20Z</time>
      </trkpt>
      <trkpt lat="37.328708041459322" lon="-5.968522997573018">
        <ele>16.960000000000001</ele>
        <time>2025-05-08T06:19:21Z</time>
      </trkpt>
      <trkpt lat="37.327830959111452" lon="-5.968896998092532">
        <ele>20.32</ele>
        <time>2025-05-08T06:19:33Z</time>
      </trkpt>
      <trkpt lat="37.326970975846052" lon="-5.969165973365307">
        <ele>20.809999999999999</ele>
        <time>2025-05-08T06:19:44Z</time>
      </trkpt>
      <trkpt lat="37.326688002794981" lon="-5.969182988628745">
        <ele>20.809999999999999</ele>
        <time>2025-05-08T06:19:47Z</time>
      </trkpt>
      <trkpt lat="37.325802035629749" lon="-5.969070000573993">
        <ele>21.77</ele>
        <time>2025-05-08T06:19:56Z</time>
      </trkpt>
      <trkpt lat="37.324992008507252" lon="-5.968778980895877">
        <ele>22.25</ele>
        <time>2025-05-08T06:20:05Z</time>
      </trkpt>
      <trkpt lat="37.324906010180712" lon="-5.968866990879178">
        <ele>22.25</ele>
        <time>2025-05-08T06:20:06Z</time>
      </trkpt>
      <trkpt lat="37.324830992147326" lon="-5.968879982829094">
        <ele>22.25</ele>
        <time>2025-05-08T06:20:07Z</time>
      </trkpt>
      <trkpt lat="37.324763014912605" lon="-5.968816028907895">
        <ele>22.25</ele>
        <time>2025-05-08T06:20:08Z</time>
      </trkpt>
      <trkpt lat="37.324679028242826" lon="-5.968700023368001">
        <ele>22.25</ele>
        <time>2025-05-08T06:20:09Z</time>
      </trkpt>
      <trkpt lat="37.324511976912618" lon="-5.968659035861492">
        <ele>22.25</ele>
        <time>2025-05-08T06:20:11Z</time>
      </trkpt>
      <trkpt lat="37.324418015778065" lon="-5.968625005334616">
        <ele>22.73</ele>
        <time>2025-05-08T06:20:12Z</time>
      </trkpt>
      <trkpt lat="37.323689963668585" lon="-5.968473041430116">
        <ele>19.359999999999999</ele>
        <time>2025-05-08T06:20:21Z</time>
      </trkpt>
      <trkpt lat="37.323577981442213" lon="-5.968467006459832">
        <ele>18.399999999999999</ele>
        <time>2025-05-08T06:20:28Z</time>
      </trkpt>
      <trkpt lat="37.323413025587797" lon="-5.968458959832788">
        <ele>18.879999999999999</ele>
        <time>2025-05-08T06:20:48Z</time>
      </trkpt>
      <trkpt lat="37.323224013671279" lon="-5.968452002853155">
        <ele>18.879999999999999</ele>
        <time>2025-05-08T06:20:51Z</time>
      </trkpt>
      <trkpt lat="37.323153018951416" lon="-5.968452002853155">
        <ele>18.879999999999999</ele>
        <time>2025-05-08T06:20:52Z</time>
      </trkpt>
      <trkpt lat="37.322837021201849" lon="-5.968479998409748">
        <ele>19.359999999999999</ele>
        <time>2025-05-08T06:20:56Z</time>
      </trkpt>
      <trkpt lat="37.322768960148096" lon="-5.968487039208412">
        <ele>19.359999999999999</ele>
        <time>2025-05-08T06:20:57Z</time>
      </trkpt>
      <trkpt lat="37.322000004351139" lon="-5.968531966209412">
        <ele>19.84</ele>
        <time>2025-05-08T06:21:06Z</time>
      </trkpt>
      <trkpt lat="37.320875991135836" lon="-5.968617964535952">
        <ele>18.879999999999999</ele>
        <time>2025-05-08T06:21:17Z</time>
      </trkpt>
      <trkpt lat="37.320470977574587" lon="-5.968688037246466">
        <ele>18.399999999999999</ele>
        <time>2025-05-08T06:21:21Z</time>
      </trkpt>
      <trkpt lat="37.320427978411317" lon="-5.968719972297549">
        <ele>18.399999999999999</ele>
        <time>2025-05-08T06:21:22Z</time>
      </trkpt>
      <trkpt lat="37.320354972034693" lon="-5.968775041401386">
        <ele>18.399999999999999</ele>
        <time>2025-05-08T06:21:23Z</time>
      </trkpt>
      <trkpt lat="37.320321025326848" lon="-5.968966986984015">
        <ele>18.879999999999999</ele>
        <time>2025-05-08T06:21:24Z</time>
      </trkpt>
      <trkpt lat="37.320295963436365" lon="-5.969033036381006">
        <ele>19.359999999999999</ele>
        <time>2025-05-08T06:21:25Z</time>
      </trkpt>
      <trkpt lat="37.320253970101476" lon="-5.969139989465475">
        <ele>19.359999999999999</ele>
        <time>2025-05-08T06:21:26Z</time>
      </trkpt>
      <trkpt lat="37.320180963724852" lon="-5.969176031649113">
        <ele>19.359999999999999</ele>
        <time>2025-05-08T06:21:27Z</time>
      </trkpt>
      <trkpt lat="37.320079039782286" lon="-5.969221964478493">
        <ele>19.84</ele>
        <time>2025-05-08T06:21:28Z</time>
      </trkpt>
      <trkpt lat="37.319998992606997" lon="-5.969190029427409">
        <ele>19.84</ele>
        <time>2025-05-08T06:21:29Z</time>
      </trkpt>
      <trkpt lat="37.319923974573612" lon="-5.969105958938599">
        <ele>19.84</ele>
        <time>2025-05-08T06:21:30Z</time>
      </trkpt>
      <trkpt lat="37.319869995117188" lon="-5.969031024724245">
        <ele>19.84</ele>
        <time>2025-05-08T06:21:31Z</time>
      </trkpt>
      <trkpt lat="37.319764969870448" lon="-5.968990959227085">
        <ele>19.84</ele>
        <time>2025-05-08T06:21:32Z</time>
      </trkpt>
      <trkpt lat="37.319672014564276" lon="-5.968955000862479">
        <ele>20.32</ele>
        <time>2025-05-08T06:21:33Z</time>
      </trkpt>
      <trkpt lat="37.319590039551258" lon="-5.968923987820745">
        <ele>20.32</ele>
        <time>2025-05-08T06:21:34Z</time>
      </trkpt>
      <trkpt lat="37.319494988769293" lon="-5.968923987820745">
        <ele>20.32</ele>
        <time>2025-05-08T06:21:35Z</time>
      </trkpt>
      <trkpt lat="37.319397004321218" lon="-5.968923987820745">
        <ele>20.32</ele>
        <time>2025-05-08T06:21:36Z</time>
      </trkpt>
      <trkpt lat="37.319313017651439" lon="-5.968923987820745">
        <ele>20.32</ele>
        <time>2025-05-08T06:21:37Z</time>
      </trkpt>
      <trkpt lat="37.319216961041093" lon="-5.968943014740944">
        <ele>20.32</ele>
        <time>2025-05-08T06:21:38Z</time>
      </trkpt>
      <trkpt lat="37.318665012717247" lon="-5.968981990590692">
        <ele>22.25</ele>
        <time>2025-05-08T06:21:46Z</time>
      </trkpt>
      <trkpt lat="37.318599969148636" lon="-5.968986013904214">
        <ele>22.25</ele>
        <time>2025-05-08T06:21:51Z</time>
      </trkpt>
      <trkpt lat="37.318558981642127" lon="-5.968989031389356">
        <ele>22.73</ele>
        <time>2025-05-08T06:21:52Z</time>
      </trkpt>
      <trkpt lat="37.318252036347985" lon="-5.969008980318904">
        <ele>23.210000000000001</ele>
        <time>2025-05-08T06:21:58Z</time>
      </trkpt>
      <trkpt lat="37.318054977804422" lon="-5.969033036381006">
        <ele>23.210000000000001</ele>
        <time>2025-05-08T06:22:01Z</time>
      </trkpt>
      <trkpt lat="37.317985994741321" lon="-5.96906203776598">
        <ele>22.25</ele>
        <time>2025-05-08T06:22:02Z</time>
      </trkpt>
      <trkpt lat="37.317907959222794" lon="-5.969093972817063">
        <ele>21.77</ele>
        <time>2025-05-08T06:22:03Z</time>
      </trkpt>
      <trkpt lat="37.317816009745002" lon="-5.969147030264139">
        <ele>21.289999999999999</ele>
        <time>2025-05-08T06:22:04Z</time>
      </trkpt>
      <trkpt lat="37.317729005590081" lon="-5.969232022762299">
        <ele>20.809999999999999</ele>
        <time>2025-05-08T06:22:05Z</time>
      </trkpt>
      <trkpt lat="37.317681983113289" lon="-5.969309974461794">
        <ele>20.809999999999999</ele>
        <time>2025-05-08T06:22:06Z</time>
      </trkpt>
      <trkpt lat="37.317625992000103" lon="-5.969337970018387">
        <ele>20.809999999999999</ele>
        <time>2025-05-08T06:22:07Z</time>
      </trkpt>
      <trkpt lat="37.317561032250524" lon="-5.969369988888502">
        <ele>20.32</ele>
        <time>2025-05-08T06:22:08Z</time>
      </trkpt>
      <trkpt lat="37.317499006167054" lon="-5.969355991110206">
        <ele>20.32</ele>
        <time>2025-05-08T06:22:09Z</time>
      </trkpt>
      <trkpt lat="37.317434968426824" lon="-5.969309974461794">
        <ele>20.32</ele>
        <time>2025-05-08T06:22:10Z</time>
      </trkpt>
      <trkpt lat="37.317353999242187" lon="-5.969248032197356">
        <ele>20.32</ele>
        <time>2025-05-08T06:22:11Z</time>
      </trkpt>
      <trkpt lat="37.317273030057549" lon="-5.969192963093519">
        <ele>19.84</ele>
        <time>2025-05-08T06:22:12Z</time>
      </trkpt>
      <trkpt lat="37.317091980949044" lon="-5.969067988917232">
        <ele>19.84</ele>
        <time>2025-05-08T06:22:14Z</time>
      </trkpt>
      <trkpt lat="37.316976981237531" lon="-5.969040999189019">
        <ele>19.359999999999999</ele>
        <time>2025-05-08T06:22:15Z</time>
      </trkpt>
      <trkpt lat="37.316870028153062" lon="-5.969058014452457">
        <ele>18.879999999999999</ele>
        <time>2025-05-08T06:22:16Z</time>
      </trkpt>
      <trkpt lat="37.31675997376442" lon="-5.969076035544276">
        <ele>18.399999999999999</ele>
        <time>2025-05-08T06:22:17Z</time>
      </trkpt>
      <trkpt lat="37.316646985709667" lon="-5.969094978645444">
        <ele>18.399999999999999</ele>
        <time>2025-05-08T06:22:18Z</time>
      </trkpt>
      <trkpt lat="37.315219966694713" lon="-5.969351967796683">
        <ele>17.440000000000001</ele>
        <time>2025-05-08T06:22:29Z</time>
      </trkpt>
      <trkpt lat="37.313662022352219" lon="-5.969692021608353">
        <ele>20.32</ele>
        <time>2025-05-08T06:22:39Z</time>
      </trkpt>
      <trkpt lat="37.311856979504228" lon="-5.970068033784628">
        <ele>23.690000000000001</ele>
        <time>2025-05-08T06:22:50Z</time>
      </trkpt>
      <trkpt lat="37.310051014646888" lon="-5.9703319799155">
        <ele>25.129999999999999</ele>
        <time>2025-05-08T06:23:01Z</time>
      </trkpt>
      <trkpt lat="37.308683004230261" lon="-5.970000978559256">
        <ele>24.649999999999999</ele>
        <time>2025-05-08T06:23:09Z</time>
      </trkpt>
      <trkpt lat="37.306699007749557" lon="-5.969297988340259">
        <ele>23.210000000000001</ele>
        <time>2025-05-08T06:23:22Z</time>
      </trkpt>
      <trkpt lat="37.305444991216063" lon="-5.968519980087876">
        <ele>23.210000000000001</ele>
        <time>2025-05-08T06:23:30Z</time>
      </trkpt>
      <trkpt lat="37.303639026358724" lon="-5.96685198135674">
        <ele>25.129999999999999</ele>
        <time>2025-05-08T06:23:42Z</time>
      </trkpt>
      <trkpt lat="37.302573015913367" lon="-5.965116005390883">
        <ele>25.609999999999999</ele>
        <time>2025-05-08T06:23:50Z</time>
      </trkpt>
      <trkpt lat="37.301490996032953" lon="-5.962773011997342">
        <ele>26.57</ele>
        <time>2025-05-08T06:24:01Z</time>
      </trkpt>
      <trkpt lat="37.30045398697257" lon="-5.960588017478585">
        <ele>24.649999999999999</ele>
        <time>2025-05-08T06:24:11Z</time>
      </trkpt>
      <trkpt lat="37.298614997416735" lon="-5.957245985046029">
        <ele>21.77</ele>
        <time>2025-05-08T06:24:27Z</time>
      </trkpt>
      <trkpt lat="37.29677701368928" lon="-5.953906970098615">
        <ele>22.25</ele>
        <time>2025-05-08T06:24:43Z</time>
      </trkpt>
      <trkpt lat="37.295904038473964" lon="-5.952307032421231">
        <ele>19.359999999999999</ele>
        <time>2025-05-08T06:24:52Z</time>
      </trkpt>
      <trkpt lat="37.294255988672376" lon="-5.949381999671459">
        <ele>19.359999999999999</ele>
        <time>2025-05-08T06:25:06Z</time>
      </trkpt>
      <trkpt lat="37.293292991816998" lon="-5.947922039777041">
        <ele>21.289999999999999</ele>
        <time>2025-05-08T06:25:15Z</time>
      </trkpt>
      <trkpt lat="37.291836971417069" lon="-5.94661102630198">
        <ele>24.649999999999999</ele>
        <time>2025-05-08T06:25:26Z</time>
      </trkpt>
      <trkpt lat="37.29140798561275" lon="-5.94626996666193">
        <ele>24.649999999999999</ele>
        <time>2025-05-08T06:25:29Z</time>
      </trkpt>
      <trkpt lat="37.290424033999443" lon="-5.945379976183176">
        <ele>25.609999999999999</ele>
        <time>2025-05-08T06:25:36Z</time>
      </trkpt>
      <trkpt lat="37.289145961403847" lon="-5.94422603957355">
        <ele>32.340000000000003</ele>
        <time>2025-05-08T06:25:46Z</time>
      </trkpt>
      <trkpt lat="37.288533998653293" lon="-5.943720024079084">
        <ele>34.740000000000002</ele>
        <time>2025-05-08T06:25:52Z</time>
      </trkpt>
      <trkpt lat="37.28844003751874" lon="-5.943651041015983">
        <ele>35.229999999999997</ele>
        <time>2025-05-08T06:25:53Z</time>
      </trkpt>
      <trkpt lat="37.288350015878677" lon="-5.943587003275752">
        <ele>35.229999999999997</ele>
        <time>2025-05-08T06:25:55Z</time>
      </trkpt>
      <trkpt lat="37.288182964548469" lon="-5.943464040756226">
        <ele>35.229999999999997</ele>
        <time>2025-05-08T06:25:56Z</time>
      </trkpt>
      <trkpt lat="37.28777602314949" lon="-5.943223983049393">
        <ele>37.149999999999999</ele>
        <time>2025-05-08T06:26:04Z</time>
      </trkpt>
      <trkpt lat="37.287735035642982" lon="-5.943207973614335">
        <ele>37.149999999999999</ele>
        <time>2025-05-08T06:26:09Z</time>
      </trkpt>
      <trkpt lat="37.287529008463025" lon="-5.943193975836039">
        <ele>38.109999999999999</ele>
        <time>2025-05-08T06:26:12Z</time>
      </trkpt>
      <trkpt lat="37.287468994036317" lon="-5.943003036081791">
        <ele>38.590000000000003</ele>
        <time>2025-05-08T06:26:13Z</time>
      </trkpt>
      <trkpt lat="37.287450972944498" lon="-5.942978980019689">
        <ele>38.590000000000003</ele>
        <time>2025-05-08T06:26:14Z</time>
      </trkpt>
      <trkpt lat="37.28685200214386" lon="-5.942360982298851">
        <ele>40.990000000000002</ele>
        <time>2025-05-08T06:26:22Z</time>
      </trkpt>
      <trkpt lat="37.285655988380313" lon="-5.941320033743978">
        <ele>43.880000000000003</ele>
        <time>2025-05-08T06:26:31Z</time>
      </trkpt>
      <trkpt lat="37.284240033477545" lon="-5.940090995281935">
        <ele>42.920000000000002</ele>
        <time>2025-05-08T06:26:42Z</time>
      </trkpt>
      <trkpt lat="37.283205036073923" lon="-5.939161023125053">
        <ele>38.590000000000003</ele>
        <time>2025-05-08T06:26:53Z</time>
      </trkpt>
      <trkpt lat="37.282711006700993" lon="-5.938694989308715">
        <ele>38.590000000000003</ele>
        <time>2025-05-08T06:27:00Z</time>
      </trkpt>
      <trkpt lat="37.282649986445904" lon="-5.938642015680671">
        <ele>39.07</ele>
        <time>2025-05-08T06:27:01Z</time>
      </trkpt>
      <trkpt lat="37.282583015039563" lon="-5.938584012910724">
        <ele>39.549999999999997</ele>
        <time>2025-05-08T06:27:02Z</time>
      </trkpt>
      <trkpt lat="37.282556025311351" lon="-5.938560962677002">
        <ele>40.030000000000001</ele>
        <time>2025-05-08T06:27:03Z</time>
      </trkpt>
      <trkpt lat="37.282349998131394" lon="-5.93853397294879">
        <ele>40.030000000000001</ele>
        <time>2025-05-08T06:27:04Z</time>
      </trkpt>
      <trkpt lat="37.28227699175477" lon="-5.938368011265993">
        <ele>40.509999999999998</ele>
        <time>2025-05-08T06:27:05Z</time>
      </trkpt>
      <trkpt lat="37.282248996198177" lon="-5.938338004052639">
        <ele>40.509999999999998</ele>
        <time>2025-05-08T06:27:06Z</time>
      </trkpt>
      <trkpt lat="37.281398987397552" lon="-5.937569970265031">
        <ele>42.920000000000002</ele>
        <time>2025-05-08T06:27:15Z</time>
      </trkpt>
      <trkpt lat="37.280209008604288" lon="-5.936527010053396">
        <ele>44.359999999999999</ele>
        <time>2025-05-08T06:27:28Z</time>
      </trkpt>
      <trkpt lat="37.279184991493821" lon="-5.935635007917881">
        <ele>43.399999999999999</ele>
        <time>2025-05-08T06:27:41Z</time>
      </trkpt>
      <trkpt lat="37.278786012902856" lon="-5.935435015708208">
        <ele>41.950000000000003</ele>
        <time>2025-05-08T06:27:46Z</time>
      </trkpt>
      <trkpt lat="37.278719041496515" lon="-5.935372989624739">
        <ele>41.469999999999999</ele>
        <time>2025-05-08T06:27:47Z</time>
      </trkpt>
      <trkpt lat="37.277730982750654" lon="-5.934552988037467">
        <ele>40.990000000000002</ele>
        <time>2025-05-08T06:27:59Z</time>
      </trkpt>
      <trkpt lat="37.276544021442533" lon="-5.933445990085602">
        <ele>46.280000000000001</ele>
        <time>2025-05-08T06:28:12Z</time>
      </trkpt>
      <trkpt lat="37.274545021355152" lon="-5.932166995480657">
        <ele>48.68</ele>
        <time>2025-05-08T06:28:30Z</time>
      </trkpt>
      <trkpt lat="37.273669028654695" lon="-5.931622004136443">
        <ele>49.159999999999997</ele>
        <time>2025-05-08T06:28:39Z</time>
      </trkpt>
      <trkpt lat="37.273588981479406" lon="-5.931588979437947">
        <ele>49.159999999999997</ele>
        <time>2025-05-08T06:28:41Z</time>
      </trkpt>
      <trkpt lat="37.273456966504455" lon="-5.931609012186527">
        <ele>49.649999999999999</ele>
        <time>2025-05-08T06:28:42Z</time>
      </trkpt>
      <trkpt lat="37.273397035896778" lon="-5.931562995538116">
        <ele>49.649999999999999</ele>
        <time>2025-05-08T06:28:43Z</time>
      </trkpt>
      <trkpt lat="37.273279018700123" lon="-5.93133500777185">
        <ele>49.649999999999999</ele>
        <time>2025-05-08T06:28:44Z</time>
      </trkpt>
      <trkpt lat="37.273196959868073" lon="-5.931273987516761">
        <ele>49.159999999999997</ele>
        <time>2025-05-08T06:28:45Z</time>
      </trkpt>
      <trkpt lat="37.273108027875423" lon="-5.931213973090053">
        <ele>48.68</ele>
        <time>2025-05-08T06:28:46Z</time>
      </trkpt>
      <trkpt lat="37.271937998011708" lon="-5.930394977331162">
        <ele>47.240000000000002</ele>
        <time>2025-05-08T06:28:56Z</time>
      </trkpt>
      <trkpt lat="37.270277040079236" lon="-5.929041970521212">
        <ele>46.280000000000001</ele>
        <time>2025-05-08T06:29:09Z</time>
      </trkpt>
      <trkpt lat="37.26889100857079" lon="-5.927890967577696">
        <ele>48.68</ele>
        <time>2025-05-08T06:29:21Z</time>
      </trkpt>
      <trkpt lat="37.267994983121753" lon="-5.927149001508951">
        <ele>48.68</ele>
        <time>2025-05-08T06:29:32Z</time>
      </trkpt>
      <trkpt lat="37.267004996538162" lon="-5.926345009356737">
        <ele>47.240000000000002</ele>
        <time>2025-05-08T06:29:42Z</time>
      </trkpt>
      <trkpt lat="37.265987014397979" lon="-5.925439009442926">
        <ele>47.719999999999999</ele>
        <time>2025-05-08T06:29:52Z</time>
      </trkpt>
      <trkpt lat="37.264696033671498" lon="-5.924230003729463">
        <ele>52.530000000000001</ele>
        <time>2025-05-08T06:30:05Z</time>
      </trkpt>
      <trkpt lat="37.263452997431159" lon="-5.922980010509491">
        <ele>53.969999999999999</ele>
        <time>2025-05-08T06:30:19Z</time>
      </trkpt>
      <trkpt lat="37.263124007731676" lon="-5.922606009989977">
        <ele>54.450000000000003</ele>
        <time>2025-05-08T06:30:24Z</time>
      </trkpt>
      <trkpt lat="37.263051001355052" lon="-5.922567034140229">
        <ele>54.450000000000003</ele>
        <time>2025-05-08T06:30:25Z</time>
      </trkpt>
      <trkpt lat="37.262957040220499" lon="-5.922534009441733">
        <ele>54.93</ele>
        <time>2025-05-08T06:30:26Z</time>
      </trkpt>
      <trkpt lat="37.262778002768755" lon="-5.92254800722003">
        <ele>55.409999999999997</ele>
        <time>2025-05-08T06:30:28Z</time>
      </trkpt>
      <trkpt lat="37.262697033584118" lon="-5.92254800722003">
        <ele>55.409999999999997</ele>
        <time>2025-05-08T06:30:29Z</time>
      </trkpt>
      <trkpt lat="37.262612041085958" lon="-5.92250601388514">
        <ele>54.93</ele>
        <time>2025-05-08T06:30:30Z</time>
      </trkpt>
      <trkpt lat="37.262525958940387" lon="-5.92246301472187">
        <ele>55.409999999999997</ele>
        <time>2025-05-08T06:30:31Z</time>
      </trkpt>
      <trkpt lat="37.262454964220524" lon="-5.922394031658769">
        <ele>55.409999999999997</ele>
        <time>2025-05-08T06:30:32Z</time>
      </trkpt>
      <trkpt lat="37.262393021956086" lon="-5.922306021675468">
        <ele>55.890000000000001</ele>
        <time>2025-05-08T06:30:33Z</time>
      </trkpt>
      <trkpt lat="37.262328984215856" lon="-5.922218011692166">
        <ele>55.890000000000001</ele>
        <time>2025-05-08T06:30:34Z</time>
      </trkpt>
      <trkpt lat="37.26227299310267" lon="-5.922123966738582">
        <ele>56.369999999999997</ele>
        <time>2025-05-08T06:30:35Z</time>
      </trkpt>
      <trkpt lat="37.262247009202838" lon="-5.922004021704197">
        <ele>56.369999999999997</ele>
        <time>2025-05-08T06:30:36Z</time>
      </trkpt>
      <trkpt lat="37.262108037248254" lon="-5.921639995649457">
        <ele>57.340000000000003</ele>
        <time>2025-05-08T06:30:39Z</time>
      </trkpt>
      <trkpt lat="37.262041987851262" lon="-5.921545028686523">
        <ele>57.340000000000003</ele>
        <time>2025-05-08T06:30:40Z</time>
      </trkpt>
      <trkpt lat="37.261925982311368" lon="-5.921475039795041">
        <ele>57.340000000000003</ele>
        <time>2025-05-08T06:30:41Z</time>
      </trkpt>
      <trkpt lat="37.261206982657313" lon="-5.920918984338641">
        <ele>56.859999999999999</ele>
        <time>2025-05-08T06:30:48Z</time>
      </trkpt>
      <trkpt lat="37.260955022647977" lon="-5.920695019885898">
        <ele>56.369999999999997</ele>
        <time>2025-05-08T06:30:49Z</time>
      </trkpt>
      <trkpt lat="37.260826025158167" lon="-5.920569961890578">
        <ele>55.890000000000001</ele>
        <time>2025-05-08T06:30:50Z</time>
      </trkpt>
      <trkpt lat="37.259505959227681" lon="-5.91930203139782">
        <ele>53.009999999999998</ele>
        <time>2025-05-08T06:31:00Z</time>
      </trkpt>
      <trkpt lat="37.256957022473216" lon="-5.916888965293765">
        <ele>55.890000000000001</ele>
        <time>2025-05-08T06:31:14Z</time>
      </trkpt>
      <trkpt lat="37.255146028473973" lon="-5.915192971006036">
        <ele>55.890000000000001</ele>
        <time>2025-05-08T06:31:24Z</time>
      </trkpt>
      <trkpt lat="37.253115009516478" lon="-5.913282986730337">
        <ele>56.369999999999997</ele>
        <time>2025-05-08T06:31:35Z</time>
      </trkpt>
      <trkpt lat="37.25133896805346" lon="-5.911929979920387">
        <ele>52.049999999999997</ele>
        <time>2025-05-08T06:31:44Z</time>
      </trkpt>
      <trkpt lat="37.24912497214973" lon="-5.910904034972191">
        <ele>48.200000000000003</ele>
        <time>2025-05-08T06:31:54Z</time>
      </trkpt>
      <trkpt lat="37.246746020391583" lon="-5.910486029461026">
        <ele>45.799999999999997</ele>
        <time>2025-05-08T06:32:04Z</time>
      </trkpt>
      <trkpt lat="37.245180029422045" lon="-5.91055903583765">
        <ele>45.32</ele>
        <time>2025-05-08T06:32:11Z</time>
      </trkpt>
      <trkpt lat="37.243134006857872" lon="-5.91073396615684">
        <ele>45.32</ele>
        <time>2025-05-08T06:32:20Z</time>
      </trkpt>
      <trkpt lat="37.239688038825989" lon="-5.91096798889339">
        <ele>44.840000000000003</ele>
        <time>2025-05-08T06:32:35Z</time>
      </trkpt>
      <trkpt lat="37.23777998238802" lon="-5.911149960011244">
        <ele>45.799999999999997</ele>
        <time>2025-05-08T06:32:45Z</time>
      </trkpt>
      <trkpt lat="37.235254012048244" lon="-5.911202011629939">
        <ele>43.399999999999999</ele>
        <time>2025-05-08T06:32:57Z</time>
      </trkpt>
      <trkpt lat="37.231891024857759" lon="-5.911116013303399">
        <ele>39.549999999999997</ele>
        <time>2025-05-08T06:33:11Z</time>
      </trkpt>
      <trkpt lat="37.226931033656001" lon="-5.910738995298743">
        <ele>34.740000000000002</ele>
        <time>2025-05-08T06:33:31Z</time>
      </trkpt>
      <trkpt lat="37.223712969571352" lon="-5.910315038636327">
        <ele>33.299999999999997</ele>
        <time>2025-05-08T06:33:44Z</time>
      </trkpt>
      <trkpt lat="37.221504002809525" lon="-5.909943971782923">
        <ele>32.82</ele>
        <time>2025-05-08T06:33:53Z</time>
      </trkpt>
      <trkpt lat="37.219273997470737" lon="-5.909598972648382">
        <ele>34.259999999999998</ele>
        <time>2025-05-08T06:34:03Z</time>
      </trkpt>
      <trkpt lat="37.217225041240454" lon="-5.909346006810665">
        <ele>33.299999999999997</ele>
        <time>2025-05-08T06:34:11Z</time>
      </trkpt>
      <trkpt lat="37.214338984340429" lon="-5.909133022651076">
        <ele>31.859999999999999</ele>
        <time>2025-05-08T06:34:20Z</time>
      </trkpt>
      <trkpt lat="37.211539009585977" lon="-5.909045012667775">
        <ele>28.98</ele>
        <time>2025-05-08T06:34:30Z</time>
      </trkpt>
      <trkpt lat="37.208873983472586" lon="-5.909091029316187">
        <ele>29.460000000000001</ele>
        <time>2025-05-08T06:34:40Z</time>
      </trkpt>
      <trkpt lat="37.205849038437009" lon="-5.90931499376893">
        <ele>30.899999999999999</ele>
        <time>2025-05-08T06:34:52Z</time>
      </trkpt>
      <trkpt lat="37.203378975391388" lon="-5.909591009840369">
        <ele>28.98</ele>
        <time>2025-05-08T06:35:02Z</time>
      </trkpt>
      <trkpt lat="37.19992496073246" lon="-5.910123009234667">
        <ele>26.57</ele>
        <time>2025-05-08T06:35:16Z</time>
      </trkpt>
      <trkpt lat="37.196455020457506" lon="-5.910606980323792">
        <ele>24.649999999999999</ele>
        <time>2025-05-08T06:35:30Z</time>
      </trkpt>
      <trkpt lat="37.193961990997195" lon="-5.91086296364665">
        <ele>24.649999999999999</ele>
        <time>2025-05-08T06:35:40Z</time>
      </trkpt>
      <trkpt lat="37.190227014943957" lon="-5.911026997491717">
        <ele>22.73</ele>
        <time>2025-05-08T06:35:56Z</time>
      </trkpt>
      <trkpt lat="37.187997009605169" lon="-5.911057004705071">
        <ele>19.84</ele>
        <time>2025-05-08T06:36:05Z</time>
      </trkpt>
      <trkpt lat="37.184267984703183" lon="-5.910918032750487">
        <ele>19.84</ele>
        <time>2025-05-08T06:36:19Z</time>
      </trkpt>
      <trkpt lat="37.18127497471869" lon="-5.910703958943486">
        <ele>22.25</ele>
        <time>2025-05-08T06:36:31Z</time>
      </trkpt>
      <trkpt lat="37.179044969379902" lon="-5.910439006984234">
        <ele>22.25</ele>
        <time>2025-05-08T06:36:40Z</time>
      </trkpt>
      <trkpt lat="37.176318001002073" lon="-5.910039022564888">
        <ele>23.210000000000001</ele>
        <time>2025-05-08T06:36:51Z</time>
      </trkpt>
      <trkpt lat="37.174890981987119" lon="-5.909779015928507">
        <ele>21.289999999999999</ele>
        <time>2025-05-08T06:36:57Z</time>
      </trkpt>
      <trkpt lat="37.174247000366449" lon="-5.909650018438697">
        <ele>19.359999999999999</ele>
        <time>2025-05-08T06:37:00Z</time>
      </trkpt>
      <trkpt lat="37.172041973099113" lon="-5.909211980178952">
        <ele>15.039999999999999</ele>
        <time>2025-05-08T06:37:10Z</time>
      </trkpt>
      <trkpt lat="37.16902800835669" lon="-5.908725997433066">
        <ele>14.08</ele>
        <time>2025-05-08T06:37:24Z</time>
      </trkpt>
      <trkpt lat="37.166846031323075" lon="-5.908617032691836">
        <ele>15.52</ele>
        <time>2025-05-08T06:37:33Z</time>
      </trkpt>
      <trkpt lat="37.165094967931509" lon="-5.908680986613035">
        <ele>16</ele>
        <time>2025-05-08T06:37:40Z</time>
      </trkpt>
      <trkpt lat="37.162375962361693" lon="-5.909105027094483">
        <ele>15.52</ele>
        <time>2025-05-08T06:37:51Z</time>
      </trkpt>
      <trkpt lat="37.159709008410573" lon="-5.909826960414648">
        <ele>15.039999999999999</ele>
        <time>2025-05-08T06:38:02Z</time>
      </trkpt>
      <trkpt lat="37.157115982845426" lon="-5.91090596280992">
        <ele>10.23</ele>
        <time>2025-05-08T06:38:13Z</time>
      </trkpt>
      <trkpt lat="37.154123978689313" lon="-5.91242702677846">
        <ele>6.87</ele>
        <time>2025-05-08T06:38:26Z</time>
      </trkpt>
      <trkpt lat="37.151776039972901" lon="-5.913512986153364">
        <ele>7.83</ele>
        <time>2025-05-08T06:38:36Z</time>
      </trkpt>
      <trkpt lat="37.148951003327966" lon="-5.914678992703557">
        <ele>4.46</ele>
        <time>2025-05-08T06:38:48Z</time>
      </trkpt>
      <trkpt lat="37.145761018618941" lon="-5.915864026173949">
        <ele>3.02</ele>
        <time>2025-05-08T06:39:01Z</time>
      </trkpt>
      <trkpt lat="37.142640016973019" lon="-5.917208986356854">
        <ele>3.5</ele>
        <time>2025-05-08T06:39:13Z</time>
      </trkpt>
      <trkpt lat="37.14064403437078" lon="-5.918198972940445">
        <ele>5.42</ele>
        <time>2025-05-08T06:39:21Z</time>
      </trkpt>
      <trkpt lat="37.137353969737887" lon="-5.920050032436848">
        <ele>5.91</ele>
        <time>2025-05-08T06:39:35Z</time>
      </trkpt>
      <trkpt lat="37.134632030501962" lon="-5.921766981482506">
        <ele>4.94</ele>
        <time>2025-05-08T06:39:47Z</time>
      </trkpt>
      <trkpt lat="37.131637008860707" lon="-5.92364695854485">
        <ele>1.58</ele>
        <time>2025-05-08T06:40:00Z</time>
      </trkpt>
      <trkpt lat="37.128684986382723" lon="-5.925373965874314">
        <ele>0.62</ele>
        <time>2025-05-08T06:40:14Z</time>
      </trkpt>
      <trkpt lat="37.124535022303462" lon="-5.927492994815111">
        <ele>0.14</ele>
        <time>2025-05-08T06:40:31Z</time>
      </trkpt>
      <trkpt lat="37.120550014078617" lon="-5.929242968559265">
        <ele>0.62</ele>
        <time>2025-05-08T06:40:48Z</time>
      </trkpt>
      <trkpt lat="37.117144027724862" lon="-5.930553982034326">
        <ele>1.1</ele>
        <time>2025-05-08T06:41:01Z</time>
      </trkpt>
      <trkpt lat="37.114256964996457" lon="-5.931518990546465">
        <ele>1.1</ele>
        <time>2025-05-08T06:41:12Z</time>
      </trkpt>
      <trkpt lat="37.109962999820709" lon="-5.932713998481631">
        <ele>0.62</ele>
        <time>2025-05-08T06:41:28Z</time>
      </trkpt>
      <trkpt lat="37.10641703568399" lon="-5.933492006734014">
        <ele>2.54</ele>
        <time>2025-05-08T06:41:41Z</time>
      </trkpt>
      <trkpt lat="37.102860007435083" lon="-5.934119978919625">
        <ele>6.87</ele>
        <time>2025-05-08T06:41:54Z</time>
      </trkpt>
      <trkpt lat="37.098723035305738" lon="-5.934707969427109">
        <ele>8.310000000000001</ele>
        <time>2025-05-08T06:42:09Z</time>
      </trkpt>
      <trkpt lat="37.094868030399084" lon="-5.935280034318566">
        <ele>8.789999999999999</ele>
        <time>2025-05-08T06:42:23Z</time>
      </trkpt>
      <trkpt lat="37.092120023444295" lon="-5.935679012909532">
        <ele>7.83</ele>
        <time>2025-05-08T06:42:33Z</time>
      </trkpt>
      <trkpt lat="37.089094994589686" lon="-5.936116967350245">
        <ele>6.87</ele>
        <time>2025-05-08T06:42:45Z</time>
      </trkpt>
      <trkpt lat="37.085791015997529" lon="-5.936505971476436">
        <ele>7.83</ele>
        <time>2025-05-08T06:42:56Z</time>
      </trkpt>
      <trkpt lat="37.083385996520519" lon="-5.936725996434689">
        <ele>7.35</ele>
        <time>2025-05-08T06:43:05Z</time>
      </trkpt>
      <trkpt lat="37.081974986940622" lon="-5.936779975891113">
        <ele>7.35</ele>
        <time>2025-05-08T06:43:10Z</time>
      </trkpt>
      <trkpt lat="37.079343991354108" lon="-5.936786010861397">
        <ele>6.87</ele>
        <time>2025-05-08T06:43:20Z</time>
      </trkpt>
      <trkpt lat="37.075121020898223" lon="-5.936596998944879">
        <ele>7.83</ele>
        <time>2025-05-08T06:43:36Z</time>
      </trkpt>
      <trkpt lat="37.071287976577878" lon="-5.936125013977289">
        <ele>8.789999999999999</ele>
        <time>2025-05-08T06:43:51Z</time>
      </trkpt>
      <trkpt lat="37.06746599636972" lon="-5.935388999059796">
        <ele>8.310000000000001</ele>
        <time>2025-05-08T06:44:05Z</time>
      </trkpt>
      <trkpt lat="37.064471980556846" lon="-5.934642003849149">
        <ele>4.46</ele>
        <time>2025-05-08T06:44:16Z</time>
      </trkpt>
      <trkpt lat="37.062057992443442" lon="-5.933917975053191">
        <ele>2.06</ele>
        <time>2025-05-08T06:44:25Z</time>
      </trkpt>
      <trkpt lat="37.059135977178812" lon="-5.932894041761756">
        <ele>3.02</ele>
        <time>2025-05-08T06:44:36Z</time>
      </trkpt>
      <trkpt lat="37.05674503929913" lon="-5.931948982179165">
        <ele>4.46</ele>
        <time>2025-05-08T06:44:46Z</time>
      </trkpt>
      <trkpt lat="37.053067982196808" lon="-5.930415010079742">
        <ele>8.310000000000001</ele>
        <time>2025-05-08T06:44:59Z</time>
      </trkpt>
      <trkpt lat="37.050394993275404" lon="-5.92948897741735">
        <ele>9.75</ele>
        <time>2025-05-08T06:45:09Z</time>
      </trkpt>
      <trkpt lat="37.047158991917968" lon="-5.928571997210383">
        <ele>9.27</ele>
        <time>2025-05-08T06:45:21Z</time>
      </trkpt>
      <trkpt lat="37.04415500164032" lon="-5.927914017811418">
        <ele>9.75</ele>
        <time>2025-05-08T06:45:32Z</time>
      </trkpt>
      <trkpt lat="37.041135001927614" lon="-5.927474973723292">
        <ele>10.23</ele>
        <time>2025-05-08T06:45:43Z</time>
      </trkpt>
      <trkpt lat="37.036452032625675" lon="-5.927168028429151">
        <ele>9.27</ele>
        <time>2025-05-08T06:46:00Z</time>
      </trkpt>
      <trkpt lat="37.032566014677286" lon="-5.92729602009058">
        <ele>15.52</ele>
        <time>2025-05-08T06:46:15Z</time>
      </trkpt>
      <trkpt lat="37.028987025842071" lon="-5.927669014781714">
        <ele>10.710000000000001</ele>
        <time>2025-05-08T06:46:27Z</time>
      </trkpt>
      <trkpt lat="37.026532972231507" lon="-5.928084002807736">
        <ele>7.35</ele>
        <time>2025-05-08T06:46:36Z</time>
      </trkpt>
      <trkpt lat="37.024093000218272" lon="-5.928656989708543">
        <ele>6.39</ele>
        <time>2025-05-08T06:46:45Z</time>
      </trkpt>
      <trkpt lat="37.02086697332561" lon="-5.929604982957244">
        <ele>7.35</ele>
        <time>2025-05-08T06:46:57Z</time>
      </trkpt>
      <trkpt lat="37.018731012940407" lon="-5.930359018966556">
        <ele>7.83</ele>
        <time>2025-05-08T06:47:05Z</time>
      </trkpt>
      <trkpt lat="37.016645008698106" lon="-5.931214978918433">
        <ele>8.310000000000001</ele>
        <time>2025-05-08T06:47:13Z</time>
      </trkpt>
      <trkpt lat="37.01407503336668" lon="-5.932408981025219">
        <ele>9.27</ele>
        <time>2025-05-08T06:47:23Z</time>
      </trkpt>
      <trkpt lat="37.012541983276606" lon="-5.933191012591124">
        <ele>9.75</ele>
        <time>2025-05-08T06:47:29Z</time>
      </trkpt>
      <trkpt lat="37.010274007916451" lon="-5.934492973610759">
        <ele>13.119999999999999</ele>
        <time>2025-05-08T06:47:38Z</time>
      </trkpt>
      <trkpt lat="37.007820038124919" lon="-5.936071034520865">
        <ele>20.32</ele>
        <time>2025-05-08T06:47:48Z</time>
      </trkpt>
      <trkpt lat="37.004169970750809" lon="-5.938535984605551">
        <ele>33.780000000000001</ele>
        <time>2025-05-08T06:48:03Z</time>
      </trkpt>
      <trkpt lat="37.001609969884157" lon="-5.939912963658571">
        <ele>44.840000000000003</ele>
        <time>2025-05-08T06:48:13Z</time>
      </trkpt>
      <trkpt lat="36.998949972912669" lon="-5.940935974940658">
        <ele>49.159999999999997</ele>
        <time>2025-05-08T06:48:23Z</time>
      </trkpt>
      <trkpt lat="36.995944976806641" lon="-5.941669978201389">
        <ele>43.880000000000003</ele>
        <time>2025-05-08T06:48:34Z</time>
      </trkpt>
      <trkpt lat="36.992677040398121" lon="-5.94227003864944">
        <ele>33.299999999999997</ele>
        <time>2025-05-08T06:48:46Z</time>
      </trkpt>
      <trkpt lat="36.990027017891407" lon="-5.943132033571601">
        <ele>28.98</ele>
        <time>2025-05-08T06:48:56Z</time>
      </trkpt>
      <trkpt lat="36.987468022853136" lon="-5.944413961842656">
        <ele>26.57</ele>
        <time>2025-05-08T06:49:06Z</time>
      </trkpt>
      <trkpt lat="36.98502603918314" lon="-5.94609503634274">
        <ele>23.210000000000001</ele>
        <time>2025-05-08T06:49:16Z</time>
      </trkpt>
      <trkpt lat="36.982570979744196" lon="-5.94828799366951">
        <ele>19.359999999999999</ele>
        <time>2025-05-08T06:49:27Z</time>
      </trkpt>
      <trkpt lat="36.979415025562048" lon="-5.951656010001898">
        <ele>17.920000000000002</ele>
        <time>2025-05-08T06:49:42Z</time>
      </trkpt>
      <trkpt lat="36.977613000199199" lon="-5.953243961557746">
        <ele>15.039999999999999</ele>
        <time>2025-05-08T06:49:50Z</time>
      </trkpt>
      <trkpt lat="36.975160958245397" lon="-5.954868039116263">
        <ele>13.119999999999999</ele>
        <time>2025-05-08T06:50:00Z</time>
      </trkpt>
      <trkpt lat="36.972325025126338" lon="-5.956229008734226">
        <ele>11.67</ele>
        <time>2025-05-08T06:50:11Z</time>
      </trkpt>
      <trkpt lat="36.969652036204934" lon="-5.957065019756556">
        <ele>10.23</ele>
        <time>2025-05-08T06:50:21Z</time>
      </trkpt>
      <trkpt lat="36.967183984816074" lon="-5.957423010841012">
        <ele>8.789999999999999</ele>
        <time>2025-05-08T06:50:30Z</time>
      </trkpt>
      <trkpt lat="36.964134983718395" lon="-5.957571035251021">
        <ele>8.789999999999999</ele>
        <time>2025-05-08T06:50:41Z</time>
      </trkpt>
      <trkpt lat="36.961385970935225" lon="-5.957799023017287">
        <ele>8.310000000000001</ele>
        <time>2025-05-08T06:50:51Z</time>
      </trkpt>
      <trkpt lat="36.958421040326357" lon="-5.958559010177851">
        <ele>11.19</ele>
        <time>2025-05-08T06:51:02Z</time>
      </trkpt>
      <trkpt lat="36.955538000911474" lon="-5.959791988134384">
        <ele>18.399999999999999</ele>
        <time>2025-05-08T06:51:13Z</time>
      </trkpt>
      <trkpt lat="36.953054023906589" lon="-5.961359990760684">
        <ele>22.73</ele>
        <time>2025-05-08T06:51:23Z</time>
      </trkpt>
      <trkpt lat="36.950471978634596" lon="-5.963386986404657">
        <ele>21.289999999999999</ele>
        <time>2025-05-08T06:51:34Z</time>
      </trkpt>
      <trkpt lat="36.948569035157561" lon="-5.964768994599581">
        <ele>18.399999999999999</ele>
        <time>2025-05-08T06:51:42Z</time>
      </trkpt>
      <trkpt lat="36.946086985990405" lon="-5.966281006112695">
        <ele>11.67</ele>
        <time>2025-05-08T06:51:52Z</time>
      </trkpt>
      <trkpt lat="36.943502007052302" lon="-5.967523958534002">
        <ele>7.35</ele>
        <time>2025-05-08T06:52:02Z</time>
      </trkpt>
      <trkpt lat="36.940907975658774" lon="-5.968454014509916">
        <ele>7.83</ele>
        <time>2025-05-08T06:52:12Z</time>
      </trkpt>
      <trkpt lat="36.939064040780067" lon="-5.968933962285519">
        <ele>10.23</ele>
        <time>2025-05-08T06:52:19Z</time>
      </trkpt>
      <trkpt lat="36.936595989391208" lon="-5.969351967796683">
        <ele>17.440000000000001</ele>
        <time>2025-05-08T06:52:28Z</time>
      </trkpt>
      <trkpt lat="36.932994034141302" lon="-5.969532011076808">
        <ele>20.809999999999999</ele>
        <time>2025-05-08T06:52:41Z</time>
      </trkpt>
      <trkpt lat="36.930238986387849" lon="-5.969364959746599">
        <ele>24.170000000000002</ele>
        <time>2025-05-08T06:52:51Z</time>
      </trkpt>
      <trkpt lat="36.926914975047112" lon="-5.96927703358233">
        <ele>27.530000000000001</ele>
        <time>2025-05-08T06:53:03Z</time>
      </trkpt>
      <trkpt lat="36.922771967947483" lon="-5.96957802772522">
        <ele>26.09</ele>
        <time>2025-05-08T06:53:18Z</time>
      </trkpt>
      <trkpt lat="36.918354034423828" lon="-5.970050012692809">
        <ele>26.57</ele>
        <time>2025-05-08T06:53:34Z</time>
      </trkpt>
      <trkpt lat="36.915030023083091" lon="-5.97018102183938">
        <ele>26.09</ele>
        <time>2025-05-08T06:53:46Z</time>
      </trkpt>
      <trkpt lat="36.911702994257212" lon="-5.970039032399654">
        <ele>28.02</ele>
        <time>2025-05-08T06:53:58Z</time>
      </trkpt>
      <trkpt lat="36.907572979107499" lon="-5.969824958592653">
        <ele>28.5</ele>
        <time>2025-05-08T06:54:13Z</time>
      </trkpt>
      <trkpt lat="36.905101994052529" lon="-5.970040038228035">
        <ele>26.09</ele>
        <time>2025-05-08T06:54:22Z</time>
      </trkpt>
      <trkpt lat="36.902102027088404" lon="-5.970634985715151">
        <ele>26.09</ele>
        <time>2025-05-08T06:54:33Z</time>
      </trkpt>
      <trkpt lat="36.899187974631786" lon="-5.971677023917437">
        <ele>26.57</ele>
        <time>2025-05-08T06:54:44Z</time>
      </trkpt>
      <trkpt lat="36.896128999069333" lon="-5.973238991573453">
        <ele>28.98</ele>
        <time>2025-05-08T06:54:56Z</time>
      </trkpt>
      <trkpt lat="36.892788978293538" lon="-5.975655997171998">
        <ele>33.299999999999997</ele>
        <time>2025-05-08T06:55:10Z</time>
      </trkpt>
      <trkpt lat="36.890569031238556" lon="-5.977748036384583">
        <ele>35.710000000000001</ele>
        <time>2025-05-08T06:55:20Z</time>
      </trkpt>
      <trkpt lat="36.888370960950851" lon="-5.98034399561584">
        <ele>37.630000000000003</ele>
        <time>2025-05-08T06:55:31Z</time>
      </trkpt>
      <trkpt lat="36.885669976472855" lon="-5.984246022999287">
        <ele>40.509999999999998</ele>
        <time>2025-05-08T06:55:46Z</time>
      </trkpt>
      <trkpt lat="36.883343998342752" lon="-5.987194022163749">
        <ele>43.399999999999999</ele>
        <time>2025-05-08T06:55:58Z</time>
      </trkpt>
      <trkpt lat="36.881372993811965" lon="-5.989096965640783">
        <ele>47.240000000000002</ele>
        <time>2025-05-08T06:56:07Z</time>
      </trkpt>
      <trkpt lat="36.879251031205058" lon="-5.990740992128849">
        <ele>50.609999999999999</ele>
        <time>2025-05-08T06:56:17Z</time>
      </trkpt>
      <trkpt lat="36.876736041158438" lon="-5.992207992821932">
        <ele>50.130000000000003</ele>
        <time>2025-05-08T06:56:26Z</time>
      </trkpt>
      <trkpt lat="36.875426033511758" lon="-5.992791960015893">
        <ele>53.009999999999998</ele>
        <time>2025-05-08T06:56:32Z</time>
      </trkpt>
      <trkpt lat="36.87302403151989" lon="-5.993579020723701">
        <ele>54.93</ele>
        <time>2025-05-08T06:56:40Z</time>
      </trkpt>
      <trkpt lat="36.870577018707991" lon="-5.994032984599471">
        <ele>56.369999999999997</ele>
        <time>2025-05-08T06:56:49Z</time>
      </trkpt>
      <trkpt lat="36.86780596151948" lon="-5.994162987917662">
        <ele>59.740000000000002</ele>
        <time>2025-05-08T06:56:59Z</time>
      </trkpt>
      <trkpt lat="36.865319972857833" lon="-5.994215961545706">
        <ele>61.659999999999997</ele>
        <time>2025-05-08T06:57:08Z</time>
      </trkpt>
      <trkpt lat="36.86284102499485" lon="-5.994551992043853">
        <ele>65.510000000000005</ele>
        <time>2025-05-08T06:57:17Z</time>
      </trkpt>
      <trkpt lat="36.860689977183938" lon="-5.99506102502346">
        <ele>67.909999999999997</ele>
        <time>2025-05-08T06:57:25Z</time>
      </trkpt>
      <trkpt lat="36.858294010162354" lon="-5.995912961661816">
        <ele>71.760000000000005</ele>
        <time>2025-05-08T06:57:34Z</time>
      </trkpt>
      <trkpt lat="36.855715988203883" lon="-5.997168989852071">
        <ele>74.640000000000001</ele>
        <time>2025-05-08T06:57:44Z</time>
      </trkpt>
      <trkpt lat="36.853253971785307" lon="-5.998717965558171">
        <ele>77.519999999999996</ele>
        <time>2025-05-08T06:57:54Z</time>
      </trkpt>
      <trkpt lat="36.850944003090262" lon="-6.000597020611167">
        <ele>79.450000000000003</ele>
        <time>2025-05-08T06:58:05Z</time>
      </trkpt>
      <trkpt lat="36.848392970860004" lon="-6.003218963742256">
        <ele>82.329999999999998</ele>
        <time>2025-05-08T06:58:16Z</time>
      </trkpt>
      <trkpt lat="36.846069004386663" lon="-6.005662959069014">
        <ele>83.769999999999996</ele>
        <time>2025-05-08T06:58:27Z</time>
      </trkpt>
      <trkpt lat="36.843299958854914" lon="-6.007986003533006">
        <ele>76.079999999999998</ele>
        <time>2025-05-08T06:58:39Z</time>
      </trkpt>
      <trkpt lat="36.841108007356524" lon="-6.00945501588285">
        <ele>68.870000000000005</ele>
        <time>2025-05-08T06:58:48Z</time>
      </trkpt>
      <trkpt lat="36.839368008077145" lon="-6.010481966659427">
        <ele>63.100000000000001</ele>
        <time>2025-05-08T06:58:55Z</time>
      </trkpt>
      <trkpt lat="36.836944967508316" lon="-6.012111995369196">
        <ele>58.780000000000001</ele>
        <time>2025-05-08T06:59:05Z</time>
      </trkpt>
      <trkpt lat="36.835156017914414" lon="-6.013717968016863">
        <ele>56.859999999999999</ele>
        <time>2025-05-08T06:59:14Z</time>
      </trkpt>
      <trkpt lat="36.833532024174929" lon="-6.015606997534633">
        <ele>56.369999999999997</ele>
        <time>2025-05-08T06:59:21Z</time>
      </trkpt>
      <trkpt lat="36.831697979941964" lon="-6.01817898452282">
        <ele>53.490000000000002</ele>
        <time>2025-05-08T06:59:31Z</time>
      </trkpt>
      <trkpt lat="36.82919698767364" lon="-6.022310005500913">
        <ele>53.009999999999998</ele>
        <time>2025-05-08T06:59:46Z</time>
      </trkpt>
      <trkpt lat="36.827575005590916" lon="-6.025523040443659">
        <ele>48.200000000000003</ele>
        <time>2025-05-08T06:59:57Z</time>
      </trkpt>
      <trkpt lat="36.826182017102838" lon="-6.028505992144346">
        <ele>42.439999999999998</ele>
        <time>2025-05-08T07:00:07Z</time>
      </trkpt>
      <trkpt lat="36.824733959510922" lon="-6.031019976362586">
        <ele>39.07</ele>
        <time>2025-05-08T07:00:16Z</time>
      </trkpt>
      <trkpt lat="36.82292397134006" lon="-6.033159960061312">
        <ele>37.149999999999999</ele>
        <time>2025-05-08T07:00:25Z</time>
      </trkpt>
      <trkpt lat="36.8208600115031" lon="-6.034862995147705">
        <ele>36.189999999999998</ele>
        <time>2025-05-08T07:00:34Z</time>
      </trkpt>
      <trkpt lat="36.818556999787688" lon="-6.036046016961336">
        <ele>37.630000000000003</ele>
        <time>2025-05-08T07:00:43Z</time>
      </trkpt>
      <trkpt lat="36.816214006394148" lon="-6.036837017163634">
        <ele>37.149999999999999</ele>
        <time>2025-05-08T07:00:52Z</time>
      </trkpt>
      <trkpt lat="36.813718965277076" lon="-6.037717033177614">
        <ele>33.780000000000001</ele>
        <time>2025-05-08T07:01:02Z</time>
      </trkpt>
      <trkpt lat="36.811068020761013" lon="-6.038857977837324">
        <ele>26.57</ele>
        <time>2025-05-08T07:01:14Z</time>
      </trkpt>
      <trkpt lat="36.80848496966064" lon="-6.040009986609221">
        <ele>24.170000000000002</ele>
        <time>2025-05-08T07:01:24Z</time>
      </trkpt>
      <trkpt lat="36.806233003735542" lon="-6.04086896404624">
        <ele>24.170000000000002</ele>
        <time>2025-05-08T07:01:33Z</time>
      </trkpt>
      <trkpt lat="36.803546017035842" lon="-6.041678991168737">
        <ele>26.09</ele>
        <time>2025-05-08T07:01:43Z</time>
      </trkpt>
      <trkpt lat="36.80147803388536" lon="-6.042165979743004">
        <ele>26.57</ele>
        <time>2025-05-08T07:01:50Z</time>
      </trkpt>
      <trkpt lat="36.799270994961262" lon="-6.042537968605757">
        <ele>26.57</ele>
        <time>2025-05-08T07:01:58Z</time>
      </trkpt>
      <trkpt lat="36.79707502014935" lon="-6.042777020484209">
        <ele>28.02</ele>
        <time>2025-05-08T07:02:06Z</time>
      </trkpt>
      <trkpt lat="36.79486102424562" lon="-6.042926972731948">
        <ele>28.98</ele>
        <time>2025-05-08T07:02:15Z</time>
      </trkpt>
      <trkpt lat="36.791283963248134" lon="-6.043300973251462">
        <ele>36.189999999999998</ele>
        <time>2025-05-08T07:02:27Z</time>
      </trkpt>
      <trkpt lat="36.788273015990853" lon="-6.04370498098433">
        <ele>41.950000000000003</ele>
        <time>2025-05-08T07:02:38Z</time>
      </trkpt>
      <trkpt lat="36.784928971901536" lon="-6.04385401122272">
        <ele>46.280000000000001</ele>
        <time>2025-05-08T07:02:50Z</time>
      </trkpt>
      <trkpt lat="36.781337996944785" lon="-6.043670028448105">
        <ele>43.880000000000003</ele>
        <time>2025-05-08T07:03:03Z</time>
      </trkpt>
      <trkpt lat="36.778589989989996" lon="-6.043300973251462">
        <ele>42.920000000000002</ele>
        <time>2025-05-08T07:03:14Z</time>
      </trkpt>
      <trkpt lat="36.775027010589838" lon="-6.0426289960742">
        <ele>41.469999999999999</ele>
        <time>2025-05-08T07:03:26Z</time>
      </trkpt>
      <trkpt lat="36.772271040827036" lon="-6.04222297668457">
        <ele>38.109999999999999</ele>
        <time>2025-05-08T07:03:37Z</time>
      </trkpt>
      <trkpt lat="36.768950968980789" lon="-6.042019966989756">
        <ele>34.259999999999998</ele>
        <time>2025-05-08T07:03:48Z</time>
      </trkpt>
      <trkpt lat="36.765360999852419" lon="-6.042067995294929">
        <ele>30.899999999999999</ele>
        <time>2025-05-08T07:04:01Z</time>
      </trkpt>
      <trkpt lat="36.762323984876275" lon="-6.04232900775969">
        <ele>28.98</ele>
        <time>2025-05-08T07:04:12Z</time>
      </trkpt>
      <trkpt lat="36.758478032425046" lon="-6.042967960238457">
        <ele>26.09</ele>
        <time>2025-05-08T07:04:26Z</time>
      </trkpt>
      <trkpt lat="36.755784004926682" lon="-6.043651001527906">
        <ele>25.129999999999999</ele>
        <time>2025-05-08T07:04:36Z</time>
      </trkpt>
      <trkpt lat="36.753754997625947" lon="-6.044258018955588">
        <ele>26.09</ele>
        <time>2025-05-08T07:04:44Z</time>
      </trkpt>
      <trkpt lat="36.751364981755614" lon="-6.045153960585594">
        <ele>25.129999999999999</ele>
        <time>2025-05-08T07:04:53Z</time>
      </trkpt>
      <trkpt lat="36.749030034989119" lon="-6.046129027381539">
        <ele>23.690000000000001</ele>
        <time>2025-05-08T07:05:02Z</time>
      </trkpt>
      <trkpt lat="36.746732974424958" lon="-6.047284975647926">
        <ele>19.359999999999999</ele>
        <time>2025-05-08T07:05:11Z</time>
      </trkpt>
      <trkpt lat="36.744451001286507" lon="-6.048533041030169">
        <ele>14.56</ele>
        <time>2025-05-08T07:05:20Z</time>
      </trkpt>
      <trkpt lat="36.741999965161085" lon="-6.050104983150959">
        <ele>13.119999999999999</ele>
        <time>2025-05-08T07:05:30Z</time>
      </trkpt>
      <trkpt lat="36.739343991503119" lon="-6.052007004618645">
        <ele>11.67</ele>
        <time>2025-05-08T07:05:41Z</time>
      </trkpt>
      <trkpt lat="36.736347964033484" lon="-6.054460974410176">
        <ele>11.67</ele>
        <time>2025-05-08T07:05:54Z</time>
      </trkpt>
      <trkpt lat="36.734569994732738" lon="-6.056108018383384">
        <ele>8.789999999999999</ele>
        <time>2025-05-08T07:06:02Z</time>
      </trkpt>
      <trkpt lat="36.732402015477419" lon="-6.058199973776937">
        <ele>3.02</ele>
        <time>2025-05-08T07:06:12Z</time>
      </trkpt>
      <trkpt lat="36.729731038212776" lon="-6.060652015730739">
        <ele>3.98</ele>
        <time>2025-05-08T07:06:24Z</time>
      </trkpt>
      <trkpt lat="36.726739034056664" lon="-6.063171029090881">
        <ele>7.35</ele>
        <time>2025-05-08T07:06:37Z</time>
      </trkpt>
      <trkpt lat="36.723898993805051" lon="-6.065315958112478">
        <ele>10.23</ele>
        <time>2025-05-08T07:06:49Z</time>
      </trkpt>
      <trkpt lat="36.721973000094295" lon="-6.066678017377853">
        <ele>8.310000000000001</ele>
        <time>2025-05-08T07:06:57Z</time>
      </trkpt>
      <trkpt lat="36.719769984483719" lon="-6.068077040836215">
        <ele>5.42</ele>
        <time>2025-05-08T07:07:06Z</time>
      </trkpt>
      <trkpt lat="36.716987024992704" lon="-6.06969902291894">
        <ele>3.98</ele>
        <time>2025-05-08T07:07:17Z</time>
      </trkpt>
      <trkpt lat="36.713942969217896" lon="-6.071271970868111">
        <ele>3.5</ele>
        <time>2025-05-08T07:07:29Z</time>
      </trkpt>
      <trkpt lat="36.711357990279794" lon="-6.072454992681742">
        <ele>0.62</ele>
        <time>2025-05-08T07:07:39Z</time>
      </trkpt>
      <trkpt lat="36.708459025248885" lon="-6.073624016717076">
        <ele>0.62</ele>
        <time>2025-05-08T07:07:50Z</time>
      </trkpt>
      <trkpt lat="36.705803973600268" lon="-6.074517024680972">
        <ele>0.14</ele>
        <time>2025-05-08T07:08:00Z</time>
      </trkpt>
      <trkpt lat="36.702565960586071" lon="-6.075463006272912">
        <ele>3.02</ele>
        <time>2025-05-08T07:08:12Z</time>
      </trkpt>
      <trkpt lat="36.698212986811996" lon="-6.076542008668184">
        <ele>3.5</ele>
        <time>2025-05-08T07:08:28Z</time>
      </trkpt>
      <trkpt lat="36.69596697203815" lon="-6.077222032472491">
        <ele>3.02</ele>
        <time>2025-05-08T07:08:37Z</time>
      </trkpt>
      <trkpt lat="36.693036993965507" lon="-6.078275972977281">
        <ele>5.42</ele>
        <time>2025-05-08T07:08:48Z</time>
      </trkpt>
      <trkpt lat="36.690383031964302" lon="-6.079533006995916">
        <ele>8.789999999999999</ele>
        <time>2025-05-08T07:08:58Z</time>
      </trkpt>
      <trkpt lat="36.687764022499323" lon="-6.080965977162123">
        <ele>10.23</ele>
        <time>2025-05-08T07:09:08Z</time>
      </trkpt>
      <trkpt lat="36.685534017160535" lon="-6.082399031147361">
        <ele>12.630000000000001</ele>
        <time>2025-05-08T07:09:17Z</time>
      </trkpt>
      <trkpt lat="36.682418966665864" lon="-6.084599029272795">
        <ele>10.710000000000001</ele>
        <time>2025-05-08T07:09:30Z</time>
      </trkpt>
      <trkpt lat="36.67972301132977" lon="-6.086283037438989">
        <ele>6.87</ele>
        <time>2025-05-08T07:09:42Z</time>
      </trkpt>
      <trkpt lat="36.676849024370313" lon="-6.087487014010549">
        <ele>6.87</ele>
        <time>2025-05-08T07:09:52Z</time>
      </trkpt>
      <trkpt lat="36.674412991851568" lon="-6.088106017559767">
        <ele>5.42</ele>
        <time>2025-05-08T07:10:01Z</time>
      </trkpt>
      <trkpt lat="36.671947035938501" lon="-6.088403994217515">
        <ele>5.91</ele>
        <time>2025-05-08T07:10:10Z</time>
      </trkpt>
      <trkpt lat="36.668886970728636" lon="-6.088300980627537">
        <ele>6.87</ele>
        <time>2025-05-08T07:10:21Z</time>
      </trkpt>
      <trkpt lat="36.666421014815569" lon="-6.087825978174806">
        <ele>6.39</ele>
        <time>2025-05-08T07:10:30Z</time>
      </trkpt>
      <trkpt lat="36.664009960368276" lon="-6.087046964094043">
        <ele>9.27</ele>
        <time>2025-05-08T07:10:39Z</time>
      </trkpt>
      <trkpt lat="36.661390028893948" lon="-6.085973996669054">
        <ele>7.83</ele>
        <time>2025-05-08T07:10:49Z</time>
      </trkpt>
      <trkpt lat="36.659249039366841" lon="-6.085259020328522">
        <ele>4.46</ele>
        <time>2025-05-08T07:10:57Z</time>
      </trkpt>
      <trkpt lat="36.65677897632122" lon="-6.084899017587304">
        <ele>3.02</ele>
        <time>2025-05-08T07:11:06Z</time>
      </trkpt>
      <trkpt lat="36.654292987659574" lon="-6.084954002872109">
        <ele>1.1</ele>
        <time>2025-05-08T07:11:15Z</time>
      </trkpt>
      <trkpt lat="36.652111010625958" lon="-6.085363961756229">
        <ele>1.58</ele>
        <time>2025-05-08T07:11:23Z</time>
      </trkpt>
      <trkpt lat="36.64943098090589" lon="-6.086206007748842">
        <ele>3.98</ele>
        <time>2025-05-08T07:11:33Z</time>
      </trkpt>
      <trkpt lat="36.646748017519712" lon="-6.087076971307397">
        <ele>7.35</ele>
        <time>2025-05-08T07:11:43Z</time>
      </trkpt>
      <trkpt lat="36.64442103356123" lon="-6.08766102232039">
        <ele>8.310000000000001</ele>
        <time>2025-05-08T07:11:52Z</time>
      </trkpt>
      <trkpt lat="36.641378989443183" lon="-6.088196961209178">
        <ele>8.789999999999999</ele>
        <time>2025-05-08T07:12:04Z</time>
      </trkpt>
      <trkpt lat="36.638770960271358" lon="-6.088441964238882">
        <ele>7.83</ele>
        <time>2025-05-08T07:12:15Z</time>
      </trkpt>
      <trkpt lat="36.635835031047463" lon="-6.088485969230533">
        <ele>7.35</ele>
        <time>2025-05-08T07:12:25Z</time>
      </trkpt>
      <trkpt lat="36.632790975272655" lon="-6.088205007836223">
        <ele>9.75</ele>
        <time>2025-05-08T07:12:36Z</time>
      </trkpt>
      <trkpt lat="36.630626013502479" lon="-6.087595978751779">
        <ele>9.75</ele>
        <time>2025-05-08T07:12:44Z</time>
      </trkpt>
      <trkpt lat="36.628021001815796" lon="-6.086408011615276">
        <ele>9.27</ele>
        <time>2025-05-08T07:12:54Z</time>
      </trkpt>
      <trkpt lat="36.626175977289677" lon="-6.085667973384261">
        <ele>8.310000000000001</ele>
        <time>2025-05-08T07:13:01Z</time>
      </trkpt>
      <trkpt lat="36.624001963064075" lon="-6.085177967324853">
        <ele>7.83</ele>
        <time>2025-05-08T07:13:09Z</time>
      </trkpt>
      <trkpt lat="36.620708964765072" lon="-6.084602968767285">
        <ele>10.23</ele>
        <time>2025-05-08T07:13:21Z</time>
      </trkpt>
      <trkpt lat="36.618550959974527" lon="-6.084066024050117">
        <ele>11.67</ele>
        <time>2025-05-08T07:13:29Z</time>
      </trkpt>
      <trkpt lat="36.61610503681004" lon="-6.083508040755987">
        <ele>14.08</ele>
        <time>2025-05-08T07:13:38Z</time>
      </trkpt>
      <trkpt lat="36.613902021199465" lon="-6.083267983049154">
        <ele>20.32</ele>
        <time>2025-05-08T07:13:46Z</time>
      </trkpt>
      <trkpt lat="36.610860982909799" lon="-6.083367979153991">
        <ele>24.649999999999999</ele>
        <time>2025-05-08T07:13:57Z</time>
      </trkpt>
      <trkpt lat="36.607861015945673" lon="-6.084000980481505">
        <ele>26.09</ele>
        <time>2025-05-08T07:14:08Z</time>
      </trkpt>
      <trkpt lat="36.604960039258003" lon="-6.085117030888796">
        <ele>26.09</ele>
        <time>2025-05-08T07:14:19Z</time>
      </trkpt>
      <trkpt lat="36.602332983165979" lon="-6.086084973067045">
        <ele>31.859999999999999</ele>
        <time>2025-05-08T07:14:29Z</time>
      </trkpt>
      <trkpt lat="36.600134996697307" lon="-6.086256969720125">
        <ele>38.590000000000003</ele>
        <time>2025-05-08T07:14:37Z</time>
      </trkpt>
      <trkpt lat="36.597955031320453" lon="-6.085804011672735">
        <ele>46.759999999999998</ele>
        <time>2025-05-08T07:14:45Z</time>
      </trkpt>
      <trkpt lat="36.59575997851789" lon="-6.085383994504809">
        <ele>54.93</ele>
        <time>2025-05-08T07:14:53Z</time>
      </trkpt>
      <trkpt lat="36.593560986220837" lon="-6.085481978952885">
        <ele>61.18</ele>
        <time>2025-05-08T07:15:01Z</time>
      </trkpt>
      <trkpt lat="36.591405998915434" lon="-6.086110034957528">
        <ele>65.989999999999995</ele>
        <time>2025-05-08T07:15:09Z</time>
      </trkpt>
      <trkpt lat="36.589397024363279" lon="-6.087303031235933">
        <ele>66.950000000000003</ele>
        <time>2025-05-08T07:15:17Z</time>
      </trkpt>
      <trkpt lat="36.587022012099624" lon="-6.089147971943021">
        <ele>66.469999999999999</ele>
        <time>2025-05-08T07:15:27Z</time>
      </trkpt>
      <trkpt lat="36.585185034200549" lon="-6.090717986226082">
        <ele>64.069999999999993</ele>
        <time>2025-05-08T07:15:35Z</time>
      </trkpt>
      <trkpt lat="36.582999033853412" lon="-6.092797033488751">
        <ele>55.409999999999997</ele>
        <time>2025-05-08T07:15:45Z</time>
      </trkpt>
      <trkpt lat="36.581512000411749" lon="-6.094351960346103">
        <ele>48.200000000000003</ele>
        <time>2025-05-08T07:15:52Z</time>
      </trkpt>
      <trkpt lat="36.579273026436567" lon="-6.0969009809196">
        <ele>42.439999999999998</ele>
        <time>2025-05-08T07:16:03Z</time>
      </trkpt>
      <trkpt lat="36.577541995793581" lon="-6.099106008186936">
        <ele>40.990000000000002</ele>
        <time>2025-05-08T07:16:12Z</time>
      </trkpt>
      <trkpt lat="36.576089998707175" lon="-6.101003000512719">
        <ele>40.990000000000002</ele>
        <time>2025-05-08T07:16:19Z</time>
      </trkpt>
      <trkpt lat="36.574708996340632" lon="-6.10237997956574">
        <ele>37.149999999999999</ele>
        <time>2025-05-08T07:16:25Z</time>
      </trkpt>
      <trkpt lat="36.572996992617846" lon="-6.103460993617773">
        <ele>29.460000000000001</ele>
        <time>2025-05-08T07:16:32Z</time>
      </trkpt>
      <trkpt lat="36.57115900889039" lon="-6.104071028530598">
        <ele>20.809999999999999</ele>
        <time>2025-05-08T07:16:39Z</time>
      </trkpt>
      <trkpt lat="36.569248018786311" lon="-6.104320976883173">
        <ele>11.19</ele>
        <time>2025-05-08T07:16:46Z</time>
      </trkpt>
      <trkpt lat="36.56651996076107" lon="-6.104758009314537">
        <ele>4.94</ele>
        <time>2025-05-08T07:16:56Z</time>
      </trkpt>
      <trkpt lat="36.563869016245008" lon="-6.105700973421335">
        <ele>7.35</ele>
        <time>2025-05-08T07:17:06Z</time>
      </trkpt>
      <trkpt lat="36.561351008713245" lon="-6.107121035456657">
        <ele>10.23</ele>
        <time>2025-05-08T07:17:16Z</time>
      </trkpt>
      <trkpt lat="36.559259975329041" lon="-6.10878299921751">
        <ele>12.630000000000001</ele>
        <time>2025-05-08T07:17:25Z</time>
      </trkpt>
      <trkpt lat="36.5580740198493" lon="-6.110012037679553">
        <ele>14.08</ele>
        <time>2025-05-08T07:17:31Z</time>
      </trkpt>
      <trkpt lat="36.556112989783287" lon="-6.112390989437699">
        <ele>16.960000000000001</ele>
        <time>2025-05-08T07:17:41Z</time>
      </trkpt>
      <trkpt lat="36.554551022127271" lon="-6.114504989236593">
        <ele>17.920000000000002</ele>
        <time>2025-05-08T07:17:49Z</time>
      </trkpt>
      <trkpt lat="36.552787972614169" lon="-6.117209997028112">
        <ele>17.920000000000002</ele>
        <time>2025-05-08T07:17:59Z</time>
      </trkpt>
      <trkpt lat="36.551424991339445" lon="-6.119566988199949">
        <ele>17.920000000000002</ele>
        <time>2025-05-08T07:18:08Z</time>
      </trkpt>
      <trkpt lat="36.549784988164902" lon="-6.12276996485889">
        <ele>18.399999999999999</ele>
        <time>2025-05-08T07:18:20Z</time>
      </trkpt>
      <trkpt lat="36.549080992117524" lon="-6.124311983585358">
        <ele>19.359999999999999</ele>
        <time>2025-05-08T07:18:26Z</time>
      </trkpt>
      <trkpt lat="36.54834195971489" lon="-6.126117026433349">
        <ele>17.440000000000001</ele>
        <time>2025-05-08T07:18:34Z</time>
      </trkpt>
      <trkpt lat="36.547033041715622" lon="-6.129660978913307">
        <ele>13.6</ele>
        <time>2025-05-08T07:18:50Z</time>
      </trkpt>
      <trkpt lat="36.54606300406158" lon="-6.13282598555088">
        <ele>13.119999999999999</ele>
        <time>2025-05-08T07:19:04Z</time>
      </trkpt>
      <trkpt lat="36.545184999704361" lon="-6.136119989678264">
        <ele>15.52</ele>
        <time>2025-05-08T07:19:18Z</time>
      </trkpt>
      <trkpt lat="36.544490978121758" lon="-6.138997999951243">
        <ele>19.84</ele>
        <time>2025-05-08T07:19:29Z</time>
      </trkpt>
      <trkpt lat="36.543809026479721" lon="-6.142025962471962">
        <ele>23.210000000000001</ele>
        <time>2025-05-08T07:19:40Z</time>
      </trkpt>
      <trkpt lat="36.543216006830335" lon="-6.145189041271806">
        <ele>28.98</ele>
        <time>2025-05-08T07:19:51Z</time>
      </trkpt>
      <trkpt lat="36.54266900382936" lon="-6.148276012390852">
        <ele>29.940000000000001</ele>
        <time>2025-05-08T07:20:02Z</time>
      </trkpt>
      <trkpt lat="36.542324004694819" lon="-6.150752026587725">
        <ele>27.050000000000001</ele>
        <time>2025-05-08T07:20:12Z</time>
      </trkpt>
      <trkpt lat="36.542041031643748" lon="-6.15299804136157">
        <ele>22.73</ele>
        <time>2025-05-08T07:20:21Z</time>
      </trkpt>
      <trkpt lat="36.541758980602026" lon="-6.155433990061283">
        <ele>19.84</ele>
        <time>2025-05-08T07:20:31Z</time>
      </trkpt>
      <trkpt lat="36.541513977572322" lon="-6.157994996756315">
        <ele>17.440000000000001</ele>
        <time>2025-05-08T07:20:41Z</time>
      </trkpt>
      <trkpt lat="36.541353967040777" lon="-6.159974969923496">
        <ele>15.039999999999999</ele>
        <time>2025-05-08T07:20:49Z</time>
      </trkpt>
      <trkpt lat="36.541192028671503" lon="-6.162772011011839">
        <ele>11.19</ele>
        <time>2025-05-08T07:21:01Z</time>
      </trkpt>
      <trkpt lat="36.541061019524932" lon="-6.165969036519527">
        <ele>5.91</ele>
        <time>2025-05-08T07:21:15Z</time>
      </trkpt>
      <trkpt lat="36.541021037846804" lon="-6.168487966060638">
        <ele>3.02</ele>
        <time>2025-05-08T07:21:27Z</time>
      </trkpt>
      <trkpt lat="36.541021037846804" lon="-6.169014014303684">
        <ele>3.02</ele>
        <time>2025-05-08T07:21:30Z</time>
      </trkpt>
      <trkpt lat="36.541021037846804" lon="-6.169162038713694">
        <ele>2.54</ele>
        <time>2025-05-08T07:21:31Z</time>
      </trkpt>
      <trkpt lat="36.541262017562985" lon="-6.169226998463273">
        <ele>2.54</ele>
        <time>2025-05-08T07:21:32Z</time>
      </trkpt>
      <trkpt lat="36.541342986747622" lon="-6.169360019266605">
        <ele>2.06</ele>
        <time>2025-05-08T07:21:33Z</time>
      </trkpt>
      <trkpt lat="36.541412975639105" lon="-6.169401006773114">
        <ele>1.58</ele>
        <time>2025-05-08T07:21:34Z</time>
      </trkpt>
      <trkpt lat="36.541523030027747" lon="-6.169464038684964">
        <ele>1.1</ele>
        <time>2025-05-08T07:21:35Z</time>
      </trkpt>
      <trkpt lat="36.541623026132584" lon="-6.169518018141389">
        <ele>0.62</ele>
        <time>2025-05-08T07:21:36Z</time>
      </trkpt>
      <trkpt lat="36.541728973388672" lon="-6.169557999819517">
        <ele>0.62</ele>
        <time>2025-05-08T07:21:37Z</time>
      </trkpt>
      <trkpt lat="36.541839027777314" lon="-6.169565040618181">
        <ele>0.14</ele>
        <time>2025-05-08T07:21:38Z</time>
      </trkpt>
      <trkpt lat="36.541942041367292" lon="-6.169550037011504">
        <ele>0.14</ele>
        <time>2025-05-08T07:21:39Z</time>
      </trkpt>
      <trkpt lat="36.542040025815368" lon="-6.169536039233208">
        <ele>0.14</ele>
        <time>2025-05-08T07:21:40Z</time>
      </trkpt>
      <trkpt lat="36.54213298112154" lon="-6.16952296346426">
        <ele>0.14</ele>
        <time>2025-05-08T07:21:41Z</time>
      </trkpt>
      <trkpt lat="36.542248986661434" lon="-6.16947895847261">
        <ele>0.14</ele>
        <time>2025-05-08T07:21:42Z</time>
      </trkpt>
      <trkpt lat="36.542311012744904" lon="-6.169407041743398">
        <ele>0.14</ele>
        <time>2025-05-08T07:21:43Z</time>
      </trkpt>
      <trkpt lat="36.542358035221696" lon="-6.169352978467941">
        <ele>-0.34</ele>
        <time>2025-05-08T07:21:44Z</time>
      </trkpt>
      <trkpt lat="36.542401034384966" lon="-6.169310985133052">
        <ele>-0.34</ele>
        <time>2025-05-08T07:21:45Z</time>
      </trkpt>
      <trkpt lat="36.542436992749572" lon="-6.169275026768446">
        <ele>-0.34</ele>
        <time>2025-05-08T07:21:46Z</time>
      </trkpt>
      <trkpt lat="36.542502036318183" lon="-6.168951988220215">
        <ele>-0.34</ele>
        <time>2025-05-08T07:21:50Z</time>
      </trkpt>
      <trkpt lat="36.542533971369267" lon="-6.168908989056945">
        <ele>-0.82</ele>
        <time>2025-05-08T07:21:51Z</time>
      </trkpt>
      <trkpt lat="36.542565990239382" lon="-6.168865989893675">
        <ele>-0.82</ele>
        <time>2025-05-08T07:21:52Z</time>
      </trkpt>
      <trkpt lat="36.542565990239382" lon="-6.168865989893675">
        <ele>-0.82</ele>
        <time>2025-05-08T07:21:53Z</time>
      </trkpt>
      <trkpt lat="36.542690964415669" lon="-6.168694999068975">
        <ele>-1.3</ele>
        <time>2025-05-08T07:21:55Z</time>
      </trkpt>
      <trkpt lat="36.542709991335869" lon="-6.168530965223908">
        <ele>-1.3</ele>
        <time>2025-05-08T07:21:56Z</time>
      </trkpt>
      <trkpt lat="36.542718959972262" lon="-6.168449996039271">
        <ele>-1.3</ele>
        <time>2025-05-08T07:21:57Z</time>
      </trkpt>
      <trkpt lat="36.542728012427688" lon="-6.168368021026254">
        <ele>-0.82</ele>
        <time>2025-05-08T07:21:58Z</time>
      </trkpt>
      <trkpt lat="36.542737986892462" lon="-6.168285040184856">
        <ele>-0.82</ele>
        <time>2025-05-08T07:21:59Z</time>
      </trkpt>
      <trkpt lat="36.542747039347887" lon="-6.168202981352806">
        <ele>-0.82</ele>
        <time>2025-05-08T07:22:00Z</time>
      </trkpt>
      <trkpt lat="36.542757013812661" lon="-6.168117988854647">
        <ele>-0.82</ele>
        <time>2025-05-08T07:22:01Z</time>
      </trkpt>
      <trkpt lat="36.542780986055732" lon="-6.167965019121766">
        <ele>-0.82</ele>
        <time>2025-05-08T07:22:02Z</time>
      </trkpt>
      <trkpt lat="36.542780986055732" lon="-6.167965019121766">
        <ele>-0.82</ele>
        <time>2025-05-08T07:22:03Z</time>
      </trkpt>
      <trkpt lat="36.543020037934184" lon="-6.16662098094821">
        <ele>2.06</ele>
        <time>2025-05-08T07:22:14Z</time>
      </trkpt>
      <trkpt lat="36.54372101649642" lon="-6.164921969175339">
        <ele>2.06</ele>
        <time>2025-05-08T07:22:26Z</time>
      </trkpt>
      <trkpt lat="36.544107003137469" lon="-6.16400096565485">
        <ele>2.54</ele>
        <time>2025-05-08T07:22:33Z</time>
      </trkpt>
      <trkpt lat="36.544146984815598" lon="-6.163903987035155">
        <ele>3.02</ele>
        <time>2025-05-08T07:22:34Z</time>
      </trkpt>
      <trkpt lat="36.544224014505744" lon="-6.163717992603779">
        <ele>3.5</ele>
        <time>2025-05-08T07:22:40Z</time>
      </trkpt>
      <trkpt lat="36.544224014505744" lon="-6.163717992603779">
        <ele>3.5</ele>
        <time>2025-05-08T07:23:08Z</time>
      </trkpt>
      <trkpt lat="36.544227031990886" lon="-6.163711035624147">
        <ele>3.5</ele>
        <time>2025-05-08T07:23:16Z</time>
      </trkpt>
      <trkpt lat="36.544229965656996" lon="-6.163703994825482">
        <ele>3.02</ele>
        <time>2025-05-08T07:23:22Z</time>
      </trkpt>
      <trkpt lat="36.544226026162505" lon="-6.163712963461876">
        <ele>2.54</ele>
        <time>2025-05-08T07:23:23Z</time>
      </trkpt>
      <trkpt lat="36.544226026162505" lon="-6.163712963461876">
        <ele>2.06</ele>
        <time>2025-05-08T07:23:24Z</time>
      </trkpt>
      <trkpt lat="36.544226026162505" lon="-6.163712963461876">
        <ele>1.58</ele>
        <time>2025-05-08T07:23:25Z</time>
      </trkpt>
      <trkpt lat="36.544205993413925" lon="-6.163760991767049">
        <ele>1.58</ele>
        <time>2025-05-08T07:23:26Z</time>
      </trkpt>
      <trkpt lat="36.544189983978868" lon="-6.163798961788416">
        <ele>2.06</ele>
        <time>2025-05-08T07:23:27Z</time>
      </trkpt>
      <trkpt lat="36.544169029220939" lon="-6.16384900175035">
        <ele>2.06</ele>
        <time>2025-05-08T07:23:28Z</time>
      </trkpt>
      <trkpt lat="36.544140027835965" lon="-6.163919996470213">
        <ele>2.06</ele>
        <time>2025-05-08T07:23:29Z</time>
      </trkpt>
      <trkpt lat="36.543754041194916" lon="-6.164847034960985">
        <ele>1.58</ele>
        <time>2025-05-08T07:23:37Z</time>
      </trkpt>
      <trkpt lat="36.543219024315476" lon="-6.166097028180957">
        <ele>1.1</ele>
        <time>2025-05-08T07:23:46Z</time>
      </trkpt>
      <trkpt lat="36.542837982997298" lon="-6.167514994740486">
        <ele>0.62</ele>
        <time>2025-05-08T07:23:55Z</time>
      </trkpt>
      <trkpt lat="36.542780986055732" lon="-6.167879020795226">
        <ele>0.14</ele>
        <time>2025-05-08T07:23:57Z</time>
      </trkpt>
      <trkpt lat="36.542720971629024" lon="-6.168434992432594">
        <ele>-0.82</ele>
        <time>2025-05-08T07:24:00Z</time>
      </trkpt>
      <trkpt lat="36.542683001607656" lon="-6.168762976303697">
        <ele>-1.79</ele>
        <time>2025-05-08T07:24:05Z</time>
      </trkpt>
      <trkpt lat="36.542780986055732" lon="-6.168908989056945">
        <ele>-1.3</ele>
        <time>2025-05-08T07:24:13Z</time>
      </trkpt>
      <trkpt lat="36.542780986055732" lon="-6.168909994885325">
        <ele>-1.3</ele>
        <time>2025-05-08T07:24:15Z</time>
      </trkpt>
      <trkpt lat="36.542813004925847" lon="-6.169130019843578">
        <ele>-0.82</ele>
        <time>2025-05-08T07:24:16Z</time>
      </trkpt>
      <trkpt lat="36.542781991884112" lon="-6.169205959886313">
        <ele>-0.82</ele>
        <time>2025-05-08T07:24:17Z</time>
      </trkpt>
      <trkpt lat="36.542698005214334" lon="-6.169259017333388">
        <ele>-0.34</ele>
        <time>2025-05-08T07:24:18Z</time>
      </trkpt>
      <trkpt lat="36.542674032971263" lon="-6.169274020940065">
        <ele>-0.34</ele>
        <time>2025-05-08T07:24:19Z</time>
      </trkpt>
      <trkpt lat="36.542485021054745" lon="-6.169225992634893">
        <ele>0.14</ele>
        <time>2025-05-08T07:24:20Z</time>
      </trkpt>
      <trkpt lat="36.542419977486134" lon="-6.169291958212853">
        <ele>0.14</ele>
        <time>2025-05-08T07:24:21Z</time>
      </trkpt>
      <trkpt lat="36.542345965281129" lon="-6.169365970417857">
        <ele>0.62</ele>
        <time>2025-05-08T07:24:22Z</time>
      </trkpt>
      <trkpt lat="36.542063998058438" lon="-6.169577026739717">
        <ele>3.02</ele>
        <time>2025-05-08T07:24:25Z</time>
      </trkpt>
      <trkpt lat="36.541937012225389" lon="-6.169630000367761">
        <ele>3.5</ele>
        <time>2025-05-08T07:24:26Z</time>
      </trkpt>
      <trkpt lat="36.541801979765296" lon="-6.169681968167424">
        <ele>3.98</ele>
        <time>2025-05-08T07:24:27Z</time>
      </trkpt>
      <trkpt lat="36.5413579903543" lon="-6.169703006744385">
        <ele>5.91</ele>
        <time>2025-05-08T07:24:30Z</time>
      </trkpt>
      <trkpt lat="36.540067009627819" lon="-6.16979998536408">
        <ele>6.39</ele>
        <time>2025-05-08T07:24:39Z</time>
      </trkpt>
      <trkpt lat="36.539668031036854" lon="-6.169915990903974">
        <ele>4.94</ele>
        <time>2025-05-08T07:24:42Z</time>
      </trkpt>
      <trkpt lat="36.539559988304973" lon="-6.169962007552385">
        <ele>4.94</ele>
        <time>2025-05-08T07:24:43Z</time>
      </trkpt>
      <trkpt lat="36.539225969463587" lon="-6.170189995318651">
        <ele>5.42</ele>
        <time>2025-05-08T07:24:47Z</time>
      </trkpt>
      <trkpt lat="36.538982978090644" lon="-6.170389987528324">
        <ele>6.39</ele>
        <time>2025-05-08T07:24:51Z</time>
      </trkpt>
      <trkpt lat="36.538933021947742" lon="-6.170440027490258">
        <ele>6.87</ele>
        <time>2025-05-08T07:24:52Z</time>
      </trkpt>
      <trkpt lat="36.538768988102674" lon="-6.170603977516294">
        <ele>8.310000000000001</ele>
        <time>2025-05-08T07:24:55Z</time>
      </trkpt>
      <trkpt lat="36.538721965625882" lon="-6.170672960579395">
        <ele>8.789999999999999</ele>
        <time>2025-05-08T07:24:56Z</time>
      </trkpt>
      <trkpt lat="36.538700005039573" lon="-6.170825008302927">
        <ele>10.710000000000001</ele>
        <time>2025-05-08T07:24:59Z</time>
      </trkpt>
      <trkpt lat="36.538669997826219" lon="-6.170870019122958">
        <ele>11.19</ele>
        <time>2025-05-08T07:25:00Z</time>
      </trkpt>
      <trkpt lat="36.538646025583148" lon="-6.170923998579383">
        <ele>11.67</ele>
        <time>2025-05-08T07:25:01Z</time>
      </trkpt>
      <trkpt lat="36.538313012570143" lon="-6.171621959656477">
        <ele>15.039999999999999</ele>
        <time>2025-05-08T07:25:09Z</time>
      </trkpt>
      <trkpt lat="36.537785958498716" lon="-6.172655029222369">
        <ele>14.08</ele>
        <time>2025-05-08T07:25:19Z</time>
      </trkpt>
      <trkpt lat="36.53742503374815" lon="-6.173401018604636">
        <ele>14.08</ele>
        <time>2025-05-08T07:25:28Z</time>
      </trkpt>
      <trkpt lat="36.537079028785229" lon="-6.174111971631646">
        <ele>16</ele>
        <time>2025-05-08T07:25:36Z</time>
      </trkpt>
      <trkpt lat="36.536986995488405" lon="-6.174284974113107">
        <ele>16</ele>
        <time>2025-05-08T07:25:38Z</time>
      </trkpt>
      <trkpt lat="36.536943996325135" lon="-6.174364015460014">
        <ele>16.48</ele>
        <time>2025-05-08T07:25:39Z</time>
      </trkpt>
      <trkpt lat="36.536530014127493" lon="-6.175231039524078">
        <ele>20.809999999999999</ele>
        <time>2025-05-08T07:25:49Z</time>
      </trkpt>
      <trkpt lat="36.536344019696116" lon="-6.175690032541752">
        <ele>22.73</ele>
        <time>2025-05-08T07:25:57Z</time>
      </trkpt>
      <trkpt lat="36.536303032189608" lon="-6.175744011998177">
        <ele>22.73</ele>
        <time>2025-05-08T07:25:59Z</time>
      </trkpt>
      <trkpt lat="36.536278976127505" lon="-6.175776030868292">
        <ele>23.210000000000001</ele>
        <time>2025-05-08T07:26:00Z</time>
      </trkpt>
      <trkpt lat="36.536217033863068" lon="-6.175849959254265">
        <ele>23.210000000000001</ele>
        <time>2025-05-08T07:26:02Z</time>
      </trkpt>
      <trkpt lat="36.536172023043036" lon="-6.175904022529721">
        <ele>23.210000000000001</ele>
        <time>2025-05-08T07:26:03Z</time>
      </trkpt>
      <trkpt lat="36.536059034988284" lon="-6.17605003528297">
        <ele>22.73</ele>
        <time>2025-05-08T07:26:05Z</time>
      </trkpt>
      <trkpt lat="36.53562200255692" lon="-6.176618998870254">
        <ele>21.289999999999999</ele>
        <time>2025-05-08T07:26:15Z</time>
      </trkpt>
      <trkpt lat="36.53551303781569" lon="-6.176747996360064">
        <ele>21.289999999999999</ele>
        <time>2025-05-08T07:26:17Z</time>
      </trkpt>
      <trkpt lat="36.535461992025375" lon="-6.176809016615152">
        <ele>21.289999999999999</ele>
        <time>2025-05-08T07:26:18Z</time>
      </trkpt>
      <trkpt lat="36.535416981205344" lon="-6.176861990243197">
        <ele>20.809999999999999</ele>
        <time>2025-05-08T07:26:19Z</time>
      </trkpt>
      <trkpt lat="36.535253031179309" lon="-6.177080003544688">
        <ele>19.84</ele>
        <time>2025-05-08T07:26:23Z</time>
      </trkpt>
      <trkpt lat="36.535176001489162" lon="-6.177159966900945">
        <ele>19.359999999999999</ele>
        <time>2025-05-08T07:26:25Z</time>
      </trkpt>
      <trkpt lat="36.535139959305525" lon="-6.177205983549357">
        <ele>18.879999999999999</ele>
        <time>2025-05-08T07:26:26Z</time>
      </trkpt>
      <trkpt lat="36.535054966807365" lon="-6.177314026281238">
        <ele>18.879999999999999</ele>
        <time>2025-05-08T07:26:28Z</time>
      </trkpt>
      <trkpt lat="36.535010961815715" lon="-6.177370017394424">
        <ele>18.879999999999999</ele>
        <time>2025-05-08T07:26:29Z</time>
      </trkpt>
      <trkpt lat="36.534803006798029" lon="-6.177643015980721">
        <ele>17.920000000000002</ele>
        <time>2025-05-08T07:26:34Z</time>
      </trkpt>
      <trkpt lat="36.534780962392688" lon="-6.17794300429523">
        <ele>16</ele>
        <time>2025-05-08T07:26:40Z</time>
      </trkpt>
      <trkpt lat="36.535100983455777" lon="-6.178506016731262">
        <ele>15.52</ele>
        <time>2025-05-08T07:26:47Z</time>
      </trkpt>
      <trkpt lat="36.535652009770274" lon="-6.179479993879795">
        <ele>15.039999999999999</ele>
        <time>2025-05-08T07:26:58Z</time>
      </trkpt>
      <trkpt lat="36.535796010866761" lon="-6.179704964160919">
        <ele>14.08</ele>
        <time>2025-05-08T07:27:02Z</time>
      </trkpt>
      <trkpt lat="36.535806991159916" lon="-6.179723991081119">
        <ele>13.6</ele>
        <time>2025-05-08T07:27:03Z</time>
      </trkpt>
      <trkpt lat="36.535886032506824" lon="-6.179752992466092">
        <ele>13.6</ele>
        <time>2025-05-08T07:27:04Z</time>
      </trkpt>
      <trkpt lat="36.535908998921514" lon="-6.179798003286123">
        <ele>13.6</ele>
        <time>2025-05-08T07:27:05Z</time>
      </trkpt>
      <trkpt lat="36.535892989486456" lon="-6.179852988570929">
        <ele>13.119999999999999</ele>
        <time>2025-05-08T07:27:06Z</time>
      </trkpt>
      <trkpt lat="36.535871028900146" lon="-6.179894981905818">
        <ele>13.119999999999999</ele>
        <time>2025-05-08T07:27:07Z</time>
      </trkpt>
      <trkpt lat="36.535828029736876" lon="-6.179887019097805">
        <ele>13.119999999999999</ele>
        <time>2025-05-08T07:27:08Z</time>
      </trkpt>
      <trkpt lat="36.53573096729815" lon="-6.179888024926186">
        <ele>12.15</ele>
        <time>2025-05-08T07:27:09Z</time>
      </trkpt>
      <trkpt lat="36.535307010635734" lon="-6.180118024349213">
        <ele>10.23</ele>
        <time>2025-05-08T07:27:14Z</time>
      </trkpt>
      <trkpt lat="36.534428000450134" lon="-6.180869964882731">
        <ele>8.310000000000001</ele>
        <time>2025-05-08T07:27:24Z</time>
      </trkpt>
      <trkpt lat="36.533713024109602" lon="-6.181779988110066">
        <ele>6.39</ele>
        <time>2025-05-08T07:27:34Z</time>
      </trkpt>
      <trkpt lat="36.533313961699605" lon="-6.18238901719451">
        <ele>6.39</ele>
        <time>2025-05-08T07:27:44Z</time>
      </trkpt>
      <trkpt lat="36.533281020820141" lon="-6.182431010529399">
        <ele>6.39</ele>
        <time>2025-05-08T07:27:45Z</time>
      </trkpt>
      <trkpt lat="36.533254031091928" lon="-6.182465041056275">
        <ele>6.39</ele>
        <time>2025-05-08T07:27:46Z</time>
      </trkpt>
      <trkpt lat="36.533283032476902" lon="-6.182704009115696">
        <ele>5.91</ele>
        <time>2025-05-08T07:27:49Z</time>
      </trkpt>
      <trkpt lat="36.533218994736671" lon="-6.182791013270617">
        <ele>5.91</ele>
        <time>2025-05-08T07:27:50Z</time>
      </trkpt>
      <trkpt lat="36.533145988360047" lon="-6.182807022705674">
        <ele>5.91</ele>
        <time>2025-05-08T07:27:51Z</time>
      </trkpt>
      <trkpt lat="36.533093014732003" lon="-6.182797970250249">
        <ele>5.42</ele>
        <time>2025-05-08T07:27:52Z</time>
      </trkpt>
      <trkpt lat="36.533026965335011" lon="-6.182837029919028">
        <ele>4.94</ele>
        <time>2025-05-08T07:27:53Z</time>
      </trkpt>
      <trkpt lat="36.53297902084887" lon="-6.182899978011847">
        <ele>4.94</ele>
        <time>2025-05-08T07:27:54Z</time>
      </trkpt>
      <trkpt lat="36.532931998372078" lon="-6.182964015752077">
        <ele>4.94</ele>
        <time>2025-05-08T07:27:55Z</time>
      </trkpt>
      <trkpt lat="36.532402010634542" lon="-6.183736994862557">
        <ele>5.42</ele>
        <time>2025-05-08T07:28:06Z</time>
      </trkpt>
      <trkpt lat="36.532033961266279" lon="-6.184118958190084">
        <ele>3.98</ele>
        <time>2025-05-08T07:28:13Z</time>
      </trkpt>
      <trkpt lat="36.53197000734508" lon="-6.184162041172385">
        <ele>3.5</ele>
        <time>2025-05-08T07:28:14Z</time>
      </trkpt>
      <trkpt lat="36.531771020963788" lon="-6.184289027005434">
        <ele>3.02</ele>
        <time>2025-05-08T07:28:17Z</time>
      </trkpt>
      <trkpt lat="36.531204991042614" lon="-6.184573005884886">
        <ele>8.310000000000001</ele>
        <time>2025-05-08T07:28:27Z</time>
      </trkpt>
      <trkpt lat="36.53115302324295" lon="-6.184593960642815">
        <ele>8.310000000000001</ele>
        <time>2025-05-08T07:28:28Z</time>
      </trkpt>
      <trkpt lat="36.531074987724423" lon="-6.184766041114926">
        <ele>9.75</ele>
        <time>2025-05-08T07:28:30Z</time>
      </trkpt>
      <trkpt lat="36.531018996611238" lon="-6.184766041114926">
        <ele>9.75</ele>
        <time>2025-05-08T07:28:31Z</time>
      </trkpt>
      <trkpt lat="36.530979014933109" lon="-6.184766041114926">
        <ele>10.23</ele>
        <time>2025-05-08T07:28:32Z</time>
      </trkpt>
      <trkpt lat="36.530893016606569" lon="-6.184637965634465">
        <ele>10.23</ele>
        <time>2025-05-08T07:28:33Z</time>
      </trkpt>
      <trkpt lat="36.530825961381197" lon="-6.184649029746652">
        <ele>10.23</ele>
        <time>2025-05-08T07:28:34Z</time>
      </trkpt>
      <trkpt lat="36.530763013288379" lon="-6.184659004211426">
        <ele>10.23</ele>
        <time>2025-05-08T07:28:35Z</time>
      </trkpt>
      <trkpt lat="36.530699981376529" lon="-6.184659004211426">
        <ele>10.23</ele>
        <time>2025-05-08T07:28:36Z</time>
      </trkpt>
      <trkpt lat="36.530656982213259" lon="-6.184659004211426">
        <ele>10.23</ele>
        <time>2025-05-08T07:28:37Z</time>
      </trkpt>
      <trkpt lat="36.530612977221608" lon="-6.184659004211426">
        <ele>9.75</ele>
        <time>2025-05-08T07:28:38Z</time>
      </trkpt>
      <trkpt lat="36.530537959188223" lon="-6.184699991717935">
        <ele>9.75</ele>
        <time>2025-05-08T07:28:39Z</time>
      </trkpt>
      <trkpt lat="36.53050702996552" lon="-6.184809040278196">
        <ele>9.27</ele>
        <time>2025-05-08T07:28:40Z</time>
      </trkpt>
      <trkpt lat="36.530499989166856" lon="-6.184812979772687">
        <ele>9.27</ele>
        <time>2025-05-08T07:28:41Z</time>
      </trkpt>
      <trkpt lat="36.530455984175205" lon="-6.184835024178028">
        <ele>9.27</ele>
        <time>2025-05-08T07:28:42Z</time>
      </trkpt>
      <trkpt lat="36.53042103163898" lon="-6.184852039441466">
        <ele>8.789999999999999</ele>
        <time>2025-05-08T07:28:43Z</time>
      </trkpt>
      <trkpt lat="36.53042103163898" lon="-6.184852039441466">
        <ele>8.789999999999999</ele>
        <time>2025-05-08T07:28:44Z</time>
      </trkpt>
      <trkpt lat="36.53037803247571" lon="-6.184823038056493">
        <ele>8.789999999999999</ele>
        <time>2025-05-08T07:28:45Z</time>
      </trkpt>
      <trkpt lat="36.530347019433975" lon="-6.184803005307913">
        <ele>8.310000000000001</ele>
        <time>2025-05-08T07:28:46Z</time>
      </trkpt>
      <trkpt lat="36.53029203414917" lon="-6.184766041114926">
        <ele>8.310000000000001</ele>
        <time>2025-05-08T07:28:47Z</time>
      </trkpt>
      <trkpt lat="36.530291028320789" lon="-6.184752965345979">
        <ele>8.310000000000001</ele>
        <time>2025-05-08T07:28:48Z</time>
      </trkpt>
      <trkpt lat="36.530280970036983" lon="-6.184686999768019">
        <ele>8.310000000000001</ele>
        <time>2025-05-08T07:28:49Z</time>
      </trkpt>
      <trkpt lat="36.530270995572209" lon="-6.184618016704917">
        <ele>7.83</ele>
        <time>2025-05-08T07:28:50Z</time>
      </trkpt>
      <trkpt lat="36.530326986685395" lon="-6.184569988399744">
        <ele>7.83</ele>
        <time>2025-05-08T07:28:51Z</time>
      </trkpt>
      <trkpt lat="36.530365962535143" lon="-6.184536963701248">
        <ele>7.35</ele>
        <time>2025-05-08T07:28:52Z</time>
      </trkpt>
      <trkpt lat="36.530399993062019" lon="-6.184508968144655">
        <ele>7.35</ele>
        <time>2025-05-08T07:28:53Z</time>
      </trkpt>
      <trkpt lat="36.530418014153838" lon="-6.184512991458178">
        <ele>6.87</ele>
        <time>2025-05-08T07:28:54Z</time>
      </trkpt>
      <trkpt lat="36.53046696446836" lon="-6.184525983408094">
        <ele>6.87</ele>
        <time>2025-05-08T07:28:55Z</time>
      </trkpt>
      <trkpt lat="36.530494960024953" lon="-6.184548027813435">
        <ele>6.39</ele>
        <time>2025-05-08T07:28:56Z</time>
      </trkpt>
      <trkpt lat="36.530526978895068" lon="-6.184613993391395">
        <ele>5.91</ele>
        <time>2025-05-08T07:28:57Z</time>
      </trkpt>
      <trkpt lat="36.530541982501745" lon="-6.184686999768019">
        <ele>5.91</ele>
        <time>2025-05-08T07:28:58Z</time>
      </trkpt>
      <trkpt lat="36.530519016087055" lon="-6.184767968952656">
        <ele>5.42</ele>
        <time>2025-05-08T07:28:59Z</time>
      </trkpt>
      <trkpt lat="36.53050702996552" lon="-6.184809040278196">
        <ele>5.42</ele>
        <time>2025-05-08T07:29:00Z</time>
      </trkpt>
      <trkpt lat="36.53042103163898" lon="-6.184912975877523">
        <ele>4.94</ele>
        <time>2025-05-08T07:29:02Z</time>
      </trkpt>
      <trkpt lat="36.53042103163898" lon="-6.184978019446135">
        <ele>4.94</ele>
        <time>2025-05-08T07:29:03Z</time>
      </trkpt>
      <trkpt lat="36.53042103163898" lon="-6.185039961710572">
        <ele>4.46</ele>
        <time>2025-05-08T07:29:04Z</time>
      </trkpt>
      <trkpt lat="36.53042103163898" lon="-6.185096958652139">
        <ele>4.46</ele>
        <time>2025-05-08T07:29:05Z</time>
      </trkpt>
      <trkpt lat="36.530433017760515" lon="-6.185198966413736">
        <ele>4.46</ele>
        <time>2025-05-08T07:29:06Z</time>
      </trkpt>
      <trkpt lat="36.530537037178874" lon="-6.18557003326714">
        <ele>3.5</ele>
        <time>2025-05-08T07:29:16Z</time>
      </trkpt>
      <trkpt lat="36.530540976673365" lon="-6.185584031045437">
        <ele>3.5</ele>
        <time>2025-05-08T07:29:17Z</time>
      </trkpt>
      <trkpt lat="36.530540976673365" lon="-6.185584031045437">
        <ele>3.5</ele>
        <time>2025-05-08T07:29:18Z</time>
      </trkpt>
      <trkpt lat="36.530542988330126" lon="-6.185589982196689">
        <ele>3.5</ele>
        <time>2025-05-08T07:29:19Z</time>
      </trkpt>
      <trkpt lat="36.530542988330126" lon="-6.185589982196689">
        <ele>3.02</ele>
        <time>2025-05-08T07:29:33Z</time>
      </trkpt>
      <trkpt lat="36.530743986368179" lon="-6.185509013012052">
        <ele>15.039999999999999</ele>
        <time>2025-05-08T08:08:02Z</time>
      </trkpt>
      <trkpt lat="36.530758989974856" lon="-6.18550599552691">
        <ele>15.52</ele>
        <time>2025-05-08T08:08:56Z</time>
      </trkpt>
      <trkpt lat="36.530751027166843" lon="-6.185511024668813">
        <ele>15.039999999999999</ele>
        <time>2025-05-08T08:09:44Z</time>
      </trkpt>
      <trkpt lat="36.530739041045308" lon="-6.185525022447109">
        <ele>14.08</ele>
        <time>2025-05-08T08:10:37Z</time>
      </trkpt>
      <trkpt lat="36.530736023560166" lon="-6.185528039932251">
        <ele>13.6</ele>
        <time>2025-05-08T08:11:35Z</time>
      </trkpt>
      <trkpt lat="36.53072303161025" lon="-6.185531979426742">
        <ele>12.630000000000001</ele>
        <time>2025-05-08T08:12:19Z</time>
      </trkpt>
      <trkpt lat="36.530720014125109" lon="-6.18552703410387">
        <ele>12.630000000000001</ele>
        <time>2025-05-08T08:13:03Z</time>
      </trkpt>
      <trkpt lat="36.530715990811586" lon="-6.1855289619416">
        <ele>12.15</ele>
        <time>2025-05-08T08:13:47Z</time>
      </trkpt>
      <trkpt lat="36.53068003244698" lon="-6.185522004961968">
        <ele>11.19</ele>
        <time>2025-05-08T08:14:06Z</time>
      </trkpt>
      <trkpt lat="36.530641978606582" lon="-6.185556035488844">
        <ele>9.75</ele>
        <time>2025-05-08T08:14:17Z</time>
      </trkpt>
      <trkpt lat="36.530541982501745" lon="-6.185585958883166">
        <ele>9.75</ele>
        <time>2025-05-08T08:14:19Z</time>
      </trkpt>
      <trkpt lat="36.530533013865352" lon="-6.185556035488844">
        <ele>9.27</ele>
        <time>2025-05-08T08:14:20Z</time>
      </trkpt>
      <trkpt lat="36.530481968075037" lon="-6.185375992208719">
        <ele>7.83</ele>
        <time>2025-05-08T08:14:23Z</time>
      </trkpt>
      <trkpt lat="36.53046503663063" lon="-6.185315977782011">
        <ele>7.83</ele>
        <time>2025-05-08T08:14:24Z</time>
      </trkpt>
      <trkpt lat="36.530449027195573" lon="-6.185259986668825">
        <ele>7.35</ele>
        <time>2025-05-08T08:14:25Z</time>
      </trkpt>
      <trkpt lat="36.530434023588896" lon="-6.18520500138402">
        <ele>6.87</ele>
        <time>2025-05-08T08:14:26Z</time>
      </trkpt>
      <trkpt lat="36.53029203414917" lon="-6.184763023629785">
        <ele>5.42</ele>
        <time>2025-05-08T08:14:34Z</time>
      </trkpt>
      <trkpt lat="36.530280970036983" lon="-6.184684988111258">
        <ele>4.94</ele>
        <time>2025-05-08T08:14:35Z</time>
      </trkpt>
      <trkpt lat="36.530270995572209" lon="-6.184616005048156">
        <ele>4.94</ele>
        <time>2025-05-08T08:14:36Z</time>
      </trkpt>
      <trkpt lat="36.530367974191904" lon="-6.184411989524961">
        <ele>5.42</ele>
        <time>2025-05-08T08:14:38Z</time>
      </trkpt>
      <trkpt lat="36.53033503331244" lon="-6.184316016733646">
        <ele>5.42</ele>
        <time>2025-05-08T08:14:39Z</time>
      </trkpt>
      <trkpt lat="36.530317012220621" lon="-6.184243010357022">
        <ele>5.42</ele>
        <time>2025-05-08T08:14:40Z</time>
      </trkpt>
      <trkpt lat="36.530276024714112" lon="-6.184079982340336">
        <ele>5.42</ele>
        <time>2025-05-08T08:14:42Z</time>
      </trkpt>
      <trkpt lat="36.530256997793913" lon="-6.184003036469221">
        <ele>5.42</ele>
        <time>2025-05-08T08:14:43Z</time>
      </trkpt>
      <trkpt lat="36.530191032215953" lon="-6.183931035920978">
        <ele>5.42</ele>
        <time>2025-05-08T08:14:44Z</time>
      </trkpt>
      <trkpt lat="36.530120959505439" lon="-6.183882001787424">
        <ele>5.42</ele>
        <time>2025-05-08T08:14:45Z</time>
      </trkpt>
      <trkpt lat="36.530050970613956" lon="-6.183832967653871">
        <ele>4.94</ele>
        <time>2025-05-08T08:14:46Z</time>
      </trkpt>
      <trkpt lat="36.529967989772558" lon="-6.183816036209464">
        <ele>4.94</ele>
        <time>2025-05-08T08:14:47Z</time>
      </trkpt>
      <trkpt lat="36.529890960082412" lon="-6.1838089954108">
        <ele>4.46</ele>
        <time>2025-05-08T08:14:48Z</time>
      </trkpt>
      <trkpt lat="36.529487036168575" lon="-6.183769013732672">
        <ele>3.98</ele>
        <time>2025-05-08T08:14:55Z</time>
      </trkpt>
      <trkpt lat="36.529441019520164" lon="-6.183761972934008">
        <ele>3.5</ele>
        <time>2025-05-08T08:14:56Z</time>
      </trkpt>
      <trkpt lat="36.529334988445044" lon="-6.183844031766057">
        <ele>3.5</ele>
        <time>2025-05-08T08:14:58Z</time>
      </trkpt>
      <trkpt lat="36.529281008988619" lon="-6.183844031766057">
        <ele>3.5</ele>
        <time>2025-05-08T08:14:59Z</time>
      </trkpt>
      <trkpt lat="36.529241027310491" lon="-6.183715034276247">
        <ele>3.5</ele>
        <time>2025-05-08T08:15:00Z</time>
      </trkpt>
      <trkpt lat="36.528533007949591" lon="-6.183328963816166">
        <ele>5.42</ele>
        <time>2025-05-08T08:15:10Z</time>
      </trkpt>
      <trkpt lat="36.52788600884378" lon="-6.182972984388471">
        <ele>4.46</ele>
        <time>2025-05-08T08:15:18Z</time>
      </trkpt>
      <trkpt lat="36.527799004688859" lon="-6.182941971346736">
        <ele>4.46</ele>
        <time>2025-05-08T08:15:19Z</time>
      </trkpt>
      <trkpt lat="36.527717029675841" lon="-6.182941971346736">
        <ele>4.46</ele>
        <time>2025-05-08T08:15:20Z</time>
      </trkpt>
      <trkpt lat="36.527559030801058" lon="-6.182941971346736">
        <ele>4.46</ele>
        <time>2025-05-08T08:15:22Z</time>
      </trkpt>
      <trkpt lat="36.527482001110911" lon="-6.182941971346736">
        <ele>3.98</ele>
        <time>2025-05-08T08:15:23Z</time>
      </trkpt>
      <trkpt lat="36.527295000851154" lon="-6.182997962459922">
        <ele>3.98</ele>
        <time>2025-05-08T08:15:28Z</time>
      </trkpt>
      <trkpt lat="36.52715602889657" lon="-6.183058982715011">
        <ele>3.5</ele>
        <time>2025-05-08T08:15:31Z</time>
      </trkpt>
      <trkpt lat="36.526989983394742" lon="-6.183118997141719">
        <ele>3.98</ele>
        <time>2025-05-08T08:15:34Z</time>
      </trkpt>
      <trkpt lat="36.526944972574711" lon="-6.183136012405157">
        <ele>3.98</ele>
        <time>2025-05-08T08:15:35Z</time>
      </trkpt>
      <trkpt lat="36.526837013661861" lon="-6.183312032371759">
        <ele>3.98</ele>
        <time>2025-05-08T08:15:37Z</time>
      </trkpt>
      <trkpt lat="36.526760989800096" lon="-6.183317983523011">
        <ele>3.98</ele>
        <time>2025-05-08T08:15:38Z</time>
      </trkpt>
      <trkpt lat="36.526698963716626" lon="-6.183254029601812">
        <ele>3.98</ele>
        <time>2025-05-08T08:15:39Z</time>
      </trkpt>
      <trkpt lat="36.526651019230485" lon="-6.183188986033201">
        <ele>3.5</ele>
        <time>2025-05-08T08:15:40Z</time>
      </trkpt>
      <trkpt lat="36.526578012853861" lon="-6.183140035718679">
        <ele>3.5</ele>
        <time>2025-05-08T08:15:41Z</time>
      </trkpt>
      <trkpt lat="36.526342984288931" lon="-6.182978013530374">
        <ele>3.02</ele>
        <time>2025-05-08T08:15:44Z</time>
      </trkpt>
      <trkpt lat="36.525646029040217" lon="-6.181950978934765">
        <ele>2.54</ele>
        <time>2025-05-08T08:15:54Z</time>
      </trkpt>
      <trkpt lat="36.524710021913052" lon="-6.180427987128496">
        <ele>1.58</ele>
        <time>2025-05-08T08:16:05Z</time>
      </trkpt>
      <trkpt lat="36.523988004773855" lon="-6.178486989811063">
        <ele>0.62</ele>
        <time>2025-05-08T08:16:15Z</time>
      </trkpt>
      <trkpt lat="36.523441001772881" lon="-6.176508022472262">
        <ele>0.14</ele>
        <time>2025-05-08T08:16:25Z</time>
      </trkpt>
      <trkpt lat="36.523136990144849" lon="-6.175223998725414">
        <ele>2.54</ele>
        <time>2025-05-08T08:16:34Z</time>
      </trkpt>
      <trkpt lat="36.522493008524179" lon="-6.172812022268772">
        <ele>4.46</ele>
        <time>2025-05-08T08:16:49Z</time>
      </trkpt>
      <trkpt lat="36.52197802439332" lon="-6.170624010264874">
        <ele>3.98</ele>
        <time>2025-05-08T08:17:04Z</time>
      </trkpt>
      <trkpt lat="36.521635036915541" lon="-6.169148962944746">
        <ele>2.54</ele>
        <time>2025-05-08T08:17:14Z</time>
      </trkpt>
      <trkpt lat="36.521388022229075" lon="-6.16782202385366">
        <ele>0.14</ele>
        <time>2025-05-08T08:17:23Z</time>
      </trkpt>
      <trkpt lat="36.521388022229075" lon="-6.167670981958509">
        <ele>-0.34</ele>
        <time>2025-05-08T08:17:24Z</time>
      </trkpt>
      <trkpt lat="36.521538980305195" lon="-6.165711041539908">
        <ele>-0.34</ele>
        <time>2025-05-08T08:17:37Z</time>
      </trkpt>
      <trkpt lat="36.52167602442205" lon="-6.164503041654825">
        <ele>3.5</ele>
        <time>2025-05-08T08:17:45Z</time>
      </trkpt>
      <trkpt lat="36.521726986393332" lon="-6.164378989487886">
        <ele>4.46</ele>
        <time>2025-05-08T08:17:46Z</time>
      </trkpt>
      <trkpt lat="36.521793035790324" lon="-6.164266001433134">
        <ele>5.42</ele>
        <time>2025-05-08T08:17:47Z</time>
      </trkpt>
      <trkpt lat="36.521854978054762" lon="-6.164168016985059">
        <ele>6.87</ele>
        <time>2025-05-08T08:17:48Z</time>
      </trkpt>
      <trkpt lat="36.521923039108515" lon="-6.16408696398139">
        <ele>7.83</ele>
        <time>2025-05-08T08:17:49Z</time>
      </trkpt>
      <trkpt lat="36.522317994385958" lon="-6.163639035075903">
        <ele>8.310000000000001</ele>
        <time>2025-05-08T08:17:55Z</time>
      </trkpt>
      <trkpt lat="36.522370968014002" lon="-6.163551025092602">
        <ele>7.83</ele>
        <time>2025-05-08T08:17:56Z</time>
      </trkpt>
      <trkpt lat="36.522348001599312" lon="-6.163454968482256">
        <ele>7.35</ele>
        <time>2025-05-08T08:17:57Z</time>
      </trkpt>
      <trkpt lat="36.522324029356241" lon="-6.163372993469238">
        <ele>7.35</ele>
        <time>2025-05-08T08:17:58Z</time>
      </trkpt>
      <trkpt lat="36.522299973294139" lon="-6.163292024284601">
        <ele>7.35</ele>
        <time>2025-05-08T08:17:59Z</time>
      </trkpt>
      <trkpt lat="36.522267032414675" lon="-6.163179958239198">
        <ele>7.35</ele>
        <time>2025-05-08T08:18:00Z</time>
      </trkpt>
      <trkpt lat="36.522192014381289" lon="-6.16316000930965">
        <ele>7.35</ele>
        <time>2025-05-08T08:18:01Z</time>
      </trkpt>
      <trkpt lat="36.522102998569608" lon="-6.163136959075928">
        <ele>7.35</ele>
        <time>2025-05-08T08:18:02Z</time>
      </trkpt>
      <trkpt lat="36.522015994414687" lon="-6.163113992661238">
        <ele>7.35</ele>
        <time>2025-05-08T08:18:03Z</time>
      </trkpt>
      <trkpt lat="36.52184802107513" lon="-6.163070993497968">
        <ele>7.35</ele>
        <time>2025-05-08T08:18:05Z</time>
      </trkpt>
      <trkpt lat="36.521776020526886" lon="-6.163051966577768">
        <ele>7.35</ele>
        <time>2025-05-08T08:18:06Z</time>
      </trkpt>
      <trkpt lat="36.521753976121545" lon="-6.162991030141711">
        <ele>7.83</ele>
        <time>2025-05-08T08:18:07Z</time>
      </trkpt>
      <trkpt lat="36.521731009706855" lon="-6.162921963259578">
        <ele>7.35</ele>
        <time>2025-05-08T08:18:08Z</time>
      </trkpt>
      <trkpt lat="36.521731009706855" lon="-6.162921963259578">
        <ele>7.35</ele>
        <time>2025-05-08T08:18:09Z</time>
      </trkpt>
      <trkpt lat="36.521710976958275" lon="-6.162697998806834">
        <ele>7.35</ele>
        <time>2025-05-08T08:18:10Z</time>
      </trkpt>
      <trkpt lat="36.521662026643753" lon="-6.16260495968163">
        <ele>6.87</ele>
        <time>2025-05-08T08:18:11Z</time>
      </trkpt>
      <trkpt lat="36.521608969196677" lon="-6.162505969405174">
        <ele>6.39</ele>
        <time>2025-05-08T08:18:12Z</time>
      </trkpt>
      <trkpt lat="36.521535962820053" lon="-6.162420976907015">
        <ele>5.91</ele>
        <time>2025-05-08T08:18:13Z</time>
      </trkpt>
      <trkpt lat="36.521457005292177" lon="-6.162335984408855">
        <ele>5.42</ele>
        <time>2025-05-08T08:18:14Z</time>
      </trkpt>
      <trkpt lat="36.521372012794018" lon="-6.162244034931064">
        <ele>4.46</ele>
        <time>2025-05-08T08:18:15Z</time>
      </trkpt>
      <trkpt lat="36.520557040348649" lon="-6.161477006971836">
        <ele>0.14</ele>
        <time>2025-05-08T08:18:24Z</time>
      </trkpt>
      <trkpt lat="36.520471964031458" lon="-6.16137801669538">
        <ele>0.14</ele>
        <time>2025-05-08T08:18:25Z</time>
      </trkpt>
      <trkpt lat="36.51955297216773" lon="-6.16004403680563">
        <ele>1.58</ele>
        <time>2025-05-08T08:18:35Z</time>
      </trkpt>
      <trkpt lat="36.518253022804856" lon="-6.158361034467816">
        <ele>-0.82</ele>
        <time>2025-05-08T08:18:45Z</time>
      </trkpt>
      <trkpt lat="36.515676006674767" lon="-6.155321002006531">
        <ele>-0.82</ele>
        <time>2025-05-08T08:19:02Z</time>
      </trkpt>
      <trkpt lat="36.513561001047492" lon="-6.153157968074083">
        <ele>-1.79</ele>
        <time>2025-05-08T08:19:14Z</time>
      </trkpt>
      <trkpt lat="36.510851969942451" lon="-6.150507023558021">
        <ele>-1.3</ele>
        <time>2025-05-08T08:19:28Z</time>
      </trkpt>
      <trkpt lat="36.508909966796637" lon="-6.148525960743427">
        <ele>-1.3</ele>
        <time>2025-05-08T08:19:38Z</time>
      </trkpt>
      <trkpt lat="36.506622964516282" lon="-6.146578006446362">
        <ele>-4.19</ele>
        <time>2025-05-08T08:19:49Z</time>
      </trkpt>
      <trkpt lat="36.504358006641269" lon="-6.145238997414708">
        <ele>-5.63</ele>
        <time>2025-05-08T08:19:59Z</time>
      </trkpt>
      <trkpt lat="36.502391025424004" lon="-6.14472602494061">
        <ele>-4.67</ele>
        <time>2025-05-08T08:20:07Z</time>
      </trkpt>
      <trkpt lat="36.49989296682179" lon="-6.144395023584366">
        <ele>-4.67</ele>
        <time>2025-05-08T08:20:17Z</time>
      </trkpt>
      <trkpt lat="36.495628003031015" lon="-6.143836034461856">
        <ele>-3.71</ele>
        <time>2025-05-08T08:20:34Z</time>
      </trkpt>
      <trkpt lat="36.492105005308986" lon="-6.143578961491585">
        <ele>-1.79</ele>
        <time>2025-05-08T08:20:48Z</time>
      </trkpt>
      <trkpt lat="36.489088023081422" lon="-6.14378297701478">
        <ele>-0.34</ele>
        <time>2025-05-08T08:21:00Z</time>
      </trkpt>
      <trkpt lat="36.485072001814842" lon="-6.144179021939635">
        <ele>-0.34</ele>
        <time>2025-05-08T08:21:16Z</time>
      </trkpt>
      <trkpt lat="36.480794968083501" lon="-6.144612031057477">
        <ele>0.14</ele>
        <time>2025-05-08T08:21:33Z</time>
      </trkpt>
      <trkpt lat="36.477027973160148" lon="-6.144975973293185">
        <ele>1.58</ele>
        <time>2025-05-08T08:21:48Z</time>
      </trkpt>
      <trkpt lat="36.474139988422394" lon="-6.145317032933235">
        <ele>2.06</ele>
        <time>2025-05-08T08:22:00Z</time>
      </trkpt>
      <trkpt lat="36.4725630171597" lon="-6.145869987085462">
        <ele>1.58</ele>
        <time>2025-05-08T08:22:07Z</time>
      </trkpt>
      <trkpt lat="36.471262983977795" lon="-6.146987965330482">
        <ele>0.62</ele>
        <time>2025-05-08T08:22:14Z</time>
      </trkpt>
      <trkpt lat="36.470367964357138" lon="-6.148461000993848">
        <ele>0.14</ele>
        <time>2025-05-08T08:22:21Z</time>
      </trkpt>
      <trkpt lat="36.46974703297019" lon="-6.150396969169378">
        <ele>-0.34</ele>
        <time>2025-05-08T08:22:29Z</time>
      </trkpt>
      <trkpt lat="36.469115959480405" lon="-6.152566038072109">
        <ele>0.62</ele>
        <time>2025-05-08T08:22:38Z</time>
      </trkpt>
      <trkpt lat="36.468338035047054" lon="-6.155509008094668">
        <ele>-0.34</ele>
        <time>2025-05-08T08:22:50Z</time>
      </trkpt>
      <trkpt lat="36.468198979273438" lon="-6.157729960978031">
        <ele>-0.34</ele>
        <time>2025-05-08T08:22:59Z</time>
      </trkpt>
      <trkpt lat="36.468488993123174" lon="-6.159843038767576">
        <ele>0.14</ele>
        <time>2025-05-08T08:23:08Z</time>
      </trkpt>
      <trkpt lat="36.468683034181595" lon="-6.16144297644496">
        <ele>-1.79</ele>
        <time>2025-05-08T08:23:16Z</time>
      </trkpt>
      <trkpt lat="36.46856501698494" lon="-6.163206025958061">
        <ele>-0.34</ele>
        <time>2025-05-08T08:23:26Z</time>
      </trkpt>
      <trkpt lat="36.468392014503479" lon="-6.163983028382063">
        <ele>2.54</ele>
        <time>2025-05-08T08:23:33Z</time>
      </trkpt>
      <trkpt lat="36.468016002327204" lon="-6.165008973330259">
        <ele>7.35</ele>
        <time>2025-05-08T08:23:41Z</time>
      </trkpt>
      <trkpt lat="36.467266995459795" lon="-6.166471028700471">
        <ele>11.19</ele>
        <time>2025-05-08T08:23:53Z</time>
      </trkpt>
      <trkpt lat="36.466637011617422" lon="-6.167852031067014">
        <ele>5.42</ele>
        <time>2025-05-08T08:24:04Z</time>
      </trkpt>
      <trkpt lat="36.466520000249147" lon="-6.168265007436276">
        <ele>2.54</ele>
        <time>2025-05-08T08:24:08Z</time>
      </trkpt>
      <trkpt lat="36.466527041047812" lon="-6.168383024632931">
        <ele>2.06</ele>
        <time>2025-05-08T08:24:09Z</time>
      </trkpt>
      <trkpt lat="36.466532992199063" lon="-6.168491989374161">
        <ele>2.06</ele>
        <time>2025-05-08T08:24:10Z</time>
      </trkpt>
      <trkpt lat="36.466539027169347" lon="-6.168601037934423">
        <ele>1.58</ele>
        <time>2025-05-08T08:24:11Z</time>
      </trkpt>
      <trkpt lat="36.466569034382701" lon="-6.168697010725737">
        <ele>1.1</ele>
        <time>2025-05-08T08:24:12Z</time>
      </trkpt>
      <trkpt lat="36.466622008010745" lon="-6.168782003223896">
        <ele>0.62</ele>
        <time>2025-05-08T08:24:13Z</time>
      </trkpt>
      <trkpt lat="36.46667699329555" lon="-6.168872024863958">
        <ele>0.62</ele>
        <time>2025-05-08T08:24:14Z</time>
      </trkpt>
      <trkpt lat="36.466745976358652" lon="-6.168944025412202">
        <ele>0.14</ele>
        <time>2025-05-08T08:24:15Z</time>
      </trkpt>
      <trkpt lat="36.466831974685192" lon="-6.168979983776808">
        <ele>0.62</ele>
        <time>2025-05-08T08:24:16Z</time>
      </trkpt>
      <trkpt lat="36.466918978840113" lon="-6.169016025960445">
        <ele>0.62</ele>
        <time>2025-05-08T08:24:17Z</time>
      </trkpt>
      <trkpt lat="36.467004977166653" lon="-6.169021977111697">
        <ele>0.62</ele>
        <time>2025-05-08T08:24:18Z</time>
      </trkpt>
      <trkpt lat="36.467088041827083" lon="-6.16898400709033">
        <ele>0.62</ele>
        <time>2025-05-08T08:24:19Z</time>
      </trkpt>
      <trkpt lat="36.467174040153623" lon="-6.168944025412202">
        <ele>0.62</ele>
        <time>2025-05-08T08:24:20Z</time>
      </trkpt>
      <trkpt lat="36.467258026823401" lon="-6.168900020420551">
        <ele>1.1</ele>
        <time>2025-05-08T08:24:21Z</time>
      </trkpt>
      <trkpt lat="36.467330027371645" lon="-6.168817961588502">
        <ele>1.1</ele>
        <time>2025-05-08T08:24:22Z</time>
      </trkpt>
      <trkpt lat="36.467400016263127" lon="-6.168736992403865">
        <ele>1.1</ele>
        <time>2025-05-08T08:24:23Z</time>
      </trkpt>
      <trkpt lat="36.467461036518216" lon="-6.1686160415411">
        <ele>1.1</ele>
        <time>2025-05-08T08:24:24Z</time>
      </trkpt>
      <trkpt lat="36.467519961297512" lon="-6.168497018516064">
        <ele>1.1</ele>
        <time>2025-05-08T08:24:25Z</time>
      </trkpt>
      <trkpt lat="36.467692963778973" lon="-6.168086975812912">
        <ele>0.62</ele>
        <time>2025-05-08T08:24:28Z</time>
      </trkpt>
      <trkpt lat="36.467732023447752" lon="-6.167938029393554">
        <ele>0.14</ele>
        <time>2025-05-08T08:24:29Z</time>
      </trkpt>
      <trkpt lat="36.467769993469119" lon="-6.167792016640306">
        <ele>0.14</ele>
        <time>2025-05-08T08:24:30Z</time>
      </trkpt>
      <trkpt lat="36.467786002904177" lon="-6.16763100028038">
        <ele>0.14</ele>
        <time>2025-05-08T08:24:31Z</time>
      </trkpt>
      <trkpt lat="36.467786002904177" lon="-6.167476018890739">
        <ele>0.14</ele>
        <time>2025-05-08T08:24:32Z</time>
      </trkpt>
      <trkpt lat="36.467783991247416" lon="-6.167320031672716">
        <ele>0.14</ele>
        <time>2025-05-08T08:24:33Z</time>
      </trkpt>
      <trkpt lat="36.467777034267783" lon="-6.167162032797933">
        <ele>0.14</ele>
        <time>2025-05-08T08:24:34Z</time>
      </trkpt>
      <trkpt lat="36.467768987640738" lon="-6.167002022266388">
        <ele>-0.34</ele>
        <time>2025-05-08T08:24:35Z</time>
      </trkpt>
      <trkpt lat="36.46736397407949" lon="-6.165768038481474">
        <ele>0.14</ele>
        <time>2025-05-08T08:24:43Z</time>
      </trkpt>
      <trkpt lat="36.467274958267808" lon="-6.165626971051097">
        <ele>0.62</ele>
        <time>2025-05-08T08:24:44Z</time>
      </trkpt>
      <trkpt lat="36.467182002961636" lon="-6.165489004924893">
        <ele>1.1</ele>
        <time>2025-05-08T08:24:45Z</time>
      </trkpt>
      <trkpt lat="36.466080034151673" lon="-6.164480997249484">
        <ele>2.06</ele>
        <time>2025-05-08T08:24:54Z</time>
      </trkpt>
      <trkpt lat="36.464351015165448" lon="-6.162978038191795">
        <ele>-0.82</ele>
        <time>2025-05-08T08:25:07Z</time>
      </trkpt>
      <trkpt lat="36.46229200065136" lon="-6.161268968135119">
        <ele>-1.79</ele>
        <time>2025-05-08T08:25:21Z</time>
      </trkpt>
      <trkpt lat="36.460535991936922" lon="-6.159812025725842">
        <ele>-2.75</ele>
        <time>2025-05-08T08:25:32Z</time>
      </trkpt>
      <trkpt lat="36.458498015999794" lon="-6.15809197537601">
        <ele>-2.75</ele>
        <time>2025-05-08T08:25:44Z</time>
      </trkpt>
      <trkpt lat="36.456537991762161" lon="-6.156355999410152">
        <ele>-2.27</ele>
        <time>2025-05-08T08:25:57Z</time>
      </trkpt>
      <trkpt lat="36.454962026327848" lon="-6.154942978173494">
        <ele>-2.27</ele>
        <time>2025-05-08T08:26:07Z</time>
      </trkpt>
      <trkpt lat="36.453067967668176" lon="-6.153269028291106">
        <ele>-3.71</ele>
        <time>2025-05-08T08:26:19Z</time>
      </trkpt>
      <trkpt lat="36.450839973986149" lon="-6.151298023760319">
        <ele>-2.75</ele>
        <time>2025-05-08T08:26:33Z</time>
      </trkpt>
      <trkpt lat="36.449372973293066" lon="-6.149975024163723">
        <ele>-3.23</ele>
        <time>2025-05-08T08:26:43Z</time>
      </trkpt>
      <trkpt lat="36.447572959586978" lon="-6.148396041244268">
        <ele>-2.75</ele>
        <time>2025-05-08T08:26:55Z</time>
      </trkpt>
      <trkpt lat="36.445910995826125" lon="-6.146787973120809">
        <ele>-0.82</ele>
        <time>2025-05-08T08:27:14Z</time>
      </trkpt>
      <trkpt lat="36.445122007280588" lon="-6.145660020411015">
        <ele>-0.34</ele>
        <time>2025-05-08T08:27:22Z</time>
      </trkpt>
      <trkpt lat="36.444500992074609" lon="-6.14410400390625">
        <ele>-0.34</ele>
        <time>2025-05-08T08:27:29Z</time>
      </trkpt>
      <trkpt lat="36.444242997094989" lon="-6.140374979004264">
        <ele>3.5</ele>
        <time>2025-05-08T08:27:39Z</time>
      </trkpt>
      <trkpt lat="36.444137971848249" lon="-6.13815201446414">
        <ele>4.94</ele>
        <time>2025-05-08T08:27:48Z</time>
      </trkpt>
      <trkpt lat="36.443592980504036" lon="-6.136128036305308">
        <ele>5.91</ele>
        <time>2025-05-08T08:27:57Z</time>
      </trkpt>
      <trkpt lat="36.442660996690392" lon="-6.133866012096405">
        <ele>9.75</ele>
        <time>2025-05-08T08:28:07Z</time>
      </trkpt>
      <trkpt lat="36.441475041210651" lon="-6.131061008200049">
        <ele>10.710000000000001</ele>
        <time>2025-05-08T08:28:19Z</time>
      </trkpt>
      <trkpt lat="36.440439037978649" lon="-6.128923958167434">
        <ele>13.119999999999999</ele>
        <time>2025-05-08T08:28:28Z</time>
      </trkpt>
      <trkpt lat="36.438712030649185" lon="-6.126002026721835">
        <ele>16.960000000000001</ele>
        <time>2025-05-08T08:28:40Z</time>
      </trkpt>
      <trkpt lat="36.437165988609195" lon="-6.123848967254162">
        <ele>21.289999999999999</ele>
        <time>2025-05-08T08:28:49Z</time>
      </trkpt>
      <trkpt lat="36.434398032724857" lon="-6.120768031105399">
        <ele>26.09</ele>
        <time>2025-05-08T08:29:02Z</time>
      </trkpt>
      <trkpt lat="36.431707022711635" lon="-6.118039973080158">
        <ele>28.02</ele>
        <time>2025-05-08T08:29:14Z</time>
      </trkpt>
      <trkpt lat="36.428909981623292" lon="-6.115476032719016">
        <ele>28.02</ele>
        <time>2025-05-08T08:29:26Z</time>
      </trkpt>
      <trkpt lat="36.427334016188979" lon="-6.114574978128076">
        <ele>27.530000000000001</ele>
        <time>2025-05-08T08:29:32Z</time>
      </trkpt>
      <trkpt lat="36.425626035779715" lon="-6.114202989265323">
        <ele>25.609999999999999</ele>
        <time>2025-05-08T08:29:38Z</time>
      </trkpt>
      <trkpt lat="36.423885030671954" lon="-6.114355958998203">
        <ele>24.170000000000002</ele>
        <time>2025-05-08T08:29:44Z</time>
      </trkpt>
      <trkpt lat="36.42224301584065" lon="-6.115064984187484">
        <ele>19.359999999999999</ele>
        <time>2025-05-08T08:29:50Z</time>
      </trkpt>
      <trkpt lat="36.420034971088171" lon="-6.116757038980722">
        <ele>7.83</ele>
        <time>2025-05-08T08:29:59Z</time>
      </trkpt>
      <trkpt lat="36.418346017599106" lon="-6.117755994200707">
        <ele>8.789999999999999</ele>
        <time>2025-05-08T08:30:06Z</time>
      </trkpt>
      <trkpt lat="36.415996989235282" lon="-6.11862201243639">
        <ele>10.710000000000001</ele>
        <time>2025-05-08T08:30:15Z</time>
      </trkpt>
      <trkpt lat="36.413687020540237" lon="-6.118957959115505">
        <ele>10.710000000000001</ele>
        <time>2025-05-08T08:30:23Z</time>
      </trkpt>
      <trkpt lat="36.410527965053916" lon="-6.119317039847374">
        <ele>7.83</ele>
        <time>2025-05-08T08:30:34Z</time>
      </trkpt>
      <trkpt lat="36.408704984933138" lon="-6.120367962867022">
        <ele>6.87</ele>
        <time>2025-05-08T08:30:41Z</time>
      </trkpt>
      <trkpt lat="36.407431019470096" lon="-6.121721975505352">
        <ele>6.39</ele>
        <time>2025-05-08T08:30:47Z</time>
      </trkpt>
      <trkpt lat="36.406210027635098" lon="-6.123686023056507">
        <ele>7.35</ele>
        <time>2025-05-08T08:30:55Z</time>
      </trkpt>
      <trkpt lat="36.404929021373391" lon="-6.125135002657771">
        <ele>8.789999999999999</ele>
        <time>2025-05-08T08:31:02Z</time>
      </trkpt>
      <trkpt lat="36.40335900709033" lon="-6.126079978421331">
        <ele>12.15</ele>
        <time>2025-05-08T08:31:09Z</time>
      </trkpt>
      <trkpt lat="36.401884965598583" lon="-6.12642296589911">
        <ele>14.08</ele>
        <time>2025-05-08T08:31:15Z</time>
      </trkpt>
      <trkpt lat="36.400143960490823" lon="-6.126193972304463">
        <ele>15.039999999999999</ele>
        <time>2025-05-08T08:31:22Z</time>
      </trkpt>
      <trkpt lat="36.398486020043492" lon="-6.125443959608674">
        <ele>14.56</ele>
        <time>2025-05-08T08:31:29Z</time>
      </trkpt>
      <trkpt lat="36.394920023158193" lon="-6.123145977035165">
        <ele>16.960000000000001</ele>
        <time>2025-05-08T08:31:45Z</time>
      </trkpt>
      <trkpt lat="36.391679998487234" lon="-6.120722014456987">
        <ele>15.039999999999999</ele>
        <time>2025-05-08T08:32:00Z</time>
      </trkpt>
      <trkpt lat="36.389128966256976" lon="-6.118747992441058">
        <ele>18.399999999999999</ele>
        <time>2025-05-08T08:32:12Z</time>
      </trkpt>
      <trkpt lat="36.38690197840333" lon="-6.117343017831445">
        <ele>20.32</ele>
        <time>2025-05-08T08:32:22Z</time>
      </trkpt>
      <trkpt lat="36.383846020326018" lon="-6.115920022130013">
        <ele>23.690000000000001</ele>
        <time>2025-05-08T08:32:35Z</time>
      </trkpt>
      <trkpt lat="36.381203960627317" lon="-6.1149260122329">
        <ele>25.609999999999999</ele>
        <time>2025-05-08T08:32:46Z</time>
      </trkpt>
      <trkpt lat="36.378469029441476" lon="-6.114422008395195">
        <ele>26.09</ele>
        <time>2025-05-08T08:32:57Z</time>
      </trkpt>
      <trkpt lat="36.377005968242884" lon="-6.114169964566827">
        <ele>24.170000000000002</ele>
        <time>2025-05-08T08:33:04Z</time>
      </trkpt>
      <trkpt lat="36.374804964289069" lon="-6.113790012896061">
        <ele>20.32</ele>
        <time>2025-05-08T08:33:16Z</time>
      </trkpt>
      <trkpt lat="36.372890034690499" lon="-6.113460017368197">
        <ele>16.48</ele>
        <time>2025-05-08T08:33:28Z</time>
      </trkpt>
      <trkpt lat="36.370820961892605" lon="-6.113103032112122">
        <ele>16.48</ele>
        <time>2025-05-08T08:33:42Z</time>
      </trkpt>
      <trkpt lat="36.369048021733761" lon="-6.112779993563891">
        <ele>16.960000000000001</ele>
        <time>2025-05-08T08:33:54Z</time>
      </trkpt>
      <trkpt lat="36.367473984137177" lon="-6.112439017742872">
        <ele>19.84</ele>
        <time>2025-05-08T08:34:05Z</time>
      </trkpt>
      <trkpt lat="36.365830963477492" lon="-6.111982958391309">
        <ele>24.170000000000002</ele>
        <time>2025-05-08T08:34:17Z</time>
      </trkpt>
      <trkpt lat="36.364055005833507" lon="-6.111309975385666">
        <ele>26.57</ele>
        <time>2025-05-08T08:34:28Z</time>
      </trkpt>
      <trkpt lat="36.361669013276696" lon="-6.110154027119279">
        <ele>27.050000000000001</ele>
        <time>2025-05-08T08:34:42Z</time>
      </trkpt>
      <trkpt lat="36.360161025077105" lon="-6.109201004728675">
        <ele>28.5</ele>
        <time>2025-05-08T08:34:51Z</time>
      </trkpt>
      <trkpt lat="36.358380960300565" lon="-6.107595032081008">
        <ele>27.530000000000001</ele>
        <time>2025-05-08T08:35:02Z</time>
      </trkpt>
      <trkpt lat="36.357146976515651" lon="-6.105842962861061">
        <ele>27.050000000000001</ele>
        <time>2025-05-08T08:35:11Z</time>
      </trkpt>
      <trkpt lat="36.356183979660273" lon="-6.103767016902566">
        <ele>27.050000000000001</ele>
        <time>2025-05-08T08:35:20Z</time>
      </trkpt>
      <trkpt lat="36.35555500164628" lon="-6.101259989663959">
        <ele>29.460000000000001</ele>
        <time>2025-05-08T08:35:29Z</time>
      </trkpt>
      <trkpt lat="36.355374036356807" lon="-6.098599992692471">
        <ele>33.780000000000001</ele>
        <time>2025-05-08T08:35:37Z</time>
      </trkpt>
      <trkpt lat="36.355549972504377" lon="-6.09436696395278">
        <ele>38.109999999999999</ele>
        <time>2025-05-08T08:35:50Z</time>
      </trkpt>
      <trkpt lat="36.355689028277993" lon="-6.089994041249156">
        <ele>43.880000000000003</ele>
        <time>2025-05-08T08:36:04Z</time>
      </trkpt>
      <trkpt lat="36.355414018034935" lon="-6.085611982271075">
        <ele>49.159999999999997</ele>
        <time>2025-05-08T08:36:18Z</time>
      </trkpt>
      <trkpt lat="36.354711027815938" lon="-6.080889031291008">
        <ele>55.890000000000001</ele>
        <time>2025-05-08T08:36:33Z</time>
      </trkpt>
      <trkpt lat="36.353932013735175" lon="-6.076413011178374">
        <ele>62.140000000000001</ele>
        <time>2025-05-08T08:36:47Z</time>
      </trkpt>
      <trkpt lat="36.353014027699828" lon="-6.071855016052723">
        <ele>66.469999999999999</ele>
        <time>2025-05-08T08:37:01Z</time>
      </trkpt>
      <trkpt lat="36.352207018062472" lon="-6.069718971848488">
        <ele>67.909999999999997</ele>
        <time>2025-05-08T08:37:08Z</time>
      </trkpt>
      <trkpt lat="36.350903967395425" lon="-6.067505981773138">
        <ele>69.829999999999998</ele>
        <time>2025-05-08T08:37:16Z</time>
      </trkpt>
      <trkpt lat="36.349405031651258" lon="-6.06564000248909">
        <ele>71.760000000000005</ele>
        <time>2025-05-08T08:37:24Z</time>
      </trkpt>
      <trkpt lat="36.347936019301414" lon="-6.063612001016736">
        <ele>72.239999999999995</ele>
        <time>2025-05-08T08:37:33Z</time>
      </trkpt>
      <trkpt lat="36.346665993332863" lon="-6.061120983213186">
        <ele>72.719999999999999</ele>
        <time>2025-05-08T08:37:42Z</time>
      </trkpt>
      <trkpt lat="36.345670977607369" lon="-6.057994030416012">
        <ele>76.560000000000002</ele>
        <time>2025-05-08T08:37:52Z</time>
      </trkpt>
      <trkpt lat="36.344945020973682" lon="-6.05513202957809">
        <ele>76.079999999999998</ele>
        <time>2025-05-08T08:38:01Z</time>
      </trkpt>
      <trkpt lat="36.343861995264888" lon="-6.052838992327452">
        <ele>73.200000000000003</ele>
        <time>2025-05-08T08:38:09Z</time>
      </trkpt>
      <trkpt lat="36.342503037303686" lon="-6.05113503523171">
        <ele>69.829999999999998</ele>
        <time>2025-05-08T08:38:16Z</time>
      </trkpt>
      <trkpt lat="36.341027989983559" lon="-6.04999702423811">
        <ele>65.030000000000001</ele>
        <time>2025-05-08T08:38:23Z</time>
      </trkpt>
      <trkpt lat="36.339128986001015" lon="-6.049194959923625">
        <ele>58.780000000000001</ele>
        <time>2025-05-08T08:38:31Z</time>
      </trkpt>
      <trkpt lat="36.337346993386745" lon="-6.048984993249178">
        <ele>52.049999999999997</ele>
        <time>2025-05-08T08:38:38Z</time>
      </trkpt>
      <trkpt lat="36.33557497523725" lon="-6.049283975735307">
        <ele>46.759999999999998</ele>
        <time>2025-05-08T08:38:45Z</time>
      </trkpt>
      <trkpt lat="36.333629032596946" lon="-6.050252001732588">
        <ele>46.280000000000001</ele>
        <time>2025-05-08T08:38:53Z</time>
      </trkpt>
      <trkpt lat="36.331300036981702" lon="-6.052024019882083">
        <ele>53.490000000000002</ele>
        <time>2025-05-08T08:39:03Z</time>
      </trkpt>
      <trkpt lat="36.328994007781148" lon="-6.053666034713388">
        <ele>61.18</ele>
        <time>2025-05-08T08:39:13Z</time>
      </trkpt>
      <trkpt lat="36.326599968597293" lon="-6.054994985461235">
        <ele>65.989999999999995</ele>
        <time>2025-05-08T08:39:23Z</time>
      </trkpt>
      <trkpt lat="36.323592960834503" lon="-6.056204997003079">
        <ele>64.549999999999997</ele>
        <time>2025-05-08T08:39:35Z</time>
      </trkpt>
      <trkpt lat="36.320695001631975" lon="-6.056963978335261">
        <ele>54.450000000000003</ele>
        <time>2025-05-08T08:39:46Z</time>
      </trkpt>
      <trkpt lat="36.317522032186389" lon="-6.057319035753608">
        <ele>42.920000000000002</ele>
        <time>2025-05-08T08:39:58Z</time>
      </trkpt>
      <trkpt lat="36.314015965908766" lon="-6.057182997465134">
        <ele>30.899999999999999</ele>
        <time>2025-05-08T08:40:11Z</time>
      </trkpt>
      <trkpt lat="36.310228016227484" lon="-6.056599030271173">
        <ele>27.530000000000001</ele>
        <time>2025-05-08T08:40:26Z</time>
      </trkpt>
      <trkpt lat="36.306220041587949" lon="-6.056042974814773">
        <ele>33.299999999999997</ele>
        <time>2025-05-08T08:40:42Z</time>
      </trkpt>
      <trkpt lat="36.302708024159074" lon="-6.056023025885224">
        <ele>33.780000000000001</ele>
        <time>2025-05-08T08:40:56Z</time>
      </trkpt>
      <trkpt lat="36.299774022772908" lon="-6.056479001417756">
        <ele>30.420000000000002</ele>
        <time>2025-05-08T08:41:08Z</time>
      </trkpt>
      <trkpt lat="36.297103967517614" lon="-6.057065986096859">
        <ele>25.129999999999999</ele>
        <time>2025-05-08T08:41:20Z</time>
      </trkpt>
      <trkpt lat="36.295300014317036" lon="-6.057261032983661">
        <ele>20.809999999999999</ele>
        <time>2025-05-08T08:41:29Z</time>
      </trkpt>
      <trkpt lat="36.293308977037668" lon="-6.057501006871462">
        <ele>11.67</ele>
        <time>2025-05-08T08:41:41Z</time>
      </trkpt>
      <trkpt lat="36.292613027617335" lon="-6.057650959119201">
        <ele>5.42</ele>
        <time>2025-05-08T08:41:46Z</time>
      </trkpt>
      <trkpt lat="36.292515965178609" lon="-6.057683983817697">
        <ele>4.46</ele>
        <time>2025-05-08T08:41:47Z</time>
      </trkpt>
      <trkpt lat="36.292438013479114" lon="-6.057718014344573">
        <ele>4.46</ele>
        <time>2025-05-08T08:41:48Z</time>
      </trkpt>
      <trkpt lat="36.292343968525529" lon="-6.057794038206339">
        <ele>3.98</ele>
        <time>2025-05-08T08:41:49Z</time>
      </trkpt>
      <trkpt lat="36.292327037081122" lon="-6.057929992675781">
        <ele>3.98</ele>
        <time>2025-05-08T08:41:50Z</time>
      </trkpt>
      <trkpt lat="36.292293006554246" lon="-6.057986989617348">
        <ele>3.98</ele>
        <time>2025-05-08T08:41:51Z</time>
      </trkpt>
      <trkpt lat="36.292053032666445" lon="-6.05816300958395">
        <ele>3.02</ele>
        <time>2025-05-08T08:41:53Z</time>
      </trkpt>
      <trkpt lat="36.292023025453091" lon="-6.058311033993959">
        <ele>3.02</ele>
        <time>2025-05-08T08:41:54Z</time>
      </trkpt>
      <trkpt lat="36.291990000754595" lon="-6.058475989848375">
        <ele>2.54</ele>
        <time>2025-05-08T08:41:55Z</time>
      </trkpt>
      <trkpt lat="36.291652964428067" lon="-6.059953970834613">
        <ele>2.06</ele>
        <time>2025-05-08T08:42:03Z</time>
      </trkpt>
      <trkpt lat="36.29126999527216" lon="-6.061485009267926">
        <ele>8.789999999999999</ele>
        <time>2025-05-08T08:42:11Z</time>
      </trkpt>
      <trkpt lat="36.290659960359335" lon="-6.062586978077889">
        <ele>12.630000000000001</ele>
        <time>2025-05-08T08:42:18Z</time>
      </trkpt>
      <trkpt lat="36.290166014805436" lon="-6.063273036852479">
        <ele>11.19</ele>
        <time>2025-05-08T08:42:24Z</time>
      </trkpt>
      <trkpt lat="36.290181018412113" lon="-6.063465988263488">
        <ele>11.19</ele>
        <time>2025-05-08T08:42:25Z</time>
      </trkpt>
      <trkpt lat="36.290147993713617" lon="-6.063682995736599">
        <ele>10.710000000000001</ele>
        <time>2025-05-08T08:42:27Z</time>
      </trkpt>
      <trkpt lat="36.290101977065206" lon="-6.063775029033423">
        <ele>10.710000000000001</ele>
        <time>2025-05-08T08:42:28Z</time>
      </trkpt>
      <trkpt lat="36.290073981508613" lon="-6.063831020146608">
        <ele>10.23</ele>
        <time>2025-05-08T08:42:29Z</time>
      </trkpt>
      <trkpt lat="36.289868960157037" lon="-6.063861027359963">
        <ele>10.23</ele>
        <time>2025-05-08T08:42:30Z</time>
      </trkpt>
      <trkpt lat="36.289822021499276" lon="-6.063978038728237">
        <ele>9.75</ele>
        <time>2025-05-08T08:42:31Z</time>
      </trkpt>
      <trkpt lat="36.289772987365723" lon="-6.064117010682821">
        <ele>9.75</ele>
        <time>2025-05-08T08:42:32Z</time>
      </trkpt>
      <trkpt lat="36.289728982374072" lon="-6.06426402926445">
        <ele>9.75</ele>
        <time>2025-05-08T08:42:33Z</time>
      </trkpt>
      <trkpt lat="36.289667040109634" lon="-6.064411969855428">
        <ele>9.27</ele>
        <time>2025-05-08T08:42:34Z</time>
      </trkpt>
      <trkpt lat="36.289566960185766" lon="-6.064686980098486">
        <ele>8.789999999999999</ele>
        <time>2025-05-08T08:42:36Z</time>
      </trkpt>
      <trkpt lat="36.289527984336019" lon="-6.06480298563838">
        <ele>8.789999999999999</ele>
        <time>2025-05-08T08:42:37Z</time>
      </trkpt>
      <trkpt lat="36.289565032348037" lon="-6.065034996718168">
        <ele>8.789999999999999</ele>
        <time>2025-05-08T08:42:39Z</time>
      </trkpt>
      <trkpt lat="36.289513986557722" lon="-6.065109008923173">
        <ele>8.789999999999999</ele>
        <time>2025-05-08T08:42:40Z</time>
      </trkpt>
      <trkpt lat="36.289472999051213" lon="-6.065140021964908">
        <ele>8.789999999999999</ele>
        <time>2025-05-08T08:42:41Z</time>
      </trkpt>
      <trkpt lat="36.28942497074604" lon="-6.06510397978127">
        <ele>8.310000000000001</ele>
        <time>2025-05-08T08:42:42Z</time>
      </trkpt>
      <trkpt lat="36.289391024038196" lon="-6.065077995881438">
        <ele>8.310000000000001</ele>
        <time>2025-05-08T08:42:43Z</time>
      </trkpt>
      <trkpt lat="36.289387000724673" lon="-6.065074978396297">
        <ele>8.310000000000001</ele>
        <time>2025-05-08T08:42:44Z</time>
      </trkpt>
      <trkpt lat="36.289379959926009" lon="-6.065018987283111">
        <ele>8.310000000000001</ele>
        <time>2025-05-08T08:42:45Z</time>
      </trkpt>
      <trkpt lat="36.289374008774757" lon="-6.064968025311828">
        <ele>8.310000000000001</ele>
        <time>2025-05-08T08:42:46Z</time>
      </trkpt>
      <trkpt lat="36.289383983239532" lon="-6.064896024763584">
        <ele>8.310000000000001</ele>
        <time>2025-05-08T08:42:47Z</time>
      </trkpt>
      <trkpt lat="36.289434023201466" lon="-6.064874986186624">
        <ele>7.83</ele>
        <time>2025-05-08T08:42:48Z</time>
      </trkpt>
      <trkpt lat="36.289483979344368" lon="-6.064853025600314">
        <ele>7.83</ele>
        <time>2025-05-08T08:42:49Z</time>
      </trkpt>
      <trkpt lat="36.289535025134683" lon="-6.064865011721849">
        <ele>7.35</ele>
        <time>2025-05-08T08:42:50Z</time>
      </trkpt>
      <trkpt lat="36.289567966014147" lon="-6.0649090167135">
        <ele>7.35</ele>
        <time>2025-05-08T08:42:51Z</time>
      </trkpt>
      <trkpt lat="36.289580035954714" lon="-6.064925026148558">
        <ele>7.35</ele>
        <time>2025-05-08T08:42:52Z</time>
      </trkpt>
      <trkpt lat="36.289580035954714" lon="-6.064925026148558">
        <ele>7.35</ele>
        <time>2025-05-08T08:42:53Z</time>
      </trkpt>
      <trkpt lat="36.289608031511307" lon="-6.065141027793288">
        <ele>7.35</ele>
        <time>2025-05-08T08:42:54Z</time>
      </trkpt>
      <trkpt lat="36.289649019017816" lon="-6.065196013078094">
        <ele>6.87</ele>
        <time>2025-05-08T08:42:55Z</time>
      </trkpt>
      <trkpt lat="36.289687994867563" lon="-6.065246975049377">
        <ele>6.87</ele>
        <time>2025-05-08T08:42:56Z</time>
      </trkpt>
      <trkpt lat="36.289721019566059" lon="-6.065303971990943">
        <ele>6.39</ele>
        <time>2025-05-08T08:42:57Z</time>
      </trkpt>
      <trkpt lat="36.289750020951033" lon="-6.065355017781258">
        <ele>6.39</ele>
        <time>2025-05-08T08:42:58Z</time>
      </trkpt>
      <trkpt lat="36.289778016507626" lon="-6.065403968095779">
        <ele>5.91</ele>
        <time>2025-05-08T08:42:59Z</time>
      </trkpt>
      <trkpt lat="36.289804000407457" lon="-6.06544797308743">
        <ele>5.42</ele>
        <time>2025-05-08T08:43:00Z</time>
      </trkpt>
      <trkpt lat="36.289838030934334" lon="-6.065505975857377">
        <ele>4.46</ele>
        <time>2025-05-08T08:43:08Z</time>
      </trkpt>
      <trkpt lat="36.289881030097604" lon="-6.065581999719143">
        <ele>3.02</ele>
        <time>2025-05-08T08:43:25Z</time>
      </trkpt>
      <trkpt lat="36.289881030097604" lon="-6.065581999719143">
        <ele>2.06</ele>
        <time>2025-05-08T08:43:34Z</time>
      </trkpt>
      <trkpt lat="36.289924029260874" lon="-6.065655006095767">
        <ele>1.58</ele>
        <time>2025-05-08T08:43:35Z</time>
      </trkpt>
      <trkpt lat="36.289887987077236" lon="-6.065593985840678">
        <ele>1.58</ele>
        <time>2025-05-08T08:43:36Z</time>
      </trkpt>
      <trkpt lat="36.289870971813798" lon="-6.065563978627324">
        <ele>1.1</ele>
        <time>2025-05-08T08:43:37Z</time>
      </trkpt>
      <trkpt lat="36.289844987913966" lon="-6.065518967807293">
        <ele>1.1</ele>
        <time>2025-05-08T08:43:38Z</time>
      </trkpt>
      <trkpt lat="36.289814980700612" lon="-6.06546800583601">
        <ele>1.1</ele>
        <time>2025-05-08T08:43:39Z</time>
      </trkpt>
      <trkpt lat="36.28968296572566" lon="-6.065241023898125">
        <ele>1.1</ele>
        <time>2025-05-08T08:43:44Z</time>
      </trkpt>
      <trkpt lat="36.289649019017816" lon="-6.065196013078094">
        <ele>1.1</ele>
        <time>2025-05-08T08:43:45Z</time>
      </trkpt>
      <trkpt lat="36.289618005976081" lon="-6.065154019743204">
        <ele>0.62</ele>
        <time>2025-05-08T08:43:46Z</time>
      </trkpt>
      <trkpt lat="36.289472999051213" lon="-6.065140021964908">
        <ele>1.1</ele>
        <time>2025-05-08T08:43:48Z</time>
      </trkpt>
      <trkpt lat="36.28942497074604" lon="-6.06510397978127">
        <ele>1.1</ele>
        <time>2025-05-08T08:43:49Z</time>
      </trkpt>
      <trkpt lat="36.289383983239532" lon="-6.065054023638368">
        <ele>1.1</ele>
        <time>2025-05-08T08:43:50Z</time>
      </trkpt>
      <trkpt lat="36.289375014603138" lon="-6.064979005604982">
        <ele>1.1</ele>
        <time>2025-05-08T08:43:51Z</time>
      </trkpt>
      <trkpt lat="36.289406027644873" lon="-6.064886972308159">
        <ele>1.58</ele>
        <time>2025-05-08T08:43:52Z</time>
      </trkpt>
      <trkpt lat="36.289515998214483" lon="-6.064839027822018">
        <ele>1.58</ele>
        <time>2025-05-08T08:43:53Z</time>
      </trkpt>
      <trkpt lat="36.289654970169067" lon="-6.064441977068782">
        <ele>2.54</ele>
        <time>2025-05-08T08:43:57Z</time>
      </trkpt>
      <trkpt lat="36.28970299847424" lon="-6.064324965700507">
        <ele>3.02</ele>
        <time>2025-05-08T08:43:58Z</time>
      </trkpt>
      <trkpt lat="36.289842976257205" lon="-6.063924981281161">
        <ele>4.46</ele>
        <time>2025-05-08T08:44:03Z</time>
      </trkpt>
      <trkpt lat="36.289752032607794" lon="-6.063702022656798">
        <ele>4.94</ele>
        <time>2025-05-08T08:44:06Z</time>
      </trkpt>
      <trkpt lat="36.289752032607794" lon="-6.063648965209723">
        <ele>5.42</ele>
        <time>2025-05-08T08:44:07Z</time>
      </trkpt>
      <trkpt lat="36.289752032607794" lon="-6.063581993803382">
        <ele>5.42</ele>
        <time>2025-05-08T08:44:08Z</time>
      </trkpt>
      <trkpt lat="36.289752032607794" lon="-6.063516028225422">
        <ele>5.91</ele>
        <time>2025-05-08T08:44:09Z</time>
      </trkpt>
      <trkpt lat="36.289792014285922" lon="-6.063440004363656">
        <ele>6.39</ele>
        <time>2025-05-08T08:44:10Z</time>
      </trkpt>
      <trkpt lat="36.289824033156037" lon="-6.063401028513908">
        <ele>6.39</ele>
        <time>2025-05-08T08:44:11Z</time>
      </trkpt>
      <trkpt lat="36.289858985692263" lon="-6.063359035179019">
        <ele>6.39</ele>
        <time>2025-05-08T08:44:12Z</time>
      </trkpt>
      <trkpt lat="36.289927968755364" lon="-6.063339002430439">
        <ele>6.87</ele>
        <time>2025-05-08T08:44:13Z</time>
      </trkpt>
      <trkpt lat="36.289989994838834" lon="-6.063321987167001">
        <ele>6.87</ele>
        <time>2025-05-08T08:44:14Z</time>
      </trkpt>
      <trkpt lat="36.290068030357361" lon="-6.063345037400723">
        <ele>6.87</ele>
        <time>2025-05-08T08:44:15Z</time>
      </trkpt>
      <trkpt lat="36.290128966793418" lon="-6.063401028513908">
        <ele>6.87</ele>
        <time>2025-05-08T08:44:16Z</time>
      </trkpt>
      <trkpt lat="36.290181018412113" lon="-6.063465988263488">
        <ele>7.35</ele>
        <time>2025-05-08T08:44:17Z</time>
      </trkpt>
      <trkpt lat="36.290181018412113" lon="-6.063585011288524">
        <ele>7.35</ele>
        <time>2025-05-08T08:44:18Z</time>
      </trkpt>
      <trkpt lat="36.290181018412113" lon="-6.063616024330258">
        <ele>7.83</ele>
        <time>2025-05-08T08:44:19Z</time>
      </trkpt>
      <trkpt lat="36.290111029520631" lon="-6.063904026523233">
        <ele>7.83</ele>
        <time>2025-05-08T08:44:20Z</time>
      </trkpt>
      <trkpt lat="36.290165008977056" lon="-6.064013997092843">
        <ele>7.83</ele>
        <time>2025-05-08T08:44:21Z</time>
      </trkpt>
      <trkpt lat="36.290225023403764" lon="-6.064133020117879">
        <ele>7.35</ele>
        <time>2025-05-08T08:44:22Z</time>
      </trkpt>
      <trkpt lat="36.290286965668201" lon="-6.06426696293056">
        <ele>7.83</ele>
        <time>2025-05-08T08:44:23Z</time>
      </trkpt>
      <trkpt lat="36.291033960878849" lon="-6.065930016338825">
        <ele>8.310000000000001</ele>
        <time>2025-05-08T08:44:33Z</time>
      </trkpt>
      <trkpt lat="36.291928980499506" lon="-6.068516001105309">
        <ele>11.67</ele>
        <time>2025-05-08T08:44:48Z</time>
      </trkpt>
      <trkpt lat="36.292456034570932" lon="-6.070177964866161">
        <ele>14.56</ele>
        <time>2025-05-08T08:44:59Z</time>
      </trkpt>
      <trkpt lat="36.293129017576575" lon="-6.071838000789285">
        <ele>21.289999999999999</ele>
        <time>2025-05-08T08:45:11Z</time>
      </trkpt>
      <trkpt lat="36.293879030272365" lon="-6.072749029844999">
        <ele>25.129999999999999</ele>
        <time>2025-05-08T08:45:19Z</time>
      </trkpt>
      <trkpt lat="36.294117998331785" lon="-6.073038959875703">
        <ele>27.050000000000001</ele>
        <time>2025-05-08T08:45:23Z</time>
      </trkpt>
      <trkpt lat="36.294237021356821" lon="-6.073036026209593">
        <ele>27.050000000000001</ele>
        <time>2025-05-08T08:45:24Z</time>
      </trkpt>
      <trkpt lat="36.294269040226936" lon="-6.073047006502748">
        <ele>27.530000000000001</ele>
        <time>2025-05-08T08:45:25Z</time>
      </trkpt>
      <trkpt lat="36.294314973056316" lon="-6.073062010109425">
        <ele>27.530000000000001</ele>
        <time>2025-05-08T08:45:26Z</time>
      </trkpt>
      <trkpt lat="36.294370964169502" lon="-6.073121018707752">
        <ele>28.02</ele>
        <time>2025-05-08T08:45:27Z</time>
      </trkpt>
      <trkpt lat="36.294379010796547" lon="-6.073173992335796">
        <ele>28.02</ele>
        <time>2025-05-08T08:45:28Z</time>
      </trkpt>
      <trkpt lat="36.294324025511742" lon="-6.073280023410916">
        <ele>28.02</ele>
        <time>2025-05-08T08:45:29Z</time>
      </trkpt>
      <trkpt lat="36.29425898194313" lon="-6.073334002867341">
        <ele>28.02</ele>
        <time>2025-05-08T08:45:30Z</time>
      </trkpt>
      <trkpt lat="36.29419301636517" lon="-6.07339602895081">
        <ele>28.02</ele>
        <time>2025-05-08T08:45:31Z</time>
      </trkpt>
      <trkpt lat="36.294054966419935" lon="-6.07352502644062">
        <ele>27.530000000000001</ele>
        <time>2025-05-08T08:45:33Z</time>
      </trkpt>
      <trkpt lat="36.293663028627634" lon="-6.073892991989851">
        <ele>27.050000000000001</ele>
        <time>2025-05-08T08:45:39Z</time>
      </trkpt>
      <trkpt lat="36.292821988463402" lon="-6.074547031894326">
        <ele>26.57</ele>
        <time>2025-05-08T08:45:48Z</time>
      </trkpt>
      <trkpt lat="36.291339984163642" lon="-6.075440039858222">
        <ele>28.5</ele>
        <time>2025-05-08T08:46:02Z</time>
      </trkpt>
      <trkpt lat="36.29107897169888" lon="-6.075598038733006">
        <ele>29.940000000000001</ele>
        <time>2025-05-08T08:46:05Z</time>
      </trkpt>
      <trkpt lat="36.290913010016084" lon="-6.075705997645855">
        <ele>30.899999999999999</ele>
        <time>2025-05-08T08:46:07Z</time>
      </trkpt>
      <trkpt lat="36.289974991232157" lon="-6.076300023123622">
        <ele>33.299999999999997</ele>
        <time>2025-05-08T08:46:17Z</time>
      </trkpt>
      <trkpt lat="36.289418013766408" lon="-6.076633036136627">
        <ele>35.710000000000001</ele>
        <time>2025-05-08T08:46:24Z</time>
      </trkpt>
      <trkpt lat="36.289352970197797" lon="-6.076673017814755">
        <ele>35.710000000000001</ele>
        <time>2025-05-08T08:46:25Z</time>
      </trkpt>
      <trkpt lat="36.289288010448217" lon="-6.076714005321264">
        <ele>35.710000000000001</ele>
        <time>2025-05-08T08:46:26Z</time>
      </trkpt>
      <trkpt lat="36.288614021614194" lon="-6.077247010543943">
        <ele>37.149999999999999</ele>
        <time>2025-05-08T08:46:36Z</time>
      </trkpt>
      <trkpt lat="36.287858979776502" lon="-6.078288964927197">
        <ele>39.549999999999997</ele>
        <time>2025-05-08T08:46:44Z</time>
      </trkpt>
      <trkpt lat="36.287198988720775" lon="-6.079409960657358">
        <ele>43.399999999999999</ele>
        <time>2025-05-08T08:46:52Z</time>
      </trkpt>
      <trkpt lat="36.286413017660379" lon="-6.08022996224463">
        <ele>43.399999999999999</ele>
        <time>2025-05-08T08:47:01Z</time>
      </trkpt>
      <trkpt lat="36.286340011283755" lon="-6.080288970842958">
        <ele>43.399999999999999</ele>
        <time>2025-05-08T08:47:02Z</time>
      </trkpt>
      <trkpt lat="36.286359038203955" lon="-6.080463984981179">
        <ele>43.399999999999999</ele>
        <time>2025-05-08T08:47:03Z</time>
      </trkpt>
      <trkpt lat="36.286305980756879" lon="-6.080531040206552">
        <ele>43.399999999999999</ele>
        <time>2025-05-08T08:47:04Z</time>
      </trkpt>
      <trkpt lat="36.286216964945197" lon="-6.080579990521073">
        <ele>43.399999999999999</ele>
        <time>2025-05-08T08:47:05Z</time>
      </trkpt>
      <trkpt lat="36.286169020459056" lon="-6.080588959157467">
        <ele>43.399999999999999</ele>
        <time>2025-05-08T08:47:06Z</time>
      </trkpt>
      <trkpt lat="36.286023007705808" lon="-6.080530034378171">
        <ele>42.920000000000002</ele>
        <time>2025-05-08T08:47:07Z</time>
      </trkpt>
      <trkpt lat="36.285940026864409" lon="-6.080589964985848">
        <ele>42.920000000000002</ele>
        <time>2025-05-08T08:47:08Z</time>
      </trkpt>
      <trkpt lat="36.285842964425683" lon="-6.080659031867981">
        <ele>42.439999999999998</ele>
        <time>2025-05-08T08:47:09Z</time>
      </trkpt>
      <trkpt lat="36.28475901670754" lon="-6.081421030685306">
        <ele>43.399999999999999</ele>
        <time>2025-05-08T08:47:18Z</time>
      </trkpt>
      <trkpt lat="36.283700969070196" lon="-6.082195015624166">
        <ele>43.880000000000003</ele>
        <time>2025-05-08T08:47:28Z</time>
      </trkpt>
      <trkpt lat="36.283399974927306" lon="-6.082413028925657">
        <ele>43.880000000000003</ele>
        <time>2025-05-08T08:47:31Z</time>
      </trkpt>
      <trkpt lat="36.283339960500598" lon="-6.082473965361714">
        <ele>44.359999999999999</ele>
        <time>2025-05-08T08:47:32Z</time>
      </trkpt>
      <trkpt lat="36.283314982429147" lon="-6.082605980336666">
        <ele>44.359999999999999</ele>
        <time>2025-05-08T08:47:33Z</time>
      </trkpt>
      <trkpt lat="36.283298972994089" lon="-6.082660965621471">
        <ele>45.32</ele>
        <time>2025-05-08T08:47:34Z</time>
      </trkpt>
      <trkpt lat="36.283228984102607" lon="-6.082761967554689">
        <ele>45.32</ele>
        <time>2025-05-08T08:47:35Z</time>
      </trkpt>
      <trkpt lat="36.283175004646182" lon="-6.082769008353353">
        <ele>45.32</ele>
        <time>2025-05-08T08:47:36Z</time>
      </trkpt>
      <trkpt lat="36.283115996047854" lon="-6.082775965332985">
        <ele>45.32</ele>
        <time>2025-05-08T08:47:37Z</time>
      </trkpt>
      <trkpt lat="36.283055981621146" lon="-6.082733971998096">
        <ele>45.32</ele>
        <time>2025-05-08T08:47:38Z</time>
      </trkpt>
      <trkpt lat="36.283012982457876" lon="-6.082682004198432">
        <ele>45.32</ele>
        <time>2025-05-08T08:47:39Z</time>
      </trkpt>
      <trkpt lat="36.283005019649863" lon="-6.082627018913627">
        <ele>45.32</ele>
        <time>2025-05-08T08:47:40Z</time>
      </trkpt>
      <trkpt lat="36.282996973022819" lon="-6.082572033628821">
        <ele>44.840000000000003</ele>
        <time>2025-05-08T08:47:41Z</time>
      </trkpt>
      <trkpt lat="36.282993033528328" lon="-6.082542026415467">
        <ele>44.840000000000003</ele>
        <time>2025-05-08T08:47:42Z</time>
      </trkpt>
      <trkpt lat="36.282993033528328" lon="-6.082542026415467">
        <ele>44.840000000000003</ele>
        <time>2025-05-08T08:47:43Z</time>
      </trkpt>
      <trkpt lat="36.282993033528328" lon="-6.082542026415467">
        <ele>43.880000000000003</ele>
        <time>2025-05-08T08:47:54Z</time>
      </trkpt>
      <trkpt lat="36.283007031306624" lon="-6.08233499340713">
        <ele>43.880000000000003</ele>
        <time>2025-05-08T08:48:02Z</time>
      </trkpt>
      <trkpt lat="36.282974006608129" lon="-6.082275984808803">
        <ele>43.880000000000003</ele>
        <time>2025-05-08T08:48:03Z</time>
      </trkpt>
      <trkpt lat="36.282550971955061" lon="-6.081621022894979">
        <ele>45.32</ele>
        <time>2025-05-08T08:48:11Z</time>
      </trkpt>
      <trkpt lat="36.282157022505999" lon="-6.081105032935739">
        <ele>43.399999999999999</ele>
        <time>2025-05-08T08:48:18Z</time>
      </trkpt>
      <trkpt lat="36.282082004472613" lon="-6.081030014902353">
        <ele>42.920000000000002</ele>
        <time>2025-05-08T08:48:26Z</time>
      </trkpt>
      <trkpt lat="36.282024001702666" lon="-6.080972012132406">
        <ele>42.920000000000002</ele>
        <time>2025-05-08T08:48:54Z</time>
      </trkpt>
      <trkpt lat="36.281986031681299" lon="-6.080933958292007">
        <ele>43.399999999999999</ele>
        <time>2025-05-08T08:48:55Z</time>
      </trkpt>
      <trkpt lat="36.281880000606179" lon="-6.080891964957118">
        <ele>43.880000000000003</ele>
        <time>2025-05-08T08:48:56Z</time>
      </trkpt>
      <trkpt lat="36.281784027814865" lon="-6.08091602101922">
        <ele>44.359999999999999</ele>
        <time>2025-05-08T08:48:58Z</time>
      </trkpt>
      <trkpt lat="36.281723007559776" lon="-6.080878973007202">
        <ele>44.359999999999999</ele>
        <time>2025-05-08T08:48:59Z</time>
      </trkpt>
      <trkpt lat="36.281676990911365" lon="-6.080820970237255">
        <ele>44.359999999999999</ele>
        <time>2025-05-08T08:49:00Z</time>
      </trkpt>
      <trkpt lat="36.281641032546759" lon="-6.080761039629579">
        <ele>44.840000000000003</ele>
        <time>2025-05-08T08:49:02Z</time>
      </trkpt>
      <trkpt lat="36.281586969271302" lon="-6.080514024943113">
        <ele>44.840000000000003</ele>
        <time>2025-05-08T08:49:03Z</time>
      </trkpt>
      <trkpt lat="36.281519997864962" lon="-6.080446969717741">
        <ele>44.840000000000003</ele>
        <time>2025-05-08T08:49:04Z</time>
      </trkpt>
      <trkpt lat="36.281438022851944" lon="-6.080382009968162">
        <ele>44.840000000000003</ele>
        <time>2025-05-08T08:49:05Z</time>
      </trkpt>
      <trkpt lat="36.281364010646939" lon="-6.080319983884692">
        <ele>44.840000000000003</ele>
        <time>2025-05-08T08:49:06Z</time>
      </trkpt>
      <trkpt lat="36.280300011858344" lon="-6.079602995887399">
        <ele>38.590000000000003</ele>
        <time>2025-05-08T08:49:17Z</time>
      </trkpt>
      <trkpt lat="36.279090000316501" lon="-6.079302001744509">
        <ele>29.460000000000001</ele>
        <time>2025-05-08T08:49:27Z</time>
      </trkpt>
      <trkpt lat="36.278235968202353" lon="-6.079209968447685">
        <ele>23.210000000000001</ele>
        <time>2025-05-08T08:49:34Z</time>
      </trkpt>
      <trkpt lat="36.278130020946264" lon="-6.079164035618305">
        <ele>21.77</ele>
        <time>2025-05-08T08:49:35Z</time>
      </trkpt>
      <trkpt lat="36.277960035949945" lon="-6.079043000936508">
        <ele>19.84</ele>
        <time>2025-05-08T08:49:37Z</time>
      </trkpt>
      <trkpt lat="36.277891974896193" lon="-6.078993966802955">
        <ele>18.879999999999999</ele>
        <time>2025-05-08T08:49:38Z</time>
      </trkpt>
      <trkpt lat="36.277802959084511" lon="-6.078964965417981">
        <ele>17.920000000000002</ele>
        <time>2025-05-08T08:49:39Z</time>
      </trkpt>
      <trkpt lat="36.277591986581683" lon="-6.078908974304795">
        <ele>16</ele>
        <time>2025-05-08T08:49:42Z</time>
      </trkpt>
      <trkpt lat="36.277533983811736" lon="-6.078944010660052">
        <ele>15.52</ele>
        <time>2025-05-08T08:49:43Z</time>
      </trkpt>
      <trkpt lat="36.277470029890537" lon="-6.0789829865098">
        <ele>15.52</ele>
        <time>2025-05-08T08:49:44Z</time>
      </trkpt>
      <trkpt lat="36.277371039614081" lon="-6.079044006764889">
        <ele>15.52</ele>
        <time>2025-05-08T08:49:45Z</time>
      </trkpt>
      <trkpt lat="36.277334997430444" lon="-6.07911198399961">
        <ele>15.52</ele>
        <time>2025-05-08T08:49:46Z</time>
      </trkpt>
      <trkpt lat="36.277286969125271" lon="-6.079200999811292">
        <ele>15.52</ele>
        <time>2025-05-08T08:49:47Z</time>
      </trkpt>
      <trkpt lat="36.277007013559341" lon="-6.079779015854001">
        <ele>15.039999999999999</ele>
        <time>2025-05-08T08:49:54Z</time>
      </trkpt>
      <trkpt lat="36.276972983032465" lon="-6.079841963946819">
        <ele>15.039999999999999</ele>
        <time>2025-05-08T08:49:55Z</time>
      </trkpt>
      <trkpt lat="36.276942975819111" lon="-6.079900972545147">
        <ele>15.039999999999999</ele>
        <time>2025-05-08T08:49:56Z</time>
      </trkpt>
      <trkpt lat="36.276881033554673" lon="-6.079980013892055">
        <ele>15.039999999999999</ele>
        <time>2025-05-08T08:49:57Z</time>
      </trkpt>
      <trkpt lat="36.276840968057513" lon="-6.079959981143475">
        <ele>15.52</ele>
        <time>2025-05-08T08:49:58Z</time>
      </trkpt>
      <trkpt lat="36.276834011077881" lon="-6.079795025289059">
        <ele>15.039999999999999</ele>
        <time>2025-05-08T08:49:59Z</time>
      </trkpt>
      <trkpt lat="36.27683199942112" lon="-6.079782033339143">
        <ele>15.039999999999999</ele>
        <time>2025-05-08T08:50:00Z</time>
      </trkpt>
      <trkpt lat="36.276816995814443" lon="-6.079700980335474">
        <ele>15.039999999999999</ele>
        <time>2025-05-08T08:50:01Z</time>
      </trkpt>
      <trkpt lat="36.276799980551004" lon="-6.079606013372541">
        <ele>14.56</ele>
        <time>2025-05-08T08:50:02Z</time>
      </trkpt>
      <trkpt lat="36.276728985831141" lon="-6.079379031434655">
        <ele>13.6</ele>
        <time>2025-05-08T08:50:04Z</time>
      </trkpt>
      <trkpt lat="36.276310980319977" lon="-6.078146975487471">
        <ele>7.83</ele>
        <time>2025-05-08T08:50:12Z</time>
      </trkpt>
      <trkpt lat="36.276254989206791" lon="-6.077967016026378">
        <ele>7.35</ele>
        <time>2025-05-08T08:50:13Z</time>
      </trkpt>
      <trkpt lat="36.276240991428494" lon="-6.07777800410986">
        <ele>6.87</ele>
        <time>2025-05-08T08:50:14Z</time>
      </trkpt>
      <trkpt lat="36.27623101696372" lon="-6.077588992193341">
        <ele>6.39</ele>
        <time>2025-05-08T08:50:15Z</time>
      </trkpt>
      <trkpt lat="36.276151975616813" lon="-6.076263980939984">
        <ele>1.1</ele>
        <time>2025-05-08T08:50:23Z</time>
      </trkpt>
      <trkpt lat="36.276023983955383" lon="-6.075772969052196">
        <ele>-0.34</ele>
        <time>2025-05-08T08:50:27Z</time>
      </trkpt>
      <trkpt lat="36.27597201615572" lon="-6.075643971562386">
        <ele>-0.34</ele>
        <time>2025-05-08T08:50:28Z</time>
      </trkpt>
      <trkpt lat="36.275912001729012" lon="-6.075514974072576">
        <ele>-0.82</ele>
        <time>2025-05-08T08:50:29Z</time>
      </trkpt>
      <trkpt lat="36.275832960382104" lon="-6.075400980189443">
        <ele>-0.82</ele>
        <time>2025-05-08T08:50:30Z</time>
      </trkpt>
      <trkpt lat="36.275752997025847" lon="-6.075284974649549">
        <ele>-0.82</ele>
        <time>2025-05-08T08:50:31Z</time>
      </trkpt>
      <trkpt lat="36.275568008422852" lon="-6.075085988268256">
        <ele>-1.79</ele>
        <time>2025-05-08T08:50:33Z</time>
      </trkpt>
      <trkpt lat="36.275470023974776" lon="-6.074996972456574">
        <ele>-1.79</ele>
        <time>2025-05-08T08:50:34Z</time>
      </trkpt>
      <trkpt lat="36.27535100094974" lon="-6.074959002435207">
        <ele>-2.27</ele>
        <time>2025-05-08T08:50:35Z</time>
      </trkpt>
      <trkpt lat="36.275242958217859" lon="-6.074930001050234">
        <ele>-2.27</ele>
        <time>2025-05-08T08:50:36Z</time>
      </trkpt>
      <trkpt lat="36.275142962113023" lon="-6.074902005493641">
        <ele>-2.27</ele>
        <time>2025-05-08T08:50:37Z</time>
      </trkpt>
      <trkpt lat="36.274008974432945" lon="-6.074628001078963">
        <ele>-0.82</ele>
        <time>2025-05-08T08:50:49Z</time>
      </trkpt>
      <trkpt lat="36.273531960323453" lon="-6.074463967233896">
        <ele>-1.79</ele>
        <time>2025-05-08T08:50:54Z</time>
      </trkpt>
      <trkpt lat="36.273426013067365" lon="-6.074419962242246">
        <ele>-2.27</ele>
        <time>2025-05-08T08:50:55Z</time>
      </trkpt>
      <trkpt lat="36.272229999303818" lon="-6.07376298867166">
        <ele>-4.67</ele>
        <time>2025-05-08T08:51:06Z</time>
      </trkpt>
      <trkpt lat="36.270968019962311" lon="-6.073517985641956">
        <ele>-4.67</ele>
        <time>2025-05-08T08:51:17Z</time>
      </trkpt>
      <trkpt lat="36.269985996186733" lon="-6.073703980073333">
        <ele>-4.67</ele>
        <time>2025-05-08T08:51:26Z</time>
      </trkpt>
      <trkpt lat="36.268551014363766" lon="-6.073999023064971">
        <ele>-1.79</ele>
        <time>2025-05-08T08:51:38Z</time>
      </trkpt>
      <trkpt lat="36.267021987587214" lon="-6.074142018333077">
        <ele>-1.3</ele>
        <time>2025-05-08T08:51:45Z</time>
      </trkpt>
      <trkpt lat="36.265118960291147" lon="-6.074237991124392">
        <ele>-0.82</ele>
        <time>2025-05-08T08:51:54Z</time>
      </trkpt>
      <trkpt lat="36.263386001810431" lon="-6.073861978948116">
        <ele>3.5</ele>
        <time>2025-05-08T08:52:04Z</time>
      </trkpt>
      <trkpt lat="36.261996030807495" lon="-6.073069972917438">
        <ele>7.35</ele>
        <time>2025-05-08T08:52:12Z</time>
      </trkpt>
      <trkpt lat="36.259868033230305" lon="-6.07161495834589">
        <ele>7.83</ele>
        <time>2025-05-08T08:52:23Z</time>
      </trkpt>
      <trkpt lat="36.25775596126914" lon="-6.07086000032723">
        <ele>7.35</ele>
        <time>2025-05-08T08:52:34Z</time>
      </trkpt>
      <trkpt lat="36.255150027573109" lon="-6.069945031777024">
        <ele>4.46</ele>
        <time>2025-05-08T08:52:48Z</time>
      </trkpt>
      <trkpt lat="36.253039967268705" lon="-6.069286968559027">
        <ele>3.02</ele>
        <time>2025-05-08T08:53:00Z</time>
      </trkpt>
      <trkpt lat="36.251197960227728" lon="-6.068523041903973">
        <ele>2.54</ele>
        <time>2025-05-08T08:53:12Z</time>
      </trkpt>
      <trkpt lat="36.249707993119955" lon="-6.067355023697019">
        <ele>2.06</ele>
        <time>2025-05-08T08:53:23Z</time>
      </trkpt>
      <trkpt lat="36.247875960543752" lon="-6.065948959439993">
        <ele>3.5</ele>
        <time>2025-05-08T08:53:37Z</time>
      </trkpt>
      <trkpt lat="36.246187007054687" lon="-6.064552031457424">
        <ele>3.5</ele>
        <time>2025-05-08T08:53:50Z</time>
      </trkpt>
      <trkpt lat="36.244461005553603" lon="-6.06319097802043">
        <ele>3.5</ele>
        <time>2025-05-08T08:54:04Z</time>
      </trkpt>
      <trkpt lat="36.243571015074849" lon="-6.062089009210467">
        <ele>4.46</ele>
        <time>2025-05-08T08:54:13Z</time>
      </trkpt>
      <trkpt lat="36.242094961926341" lon="-6.060918979346752">
        <ele>4.94</ele>
        <time>2025-05-08T08:54:25Z</time>
      </trkpt>
      <trkpt lat="36.241297004744411" lon="-6.059923963621259">
        <ele>6.87</ele>
        <time>2025-05-08T08:54:33Z</time>
      </trkpt>
      <trkpt lat="36.240253960713744" lon="-6.058086985722184">
        <ele>7.35</ele>
        <time>2025-05-08T08:54:44Z</time>
      </trkpt>
      <trkpt lat="36.238451013341546" lon="-6.054798010736704">
        <ele>12.630000000000001</ele>
        <time>2025-05-08T08:55:02Z</time>
      </trkpt>
      <trkpt lat="36.237559011206031" lon="-6.053245011717081">
        <ele>16</ele>
        <time>2025-05-08T08:55:10Z</time>
      </trkpt>
      <trkpt lat="36.237411992624402" lon="-6.053097993135452">
        <ele>16.48</ele>
        <time>2025-05-08T08:55:11Z</time>
      </trkpt>
      <trkpt lat="36.237263968214393" lon="-6.052948962897062">
        <ele>16.960000000000001</ele>
        <time>2025-05-08T08:55:12Z</time>
      </trkpt>
      <trkpt lat="36.235737036913633" lon="-6.051165964454413">
        <ele>22.25</ele>
        <time>2025-05-08T08:55:23Z</time>
      </trkpt>
      <trkpt lat="36.234975960105658" lon="-6.049580024555326">
        <ele>24.170000000000002</ele>
        <time>2025-05-08T08:55:31Z</time>
      </trkpt>
      <trkpt lat="36.233963007107377" lon="-6.047938009724021">
        <ele>25.129999999999999</ele>
        <time>2025-05-08T08:55:40Z</time>
      </trkpt>
      <trkpt lat="36.233807019889355" lon="-6.047815969213843">
        <ele>24.649999999999999</ele>
        <time>2025-05-08T08:55:41Z</time>
      </trkpt>
      <trkpt lat="36.233656983822584" lon="-6.0476990416646">
        <ele>24.649999999999999</ele>
        <time>2025-05-08T08:55:42Z</time>
      </trkpt>
      <trkpt lat="36.233496973291039" lon="-6.04761597700417">
        <ele>25.129999999999999</ele>
        <time>2025-05-08T08:55:43Z</time>
      </trkpt>
      <trkpt lat="36.233327994123101" lon="-6.047564009204507">
        <ele>25.129999999999999</ele>
        <time>2025-05-08T08:55:44Z</time>
      </trkpt>
      <trkpt lat="36.233149040490389" lon="-6.047554034739733">
        <ele>25.129999999999999</ele>
        <time>2025-05-08T08:55:45Z</time>
      </trkpt>
      <trkpt lat="36.232963968068361" lon="-6.047545988112688">
        <ele>25.609999999999999</ele>
        <time>2025-05-08T08:55:46Z</time>
      </trkpt>
      <trkpt lat="36.232773028314114" lon="-6.0475729778409">
        <ele>25.609999999999999</ele>
        <time>2025-05-08T08:55:47Z</time>
      </trkpt>
      <trkpt lat="36.230415031313896" lon="-6.048078993335366">
        <ele>22.25</ele>
        <time>2025-05-08T08:55:59Z</time>
      </trkpt>
      <trkpt lat="36.228481996804476" lon="-6.048167003318667">
        <ele>19.359999999999999</ele>
        <time>2025-05-08T08:56:09Z</time>
      </trkpt>
      <trkpt lat="36.227482035756111" lon="-6.048167003318667">
        <ele>17.440000000000001</ele>
        <time>2025-05-08T08:56:16Z</time>
      </trkpt>
      <trkpt lat="36.227417998015881" lon="-6.048183012753725">
        <ele>17.440000000000001</ele>
        <time>2025-05-08T08:56:17Z</time>
      </trkpt>
      <trkpt lat="36.227352032437921" lon="-6.048199022188783">
        <ele>16.960000000000001</ele>
        <time>2025-05-08T08:56:18Z</time>
      </trkpt>
      <trkpt lat="36.227227980270982" lon="-6.048346040770412">
        <ele>16.48</ele>
        <time>2025-05-08T08:56:20Z</time>
      </trkpt>
      <trkpt lat="36.227160003036261" lon="-6.048360038548708">
        <ele>16.48</ele>
        <time>2025-05-08T08:56:21Z</time>
      </trkpt>
      <trkpt lat="36.227099988609552" lon="-6.048315027728677">
        <ele>16.48</ele>
        <time>2025-05-08T08:56:22Z</time>
      </trkpt>
      <trkpt lat="36.227074004709721" lon="-6.048296000808477">
        <ele>16.48</ele>
        <time>2025-05-08T08:56:23Z</time>
      </trkpt>
      <trkpt lat="36.227027988061309" lon="-6.048116963356733">
        <ele>16</ele>
        <time>2025-05-08T08:56:24Z</time>
      </trkpt>
      <trkpt lat="36.226359028369188" lon="-6.047376003116369">
        <ele>15.039999999999999</ele>
        <time>2025-05-08T08:56:33Z</time>
      </trkpt>
      <trkpt lat="36.225618990138173" lon="-6.046030037105084">
        <ele>15.52</ele>
        <time>2025-05-08T08:56:42Z</time>
      </trkpt>
      <trkpt lat="36.224576029926538" lon="-6.044259024783969">
        <ele>14.56</ele>
        <time>2025-05-08T08:56:53Z</time>
      </trkpt>
      <trkpt lat="36.223489986732602" lon="-6.042997967451811">
        <ele>14.56</ele>
        <time>2025-05-08T08:57:03Z</time>
      </trkpt>
      <trkpt lat="36.222507962957025" lon="-6.042102025821805">
        <ele>16</ele>
        <time>2025-05-08T08:57:13Z</time>
      </trkpt>
      <trkpt lat="36.221989961341023" lon="-6.041722996160388">
        <ele>17.440000000000001</ele>
        <time>2025-05-08T08:57:19Z</time>
      </trkpt>
      <trkpt lat="36.221940005198121" lon="-6.041689971461892">
        <ele>17.440000000000001</ele>
        <time>2025-05-08T08:57:20Z</time>
      </trkpt>
      <trkpt lat="36.221913015469909" lon="-6.041623000055552">
        <ele>17.440000000000001</ele>
        <time>2025-05-08T08:57:21Z</time>
      </trkpt>
      <trkpt lat="36.221923995763063" lon="-6.041571032255888">
        <ele>17.440000000000001</ele>
        <time>2025-05-08T08:57:22Z</time>
      </trkpt>
      <trkpt lat="36.22193799354136" lon="-6.041514035314322">
        <ele>17.440000000000001</ele>
        <time>2025-05-08T08:57:23Z</time>
      </trkpt>
      <trkpt lat="36.221950985491276" lon="-6.041455026715994">
        <ele>17.440000000000001</ele>
        <time>2025-05-08T08:57:24Z</time>
      </trkpt>
      <trkpt lat="36.222007982432842" lon="-6.04121102951467">
        <ele>17.920000000000002</ele>
        <time>2025-05-08T08:57:28Z</time>
      </trkpt>
      <trkpt lat="36.222019968554378" lon="-6.041157972067595">
        <ele>17.920000000000002</ele>
        <time>2025-05-08T08:57:29Z</time>
      </trkpt>
      <trkpt lat="36.222031032666564" lon="-6.041110027581453">
        <ele>18.399999999999999</ele>
        <time>2025-05-08T08:57:30Z</time>
      </trkpt>
      <trkpt lat="36.222032038494945" lon="-6.041107010096312">
        <ele>18.399999999999999</ele>
        <time>2025-05-08T08:57:31Z</time>
      </trkpt>
      <trkpt lat="36.222032038494945" lon="-6.041107010096312">
        <ele>18.399999999999999</ele>
        <time>2025-05-08T08:57:32Z</time>
      </trkpt>
      <trkpt lat="36.222052993252873" lon="-6.040913974866271">
        <ele>18.399999999999999</ele>
        <time>2025-05-08T08:57:33Z</time>
      </trkpt>
      <trkpt lat="36.222052993252873" lon="-6.040913974866271">
        <ele>18.399999999999999</ele>
        <time>2025-05-08T08:57:34Z</time>
      </trkpt>
      <trkpt lat="36.222052993252873" lon="-6.040913974866271">
        <ele>17.920000000000002</ele>
        <time>2025-05-08T08:57:42Z</time>
      </trkpt>
      <trkpt lat="36.222351975739002" lon="-6.041068034246564">
        <ele>13.6</ele>
        <time>2025-05-08T09:03:32Z</time>
      </trkpt>
      <trkpt lat="36.222328003495932" lon="-6.041163001209498">
        <ele>-2.27</ele>
        <time>2025-05-08T09:04:03Z</time>
      </trkpt>
      <trkpt lat="36.222391035407782" lon="-6.041096029803157">
        <ele>-3.71</ele>
        <time>2025-05-08T09:04:47Z</time>
      </trkpt>
      <trkpt lat="36.22241199016571" lon="-6.04108203202486">
        <ele>9.27</ele>
        <time>2025-05-08T09:04:53Z</time>
      </trkpt>
      <trkpt lat="36.222052993252873" lon="-6.040913974866271">
        <ele>11.67</ele>
        <time>2025-05-08T09:05:01Z</time>
      </trkpt>
      <trkpt lat="36.222052993252873" lon="-6.040913974866271">
        <ele>11.19</ele>
        <time>2025-05-08T09:05:02Z</time>
      </trkpt>
      <trkpt lat="36.221891976892948" lon="-6.040746001526713">
        <ele>9.75</ele>
        <time>2025-05-08T09:05:10Z</time>
      </trkpt>
      <trkpt lat="36.221848977729678" lon="-6.04075999930501">
        <ele>9.27</ele>
        <time>2025-05-08T09:05:11Z</time>
      </trkpt>
      <trkpt lat="36.221796004101634" lon="-6.040778020396829">
        <ele>8.789999999999999</ele>
        <time>2025-05-08T09:05:12Z</time>
      </trkpt>
      <trkpt lat="36.221276996657252" lon="-6.040940964594483">
        <ele>5.91</ele>
        <time>2025-05-08T09:05:20Z</time>
      </trkpt>
      <trkpt lat="36.221214970573783" lon="-6.040966026484966">
        <ele>5.91</ele>
        <time>2025-05-08T09:05:21Z</time>
      </trkpt>
      <trkpt lat="36.221155961975455" lon="-6.040989998728037">
        <ele>5.91</ele>
        <time>2025-05-08T09:05:22Z</time>
      </trkpt>
      <trkpt lat="36.221109023317695" lon="-6.041150009259582">
        <ele>5.42</ele>
        <time>2025-05-08T09:05:23Z</time>
      </trkpt>
      <trkpt lat="36.221064012497663" lon="-6.041158977895975">
        <ele>5.42</ele>
        <time>2025-05-08T09:05:24Z</time>
      </trkpt>
      <trkpt lat="36.220999974757433" lon="-6.04117096401751">
        <ele>5.42</ele>
        <time>2025-05-08T09:05:25Z</time>
      </trkpt>
      <trkpt lat="36.220939038321376" lon="-6.041129976511002">
        <ele>5.42</ele>
        <time>2025-05-08T09:05:26Z</time>
      </trkpt>
      <trkpt lat="36.220937026664615" lon="-6.041128970682621">
        <ele>5.42</ele>
        <time>2025-05-08T09:05:27Z</time>
      </trkpt>
      <trkpt lat="36.220698980614543" lon="-6.04093199595809">
        <ele>5.42</ele>
        <time>2025-05-08T09:05:29Z</time>
      </trkpt>
      <trkpt lat="36.21974503621459" lon="-6.040202016010881">
        <ele>5.42</ele>
        <time>2025-05-08T09:05:37Z</time>
      </trkpt>
      <trkpt lat="36.218207040801644" lon="-6.038857977837324">
        <ele>6.39</ele>
        <time>2025-05-08T09:05:47Z</time>
      </trkpt>
      <trkpt lat="36.216183984652162" lon="-6.03695503436029">
        <ele>9.27</ele>
        <time>2025-05-08T09:06:00Z</time>
      </trkpt>
      <trkpt lat="36.214007036760449" lon="-6.035272032022476">
        <ele>11.19</ele>
        <time>2025-05-08T09:06:14Z</time>
      </trkpt>
      <trkpt lat="36.212307019159198" lon="-6.033506970852613">
        <ele>14.08</ele>
        <time>2025-05-08T09:06:27Z</time>
      </trkpt>
      <trkpt lat="36.211647028103471" lon="-6.032934989780188">
        <ele>15.52</ele>
        <time>2025-05-08T09:06:32Z</time>
      </trkpt>
      <trkpt lat="36.21149598620832" lon="-6.032868018373847">
        <ele>15.52</ele>
        <time>2025-05-08T09:06:33Z</time>
      </trkpt>
      <trkpt lat="36.211331030353904" lon="-6.032851003110409">
        <ele>15.52</ele>
        <time>2025-05-08T09:06:34Z</time>
      </trkpt>
      <trkpt lat="36.211161967366934" lon="-6.032833987846971">
        <ele>16</ele>
        <time>2025-05-08T09:06:35Z</time>
      </trkpt>
      <trkpt lat="36.210991982370615" lon="-6.032825019210577">
        <ele>16</ele>
        <time>2025-05-08T09:06:36Z</time>
      </trkpt>
      <trkpt lat="36.210481021553278" lon="-6.032874975353479">
        <ele>15.52</ele>
        <time>2025-05-08T09:06:39Z</time>
      </trkpt>
      <trkpt lat="36.210318999364972" lon="-6.032929960638285">
        <ele>15.52</ele>
        <time>2025-05-08T09:06:40Z</time>
      </trkpt>
      <trkpt lat="36.210159994661808" lon="-6.033010007813573">
        <ele>15.52</ele>
        <time>2025-05-08T09:06:41Z</time>
      </trkpt>
      <trkpt lat="36.210006019100547" lon="-6.033087037503719">
        <ele>15.52</ele>
        <time>2025-05-08T09:06:42Z</time>
      </trkpt>
      <trkpt lat="36.209867969155312" lon="-6.033182004466653">
        <ele>15.039999999999999</ele>
        <time>2025-05-08T09:06:43Z</time>
      </trkpt>
      <trkpt lat="36.20973696000874" lon="-6.03328300639987">
        <ele>15.039999999999999</ele>
        <time>2025-05-08T09:06:44Z</time>
      </trkpt>
      <trkpt lat="36.209093984216452" lon="-6.033811988309026">
        <ele>13.6</ele>
        <time>2025-05-08T09:06:49Z</time>
      </trkpt>
      <trkpt lat="36.208987031131983" lon="-6.033959006890655">
        <ele>13.119999999999999</ele>
        <time>2025-05-08T09:06:50Z</time>
      </trkpt>
      <trkpt lat="36.208347994834185" lon="-6.035029040649533">
        <ele>10.710000000000001</ele>
        <time>2025-05-08T09:06:57Z</time>
      </trkpt>
      <trkpt lat="36.208255961537361" lon="-6.035136999562383">
        <ele>10.710000000000001</ele>
        <time>2025-05-08T09:06:58Z</time>
      </trkpt>
      <trkpt lat="36.20816501788795" lon="-6.035207994282246">
        <ele>10.710000000000001</ele>
        <time>2025-05-08T09:06:59Z</time>
      </trkpt>
      <trkpt lat="36.207945998758078" lon="-6.035348977893591">
        <ele>10.23</ele>
        <time>2025-05-08T09:07:02Z</time>
      </trkpt>
      <trkpt lat="36.20786402374506" lon="-6.03551703505218">
        <ele>10.23</ele>
        <time>2025-05-08T09:07:04Z</time>
      </trkpt>
      <trkpt lat="36.207848014310002" lon="-6.035528015345335">
        <ele>10.23</ele>
        <time>2025-05-08T09:07:05Z</time>
      </trkpt>
      <trkpt lat="36.207727985456586" lon="-6.035400023683906">
        <ele>10.23</ele>
        <time>2025-05-08T09:07:06Z</time>
      </trkpt>
      <trkpt lat="36.207575015723705" lon="-6.035400023683906">
        <ele>10.23</ele>
        <time>2025-05-08T09:07:08Z</time>
      </trkpt>
      <trkpt lat="36.207462027668953" lon="-6.035400023683906">
        <ele>9.75</ele>
        <time>2025-05-08T09:07:09Z</time>
      </trkpt>
      <trkpt lat="36.207401007413864" lon="-6.035374961793423">
        <ele>9.75</ele>
        <time>2025-05-08T09:07:10Z</time>
      </trkpt>
      <trkpt lat="36.20730796828866" lon="-6.035330034792423">
        <ele>9.75</ele>
        <time>2025-05-08T09:07:11Z</time>
      </trkpt>
      <trkpt lat="36.207204032689333" lon="-6.035271026194096">
        <ele>10.23</ele>
        <time>2025-05-08T09:07:12Z</time>
      </trkpt>
      <trkpt lat="36.207102024927735" lon="-6.035209000110626">
        <ele>10.23</ele>
        <time>2025-05-08T09:07:13Z</time>
      </trkpt>
      <trkpt lat="36.20578296482563" lon="-6.034417999908328">
        <ele>11.67</ele>
        <time>2025-05-08T09:07:24Z</time>
      </trkpt>
      <trkpt lat="36.205070000141859" lon="-6.033938974142075">
        <ele>12.15</ele>
        <time>2025-05-08T09:07:31Z</time>
      </trkpt>
      <trkpt lat="36.204950977116823" lon="-6.033939979970455">
        <ele>12.630000000000001</ele>
        <time>2025-05-08T09:07:32Z</time>
      </trkpt>
      <trkpt lat="36.204890040680766" lon="-6.033909972757101">
        <ele>12.15</ele>
        <time>2025-05-08T09:07:33Z</time>
      </trkpt>
      <trkpt lat="36.20479398407042" lon="-6.033939979970455">
        <ele>12.15</ele>
        <time>2025-05-08T09:07:34Z</time>
      </trkpt>
      <trkpt lat="36.204705974087119" lon="-6.03399203158915">
        <ele>12.15</ele>
        <time>2025-05-08T09:07:35Z</time>
      </trkpt>
      <trkpt lat="36.204613018780947" lon="-6.034047016873956">
        <ele>12.15</ele>
        <time>2025-05-08T09:07:36Z</time>
      </trkpt>
      <trkpt lat="36.20451201684773" lon="-6.034107031300664">
        <ele>12.15</ele>
        <time>2025-05-08T09:07:37Z</time>
      </trkpt>
      <trkpt lat="36.203185999765992" lon="-6.034951005131006">
        <ele>8.789999999999999</ele>
        <time>2025-05-08T09:07:49Z</time>
      </trkpt>
      <trkpt lat="36.202436992898583" lon="-6.035290975123644">
        <ele>8.310000000000001</ele>
        <time>2025-05-08T09:07:57Z</time>
      </trkpt>
      <trkpt lat="36.202411008998752" lon="-6.035298015922308">
        <ele>8.310000000000001</ele>
        <time>2025-05-08T09:08:05Z</time>
      </trkpt>
      <trkpt lat="36.202187966555357" lon="-6.035369010642171">
        <ele>7.83</ele>
        <time>2025-05-08T09:08:19Z</time>
      </trkpt>
      <trkpt lat="36.201814971864223" lon="-6.035477975383401">
        <ele>7.35</ele>
        <time>2025-05-08T09:08:24Z</time>
      </trkpt>
      <trkpt lat="36.201507020741701" lon="-6.035506976768374">
        <ele>7.35</ele>
        <time>2025-05-08T09:08:31Z</time>
      </trkpt>
      <trkpt lat="36.201432002708316" lon="-6.035614013671875">
        <ele>7.83</ele>
        <time>2025-05-08T09:08:34Z</time>
      </trkpt>
      <trkpt lat="36.201392021030188" lon="-6.035614013671875">
        <ele>7.83</ele>
        <time>2025-05-08T09:08:35Z</time>
      </trkpt>
      <trkpt lat="36.201346004381776" lon="-6.035614013671875">
        <ele>7.83</ele>
        <time>2025-05-08T09:08:36Z</time>
      </trkpt>
      <trkpt lat="36.201303005218506" lon="-6.035463977605104">
        <ele>7.83</ele>
        <time>2025-05-08T09:08:37Z</time>
      </trkpt>
      <trkpt lat="36.201264029368758" lon="-6.035438999533653">
        <ele>7.83</ele>
        <time>2025-05-08T09:08:38Z</time>
      </trkpt>
      <trkpt lat="36.201207032427192" lon="-6.035403041169047">
        <ele>8.310000000000001</ele>
        <time>2025-05-08T09:08:39Z</time>
      </trkpt>
      <trkpt lat="36.201150035485625" lon="-6.035365993157029">
        <ele>8.310000000000001</ele>
        <time>2025-05-08T09:08:40Z</time>
      </trkpt>
      <trkpt lat="36.201085997745395" lon="-6.035326011478901">
        <ele>8.310000000000001</ele>
        <time>2025-05-08T09:08:41Z</time>
      </trkpt>
      <trkpt lat="36.200580988079309" lon="-6.034986963495612">
        <ele>10.23</ele>
        <time>2025-05-08T09:08:48Z</time>
      </trkpt>
      <trkpt lat="36.200499013066292" lon="-6.034925021231175">
        <ele>10.23</ele>
        <time>2025-05-08T09:08:49Z</time>
      </trkpt>
      <trkpt lat="36.199429985135794" lon="-6.034169979393482">
        <ele>12.15</ele>
        <time>2025-05-08T09:09:01Z</time>
      </trkpt>
      <trkpt lat="36.199354967102408" lon="-6.034080041572452">
        <ele>12.15</ele>
        <time>2025-05-08T09:09:02Z</time>
      </trkpt>
      <trkpt lat="36.199283972382545" lon="-6.033982979133725">
        <ele>12.15</ele>
        <time>2025-05-08T09:09:03Z</time>
      </trkpt>
      <trkpt lat="36.199213983491063" lon="-6.033881977200508">
        <ele>12.15</ele>
        <time>2025-05-08T09:09:04Z</time>
      </trkpt>
      <trkpt lat="36.199152963235974" lon="-6.033764965832233">
        <ele>12.15</ele>
        <time>2025-05-08T09:09:05Z</time>
      </trkpt>
      <trkpt lat="36.199093032628298" lon="-6.033648038282991">
        <ele>12.15</ele>
        <time>2025-05-08T09:09:06Z</time>
      </trkpt>
      <trkpt lat="36.198362968862057" lon="-6.032180031761527">
        <ele>11.19</ele>
        <time>2025-05-08T09:09:18Z</time>
      </trkpt>
      <trkpt lat="36.197608010843396" lon="-6.030723005533218">
        <ele>10.710000000000001</ele>
        <time>2025-05-08T09:09:30Z</time>
      </trkpt>
      <trkpt lat="36.197513965889812" lon="-6.030636001378298">
        <ele>10.710000000000001</ele>
        <time>2025-05-08T09:09:31Z</time>
      </trkpt>
      <trkpt lat="36.197421010583639" lon="-6.030550003051758">
        <ele>10.710000000000001</ele>
        <time>2025-05-08T09:09:32Z</time>
      </trkpt>
      <trkpt lat="36.197310034185648" lon="-6.030528964474797">
        <ele>11.19</ele>
        <time>2025-05-08T09:09:33Z</time>
      </trkpt>
      <trkpt lat="36.197197968140244" lon="-6.030528964474797">
        <ele>11.19</ele>
        <time>2025-05-08T09:09:34Z</time>
      </trkpt>
      <trkpt lat="36.197076011449099" lon="-6.030528964474797">
        <ele>10.710000000000001</ele>
        <time>2025-05-08T09:09:35Z</time>
      </trkpt>
      <trkpt lat="36.19697199203074" lon="-6.030569029971957">
        <ele>10.710000000000001</ele>
        <time>2025-05-08T09:09:36Z</time>
      </trkpt>
      <trkpt lat="36.196857998147607" lon="-6.030612029135227">
        <ele>10.710000000000001</ele>
        <time>2025-05-08T09:09:37Z</time>
      </trkpt>
      <trkpt lat="36.195527035742998" lon="-6.030977983027697">
        <ele>8.789999999999999</ele>
        <time>2025-05-08T09:09:48Z</time>
      </trkpt>
      <trkpt lat="36.19538102298975" lon="-6.031001033261418">
        <ele>8.310000000000001</ele>
        <time>2025-05-08T09:09:49Z</time>
      </trkpt>
      <trkpt lat="36.195253031328321" lon="-6.031016958877444">
        <ele>7.83</ele>
        <time>2025-05-08T09:09:50Z</time>
      </trkpt>
      <trkpt lat="36.193364001810551" lon="-6.031251987442374">
        <ele>6.87</ele>
        <time>2025-05-08T09:10:04Z</time>
      </trkpt>
      <trkpt lat="36.19310500100255" lon="-6.031245030462742">
        <ele>6.87</ele>
        <time>2025-05-08T09:10:06Z</time>
      </trkpt>
      <trkpt lat="36.19297600351274" lon="-6.031227009370923">
        <ele>6.39</ele>
        <time>2025-05-08T09:10:07Z</time>
      </trkpt>
      <trkpt lat="36.192354988306761" lon="-6.030931966379285">
        <ele>5.91</ele>
        <time>2025-05-08T09:10:12Z</time>
      </trkpt>
      <trkpt lat="36.192243006080389" lon="-6.030842028558254">
        <ele>5.91</ele>
        <time>2025-05-08T09:10:13Z</time>
      </trkpt>
      <trkpt lat="36.192150972783566" lon="-6.030727028846741">
        <ele>6.39</ele>
        <time>2025-05-08T09:10:14Z</time>
      </trkpt>
      <trkpt lat="36.192070003598928" lon="-6.030594008043408">
        <ele>6.39</ele>
        <time>2025-05-08T09:10:15Z</time>
      </trkpt>
      <trkpt lat="36.192004038020968" lon="-6.030445983633399">
        <ele>6.39</ele>
        <time>2025-05-08T09:10:16Z</time>
      </trkpt>
      <trkpt lat="36.191935976967216" lon="-6.030293013900518">
        <ele>5.91</ele>
        <time>2025-05-08T09:10:17Z</time>
      </trkpt>
      <trkpt lat="36.191164003685117" lon="-6.02838596329093">
        <ele>3.5</ele>
        <time>2025-05-08T09:10:30Z</time>
      </trkpt>
      <trkpt lat="36.190464030951262" lon="-6.02664303034544">
        <ele>2.54</ele>
        <time>2025-05-08T09:10:43Z</time>
      </trkpt>
      <trkpt lat="36.19039898738265" lon="-6.026523001492024">
        <ele>3.02</ele>
        <time>2025-05-08T09:10:44Z</time>
      </trkpt>
      <trkpt lat="36.18969096802175" lon="-6.025468977168202">
        <ele>3.02</ele>
        <time>2025-05-08T09:10:54Z</time>
      </trkpt>
      <trkpt lat="36.189414029940963" lon="-6.025193966925144">
        <ele>2.54</ele>
        <time>2025-05-08T09:11:01Z</time>
      </trkpt>
      <trkpt lat="36.189390979707241" lon="-6.025220034644008">
        <ele>2.06</ele>
        <time>2025-05-08T09:11:02Z</time>
      </trkpt>
      <trkpt lat="36.189363989979029" lon="-6.025250963866711">
        <ele>2.06</ele>
        <time>2025-05-08T09:11:03Z</time>
      </trkpt>
      <trkpt lat="36.188911031931639" lon="-6.025819005444646">
        <ele>0.62</ele>
        <time>2025-05-08T09:11:14Z</time>
      </trkpt>
      <trkpt lat="36.188534013926983" lon="-6.02629903703928">
        <ele>-0.82</ele>
        <time>2025-05-08T09:11:23Z</time>
      </trkpt>
      <trkpt lat="36.188482968136668" lon="-6.026345975697041">
        <ele>-1.3</ele>
        <time>2025-05-08T09:11:24Z</time>
      </trkpt>
      <trkpt lat="36.188439968973398" lon="-6.026376988738775">
        <ele>-1.3</ele>
        <time>2025-05-08T09:11:25Z</time>
      </trkpt>
      <trkpt lat="36.188207035884261" lon="-6.026544962078333">
        <ele>-2.75</ele>
        <time>2025-05-08T09:11:35Z</time>
      </trkpt>
      <trkpt lat="36.188207035884261" lon="-6.026544962078333">
        <ele>-2.75</ele>
        <time>2025-05-08T09:12:05Z</time>
      </trkpt>
      <trkpt lat="36.188207035884261" lon="-6.026544962078333">
        <ele>-1.3</ele>
        <time>2025-05-08T09:12:42Z</time>
      </trkpt>
      <trkpt lat="36.188228996470571" lon="-6.026529036462307">
        <ele>-1.79</ele>
        <time>2025-05-08T09:12:56Z</time>
      </trkpt>
      <trkpt lat="36.188292028382421" lon="-6.026484025642276">
        <ele>-1.3</ele>
        <time>2025-05-08T09:12:59Z</time>
      </trkpt>
      <trkpt lat="36.188332010060549" lon="-6.026455024257302">
        <ele>-1.3</ele>
        <time>2025-05-08T09:13:00Z</time>
      </trkpt>
      <trkpt lat="36.188370985910296" lon="-6.026427028700709">
        <ele>-1.3</ele>
        <time>2025-05-08T09:13:01Z</time>
      </trkpt>
      <trkpt lat="36.188409039750695" lon="-6.026399033144116">
        <ele>-0.82</ele>
        <time>2025-05-08T09:13:02Z</time>
      </trkpt>
      <trkpt lat="36.188741968944669" lon="-6.026034001260996">
        <ele>-0.82</ele>
        <time>2025-05-08T09:13:13Z</time>
      </trkpt>
      <trkpt lat="36.188912959769368" lon="-6.025817999616265">
        <ele>-1.79</ele>
        <time>2025-05-08T09:13:21Z</time>
      </trkpt>
      <trkpt lat="36.189191993325949" lon="-6.025463026016951">
        <ele>-1.79</ele>
        <time>2025-05-08T09:13:32Z</time>
      </trkpt>
      <trkpt lat="36.189309004694223" lon="-6.025313995778561">
        <ele>-1.79</ele>
        <time>2025-05-08T09:13:41Z</time>
      </trkpt>
      <trkpt lat="36.189309004694223" lon="-6.025313995778561">
        <ele>-0.82</ele>
        <time>2025-05-08T09:13:49Z</time>
      </trkpt>
      <trkpt lat="36.189270028844476" lon="-6.025363029912114">
        <ele>-0.82</ele>
        <time>2025-05-08T09:14:05Z</time>
      </trkpt>
      <trkpt lat="36.189124016091228" lon="-6.025549024343491">
        <ele>-0.34</ele>
        <time>2025-05-08T09:14:17Z</time>
      </trkpt>
      <trkpt lat="36.188899967819452" lon="-6.025834009051323">
        <ele>-0.34</ele>
        <time>2025-05-08T09:14:28Z</time>
      </trkpt>
      <trkpt lat="36.188886975869536" lon="-6.025850018486381">
        <ele>-1.3</ele>
        <time>2025-05-08T09:14:41Z</time>
      </trkpt>
      <trkpt lat="36.188826039433479" lon="-6.026025032624602">
        <ele>21.289999999999999</ele>
        <time>2025-05-08T09:15:37Z</time>
      </trkpt>
      <trkpt lat="36.188781028613448" lon="-6.025987984612584">
        <ele>13.6</ele>
        <time>2025-05-08T09:15:47Z</time>
      </trkpt>
      <trkpt lat="36.188759990036488" lon="-6.026011034846306">
        <ele>19.84</ele>
        <time>2025-05-08T09:15:58Z</time>
      </trkpt>
      <trkpt lat="36.188738029450178" lon="-6.026040036231279">
        <ele>21.289999999999999</ele>
        <time>2025-05-08T09:15:59Z</time>
      </trkpt>
      <trkpt lat="36.188467964529991" lon="-6.026356033980846">
        <ele>27.530000000000001</ele>
        <time>2025-05-08T09:16:05Z</time>
      </trkpt>
      <trkpt lat="36.188127994537354" lon="-6.026601959019899">
        <ele>34.259999999999998</ele>
        <time>2025-05-08T09:16:14Z</time>
      </trkpt>
      <trkpt lat="36.188127994537354" lon="-6.026601959019899">
        <ele>35.229999999999997</ele>
        <time>2025-05-08T09:16:17Z</time>
      </trkpt>
      <trkpt lat="36.188127994537354" lon="-6.026601959019899">
        <ele>35.710000000000001</ele>
        <time>2025-05-08T09:16:18Z</time>
      </trkpt>
      <trkpt lat="36.188202006742358" lon="-6.026913011446595">
        <ele>36.189999999999998</ele>
        <time>2025-05-08T09:16:25Z</time>
      </trkpt>
      <trkpt lat="36.188412979245186" lon="-6.026887027546763">
        <ele>23.210000000000001</ele>
        <time>2025-05-08T09:16:39Z</time>
      </trkpt>
      <trkpt lat="36.188396969810128" lon="-6.026905970647931">
        <ele>-4.19</ele>
        <time>2025-05-08T10:24:17Z</time>
      </trkpt>
      <trkpt lat="36.188391018658876" lon="-6.026903036981821">
        <ele>-0.34</ele>
        <time>2025-05-08T10:24:46Z</time>
      </trkpt>
      <trkpt lat="36.188371991738677" lon="-6.026932960376144">
        <ele>3.02</ele>
        <time>2025-05-08T10:25:33Z</time>
      </trkpt>
      <trkpt lat="36.188366040587425" lon="-6.026922985911369">
        <ele>3.98</ele>
        <time>2025-05-08T10:26:10Z</time>
      </trkpt>
      <trkpt lat="36.188349025323987" lon="-6.026920974254608">
        <ele>4.46</ele>
        <time>2025-05-08T10:26:27Z</time>
      </trkpt>
      <trkpt lat="36.188285993412137" lon="-6.026878980919719">
        <ele>3.02</ele>
        <time>2025-05-08T10:26:38Z</time>
      </trkpt>
      <trkpt lat="36.18812195956707" lon="-6.026675971224904">
        <ele>2.54</ele>
        <time>2025-05-08T10:26:48Z</time>
      </trkpt>
      <trkpt lat="36.188294962048531" lon="-6.026481008157134">
        <ele>3.5</ele>
        <time>2025-05-08T10:26:58Z</time>
      </trkpt>
      <trkpt lat="36.188612971454859" lon="-6.026198035106063">
        <ele>4.46</ele>
        <time>2025-05-08T10:27:08Z</time>
      </trkpt>
      <trkpt lat="36.188641972839832" lon="-6.026160987094045">
        <ele>4.46</ele>
        <time>2025-05-08T10:27:09Z</time>
      </trkpt>
      <trkpt lat="36.188668962568045" lon="-6.026126034557819">
        <ele>4.46</ele>
        <time>2025-05-08T10:27:10Z</time>
      </trkpt>
      <trkpt lat="36.188788991421461" lon="-6.025974992662668">
        <ele>4.94</ele>
        <time>2025-05-08T10:27:15Z</time>
      </trkpt>
      <trkpt lat="36.189170032739639" lon="-6.025491021573544">
        <ele>7.83</ele>
        <time>2025-05-08T10:27:25Z</time>
      </trkpt>
      <trkpt lat="36.189405983313918" lon="-6.02520301938057">
        <ele>6.39</ele>
        <time>2025-05-08T10:27:35Z</time>
      </trkpt>
      <trkpt lat="36.189473960548639" lon="-6.025162031874061">
        <ele>5.91</ele>
        <time>2025-05-08T10:27:50Z</time>
      </trkpt>
      <trkpt lat="36.189498016610742" lon="-6.025194972753525">
        <ele>5.42</ele>
        <time>2025-05-08T10:27:51Z</time>
      </trkpt>
      <trkpt lat="36.189533974975348" lon="-6.025241995230317">
        <ele>5.42</ele>
        <time>2025-05-08T10:27:52Z</time>
      </trkpt>
      <trkpt lat="36.189574962481856" lon="-6.025296980515122">
        <ele>5.42</ele>
        <time>2025-05-08T10:27:53Z</time>
      </trkpt>
      <trkpt lat="36.189617961645126" lon="-6.025361018255353">
        <ele>5.42</ele>
        <time>2025-05-08T10:27:54Z</time>
      </trkpt>
      <trkpt lat="36.190245011821389" lon="-6.026285961270332">
        <ele>6.39</ele>
        <time>2025-05-08T10:28:05Z</time>
      </trkpt>
      <trkpt lat="36.190555980429053" lon="-6.02685802616179">
        <ele>6.87</ele>
        <time>2025-05-08T10:28:10Z</time>
      </trkpt>
      <trkpt lat="36.191230975091457" lon="-6.028554020449519">
        <ele>8.310000000000001</ele>
        <time>2025-05-08T10:28:21Z</time>
      </trkpt>
      <trkpt lat="36.191795999184251" lon="-6.029952960088849">
        <ele>8.310000000000001</ele>
        <time>2025-05-08T10:28:30Z</time>
      </trkpt>
      <trkpt lat="36.19215901941061" lon="-6.030739014968276">
        <ele>7.35</ele>
        <time>2025-05-08T10:28:36Z</time>
      </trkpt>
      <trkpt lat="36.192226996645331" lon="-6.030829036608338">
        <ele>7.35</ele>
        <time>2025-05-08T10:28:37Z</time>
      </trkpt>
      <trkpt lat="36.192345013841987" lon="-6.030922997742891">
        <ele>7.35</ele>
        <time>2025-05-08T10:28:38Z</time>
      </trkpt>
      <trkpt lat="36.192440986633301" lon="-6.031001033261418">
        <ele>7.35</ele>
        <time>2025-05-08T10:28:39Z</time>
      </trkpt>
      <trkpt lat="36.192554980516434" lon="-6.03104897774756">
        <ele>7.35</ele>
        <time>2025-05-08T10:28:40Z</time>
      </trkpt>
      <trkpt lat="36.192671991884708" lon="-6.031098011881113">
        <ele>7.83</ele>
        <time>2025-05-08T10:28:41Z</time>
      </trkpt>
      <trkpt lat="36.193149005994201" lon="-6.031247964128852">
        <ele>7.83</ele>
        <time>2025-05-08T10:28:45Z</time>
      </trkpt>
      <trkpt lat="36.193271968513727" lon="-6.031258022412658">
        <ele>7.83</ele>
        <time>2025-05-08T10:28:46Z</time>
      </trkpt>
      <trkpt lat="36.193396020680666" lon="-6.031248969957233">
        <ele>8.310000000000001</ele>
        <time>2025-05-08T10:28:47Z</time>
      </trkpt>
      <trkpt lat="36.194985983893275" lon="-6.031051995232701">
        <ele>6.87</ele>
        <time>2025-05-08T10:29:00Z</time>
      </trkpt>
      <trkpt lat="36.196563038975" lon="-6.03072602301836">
        <ele>8.310000000000001</ele>
        <time>2025-05-08T10:29:13Z</time>
      </trkpt>
      <trkpt lat="36.196675021201372" lon="-6.03068302385509">
        <ele>8.310000000000001</ele>
        <time>2025-05-08T10:29:14Z</time>
      </trkpt>
      <trkpt lat="36.196790020912886" lon="-6.03063901886344">
        <ele>8.789999999999999</ele>
        <time>2025-05-08T10:29:15Z</time>
      </trkpt>
      <trkpt lat="36.197141977027059" lon="-6.030528964474797">
        <ele>8.789999999999999</ele>
        <time>2025-05-08T10:29:18Z</time>
      </trkpt>
      <trkpt lat="36.197264017537236" lon="-6.030528964474797">
        <ele>9.27</ele>
        <time>2025-05-08T10:29:19Z</time>
      </trkpt>
      <trkpt lat="36.197384968400002" lon="-6.030528964474797">
        <ele>9.27</ele>
        <time>2025-05-08T10:29:20Z</time>
      </trkpt>
      <trkpt lat="36.197481025010347" lon="-6.030604988336563">
        <ele>9.27</ele>
        <time>2025-05-08T10:29:21Z</time>
      </trkpt>
      <trkpt lat="36.197581021115184" lon="-6.030697021633387">
        <ele>9.27</ele>
        <time>2025-05-08T10:29:22Z</time>
      </trkpt>
      <trkpt lat="36.197676993906498" lon="-6.030786037445068">
        <ele>9.27</ele>
        <time>2025-05-08T10:29:23Z</time>
      </trkpt>
      <trkpt lat="36.197743965312839" lon="-6.030914029106498">
        <ele>9.27</ele>
        <time>2025-05-08T10:29:24Z</time>
      </trkpt>
      <trkpt lat="36.197811020538211" lon="-6.031044032424688">
        <ele>9.27</ele>
        <time>2025-05-08T10:29:25Z</time>
      </trkpt>
      <trkpt lat="36.198385013267398" lon="-6.032224036753178">
        <ele>9.75</ele>
        <time>2025-05-08T10:29:34Z</time>
      </trkpt>
      <trkpt lat="36.19862599298358" lon="-6.032742038369179">
        <ele>11.19</ele>
        <time>2025-05-08T10:29:38Z</time>
      </trkpt>
      <trkpt lat="36.198688019067049" lon="-6.032868018373847">
        <ele>11.67</ele>
        <time>2025-05-08T10:29:39Z</time>
      </trkpt>
      <trkpt lat="36.19895095936954" lon="-6.033375961706042">
        <ele>11.19</ele>
        <time>2025-05-08T10:29:43Z</time>
      </trkpt>
      <trkpt lat="36.199017008766532" lon="-6.033502025529742">
        <ele>11.19</ele>
        <time>2025-05-08T10:29:44Z</time>
      </trkpt>
      <trkpt lat="36.199151035398245" lon="-6.033760020509362">
        <ele>11.19</ele>
        <time>2025-05-08T10:29:46Z</time>
      </trkpt>
      <trkpt lat="36.199297970160842" lon="-6.034001000225544">
        <ele>11.67</ele>
        <time>2025-05-08T10:29:48Z</time>
      </trkpt>
      <trkpt lat="36.199394026771188" lon="-6.034134021028876">
        <ele>11.67</ele>
        <time>2025-05-08T10:29:49Z</time>
      </trkpt>
      <trkpt lat="36.199477007612586" lon="-6.034203004091978">
        <ele>11.67</ele>
        <time>2025-05-08T10:29:50Z</time>
      </trkpt>
      <trkpt lat="36.199578009545803" lon="-6.03429595939815">
        <ele>11.67</ele>
        <time>2025-05-08T10:29:51Z</time>
      </trkpt>
      <trkpt lat="36.199682028964162" lon="-6.034381035715342">
        <ele>11.67</ele>
        <time>2025-05-08T10:29:52Z</time>
      </trkpt>
      <trkpt lat="36.200141021981835" lon="-6.034688986837864">
        <ele>11.67</ele>
        <time>2025-05-08T10:29:57Z</time>
      </trkpt>
      <trkpt lat="36.200226014479995" lon="-6.03474497795105">
        <ele>11.67</ele>
        <time>2025-05-08T10:29:58Z</time>
      </trkpt>
      <trkpt lat="36.200466994196177" lon="-6.034900965169072">
        <ele>11.67</ele>
        <time>2025-05-08T10:30:01Z</time>
      </trkpt>
      <trkpt lat="36.200530026108027" lon="-6.034947987645865">
        <ele>12.15</ele>
        <time>2025-05-08T10:30:02Z</time>
      </trkpt>
      <trkpt lat="36.200644019991159" lon="-6.035031974315643">
        <ele>12.15</ele>
        <time>2025-05-08T10:30:04Z</time>
      </trkpt>
      <trkpt lat="36.200763965025544" lon="-6.035124007612467">
        <ele>12.630000000000001</ele>
        <time>2025-05-08T10:30:06Z</time>
      </trkpt>
      <trkpt lat="36.200820961967111" lon="-6.035160971805453">
        <ele>13.119999999999999</ele>
        <time>2025-05-08T10:30:07Z</time>
      </trkpt>
      <trkpt lat="36.200871001929045" lon="-6.035191984847188">
        <ele>13.6</ele>
        <time>2025-05-08T10:30:08Z</time>
      </trkpt>
      <trkpt lat="36.200921041890979" lon="-6.035224003717303">
        <ele>13.6</ele>
        <time>2025-05-08T10:30:09Z</time>
      </trkpt>
      <trkpt lat="36.200980972498655" lon="-6.03526197373867">
        <ele>14.08</ele>
        <time>2025-05-08T10:30:10Z</time>
      </trkpt>
      <trkpt lat="36.201216001063585" lon="-6.035407986491919">
        <ele>15.039999999999999</ele>
        <time>2025-05-08T10:30:14Z</time>
      </trkpt>
      <trkpt lat="36.201266041025519" lon="-6.035440005362034">
        <ele>15.039999999999999</ele>
        <time>2025-05-08T10:30:15Z</time>
      </trkpt>
      <trkpt lat="36.201346004381776" lon="-6.035400023683906">
        <ele>15.039999999999999</ele>
        <time>2025-05-08T10:30:16Z</time>
      </trkpt>
      <trkpt lat="36.201389003545046" lon="-6.035400023683906">
        <ele>15.52</ele>
        <time>2025-05-08T10:30:17Z</time>
      </trkpt>
      <trkpt lat="36.201475001871586" lon="-6.035506976768374">
        <ele>15.52</ele>
        <time>2025-05-08T10:30:18Z</time>
      </trkpt>
      <trkpt lat="36.201524036005139" lon="-6.035506976768374">
        <ele>15.52</ele>
        <time>2025-05-08T10:30:19Z</time>
      </trkpt>
      <trkpt lat="36.201593019068241" lon="-6.035506976768374">
        <ele>16</ele>
        <time>2025-05-08T10:30:20Z</time>
      </trkpt>
      <trkpt lat="36.201668037101626" lon="-6.035506976768374">
        <ele>16</ele>
        <time>2025-05-08T10:30:21Z</time>
      </trkpt>
      <trkpt lat="36.201755041256547" lon="-6.035499013960362">
        <ele>16</ele>
        <time>2025-05-08T10:30:22Z</time>
      </trkpt>
      <trkpt lat="36.202645031735301" lon="-6.035227021202445">
        <ele>18.399999999999999</ele>
        <time>2025-05-08T10:30:31Z</time>
      </trkpt>
      <trkpt lat="36.203749012202024" lon="-6.034608017653227">
        <ele>17.920000000000002</ele>
        <time>2025-05-08T10:30:42Z</time>
      </trkpt>
      <trkpt lat="36.20479297824204" lon="-6.033940985798836">
        <ele>17.440000000000001</ele>
        <time>2025-05-08T10:30:54Z</time>
      </trkpt>
      <trkpt lat="36.204913007095456" lon="-6.03373303078115">
        <ele>16.960000000000001</ele>
        <time>2025-05-08T10:30:57Z</time>
      </trkpt>
      <trkpt lat="36.204995987936854" lon="-6.033737976104021">
        <ele>16</ele>
        <time>2025-05-08T10:30:58Z</time>
      </trkpt>
      <trkpt lat="36.205036975443363" lon="-6.033768989145756">
        <ele>15.52</ele>
        <time>2025-05-08T10:30:59Z</time>
      </trkpt>
      <trkpt lat="36.205045022070408" lon="-6.033907039090991">
        <ele>16</ele>
        <time>2025-05-08T10:31:00Z</time>
      </trkpt>
      <trkpt lat="36.205097995698452" lon="-6.033974010497332">
        <ele>16</ele>
        <time>2025-05-08T10:31:01Z</time>
      </trkpt>
      <trkpt lat="36.205174019560218" lon="-6.034047016873956">
        <ele>15.52</ele>
        <time>2025-05-08T10:31:02Z</time>
      </trkpt>
      <trkpt lat="36.205257000401616" lon="-6.034114994108677">
        <ele>15.52</ele>
        <time>2025-05-08T10:31:03Z</time>
      </trkpt>
      <trkpt lat="36.205348027870059" lon="-6.034166961908341">
        <ele>15.52</ele>
        <time>2025-05-08T10:31:04Z</time>
      </trkpt>
      <trkpt lat="36.205444000661373" lon="-6.034223036840558">
        <ele>15.52</ele>
        <time>2025-05-08T10:31:05Z</time>
      </trkpt>
      <trkpt lat="36.206673961132765" lon="-6.034953016787767">
        <ele>14.56</ele>
        <time>2025-05-08T10:31:17Z</time>
      </trkpt>
      <trkpt lat="36.207446018233895" lon="-6.035392982885242">
        <ele>14.08</ele>
        <time>2025-05-08T10:31:26Z</time>
      </trkpt>
      <trkpt lat="36.207516007125378" lon="-6.035400023683906">
        <ele>14.08</ele>
        <time>2025-05-08T10:31:27Z</time>
      </trkpt>
      <trkpt lat="36.207583984360099" lon="-6.035400023683906">
        <ele>14.08</ele>
        <time>2025-05-08T10:31:28Z</time>
      </trkpt>
      <trkpt lat="36.207646010443568" lon="-6.035400023683906">
        <ele>14.08</ele>
        <time>2025-05-08T10:31:29Z</time>
      </trkpt>
      <trkpt lat="36.207703007385135" lon="-6.035400023683906">
        <ele>14.08</ele>
        <time>2025-05-08T10:31:30Z</time>
      </trkpt>
      <trkpt lat="36.207740977406502" lon="-6.035400023683906">
        <ele>14.08</ele>
        <time>2025-05-08T10:31:31Z</time>
      </trkpt>
      <trkpt lat="36.207848014310002" lon="-6.035291980952025">
        <ele>14.08</ele>
        <time>2025-05-08T10:31:33Z</time>
      </trkpt>
      <trkpt lat="36.207953039556742" lon="-6.0353450383991">
        <ele>14.08</ele>
        <time>2025-05-08T10:31:34Z</time>
      </trkpt>
      <trkpt lat="36.208024034276605" lon="-6.035298015922308">
        <ele>14.08</ele>
        <time>2025-05-08T10:31:35Z</time>
      </trkpt>
      <trkpt lat="36.208106009289622" lon="-6.035245964303613">
        <ele>14.08</ele>
        <time>2025-05-08T10:31:36Z</time>
      </trkpt>
      <trkpt lat="36.208194019272923" lon="-6.035189973190427">
        <ele>14.08</ele>
        <time>2025-05-08T10:31:37Z</time>
      </trkpt>
      <trkpt lat="36.208280017599463" lon="-6.03511000983417">
        <ele>14.08</ele>
        <time>2025-05-08T10:31:38Z</time>
      </trkpt>
      <trkpt lat="36.208361992612481" lon="-6.035013031214476">
        <ele>14.56</ele>
        <time>2025-05-08T10:31:39Z</time>
      </trkpt>
      <trkpt lat="36.208446985110641" lon="-6.034912029281259">
        <ele>14.56</ele>
        <time>2025-05-08T10:31:40Z</time>
      </trkpt>
      <trkpt lat="36.208523008972406" lon="-6.034785965457559">
        <ele>14.56</ele>
        <time>2025-05-08T10:31:41Z</time>
      </trkpt>
      <trkpt lat="36.209191968664527" lon="-6.033699000254273">
        <ele>15.039999999999999</ele>
        <time>2025-05-08T10:31:49Z</time>
      </trkpt>
      <trkpt lat="36.209308980032802" lon="-6.033607972785831">
        <ele>14.56</ele>
        <time>2025-05-08T10:31:50Z</time>
      </trkpt>
      <trkpt lat="36.210187990218401" lon="-6.032996010035276">
        <ele>14.56</ele>
        <time>2025-05-08T10:31:58Z</time>
      </trkpt>
      <trkpt lat="36.210435004904866" lon="-6.032883021980524">
        <ele>15.039999999999999</ele>
        <time>2025-05-08T10:32:00Z</time>
      </trkpt>
      <trkpt lat="36.210564002394676" lon="-6.032859971746802">
        <ele>15.039999999999999</ele>
        <time>2025-05-08T10:32:01Z</time>
      </trkpt>
      <trkpt lat="36.210814034566283" lon="-6.032825019210577">
        <ele>15.52</ele>
        <time>2025-05-08T10:32:03Z</time>
      </trkpt>
      <trkpt lat="36.211621966212988" lon="-6.032924009487033">
        <ele>16</ele>
        <time>2025-05-08T10:32:10Z</time>
      </trkpt>
      <trkpt lat="36.212551016360521" lon="-6.033752979710698">
        <ele>15.039999999999999</ele>
        <time>2025-05-08T10:32:19Z</time>
      </trkpt>
      <trkpt lat="36.213602023199201" lon="-6.034862995147705">
        <ele>14.08</ele>
        <time>2025-05-08T10:32:29Z</time>
      </trkpt>
      <trkpt lat="36.214880011975765" lon="-6.036022966727614">
        <ele>13.119999999999999</ele>
        <time>2025-05-08T10:32:40Z</time>
      </trkpt>
      <trkpt lat="36.215530028566718" lon="-6.036487994715571">
        <ele>13.6</ele>
        <time>2025-05-08T10:32:45Z</time>
      </trkpt>
      <trkpt lat="36.216830983757973" lon="-6.037547970190644">
        <ele>14.56</ele>
        <time>2025-05-08T10:32:55Z</time>
      </trkpt>
      <trkpt lat="36.218207040801644" lon="-6.038857977837324">
        <ele>14.56</ele>
        <time>2025-05-08T10:33:04Z</time>
      </trkpt>
      <trkpt lat="36.219801027327776" lon="-6.040248032659292">
        <ele>14.56</ele>
        <time>2025-05-08T10:33:14Z</time>
      </trkpt>
      <trkpt lat="36.220637038350105" lon="-6.040896959602833">
        <ele>14.56</ele>
        <time>2025-05-08T10:33:21Z</time>
      </trkpt>
      <trkpt lat="36.220719013363123" lon="-6.040942976251245">
        <ele>14.56</ele>
        <time>2025-05-08T10:33:22Z</time>
      </trkpt>
      <trkpt lat="36.220798976719379" lon="-6.04097499512136">
        <ele>14.56</ele>
        <time>2025-05-08T10:33:23Z</time>
      </trkpt>
      <trkpt lat="36.220872988924384" lon="-6.040999973192811">
        <ele>14.56</ele>
        <time>2025-05-08T10:33:24Z</time>
      </trkpt>
      <trkpt lat="36.221001986414194" lon="-6.040936019271612">
        <ele>14.56</ele>
        <time>2025-05-08T10:33:25Z</time>
      </trkpt>
      <trkpt lat="36.221129978075624" lon="-6.040999973192811">
        <ele>14.56</ele>
        <time>2025-05-08T10:33:26Z</time>
      </trkpt>
      <trkpt lat="36.222146032378078" lon="-6.040687998756766">
        <ele>15.039999999999999</ele>
        <time>2025-05-08T10:33:35Z</time>
      </trkpt>
      <trkpt lat="36.223686039447784" lon="-6.04035004042089">
        <ele>15.52</ele>
        <time>2025-05-08T10:33:45Z</time>
      </trkpt>
      <trkpt lat="36.226269006729126" lon="-6.039820974692702">
        <ele>16.48</ele>
        <time>2025-05-08T10:33:59Z</time>
      </trkpt>
      <trkpt lat="36.227289000526071" lon="-6.039582006633282">
        <ele>18.879999999999999</ele>
        <time>2025-05-08T10:34:04Z</time>
      </trkpt>
      <trkpt lat="36.227692002430558" lon="-6.039435993880034">
        <ele>20.32</ele>
        <time>2025-05-08T10:34:06Z</time>
      </trkpt>
      <trkpt lat="36.227692002430558" lon="-6.039435993880034">
        <ele>21.289999999999999</ele>
        <time>2025-05-08T10:34:07Z</time>
      </trkpt>
      <trkpt lat="36.228066002950072" lon="-6.039205994457007">
        <ele>21.77</ele>
        <time>2025-05-08T10:34:08Z</time>
      </trkpt>
      <trkpt lat="36.228230958804488" lon="-6.039049001410604">
        <ele>22.73</ele>
        <time>2025-05-08T10:34:09Z</time>
      </trkpt>
      <trkpt lat="36.228397004306316" lon="-6.038883961737156">
        <ele>23.690000000000001</ele>
        <time>2025-05-08T10:34:10Z</time>
      </trkpt>
      <trkpt lat="36.228558020666242" lon="-6.038704002276063">
        <ele>24.649999999999999</ele>
        <time>2025-05-08T10:34:11Z</time>
      </trkpt>
      <trkpt lat="36.2298449780792" lon="-6.036778008565307">
        <ele>29.460000000000001</ele>
        <time>2025-05-08T10:34:20Z</time>
      </trkpt>
      <trkpt lat="36.2314129807055" lon="-6.033383002504706">
        <ele>34.259999999999998</ele>
        <time>2025-05-08T10:34:34Z</time>
      </trkpt>
      <trkpt lat="36.232438003644347" lon="-6.031935028731823">
        <ele>36.189999999999998</ele>
        <time>2025-05-08T10:34:41Z</time>
      </trkpt>
      <trkpt lat="36.234888033941388" lon="-6.029117032885552">
        <ele>34.740000000000002</ele>
        <time>2025-05-08T10:34:55Z</time>
      </trkpt>
      <trkpt lat="36.235021976754069" lon="-6.02887999266386">
        <ele>34.740000000000002</ele>
        <time>2025-05-08T10:34:56Z</time>
      </trkpt>
      <trkpt lat="36.235157009214163" lon="-6.028643036261201">
        <ele>34.740000000000002</ele>
        <time>2025-05-08T10:34:57Z</time>
      </trkpt>
      <trkpt lat="36.235251976177096" lon="-6.028376994654536">
        <ele>34.740000000000002</ele>
        <time>2025-05-08T10:34:58Z</time>
      </trkpt>
      <trkpt lat="36.235322970896959" lon="-6.028099972754717">
        <ele>34.740000000000002</ele>
        <time>2025-05-08T10:34:59Z</time>
      </trkpt>
      <trkpt lat="36.235394971445203" lon="-6.027818005532026">
        <ele>34.740000000000002</ele>
        <time>2025-05-08T10:35:00Z</time>
      </trkpt>
      <trkpt lat="36.23545297421515" lon="-6.027527991682291">
        <ele>34.259999999999998</ele>
        <time>2025-05-08T10:35:01Z</time>
      </trkpt>
      <trkpt lat="36.235494967550039" lon="-6.027231020852923">
        <ele>34.259999999999998</ele>
        <time>2025-05-08T10:35:02Z</time>
      </trkpt>
      <trkpt lat="36.235930994153023" lon="-6.023005032911897">
        <ele>34.740000000000002</ele>
        <time>2025-05-08T10:35:16Z</time>
      </trkpt>
      <trkpt lat="36.23633399605751" lon="-6.018926985561848">
        <ele>41.469999999999999</ele>
        <time>2025-05-08T10:35:30Z</time>
      </trkpt>
      <trkpt lat="36.236574975773692" lon="-6.016562031581998">
        <ele>50.609999999999999</ele>
        <time>2025-05-08T10:35:39Z</time>
      </trkpt>
      <trkpt lat="36.236641025170684" lon="-6.014371002092958">
        <ele>61.659999999999997</ele>
        <time>2025-05-08T10:35:50Z</time>
      </trkpt>
      <trkpt lat="36.236514961346984" lon="-6.012004036456347">
        <ele>65.989999999999995</ele>
        <time>2025-05-08T10:35:59Z</time>
      </trkpt>
      <trkpt lat="36.236343970522285" lon="-6.00900499150157">
        <ele>70.790000000000006</ele>
        <time>2025-05-08T10:36:10Z</time>
      </trkpt>
      <trkpt lat="36.236577993258834" lon="-6.006922004744411">
        <ele>65.989999999999995</ele>
        <time>2025-05-08T10:36:18Z</time>
      </trkpt>
      <trkpt lat="36.236889967694879" lon="-6.004560990259051">
        <ele>63.579999999999998</ele>
        <time>2025-05-08T10:36:27Z</time>
      </trkpt>
      <trkpt lat="36.23684898018837" lon="-6.002383958548307">
        <ele>65.989999999999995</ele>
        <time>2025-05-08T10:36:35Z</time>
      </trkpt>
      <trkpt lat="36.237014019861817" lon="-6.000571036711335">
        <ele>67.430000000000007</ele>
        <time>2025-05-08T10:36:42Z</time>
      </trkpt>
      <trkpt lat="36.237453985959291" lon="-5.998963974416256">
        <ele>66.950000000000003</ele>
        <time>2025-05-08T10:36:50Z</time>
      </trkpt>
      <trkpt lat="36.237538978457451" lon="-5.998852998018265">
        <ele>66.950000000000003</ele>
        <time>2025-05-08T10:36:51Z</time>
      </trkpt>
      <trkpt lat="36.237652972340584" lon="-5.998760964721441">
        <ele>66.950000000000003</ele>
        <time>2025-05-08T10:36:52Z</time>
      </trkpt>
      <trkpt lat="36.237766966223717" lon="-5.998668009415269">
        <ele>66.950000000000003</ele>
        <time>2025-05-08T10:36:53Z</time>
      </trkpt>
      <trkpt lat="36.237898981198668" lon="-5.998601960018277">
        <ele>66.950000000000003</ele>
        <time>2025-05-08T10:36:54Z</time>
      </trkpt>
      <trkpt lat="36.238048011437058" lon="-5.99856298416853">
        <ele>66.950000000000003</ele>
        <time>2025-05-08T10:36:55Z</time>
      </trkpt>
      <trkpt lat="36.238369038328528" lon="-5.998491989448667">
        <ele>67.430000000000007</ele>
        <time>2025-05-08T10:36:57Z</time>
      </trkpt>
      <trkpt lat="36.238540029153228" lon="-5.998491989448667">
        <ele>67.909999999999997</ele>
        <time>2025-05-08T10:36:58Z</time>
      </trkpt>
      <trkpt lat="36.239443011581898" lon="-5.998667003586888">
        <ele>70.790000000000006</ele>
        <time>2025-05-08T10:37:03Z</time>
      </trkpt>
      <trkpt lat="36.239623976871371" lon="-5.998736992478371">
        <ele>71.760000000000005</ele>
        <time>2025-05-08T10:37:04Z</time>
      </trkpt>
      <trkpt lat="36.240678001195192" lon="-5.999223981052637">
        <ele>77.040000000000006</ele>
        <time>2025-05-08T10:37:10Z</time>
      </trkpt>
      <trkpt lat="36.240862989798188" lon="-5.999243007972837">
        <ele>78</ele>
        <time>2025-05-08T10:37:11Z</time>
      </trkpt>
      <trkpt lat="36.241061976179481" lon="-5.999243007972837">
        <ele>78</ele>
        <time>2025-05-08T10:37:12Z</time>
      </trkpt>
      <trkpt lat="36.241258028894663" lon="-5.999243007972837">
        <ele>78</ele>
        <time>2025-05-08T10:37:13Z</time>
      </trkpt>
      <trkpt lat="36.241433965042233" lon="-5.999148963019252">
        <ele>78</ele>
        <time>2025-05-08T10:37:14Z</time>
      </trkpt>
      <trkpt lat="36.24159699305892" lon="-5.99905701354146">
        <ele>78</ele>
        <time>2025-05-08T10:37:15Z</time>
      </trkpt>
      <trkpt lat="36.241745017468929" lon="-5.998935978859663">
        <ele>78</ele>
        <time>2025-05-08T10:37:16Z</time>
      </trkpt>
      <trkpt lat="36.242942037060857" lon="-5.997887989506126">
        <ele>69.829999999999998</ele>
        <time>2025-05-08T10:37:24Z</time>
      </trkpt>
      <trkpt lat="36.243081009015441" lon="-5.997722027823329">
        <ele>68.390000000000001</ele>
        <time>2025-05-08T10:37:25Z</time>
      </trkpt>
      <trkpt lat="36.243682997301221" lon="-5.996574964374304">
        <ele>61.18</ele>
        <time>2025-05-08T10:37:31Z</time>
      </trkpt>
      <trkpt lat="36.244570976123214" lon="-5.994476974010468">
        <ele>51.57</ele>
        <time>2025-05-08T10:37:42Z</time>
      </trkpt>
      <trkpt lat="36.245174976065755" lon="-5.99202903918922">
        <ele>43.399999999999999</ele>
        <time>2025-05-08T10:37:54Z</time>
      </trkpt>
      <trkpt lat="36.245412016287446" lon="-5.991481030359864">
        <ele>41.950000000000003</ele>
        <time>2025-05-08T10:37:57Z</time>
      </trkpt>
      <trkpt lat="36.245508994907141" lon="-5.991281038150191">
        <ele>41.469999999999999</ele>
        <time>2025-05-08T10:37:58Z</time>
      </trkpt>
      <trkpt lat="36.246438967064023" lon="-5.989943034946919">
        <ele>37.630000000000003</ele>
        <time>2025-05-08T10:38:04Z</time>
      </trkpt>
      <trkpt lat="36.247317977249622" lon="-5.98822901956737">
        <ele>35.229999999999997</ele>
        <time>2025-05-08T10:38:11Z</time>
      </trkpt>
      <trkpt lat="36.248714989051223" lon="-5.984779028221965">
        <ele>30.899999999999999</ele>
        <time>2025-05-08T10:38:25Z</time>
      </trkpt>
      <trkpt lat="36.249706987291574" lon="-5.983354020863771">
        <ele>29.460000000000001</ele>
        <time>2025-05-08T10:38:33Z</time>
      </trkpt>
      <trkpt lat="36.250786995515227" lon="-5.982467969879508">
        <ele>28.02</ele>
        <time>2025-05-08T10:38:40Z</time>
      </trkpt>
      <trkpt lat="36.252290960401297" lon="-5.9816740360111">
        <ele>24.649999999999999</ele>
        <time>2025-05-08T10:38:51Z</time>
      </trkpt>
      <trkpt lat="36.252503022551537" lon="-5.981561969965696">
        <ele>23.690000000000001</ele>
        <time>2025-05-08T10:38:54Z</time>
      </trkpt>
      <trkpt lat="36.252632020041347" lon="-5.98148200660944">
        <ele>23.210000000000001</ele>
        <time>2025-05-08T10:38:57Z</time>
      </trkpt>
      <trkpt lat="36.252664038911462" lon="-5.981248989701271">
        <ele>22.25</ele>
        <time>2025-05-08T10:39:00Z</time>
      </trkpt>
      <trkpt lat="36.252727992832661" lon="-5.981201967224479">
        <ele>21.77</ele>
        <time>2025-05-08T10:39:01Z</time>
      </trkpt>
      <trkpt lat="36.252807034179568" lon="-5.981197021901608">
        <ele>21.77</ele>
        <time>2025-05-08T10:39:02Z</time>
      </trkpt>
      <trkpt lat="36.252885991707444" lon="-5.981228034943342">
        <ele>21.77</ele>
        <time>2025-05-08T10:39:03Z</time>
      </trkpt>
      <trkpt lat="36.252924967557192" lon="-5.981257958337665">
        <ele>21.77</ele>
        <time>2025-05-08T10:39:04Z</time>
      </trkpt>
      <trkpt lat="36.252931002527475" lon="-5.981261981651187">
        <ele>21.77</ele>
        <time>2025-05-08T10:39:05Z</time>
      </trkpt>
      <trkpt lat="36.252949023619294" lon="-5.981352003291249">
        <ele>21.77</ele>
        <time>2025-05-08T10:39:06Z</time>
      </trkpt>
      <trkpt lat="36.252952041104436" lon="-5.981369018554688">
        <ele>21.77</ele>
        <time>2025-05-08T10:39:07Z</time>
      </trkpt>
      <trkpt lat="36.252939971163869" lon="-5.981449987739325">
        <ele>21.289999999999999</ele>
        <time>2025-05-08T10:39:08Z</time>
      </trkpt>
      <trkpt lat="36.252931002527475" lon="-5.981518970802426">
        <ele>21.289999999999999</ele>
        <time>2025-05-08T10:39:09Z</time>
      </trkpt>
      <trkpt lat="36.252808040007949" lon="-5.981675963848829">
        <ele>20.809999999999999</ele>
        <time>2025-05-08T10:39:10Z</time>
      </trkpt>
      <trkpt lat="36.252821031957865" lon="-5.981818037107587">
        <ele>20.32</ele>
        <time>2025-05-08T10:39:11Z</time>
      </trkpt>
      <trkpt lat="36.252846010029316" lon="-5.981967989355326">
        <ele>20.32</ele>
        <time>2025-05-08T10:39:12Z</time>
      </trkpt>
      <trkpt lat="36.252865958958864" lon="-5.982077037915587">
        <ele>20.32</ele>
        <time>2025-05-08T10:39:13Z</time>
      </trkpt>
      <trkpt lat="36.252908036112785" lon="-5.982245011255145">
        <ele>20.809999999999999</ele>
        <time>2025-05-08T10:39:14Z</time>
      </trkpt>
      <trkpt lat="36.252942988649011" lon="-5.98238498903811">
        <ele>21.289999999999999</ele>
        <time>2025-05-08T10:39:15Z</time>
      </trkpt>
      <trkpt lat="36.252977019175887" lon="-5.982512980699539">
        <ele>22.25</ele>
        <time>2025-05-08T10:39:16Z</time>
      </trkpt>
      <trkpt lat="36.253028986975551" lon="-5.982623035088182">
        <ele>23.210000000000001</ele>
        <time>2025-05-08T10:39:17Z</time>
      </trkpt>
      <trkpt lat="36.253122026100755" lon="-5.982819003984332">
        <ele>24.649999999999999</ele>
        <time>2025-05-08T10:39:19Z</time>
      </trkpt>
      <trkpt lat="36.253167036920786" lon="-5.982913970947266">
        <ele>25.609999999999999</ele>
        <time>2025-05-08T10:39:20Z</time>
      </trkpt>
      <trkpt lat="36.253205006942153" lon="-5.982970967888832">
        <ele>26.09</ele>
        <time>2025-05-08T10:39:21Z</time>
      </trkpt>
      <trkpt lat="36.253327969461679" lon="-5.983004998415709">
        <ele>26.57</ele>
        <time>2025-05-08T10:39:22Z</time>
      </trkpt>
      <trkpt lat="36.253394018858671" lon="-5.982978008687496">
        <ele>26.57</ele>
        <time>2025-05-08T10:39:23Z</time>
      </trkpt>
      <trkpt lat="36.253482028841972" lon="-5.982978008687496">
        <ele>27.050000000000001</ele>
        <time>2025-05-08T10:39:24Z</time>
      </trkpt>
      <trkpt lat="36.253581019118428" lon="-5.982896033674479">
        <ele>27.050000000000001</ele>
        <time>2025-05-08T10:39:25Z</time>
      </trkpt>
      <trkpt lat="36.253662994131446" lon="-5.982823027297854">
        <ele>27.530000000000001</ele>
        <time>2025-05-08T10:39:26Z</time>
      </trkpt>
      <trkpt lat="36.253746980801225" lon="-5.982747003436089">
        <ele>27.530000000000001</ele>
        <time>2025-05-08T10:39:27Z</time>
      </trkpt>
      <trkpt lat="36.253835996612906" lon="-5.982667040079832">
        <ele>27.530000000000001</ele>
        <time>2025-05-08T10:39:28Z</time>
      </trkpt>
      <trkpt lat="36.25393096357584" lon="-5.982566038146615">
        <ele>27.530000000000001</ele>
        <time>2025-05-08T10:39:29Z</time>
      </trkpt>
      <trkpt lat="36.254608975723386" lon="-5.981449987739325">
        <ele>24.170000000000002</ele>
        <time>2025-05-08T10:39:36Z</time>
      </trkpt>
      <trkpt lat="36.255743969231844" lon="-5.979455010965467">
        <ele>19.84</ele>
        <time>2025-05-08T10:39:46Z</time>
      </trkpt>
      <trkpt lat="36.25706797465682" lon="-5.977967977523804">
        <ele>16.48</ele>
        <time>2025-05-08T10:39:55Z</time>
      </trkpt>
      <trkpt lat="36.258575962856412" lon="-5.976052964106202">
        <ele>16.960000000000001</ele>
        <time>2025-05-08T10:40:06Z</time>
      </trkpt>
      <trkpt lat="36.25973098911345" lon="-5.974531983956695">
        <ele>17.440000000000001</ele>
        <time>2025-05-08T10:40:15Z</time>
      </trkpt>
      <trkpt lat="36.260362984612584" lon="-5.972915031015873">
        <ele>13.119999999999999</ele>
        <time>2025-05-08T10:40:23Z</time>
      </trkpt>
      <trkpt lat="36.260453006252646" lon="-5.972467018291354">
        <ele>12.15</ele>
        <time>2025-05-08T10:40:25Z</time>
      </trkpt>
      <trkpt lat="36.260690968483686" lon="-5.969740971922875">
        <ele>10.710000000000001</ele>
        <time>2025-05-08T10:40:37Z</time>
      </trkpt>
      <trkpt lat="36.260827006772161" lon="-5.967880021780729">
        <ele>9.75</ele>
        <time>2025-05-08T10:40:45Z</time>
      </trkpt>
      <trkpt lat="36.260933959856629" lon="-5.965576004236937">
        <ele>8.789999999999999</ele>
        <time>2025-05-08T10:40:56Z</time>
      </trkpt>
      <trkpt lat="36.260933959856629" lon="-5.965409958735108">
        <ele>8.789999999999999</ele>
        <time>2025-05-08T10:40:57Z</time>
      </trkpt>
      <trkpt lat="36.260924991220236" lon="-5.965269980952144">
        <ele>8.789999999999999</ele>
        <time>2025-05-08T10:40:58Z</time>
      </trkpt>
      <trkpt lat="36.260881992056966" lon="-5.965150035917759">
        <ele>8.789999999999999</ele>
        <time>2025-05-08T10:40:59Z</time>
      </trkpt>
      <trkpt lat="36.260829018428922" lon="-5.965044004842639">
        <ele>8.789999999999999</ele>
        <time>2025-05-08T10:41:00Z</time>
      </trkpt>
      <trkpt lat="36.26071996986866" lon="-5.964953983202577">
        <ele>9.27</ele>
        <time>2025-05-08T10:41:01Z</time>
      </trkpt>
      <trkpt lat="36.260714018717408" lon="-5.964834960177541">
        <ele>9.75</ele>
        <time>2025-05-08T10:41:02Z</time>
      </trkpt>
      <trkpt lat="36.260741008445621" lon="-5.964738987386227">
        <ele>9.75</ele>
        <time>2025-05-08T10:41:03Z</time>
      </trkpt>
      <trkpt lat="36.260793982073665" lon="-5.964633962139487">
        <ele>9.75</ele>
        <time>2025-05-08T10:41:04Z</time>
      </trkpt>
      <trkpt lat="36.260847961530089" lon="-5.964498007670045">
        <ele>9.75</ele>
        <time>2025-05-08T10:41:05Z</time>
      </trkpt>
      <trkpt lat="36.260847961530089" lon="-5.964349983260036">
        <ele>9.75</ele>
        <time>2025-05-08T10:41:06Z</time>
      </trkpt>
      <trkpt lat="36.260775038972497" lon="-5.962926987558603">
        <ele>8.789999999999999</ele>
        <time>2025-05-08T10:41:14Z</time>
      </trkpt>
      <trkpt lat="36.260749977082014" lon="-5.962760020047426">
        <ele>8.789999999999999</ele>
        <time>2025-05-08T10:41:15Z</time>
      </trkpt>
      <trkpt lat="36.260704966261983" lon="-5.962605038657785">
        <ele>8.310000000000001</ele>
        <time>2025-05-08T10:41:16Z</time>
      </trkpt>
      <trkpt lat="36.260645035654306" lon="-5.96244896762073">
        <ele>8.310000000000001</ele>
        <time>2025-05-08T10:41:17Z</time>
      </trkpt>
      <trkpt lat="36.260584015399218" lon="-5.962287029251456">
        <ele>8.310000000000001</ele>
        <time>2025-05-08T10:41:18Z</time>
      </trkpt>
      <trkpt lat="36.260483013466001" lon="-5.962156020104885">
        <ele>8.310000000000001</ele>
        <time>2025-05-08T10:41:19Z</time>
      </trkpt>
      <trkpt lat="36.260373964905739" lon="-5.962035991251469">
        <ele>8.310000000000001</ele>
        <time>2025-05-08T10:41:20Z</time>
      </trkpt>
      <trkpt lat="36.260270029306412" lon="-5.961919985711575">
        <ele>7.83</ele>
        <time>2025-05-08T10:41:21Z</time>
      </trkpt>
      <trkpt lat="36.259453967213631" lon="-5.961198974400759">
        <ele>7.35</ele>
        <time>2025-05-08T10:41:30Z</time>
      </trkpt>
      <trkpt lat="36.259400993585587" lon="-5.96113502047956">
        <ele>6.87</ele>
        <time>2025-05-08T10:41:31Z</time>
      </trkpt>
      <trkpt lat="36.259352965280414" lon="-5.961079029366374">
        <ele>6.87</ele>
        <time>2025-05-08T10:41:32Z</time>
      </trkpt>
      <trkpt lat="36.259195972234011" lon="-5.961177013814449">
        <ele>7.35</ele>
        <time>2025-05-08T10:41:33Z</time>
      </trkpt>
      <trkpt lat="36.25915196724236" lon="-5.961154969409108">
        <ele>7.83</ele>
        <time>2025-05-08T10:41:34Z</time>
      </trkpt>
      <trkpt lat="36.25908499583602" lon="-5.961109036579728">
        <ele>8.310000000000001</ele>
        <time>2025-05-08T10:41:35Z</time>
      </trkpt>
      <trkpt lat="36.259039985015988" lon="-5.961024966090918">
        <ele>8.789999999999999</ele>
        <time>2025-05-08T10:41:36Z</time>
      </trkpt>
      <trkpt lat="36.259030010551214" lon="-5.960941985249519">
        <ele>8.789999999999999</ele>
        <time>2025-05-08T10:41:37Z</time>
      </trkpt>
      <trkpt lat="36.259058006107807" lon="-5.960842994973064">
        <ele>9.27</ele>
        <time>2025-05-08T10:41:38Z</time>
      </trkpt>
      <trkpt lat="36.259089019149542" lon="-5.9607910271734">
        <ele>9.27</ele>
        <time>2025-05-08T10:41:39Z</time>
      </trkpt>
      <trkpt lat="36.259145010262728" lon="-5.960632022470236">
        <ele>9.75</ele>
        <time>2025-05-08T10:41:40Z</time>
      </trkpt>
      <trkpt lat="36.259105028584599" lon="-5.96053596585989">
        <ele>9.27</ele>
        <time>2025-05-08T10:41:41Z</time>
      </trkpt>
      <trkpt lat="36.259068986400962" lon="-5.960408980026841">
        <ele>9.27</ele>
        <time>2025-05-08T10:41:42Z</time>
      </trkpt>
      <trkpt lat="36.25900000333786" lon="-5.960286017507315">
        <ele>9.27</ele>
        <time>2025-05-08T10:41:43Z</time>
      </trkpt>
      <trkpt lat="36.258932026103139" lon="-5.960144028067589">
        <ele>9.27</ele>
        <time>2025-05-08T10:41:44Z</time>
      </trkpt>
      <trkpt lat="36.258229035884142" lon="-5.958714997395873">
        <ele>9.27</ele>
        <time>2025-05-08T10:41:52Z</time>
      </trkpt>
      <trkpt lat="36.257981015369296" lon="-5.958348037675023">
        <ele>9.27</ele>
        <time>2025-05-08T10:41:54Z</time>
      </trkpt>
      <trkpt lat="36.257831985130906" lon="-5.958191966637969">
        <ele>8.789999999999999</ele>
        <time>2025-05-08T10:41:55Z</time>
      </trkpt>
      <trkpt lat="36.257683960720897" lon="-5.958036985248327">
        <ele>8.789999999999999</ele>
        <time>2025-05-08T10:41:56Z</time>
      </trkpt>
      <trkpt lat="36.256265994161367" lon="-5.957170967012644">
        <ele>11.19</ele>
        <time>2025-05-08T10:42:04Z</time>
      </trkpt>
      <trkpt lat="36.255415985360742" lon="-5.956589011475444">
        <ele>10.710000000000001</ele>
        <time>2025-05-08T10:42:09Z</time>
      </trkpt>
      <trkpt lat="36.253978991881013" lon="-5.955295013263822">
        <ele>11.67</ele>
        <time>2025-05-08T10:42:18Z</time>
      </trkpt>
      <trkpt lat="36.252433033660054" lon="-5.953730028122664">
        <ele>14.56</ele>
        <time>2025-05-08T10:42:28Z</time>
      </trkpt>
      <trkpt lat="36.252322979271412" lon="-5.953533975407481">
        <ele>15.039999999999999</ele>
        <time>2025-05-08T10:42:29Z</time>
      </trkpt>
      <trkpt lat="36.252212002873421" lon="-5.953338006511331">
        <ele>15.52</ele>
        <time>2025-05-08T10:42:30Z</time>
      </trkpt>
      <trkpt lat="36.252128016203642" lon="-5.953125022351742">
        <ele>16</ele>
        <time>2025-05-08T10:42:31Z</time>
      </trkpt>
      <trkpt lat="36.252050986513495" lon="-5.952895022928715">
        <ele>16.48</ele>
        <time>2025-05-08T10:42:32Z</time>
      </trkpt>
      <trkpt lat="36.252031037583947" lon="-5.952674997970462">
        <ele>16.960000000000001</ele>
        <time>2025-05-08T10:42:33Z</time>
      </trkpt>
      <trkpt lat="36.252042017877102" lon="-5.952448016032577">
        <ele>17.440000000000001</ele>
        <time>2025-05-08T10:42:34Z</time>
      </trkpt>
      <trkpt lat="36.252068001776934" lon="-5.952227991074324">
        <ele>17.920000000000002</ele>
        <time>2025-05-08T10:42:35Z</time>
      </trkpt>
      <trkpt lat="36.25212399289012" lon="-5.952017018571496">
        <ele>18.879999999999999</ele>
        <time>2025-05-08T10:42:36Z</time>
      </trkpt>
      <trkpt lat="36.252195993438363" lon="-5.951813003048301">
        <ele>19.84</ele>
        <time>2025-05-08T10:42:37Z</time>
      </trkpt>
      <trkpt lat="36.252293977886438" lon="-5.951624996960163">
        <ele>20.809999999999999</ele>
        <time>2025-05-08T10:42:38Z</time>
      </trkpt>
      <trkpt lat="36.252393973991275" lon="-5.951431961730123">
        <ele>21.289999999999999</ele>
        <time>2025-05-08T10:42:39Z</time>
      </trkpt>
      <trkpt lat="36.252508973702788" lon="-5.951258959248662">
        <ele>21.77</ele>
        <time>2025-05-08T10:42:40Z</time>
      </trkpt>
      <trkpt lat="36.252643000334501" lon="-5.951088974252343">
        <ele>21.77</ele>
        <time>2025-05-08T10:42:41Z</time>
      </trkpt>
      <trkpt lat="36.253861980512738" lon="-5.949546033516526">
        <ele>16.960000000000001</ele>
        <time>2025-05-08T10:42:50Z</time>
      </trkpt>
      <trkpt lat="36.255275001749396" lon="-5.947792958468199">
        <ele>22.73</ele>
        <time>2025-05-08T10:43:01Z</time>
      </trkpt>
      <trkpt lat="36.255372986197472" lon="-5.947610987350345">
        <ele>23.690000000000001</ele>
        <time>2025-05-08T10:43:02Z</time>
      </trkpt>
      <trkpt lat="36.255460996180773" lon="-5.947418035939336">
        <ele>24.649999999999999</ele>
        <time>2025-05-08T10:43:03Z</time>
      </trkpt>
      <trkpt lat="36.255534002557397" lon="-5.947220977395773">
        <ele>26.09</ele>
        <time>2025-05-08T10:43:04Z</time>
      </trkpt>
      <trkpt lat="36.255569960922003" lon="-5.946972034871578">
        <ele>27.530000000000001</ele>
        <time>2025-05-08T10:43:05Z</time>
      </trkpt>
      <trkpt lat="36.255586976185441" lon="-5.946782017126679">
        <ele>28.98</ele>
        <time>2025-05-08T10:43:06Z</time>
      </trkpt>
      <trkpt lat="36.255564009770751" lon="-5.946557968854904">
        <ele>30.420000000000002</ele>
        <time>2025-05-08T10:43:07Z</time>
      </trkpt>
      <trkpt lat="36.255530985072255" lon="-5.946340961381793">
        <ele>31.859999999999999</ele>
        <time>2025-05-08T10:43:08Z</time>
      </trkpt>
      <trkpt lat="36.255054976791143" lon="-5.943700997158885">
        <ele>46.759999999999998</ele>
        <time>2025-05-08T10:43:20Z</time>
      </trkpt>
      <trkpt lat="36.254539992660284" lon="-5.941523965448141">
        <ele>54.450000000000003</ele>
        <time>2025-05-08T10:43:29Z</time>
      </trkpt>
      <trkpt lat="36.253513041883707" lon="-5.937626967206597">
        <ele>51.090000000000003</ele>
        <time>2025-05-08T10:43:43Z</time>
      </trkpt>
      <trkpt lat="36.252676025032997" lon="-5.934434970840812">
        <ele>45.799999999999997</ele>
        <time>2025-05-08T10:43:55Z</time>
      </trkpt>
      <trkpt lat="36.25171503983438" lon="-5.930726984515786">
        <ele>36.670000000000002</ele>
        <time>2025-05-08T10:44:09Z</time>
      </trkpt>
      <trkpt lat="36.250938037410378" lon="-5.927830031141639">
        <ele>27.050000000000001</ele>
        <time>2025-05-08T10:44:20Z</time>
      </trkpt>
      <trkpt lat="36.249965988099575" lon="-5.924165965989232">
        <ele>25.609999999999999</ele>
        <time>2025-05-08T10:44:34Z</time>
      </trkpt>
      <trkpt lat="36.249050013720989" lon="-5.920717986300588">
        <ele>27.530000000000001</ele>
        <time>2025-05-08T10:44:47Z</time>
      </trkpt>
      <trkpt lat="36.248312992975116" lon="-5.917854979634285">
        <ele>32.340000000000003</ele>
        <time>2025-05-08T10:44:58Z</time>
      </trkpt>
      <trkpt lat="36.247905967757106" lon="-5.915246028453112">
        <ele>37.149999999999999</ele>
        <time>2025-05-08T10:45:09Z</time>
      </trkpt>
      <trkpt lat="36.247538002207875" lon="-5.912832040339708">
        <ele>39.07</ele>
        <time>2025-05-08T10:45:18Z</time>
      </trkpt>
      <trkpt lat="36.246872982010245" lon="-5.908465990796685">
        <ele>41.950000000000003</ele>
        <time>2025-05-08T10:45:34Z</time>
      </trkpt>
      <trkpt lat="36.246413988992572" lon="-5.905454959720373">
        <ele>45.32</ele>
        <time>2025-05-08T10:45:45Z</time>
      </trkpt>
      <trkpt lat="36.245983997359872" lon="-5.902449963614345">
        <ele>48.68</ele>
        <time>2025-05-08T10:45:56Z</time>
      </trkpt>
      <trkpt lat="36.245536990463734" lon="-5.899462988600135">
        <ele>49.649999999999999</ele>
        <time>2025-05-08T10:46:07Z</time>
      </trkpt>
      <trkpt lat="36.244942964985967" lon="-5.895459959283471">
        <ele>49.649999999999999</ele>
        <time>2025-05-08T10:46:22Z</time>
      </trkpt>
      <trkpt lat="36.244717994704843" lon="-5.894289007410407">
        <ele>49.649999999999999</ele>
        <time>2025-05-08T10:46:27Z</time>
      </trkpt>
      <trkpt lat="36.244642976671457" lon="-5.894067976623774">
        <ele>49.649999999999999</ele>
        <time>2025-05-08T10:46:28Z</time>
      </trkpt>
      <trkpt lat="36.244543986395001" lon="-5.893854992464185">
        <ele>49.649999999999999</ele>
        <time>2025-05-08T10:46:29Z</time>
      </trkpt>
      <trkpt lat="36.244415994733572" lon="-5.893659023568034">
        <ele>50.130000000000003</ele>
        <time>2025-05-08T10:46:30Z</time>
      </trkpt>
      <trkpt lat="36.244277022778988" lon="-5.893466994166374">
        <ele>50.130000000000003</ele>
        <time>2025-05-08T10:46:31Z</time>
      </trkpt>
      <trkpt lat="36.243216041475534" lon="-5.892056990414858">
        <ele>51.57</ele>
        <time>2025-05-08T10:46:38Z</time>
      </trkpt>
      <trkpt lat="36.241490039974451" lon="-5.889860009774566">
        <ele>51.57</ele>
        <time>2025-05-08T10:46:49Z</time>
      </trkpt>
      <trkpt lat="36.240656962618232" lon="-5.888801040127873">
        <ele>51.090000000000003</ele>
        <time>2025-05-08T10:46:55Z</time>
      </trkpt>
      <trkpt lat="36.239414010196924" lon="-5.887655988335609">
        <ele>48.68</ele>
        <time>2025-05-08T10:47:03Z</time>
      </trkpt>
      <trkpt lat="36.239011008292437" lon="-5.887473011389375">
        <ele>47.719999999999999</ele>
        <time>2025-05-08T10:47:05Z</time>
      </trkpt>
      <trkpt lat="36.237077973783016" lon="-5.886774966493249">
        <ele>39.07</ele>
        <time>2025-05-08T10:47:14Z</time>
      </trkpt>
      <trkpt lat="36.235053995624185" lon="-5.885600997135043">
        <ele>30.420000000000002</ele>
        <time>2025-05-08T10:47:24Z</time>
      </trkpt>
      <trkpt lat="36.233029011636972" lon="-5.884383022785187">
        <ele>22.25</ele>
        <time>2025-05-08T10:47:34Z</time>
      </trkpt>
      <trkpt lat="36.231009978801012" lon="-5.883183991536498">
        <ele>18.399999999999999</ele>
        <time>2025-05-08T10:47:44Z</time>
      </trkpt>
      <trkpt lat="36.22950199060142" lon="-5.882011028006673">
        <ele>16.48</ele>
        <time>2025-05-08T10:47:52Z</time>
      </trkpt>
      <trkpt lat="36.226924974471331" lon="-5.879314988851547">
        <ele>21.77</ele>
        <time>2025-05-08T10:48:07Z</time>
      </trkpt>
      <trkpt lat="36.223840015009046" lon="-5.876049986109138">
        <ele>20.32</ele>
        <time>2025-05-08T10:48:25Z</time>
      </trkpt>
      <trkpt lat="36.221968000754714" lon="-5.873687965795398">
        <ele>13.119999999999999</ele>
        <time>2025-05-08T10:48:37Z</time>
      </trkpt>
      <trkpt lat="36.221355032175779" lon="-5.87190899066627">
        <ele>10.23</ele>
        <time>2025-05-08T10:48:44Z</time>
      </trkpt>
      <trkpt lat="36.220530001446605" lon="-5.868741972371936">
        <ele>11.19</ele>
        <time>2025-05-08T10:48:56Z</time>
      </trkpt>
      <trkpt lat="36.219367012381554" lon="-5.86423602886498">
        <ele>14.56</ele>
        <time>2025-05-08T10:49:13Z</time>
      </trkpt>
      <trkpt lat="36.218515997752547" lon="-5.860517984256148">
        <ele>10.23</ele>
        <time>2025-05-08T10:49:27Z</time>
      </trkpt>
      <trkpt lat="36.218555979430676" lon="-5.858583021908999">
        <ele>10.710000000000001</ele>
        <time>2025-05-08T10:49:34Z</time>
      </trkpt>
      <trkpt lat="36.219098037108779" lon="-5.856774039566517">
        <ele>13.119999999999999</ele>
        <time>2025-05-08T10:49:41Z</time>
      </trkpt>
      <trkpt lat="36.220996035262942" lon="-5.852993968874216">
        <ele>18.879999999999999</ele>
        <time>2025-05-08T10:49:57Z</time>
      </trkpt>
      <trkpt lat="36.221149004995823" lon="-5.852793976664543">
        <ele>18.399999999999999</ele>
        <time>2025-05-08T10:49:58Z</time>
      </trkpt>
      <trkpt lat="36.221303986385465" lon="-5.852600019425154">
        <ele>17.920000000000002</ele>
        <time>2025-05-08T10:49:59Z</time>
      </trkpt>
      <trkpt lat="36.223934981971979" lon="-5.850045969709754">
        <ele>13.119999999999999</ele>
        <time>2025-05-08T10:50:14Z</time>
      </trkpt>
      <trkpt lat="36.227111974731088" lon="-5.84696302190423">
        <ele>13.119999999999999</ele>
        <time>2025-05-08T10:50:32Z</time>
      </trkpt>
      <trkpt lat="36.228280998766422" lon="-5.845691990107298">
        <ele>17.920000000000002</ele>
        <time>2025-05-08T10:50:39Z</time>
      </trkpt>
      <trkpt lat="36.229125978425145" lon="-5.844047963619232">
        <ele>20.809999999999999</ele>
        <time>2025-05-08T10:50:46Z</time>
      </trkpt>
      <trkpt lat="36.229950003325939" lon="-5.841129971668124">
        <ele>17.440000000000001</ele>
        <time>2025-05-08T10:50:57Z</time>
      </trkpt>
      <trkpt lat="36.231098994612694" lon="-5.836957041174173">
        <ele>8.310000000000001</ele>
        <time>2025-05-08T10:51:13Z</time>
      </trkpt>
      <trkpt lat="36.231945985928178" lon="-5.83351300098002">
        <ele>8.310000000000001</ele>
        <time>2025-05-08T10:51:26Z</time>
      </trkpt>
      <trkpt lat="36.231908015906811" lon="-5.831587007269263">
        <ele>12.15</ele>
        <time>2025-05-08T10:51:33Z</time>
      </trkpt>
      <trkpt lat="36.231377022340894" lon="-5.829765032976866">
        <ele>13.6</ele>
        <time>2025-05-08T10:51:40Z</time>
      </trkpt>
      <trkpt lat="36.229685973376036" lon="-5.825519012287259">
        <ele>8.310000000000001</ele>
        <time>2025-05-08T10:51:57Z</time>
      </trkpt>
      <trkpt lat="36.228388035669923" lon="-5.822308994829655">
        <ele>7.35</ele>
        <time>2025-05-08T10:52:10Z</time>
      </trkpt>
      <trkpt lat="36.227080039680004" lon="-5.81907500512898">
        <ele>8.310000000000001</ele>
        <time>2025-05-08T10:52:23Z</time>
      </trkpt>
      <trkpt lat="36.225469037890434" lon="-5.815089996904135">
        <ele>6.39</ele>
        <time>2025-05-08T10:52:39Z</time>
      </trkpt>
      <trkpt lat="36.223955014720559" lon="-5.811373963952065">
        <ele>7.35</ele>
        <time>2025-05-08T10:52:54Z</time>
      </trkpt>
      <trkpt lat="36.222843993455172" lon="-5.808668034151197">
        <ele>11.19</ele>
        <time>2025-05-08T10:53:05Z</time>
      </trkpt>
      <trkpt lat="36.221405994147062" lon="-5.805208990350366">
        <ele>11.19</ele>
        <time>2025-05-08T10:53:19Z</time>
      </trkpt>
      <trkpt lat="36.220463030040264" lon="-5.803661020472646">
        <ele>13.6</ele>
        <time>2025-05-08T10:53:26Z</time>
      </trkpt>
      <trkpt lat="36.218766029924154" lon="-5.801454987376928">
        <ele>21.77</ele>
        <time>2025-05-08T10:53:37Z</time>
      </trkpt>
      <trkpt lat="36.218165969476104" lon="-5.800628028810024">
        <ele>23.210000000000001</ele>
        <time>2025-05-08T10:53:41Z</time>
      </trkpt>
      <trkpt lat="36.218057004734874" lon="-5.800388976931572">
        <ele>23.210000000000001</ele>
        <time>2025-05-08T10:53:42Z</time>
      </trkpt>
      <trkpt lat="36.217960026115179" lon="-5.800141962245107">
        <ele>23.690000000000001</ele>
        <time>2025-05-08T10:53:43Z</time>
      </trkpt>
      <trkpt lat="36.217870004475117" lon="-5.799891008064151">
        <ele>23.690000000000001</ele>
        <time>2025-05-08T10:53:44Z</time>
      </trkpt>
      <trkpt lat="36.217799009755254" lon="-5.799628989771009">
        <ele>23.690000000000001</ele>
        <time>2025-05-08T10:53:45Z</time>
      </trkpt>
      <trkpt lat="36.21686995960772" lon="-5.796814011409879">
        <ele>22.73</ele>
        <time>2025-05-08T10:53:56Z</time>
      </trkpt>
      <trkpt lat="36.215830016881227" lon="-5.79468802548945">
        <ele>24.170000000000002</ele>
        <time>2025-05-08T10:54:05Z</time>
      </trkpt>
      <trkpt lat="36.215653996914625" lon="-5.794522985816002">
        <ele>24.170000000000002</ele>
        <time>2025-05-08T10:54:06Z</time>
      </trkpt>
      <trkpt lat="36.215474959462881" lon="-5.794355012476444">
        <ele>24.649999999999999</ele>
        <time>2025-05-08T10:54:07Z</time>
      </trkpt>
      <trkpt lat="36.21529902331531" lon="-5.794190978631377">
        <ele>24.649999999999999</ele>
        <time>2025-05-08T10:54:08Z</time>
      </trkpt>
      <trkpt lat="36.215120991691947" lon="-5.794025016948581">
        <ele>25.129999999999999</ele>
        <time>2025-05-08T10:54:09Z</time>
      </trkpt>
      <trkpt lat="36.213140012696385" lon="-5.792242018505931">
        <ele>24.170000000000002</ele>
        <time>2025-05-08T10:54:20Z</time>
      </trkpt>
      <trkpt lat="36.211374029517174" lon="-5.790475029498339">
        <ele>24.649999999999999</ele>
        <time>2025-05-08T10:54:31Z</time>
      </trkpt>
      <trkpt lat="36.210155971348286" lon="-5.788981961086392">
        <ele>22.73</ele>
        <time>2025-05-08T10:54:39Z</time>
      </trkpt>
      <trkpt lat="36.208784021437168" lon="-5.787289990112186">
        <ele>19.84</ele>
        <time>2025-05-08T10:54:48Z</time>
      </trkpt>
      <trkpt lat="36.206863978877664" lon="-5.784912966191769">
        <ele>20.809999999999999</ele>
        <time>2025-05-08T10:55:00Z</time>
      </trkpt>
      <trkpt lat="36.205129008740187" lon="-5.782731994986534">
        <ele>17.440000000000001</ele>
        <time>2025-05-08T10:55:11Z</time>
      </trkpt>
      <trkpt lat="36.203265963122249" lon="-5.780433006584644">
        <ele>15.039999999999999</ele>
        <time>2025-05-08T10:55:23Z</time>
      </trkpt>
      <trkpt lat="36.201154980808496" lon="-5.77780201099813">
        <ele>17.920000000000002</ele>
        <time>2025-05-08T10:55:38Z</time>
      </trkpt>
      <trkpt lat="36.199050033465028" lon="-5.77518199570477">
        <ele>12.15</ele>
        <time>2025-05-08T10:55:53Z</time>
      </trkpt>
      <trkpt lat="36.197633994743228" lon="-5.773402014747262">
        <ele>10.710000000000001</ele>
        <time>2025-05-08T10:56:03Z</time>
      </trkpt>
      <trkpt lat="36.196131035685539" lon="-5.771524971351028">
        <ele>7.83</ele>
        <time>2025-05-08T10:56:14Z</time>
      </trkpt>
      <trkpt lat="36.194569990038872" lon="-5.76957399956882">
        <ele>9.27</ele>
        <time>2025-05-08T10:56:26Z</time>
      </trkpt>
      <trkpt lat="36.193158980458975" lon="-5.76781296171248">
        <ele>10.23</ele>
        <time>2025-05-08T10:56:37Z</time>
      </trkpt>
      <trkpt lat="36.1914739664644" lon="-5.765689993277192">
        <ele>13.6</ele>
        <time>2025-05-08T10:56:50Z</time>
      </trkpt>
      <trkpt lat="36.189965978264809" lon="-5.763805992901325">
        <ele>14.56</ele>
        <time>2025-05-08T10:57:02Z</time>
      </trkpt>
      <trkpt lat="36.188530996441841" lon="-5.762031963095069">
        <ele>16</ele>
        <time>2025-05-08T10:57:15Z</time>
      </trkpt>
      <trkpt lat="36.187028037384152" lon="-5.760157015174627">
        <ele>16.960000000000001</ele>
        <time>2025-05-08T10:57:28Z</time>
      </trkpt>
      <trkpt lat="36.186369974166155" lon="-5.758684985339642">
        <ele>16.48</ele>
        <time>2025-05-08T10:57:36Z</time>
      </trkpt>
      <trkpt lat="36.185249984264374" lon="-5.755835976451635">
        <ele>22.25</ele>
        <time>2025-05-08T10:57:51Z</time>
      </trkpt>
      <trkpt lat="36.184244994074106" lon="-5.754004027694464">
        <ele>22.73</ele>
        <time>2025-05-08T10:58:01Z</time>
      </trkpt>
      <trkpt lat="36.183082005009055" lon="-5.752878002822399">
        <ele>20.809999999999999</ele>
        <time>2025-05-08T10:58:08Z</time>
      </trkpt>
      <trkpt lat="36.180548993870616" lon="-5.750684961676598">
        <ele>21.77</ele>
        <time>2025-05-08T10:58:22Z</time>
      </trkpt>
      <trkpt lat="36.179056009277701" lon="-5.749409990385175">
        <ele>20.809999999999999</ele>
        <time>2025-05-08T10:58:30Z</time>
      </trkpt>
      <trkpt lat="36.177171003073454" lon="-5.747765963897109">
        <ele>20.809999999999999</ele>
        <time>2025-05-08T10:58:40Z</time>
      </trkpt>
      <trkpt lat="36.174981985241175" lon="-5.74585597962141">
        <ele>21.289999999999999</ele>
        <time>2025-05-08T10:58:53Z</time>
      </trkpt>
      <trkpt lat="36.173203010112047" lon="-5.744313960894942">
        <ele>22.25</ele>
        <time>2025-05-08T10:59:03Z</time>
      </trkpt>
      <trkpt lat="36.171679012477398" lon="-5.743000013753772">
        <ele>24.170000000000002</ele>
        <time>2025-05-08T10:59:11Z</time>
      </trkpt>
      <trkpt lat="36.168964030221105" lon="-5.740647967904806">
        <ele>30.420000000000002</ele>
        <time>2025-05-08T10:59:25Z</time>
      </trkpt>
      <trkpt lat="36.166391037404537" lon="-5.738449981436133">
        <ele>34.740000000000002</ele>
        <time>2025-05-08T10:59:39Z</time>
      </trkpt>
      <trkpt lat="36.164063969627023" lon="-5.736737977713347">
        <ele>39.549999999999997</ele>
        <time>2025-05-08T10:59:51Z</time>
      </trkpt>
      <trkpt lat="36.161275980994105" lon="-5.734925977885723">
        <ele>38.590000000000003</ele>
        <time>2025-05-08T11:00:05Z</time>
      </trkpt>
      <trkpt lat="36.158694019541144" lon="-5.733265019953251">
        <ele>47.719999999999999</ele>
        <time>2025-05-08T11:00:18Z</time>
      </trkpt>
      <trkpt lat="36.157219978049397" lon="-5.731986025348306">
        <ele>51.090000000000003</ele>
        <time>2025-05-08T11:00:26Z</time>
      </trkpt>
      <trkpt lat="36.155674019828439" lon="-5.729988031089306">
        <ele>48.200000000000003</ele>
        <time>2025-05-08T11:00:36Z</time>
      </trkpt>
      <trkpt lat="36.154896011576056" lon="-5.728615997359157">
        <ele>47.240000000000002</ele>
        <time>2025-05-08T11:00:42Z</time>
      </trkpt>
      <trkpt lat="36.154005015268922" lon="-5.727030979469419">
        <ele>46.759999999999998</ele>
        <time>2025-05-08T11:00:49Z</time>
      </trkpt>
      <trkpt lat="36.152343973517418" lon="-5.724074011668563">
        <ele>47.240000000000002</ele>
        <time>2025-05-08T11:01:02Z</time>
      </trkpt>
      <trkpt lat="36.150919971987605" lon="-5.721558015793562">
        <ele>47.719999999999999</ele>
        <time>2025-05-08T11:01:13Z</time>
      </trkpt>
      <trkpt lat="36.149066984653473" lon="-5.718445982784033">
        <ele>47.240000000000002</ele>
        <time>2025-05-08T11:01:27Z</time>
      </trkpt>
      <trkpt lat="36.147769968956709" lon="-5.717374021187425">
        <ele>47.719999999999999</ele>
        <time>2025-05-08T11:01:34Z</time>
      </trkpt>
      <trkpt lat="36.144881984218955" lon="-5.715792020782828">
        <ele>46.280000000000001</ele>
        <time>2025-05-08T11:01:48Z</time>
      </trkpt>
      <trkpt lat="36.141597032546997" lon="-5.713989995419979">
        <ele>48.68</ele>
        <time>2025-05-08T11:02:04Z</time>
      </trkpt>
      <trkpt lat="36.139224031940103" lon="-5.712674036622047">
        <ele>55.890000000000001</ele>
        <time>2025-05-08T11:02:16Z</time>
      </trkpt>
      <trkpt lat="36.138676023110747" lon="-5.712370024994016">
        <ele>58.780000000000001</ele>
        <time>2025-05-08T11:02:21Z</time>
      </trkpt>
      <trkpt lat="36.138407969847322" lon="-5.712220994755626">
        <ele>60.219999999999999</ele>
        <time>2025-05-08T11:02:28Z</time>
      </trkpt>
      <trkpt lat="36.138407969847322" lon="-5.712220994755626">
        <ele>60.219999999999999</ele>
        <time>2025-05-08T11:02:57Z</time>
      </trkpt>
      <trkpt lat="36.138371005654335" lon="-5.712200962007046">
        <ele>60.700000000000003</ele>
        <time>2025-05-08T11:03:32Z</time>
      </trkpt>
      <trkpt lat="36.138313002884388" lon="-5.712168021127582">
        <ele>60.700000000000003</ele>
        <time>2025-05-08T11:03:33Z</time>
      </trkpt>
      <trkpt lat="36.137570030987263" lon="-5.711772982031107">
        <ele>62.140000000000001</ele>
        <time>2025-05-08T11:03:40Z</time>
      </trkpt>
      <trkpt lat="36.136359013617039" lon="-5.710977036505938">
        <ele>66.469999999999999</ele>
        <time>2025-05-08T11:03:47Z</time>
      </trkpt>
      <trkpt lat="36.135179009288549" lon="-5.709756966680288">
        <ele>73.680000000000007</ele>
        <time>2025-05-08T11:03:54Z</time>
      </trkpt>
      <trkpt lat="36.134999971836805" lon="-5.709588993340731">
        <ele>74.640000000000001</ele>
        <time>2025-05-08T11:03:55Z</time>
      </trkpt>
      <trkpt lat="36.134797967970371" lon="-5.709459995850921">
        <ele>75.599999999999994</ele>
        <time>2025-05-08T11:03:56Z</time>
      </trkpt>
      <trkpt lat="36.134597975760698" lon="-5.709333010017872">
        <ele>76.560000000000002</ele>
        <time>2025-05-08T11:03:57Z</time>
      </trkpt>
      <trkpt lat="36.134382979944348" lon="-5.709249023348093">
        <ele>77.519999999999996</ele>
        <time>2025-05-08T11:03:58Z</time>
      </trkpt>
      <trkpt lat="36.134162032976747" lon="-5.709163025021553">
        <ele>78.969999999999999</ele>
        <time>2025-05-08T11:03:59Z</time>
      </trkpt>
      <trkpt lat="36.133937984704971" lon="-5.709095969796181">
        <ele>79.930000000000007</ele>
        <time>2025-05-08T11:04:00Z</time>
      </trkpt>
      <trkpt lat="36.13236797042191" lon="-5.70879296399653">
        <ele>87.140000000000001</ele>
        <time>2025-05-08T11:04:07Z</time>
      </trkpt>
      <trkpt lat="36.130342986434698" lon="-5.708748959004879">
        <ele>84.25</ele>
        <time>2025-05-08T11:04:16Z</time>
      </trkpt>
      <trkpt lat="36.128361001610756" lon="-5.708764968439937">
        <ele>78.480000000000004</ele>
        <time>2025-05-08T11:04:26Z</time>
      </trkpt>
      <trkpt lat="36.127226008102298" lon="-5.708545027300715">
        <ele>74.159999999999997</ele>
        <time>2025-05-08T11:04:32Z</time>
      </trkpt>
      <trkpt lat="36.125715002417564" lon="-5.708567993715406">
        <ele>67.430000000000007</ele>
        <time>2025-05-08T11:04:39Z</time>
      </trkpt>
      <trkpt lat="36.123786997050047" lon="-5.708462968468666">
        <ele>61.18</ele>
        <time>2025-05-08T11:04:48Z</time>
      </trkpt>
      <trkpt lat="36.122384034097195" lon="-5.707758972421289">
        <ele>60.219999999999999</ele>
        <time>2025-05-08T11:04:55Z</time>
      </trkpt>
      <trkpt lat="36.120820976793766" lon="-5.707014994695783">
        <ele>55.890000000000001</ele>
        <time>2025-05-08T11:05:03Z</time>
      </trkpt>
      <trkpt lat="36.119290022179484" lon="-5.706925978884101">
        <ele>51.57</ele>
        <time>2025-05-08T11:05:10Z</time>
      </trkpt>
      <trkpt lat="36.117814974859357" lon="-5.707454960793257">
        <ele>46.759999999999998</ele>
        <time>2025-05-08T11:05:17Z</time>
      </trkpt>
      <trkpt lat="36.115327980369329" lon="-5.708892038092017">
        <ele>37.149999999999999</ele>
        <time>2025-05-08T11:05:30Z</time>
      </trkpt>
      <trkpt lat="36.113526038825512" lon="-5.709669040516019">
        <ele>34.259999999999998</ele>
        <time>2025-05-08T11:05:39Z</time>
      </trkpt>
      <trkpt lat="36.1120830103755" lon="-5.709728971123695">
        <ele>32.82</ele>
        <time>2025-05-08T11:05:46Z</time>
      </trkpt>
      <trkpt lat="36.110256006941199" lon="-5.709641966968775">
        <ele>30.899999999999999</ele>
        <time>2025-05-08T11:05:54Z</time>
      </trkpt>
      <trkpt lat="36.109513035044074" lon="-5.709611959755421">
        <ele>28.02</ele>
        <time>2025-05-08T11:05:59Z</time>
      </trkpt>
      <trkpt lat="36.108488012105227" lon="-5.709274001419544">
        <ele>27.050000000000001</ele>
        <time>2025-05-08T11:06:06Z</time>
      </trkpt>
      <trkpt lat="36.106901988387108" lon="-5.708467997610569">
        <ele>27.050000000000001</ele>
        <time>2025-05-08T11:06:16Z</time>
      </trkpt>
      <trkpt lat="36.104640970006585" lon="-5.707337027415633">
        <ele>24.649999999999999</ele>
        <time>2025-05-08T11:06:28Z</time>
      </trkpt>
      <trkpt lat="36.102619003504515" lon="-5.706263976171613">
        <ele>26.09</ele>
        <time>2025-05-08T11:06:39Z</time>
      </trkpt>
      <trkpt lat="36.102452035993338" lon="-5.706131039187312">
        <ele>26.57</ele>
        <time>2025-05-08T11:06:40Z</time>
      </trkpt>
      <trkpt lat="36.102309040725231" lon="-5.705961976200342">
        <ele>26.57</ele>
        <time>2025-05-08T11:06:41Z</time>
      </trkpt>
      <trkpt lat="36.101288963109255" lon="-5.704435966908932">
        <ele>27.530000000000001</ele>
        <time>2025-05-08T11:06:49Z</time>
      </trkpt>
      <trkpt lat="36.099782986566424" lon="-5.702467979863286">
        <ele>25.129999999999999</ele>
        <time>2025-05-08T11:07:00Z</time>
      </trkpt>
      <trkpt lat="36.098142983391881" lon="-5.700668971985579">
        <ele>23.210000000000001</ele>
        <time>2025-05-08T11:07:11Z</time>
      </trkpt>
      <trkpt lat="36.096968008205295" lon="-5.699410010129213">
        <ele>22.25</ele>
        <time>2025-05-08T11:07:19Z</time>
      </trkpt>
      <trkpt lat="36.096802968531847" lon="-5.699313031509519">
        <ele>22.25</ele>
        <time>2025-05-08T11:07:20Z</time>
      </trkpt>
      <trkpt lat="36.096638012677431" lon="-5.699215969070792">
        <ele>22.25</ele>
        <time>2025-05-08T11:07:21Z</time>
      </trkpt>
      <trkpt lat="36.094752000644803" lon="-5.69839496165514">
        <ele>20.32</ele>
        <time>2025-05-08T11:07:32Z</time>
      </trkpt>
      <trkpt lat="36.094607999548316" lon="-5.69826303049922">
        <ele>20.32</ele>
        <time>2025-05-08T11:07:33Z</time>
      </trkpt>
      <trkpt lat="36.092953998595476" lon="-5.696713970974088">
        <ele>18.399999999999999</ele>
        <time>2025-05-08T11:07:44Z</time>
      </trkpt>
      <trkpt lat="36.091730995103717" lon="-5.695960018783808">
        <ele>20.32</ele>
        <time>2025-05-08T11:07:52Z</time>
      </trkpt>
      <trkpt lat="36.090070037171245" lon="-5.694852015003562">
        <ele>18.879999999999999</ele>
        <time>2025-05-08T11:08:03Z</time>
      </trkpt>
      <trkpt lat="36.089941961690784" lon="-5.694708013907075">
        <ele>18.399999999999999</ele>
        <time>2025-05-08T11:08:04Z</time>
      </trkpt>
      <trkpt lat="36.089012995362282" lon="-5.693444022908807">
        <ele>15.039999999999999</ele>
        <time>2025-05-08T11:08:12Z</time>
      </trkpt>
      <trkpt lat="36.087884958833456" lon="-5.692385975271463">
        <ele>12.630000000000001</ele>
        <time>2025-05-08T11:08:20Z</time>
      </trkpt>
      <trkpt lat="36.086603030562401" lon="-5.691983979195356">
        <ele>10.23</ele>
        <time>2025-05-08T11:08:27Z</time>
      </trkpt>
      <trkpt lat="36.084767980501056" lon="-5.691991019994021">
        <ele>9.75</ele>
        <time>2025-05-08T11:08:37Z</time>
      </trkpt>
      <trkpt lat="36.082865037024021" lon="-5.691791027784348">
        <ele>10.710000000000001</ele>
        <time>2025-05-08T11:08:47Z</time>
      </trkpt>
      <trkpt lat="36.080981036648154" lon="-5.691266991198063">
        <ele>8.789999999999999</ele>
        <time>2025-05-08T11:08:57Z</time>
      </trkpt>
      <trkpt lat="36.078965021297336" lon="-5.690595014020801">
        <ele>6.87</ele>
        <time>2025-05-08T11:09:08Z</time>
      </trkpt>
      <trkpt lat="36.0769550409168" lon="-5.68982002325356">
        <ele>7.35</ele>
        <time>2025-05-08T11:09:19Z</time>
      </trkpt>
      <trkpt lat="36.076783966273069" lon="-5.689688008278608">
        <ele>7.35</ele>
        <time>2025-05-08T11:09:20Z</time>
      </trkpt>
      <trkpt lat="36.07465697452426" lon="-5.687786992639303">
        <ele>10.23</ele>
        <time>2025-05-08T11:09:33Z</time>
      </trkpt>
      <trkpt lat="36.072451025247574" lon="-5.685770977288485">
        <ele>11.67</ele>
        <time>2025-05-08T11:09:47Z</time>
      </trkpt>
      <trkpt lat="36.070727035403252" lon="-5.684056039899588">
        <ele>13.119999999999999</ele>
        <time>2025-05-08T11:09:59Z</time>
      </trkpt>
      <trkpt lat="36.069722967222333" lon="-5.68236599676311">
        <ele>12.630000000000001</ele>
        <time>2025-05-08T11:10:09Z</time>
      </trkpt>
      <trkpt lat="36.068269964307547" lon="-5.679951002821326">
        <ele>12.630000000000001</ele>
        <time>2025-05-08T11:10:23Z</time>
      </trkpt>
      <trkpt lat="36.066571958363056" lon="-5.67766098305583">
        <ele>16.48</ele>
        <time>2025-05-08T11:10:36Z</time>
      </trkpt>
      <trkpt lat="36.064541023224592" lon="-5.674915993586183">
        <ele>18.879999999999999</ele>
        <time>2025-05-08T11:10:52Z</time>
      </trkpt>
      <trkpt lat="36.062784008681774" lon="-5.672569982707501">
        <ele>21.289999999999999</ele>
        <time>2025-05-08T11:11:05Z</time>
      </trkpt>
      <trkpt lat="36.061152974143624" lon="-5.670264037325978">
        <ele>26.09</ele>
        <time>2025-05-08T11:11:18Z</time>
      </trkpt>
      <trkpt lat="36.059341980144382" lon="-5.667117973789573">
        <ele>25.609999999999999</ele>
        <time>2025-05-08T11:11:34Z</time>
      </trkpt>
      <trkpt lat="36.057982016354799" lon="-5.664722006767988">
        <ele>22.73</ele>
        <time>2025-05-08T11:11:46Z</time>
      </trkpt>
      <trkpt lat="36.057029999792576" lon="-5.662666009739041">
        <ele>21.289999999999999</ele>
        <time>2025-05-08T11:11:56Z</time>
      </trkpt>
      <trkpt lat="36.056558014824986" lon="-5.660177003592253">
        <ele>21.289999999999999</ele>
        <time>2025-05-08T11:12:07Z</time>
      </trkpt>
      <trkpt lat="36.056468999013305" lon="-5.658233994618058">
        <ele>22.73</ele>
        <time>2025-05-08T11:12:16Z</time>
      </trkpt>
      <trkpt lat="36.056402027606964" lon="-5.656197024509311">
        <ele>23.210000000000001</ele>
        <time>2025-05-08T11:12:26Z</time>
      </trkpt>
      <trkpt lat="36.056279987096786" lon="-5.653009973466396">
        <ele>16.48</ele>
        <time>2025-05-08T11:12:40Z</time>
      </trkpt>
      <trkpt lat="36.056140009313822" lon="-5.651918984949589">
        <ele>14.08</ele>
        <time>2025-05-08T11:12:45Z</time>
      </trkpt>
      <trkpt lat="36.05544900521636" lon="-5.650503030046821">
        <ele>14.56</ele>
        <time>2025-05-08T11:12:53Z</time>
      </trkpt>
      <trkpt lat="36.054465975612402" lon="-5.648951958864927">
        <ele>15.039999999999999</ele>
        <time>2025-05-08T11:13:02Z</time>
      </trkpt>
      <trkpt lat="36.052911970764399" lon="-5.64650603570044">
        <ele>15.52</ele>
        <time>2025-05-08T11:13:16Z</time>
      </trkpt>
      <trkpt lat="36.051145987585187" lon="-5.643731039017439">
        <ele>15.039999999999999</ele>
        <time>2025-05-08T11:13:32Z</time>
      </trkpt>
      <trkpt lat="36.049895994365215" lon="-5.641763973981142">
        <ele>12.15</ele>
        <time>2025-05-08T11:13:43Z</time>
      </trkpt>
      <trkpt lat="36.047952985391021" lon="-5.638698041439056">
        <ele>8.789999999999999</ele>
        <time>2025-05-08T11:14:00Z</time>
      </trkpt>
      <trkpt lat="36.046493025496602" lon="-5.636419001966715">
        <ele>8.789999999999999</ele>
        <time>2025-05-08T11:14:13Z</time>
      </trkpt>
      <trkpt lat="36.045055026188493" lon="-5.634077014401555">
        <ele>9.75</ele>
        <time>2025-05-08T11:14:27Z</time>
      </trkpt>
      <trkpt lat="36.044193031266332" lon="-5.631912974640727">
        <ele>12.630000000000001</ele>
        <time>2025-05-08T11:14:38Z</time>
      </trkpt>
      <trkpt lat="36.043303962796926" lon="-5.62916798517108">
        <ele>9.75</ele>
        <time>2025-05-08T11:14:51Z</time>
      </trkpt>
      <trkpt lat="36.042388994246721" lon="-5.627318015322089">
        <ele>8.310000000000001</ele>
        <time>2025-05-08T11:15:01Z</time>
      </trkpt>
      <trkpt lat="36.040426958352327" lon="-5.623897025361657">
        <ele>8.789999999999999</ele>
        <time>2025-05-08T11:15:20Z</time>
      </trkpt>
      <trkpt lat="36.039282996207476" lon="-5.622229026630521">
        <ele>11.19</ele>
        <time>2025-05-08T11:15:30Z</time>
      </trkpt>
      <trkpt lat="36.037996038794518" lon="-5.621209032833576">
        <ele>12.15</ele>
        <time>2025-05-08T11:15:39Z</time>
      </trkpt>
      <trkpt lat="36.036688964813948" lon="-5.61992903240025">
        <ele>10.710000000000001</ele>
        <time>2025-05-08T11:15:49Z</time>
      </trkpt>
      <trkpt lat="36.035477025434375" lon="-5.618549035862088">
        <ele>12.630000000000001</ele>
        <time>2025-05-08T11:15:59Z</time>
      </trkpt>
      <trkpt lat="36.034079007804394" lon="-5.617002993822098">
        <ele>12.630000000000001</ele>
        <time>2025-05-08T11:16:11Z</time>
      </trkpt>
      <trkpt lat="36.03218000382185" lon="-5.614883964881301">
        <ele>13.119999999999999</ele>
        <time>2025-05-08T11:16:27Z</time>
      </trkpt>
      <trkpt lat="36.030323999002576" lon="-5.612793015316129">
        <ele>12.15</ele>
        <time>2025-05-08T11:16:43Z</time>
      </trkpt>
      <trkpt lat="36.029440965503454" lon="-5.611753994598985">
        <ele>11.19</ele>
        <time>2025-05-08T11:16:52Z</time>
      </trkpt>
      <trkpt lat="36.029277015477419" lon="-5.611824989318848">
        <ele>11.19</ele>
        <time>2025-05-08T11:16:53Z</time>
      </trkpt>
      <trkpt lat="36.029119016602635" lon="-5.611778972670436">
        <ele>11.19</ele>
        <time>2025-05-08T11:16:54Z</time>
      </trkpt>
      <trkpt lat="36.028998987749219" lon="-5.61174301430583">
        <ele>11.19</ele>
        <time>2025-05-08T11:16:55Z</time>
      </trkpt>
      <trkpt lat="36.028881976380944" lon="-5.611718036234379">
        <ele>11.19</ele>
        <time>2025-05-08T11:16:56Z</time>
      </trkpt>
      <trkpt lat="36.028533037751913" lon="-5.611732034012675">
        <ele>11.19</ele>
        <time>2025-05-08T11:16:59Z</time>
      </trkpt>
      <trkpt lat="36.027446994557977" lon="-5.611864970996976">
        <ele>11.19</ele>
        <time>2025-05-08T11:17:09Z</time>
      </trkpt>
      <trkpt lat="36.026607966050506" lon="-5.6117860134691">
        <ele>9.27</ele>
        <time>2025-05-08T11:17:18Z</time>
      </trkpt>
      <trkpt lat="36.02625198662281" lon="-5.611738990992308">
        <ele>7.35</ele>
        <time>2025-05-08T11:17:24Z</time>
      </trkpt>
      <trkpt lat="36.02625198662281" lon="-5.611738990992308">
        <ele>7.35</ele>
        <time>2025-05-08T11:17:25Z</time>
      </trkpt>
      <trkpt lat="36.026059035211802" lon="-5.611695991829038">
        <ele>6.87</ele>
        <time>2025-05-08T11:17:26Z</time>
      </trkpt>
      <trkpt lat="36.026039002463222" lon="-5.611694986000657">
        <ele>6.39</ele>
        <time>2025-05-08T11:17:27Z</time>
      </trkpt>
      <trkpt lat="36.02597395889461" lon="-5.611690040677786">
        <ele>6.39</ele>
        <time>2025-05-08T11:17:28Z</time>
      </trkpt>
      <trkpt lat="36.025904975831509" lon="-5.611685011535883">
        <ele>5.91</ele>
        <time>2025-05-08T11:17:29Z</time>
      </trkpt>
      <trkpt lat="36.025833981111646" lon="-5.611678976565599">
        <ele>5.91</ele>
        <time>2025-05-08T11:17:30Z</time>
      </trkpt>
      <trkpt lat="36.025760974735022" lon="-5.611673025414348">
        <ele>5.42</ele>
        <time>2025-05-08T11:17:31Z</time>
      </trkpt>
      <trkpt lat="36.02509100921452" lon="-5.611586021259427">
        <ele>5.42</ele>
        <time>2025-05-08T11:17:40Z</time>
      </trkpt>
      <trkpt lat="36.024228008463979" lon="-5.611546961590648">
        <ele>4.94</ele>
        <time>2025-05-08T11:17:51Z</time>
      </trkpt>
      <trkpt lat="36.023312034085393" lon="-5.611609993502498">
        <ele>4.46</ele>
        <time>2025-05-08T11:18:02Z</time>
      </trkpt>
      <trkpt lat="36.023245984688401" lon="-5.611609993502498">
        <ele>4.46</ele>
        <time>2025-05-08T11:18:03Z</time>
      </trkpt>
      <trkpt lat="36.023170966655016" lon="-5.611609993502498">
        <ele>4.46</ele>
        <time>2025-05-08T11:18:04Z</time>
      </trkpt>
      <trkpt lat="36.022608960047364" lon="-5.611573029309511">
        <ele>5.91</ele>
        <time>2025-05-08T11:18:11Z</time>
      </trkpt>
      <trkpt lat="36.021587960422039" lon="-5.611148988828063">
        <ele>15.039999999999999</ele>
        <time>2025-05-08T11:18:23Z</time>
      </trkpt>
      <trkpt lat="36.020891005173326" lon="-5.610420014709234">
        <ele>22.25</ele>
        <time>2025-05-08T11:18:34Z</time>
      </trkpt>
      <trkpt lat="36.019945023581386" lon="-5.609691962599754">
        <ele>24.170000000000002</ele>
        <time>2025-05-08T11:18:46Z</time>
      </trkpt>
      <trkpt lat="36.019243961200118" lon="-5.609174966812134">
        <ele>20.809999999999999</ele>
        <time>2025-05-08T11:18:57Z</time>
      </trkpt>
      <trkpt lat="36.019137008115649" lon="-5.6090990267694">
        <ele>19.84</ele>
        <time>2025-05-08T11:19:02Z</time>
      </trkpt>
      <trkpt lat="36.018912037834525" lon="-5.60893096961081">
        <ele>17.920000000000002</ele>
        <time>2025-05-08T11:19:09Z</time>
      </trkpt>
      <trkpt lat="36.01866602897644" lon="-5.608744975179434">
        <ele>16.960000000000001</ele>
        <time>2025-05-08T11:19:13Z</time>
      </trkpt>
      <trkpt lat="36.017816020175815" lon="-5.608040979132056">
        <ele>19.84</ele>
        <time>2025-05-08T11:19:27Z</time>
      </trkpt>
      <trkpt lat="36.017295001074672" lon="-5.607530018314719">
        <ele>23.690000000000001</ele>
        <time>2025-05-08T11:19:37Z</time>
      </trkpt>
      <trkpt lat="36.017258958891034" lon="-5.607496993616223">
        <ele>23.690000000000001</ele>
        <time>2025-05-08T11:19:38Z</time>
      </trkpt>
      <trkpt lat="36.017230963334441" lon="-5.607471009716392">
        <ele>24.170000000000002</ele>
        <time>2025-05-08T11:19:39Z</time>
      </trkpt>
      <trkpt lat="36.017211014404893" lon="-5.607451982796192">
        <ele>24.649999999999999</ele>
        <time>2025-05-08T11:19:40Z</time>
      </trkpt>
      <trkpt lat="36.017193999141455" lon="-5.607435973361135">
        <ele>24.649999999999999</ele>
        <time>2025-05-08T11:19:41Z</time>
      </trkpt>
      <trkpt lat="36.017173966392875" lon="-5.607418036088347">
        <ele>24.649999999999999</ele>
        <time>2025-05-08T11:19:42Z</time>
      </trkpt>
      <trkpt lat="36.016966011375189" lon="-5.607217038050294">
        <ele>26.09</ele>
        <time>2025-05-08T11:19:52Z</time>
      </trkpt>
      <trkpt lat="36.016966011375189" lon="-5.607217038050294">
        <ele>26.09</ele>
        <time>2025-05-08T11:20:09Z</time>
      </trkpt>
      <trkpt lat="36.016938015818596" lon="-5.607188958674669">
        <ele>27.050000000000001</ele>
        <time>2025-05-08T11:20:31Z</time>
      </trkpt>
      <trkpt lat="36.016627969220281" lon="-5.606896011158824">
        <ele>28.98</ele>
        <time>2025-05-08T11:20:38Z</time>
      </trkpt>
      <trkpt lat="36.016506012529135" lon="-5.606775982305408">
        <ele>28.02</ele>
        <time>2025-05-08T11:20:41Z</time>
      </trkpt>
      <trkpt lat="36.016435017809272" lon="-5.606701970100403">
        <ele>27.530000000000001</ele>
        <time>2025-05-08T11:20:43Z</time>
      </trkpt>
      <trkpt lat="36.016119020059705" lon="-5.606370968744159">
        <ele>27.050000000000001</ele>
        <time>2025-05-08T11:20:51Z</time>
      </trkpt>
      <trkpt lat="36.016084989532828" lon="-5.606336016207933">
        <ele>27.050000000000001</ele>
        <time>2025-05-08T11:20:52Z</time>
      </trkpt>
      <trkpt lat="36.016054982319474" lon="-5.606306008994579">
        <ele>27.050000000000001</ele>
        <time>2025-05-08T11:20:53Z</time>
      </trkpt>
      <trkpt lat="36.016031010076404" lon="-5.606282036751509">
        <ele>27.050000000000001</ele>
        <time>2025-05-08T11:20:54Z</time>
      </trkpt>
      <trkpt lat="36.016011983156204" lon="-5.606263009831309">
        <ele>26.57</ele>
        <time>2025-05-08T11:20:55Z</time>
      </trkpt>
      <trkpt lat="36.015995973721147" lon="-5.606247000396252">
        <ele>26.57</ele>
        <time>2025-05-08T11:20:56Z</time>
      </trkpt>
      <trkpt lat="36.01598197594285" lon="-5.606233002617955">
        <ele>26.57</ele>
        <time>2025-05-08T11:20:57Z</time>
      </trkpt>
      <trkpt lat="36.015970995649695" lon="-5.606222022324801">
        <ele>26.57</ele>
        <time>2025-05-08T11:20:58Z</time>
      </trkpt>
      <trkpt lat="36.015970995649695" lon="-5.606222022324801">
        <ele>26.57</ele>
        <time>2025-05-08T11:20:59Z</time>
      </trkpt>
      <trkpt lat="36.015948029235005" lon="-5.606198972091079">
        <ele>26.57</ele>
        <time>2025-05-08T11:21:00Z</time>
      </trkpt>
      <trkpt lat="36.015643011778593" lon="-5.605894038453698">
        <ele>27.050000000000001</ele>
        <time>2025-05-08T11:21:10Z</time>
      </trkpt>
      <trkpt lat="36.015605963766575" lon="-5.60585699044168">
        <ele>27.050000000000001</ele>
        <time>2025-05-08T11:21:11Z</time>
      </trkpt>
      <trkpt lat="36.015537986531854" lon="-5.605789013206959">
        <ele>27.530000000000001</ele>
        <time>2025-05-08T11:21:13Z</time>
      </trkpt>
      <trkpt lat="36.015501022338867" lon="-5.605751965194941">
        <ele>27.530000000000001</ele>
        <time>2025-05-08T11:21:14Z</time>
      </trkpt>
      <trkpt lat="36.01520799100399" lon="-5.605438984930515">
        <ele>28.02</ele>
        <time>2025-05-08T11:21:23Z</time>
      </trkpt>
      <trkpt lat="36.014672974124551" lon="-5.604902962222695">
        <ele>26.09</ele>
        <time>2025-05-08T11:21:37Z</time>
      </trkpt>
      <trkpt lat="36.014599967747927" lon="-5.604816963896155">
        <ele>26.09</ele>
        <time>2025-05-08T11:21:39Z</time>
      </trkpt>
      <trkpt lat="36.014310037717223" lon="-5.604574978351593">
        <ele>26.57</ele>
        <time>2025-05-08T11:21:45Z</time>
      </trkpt>
      <trkpt lat="36.014244994148612" lon="-5.604547988623381">
        <ele>26.57</ele>
        <time>2025-05-08T11:21:46Z</time>
      </trkpt>
      <trkpt lat="36.014225967228413" lon="-5.604577995836735">
        <ele>26.57</ele>
        <time>2025-05-08T11:21:47Z</time>
      </trkpt>
      <trkpt lat="36.014200989156961" lon="-5.604616971686482">
        <ele>27.050000000000001</ele>
        <time>2025-05-08T11:21:48Z</time>
      </trkpt>
      <trkpt lat="36.014170981943607" lon="-5.604662988334894">
        <ele>27.050000000000001</ele>
        <time>2025-05-08T11:21:49Z</time>
      </trkpt>
      <trkpt lat="36.014037961140275" lon="-5.604881001636386">
        <ele>27.530000000000001</ele>
        <time>2025-05-08T11:21:53Z</time>
      </trkpt>
      <trkpt lat="36.013677036389709" lon="-5.605520037934184">
        <ele>24.649999999999999</ele>
        <time>2025-05-08T11:22:05Z</time>
      </trkpt>
      <trkpt lat="36.013617021963" lon="-5.605622967705131">
        <ele>24.170000000000002</ele>
        <time>2025-05-08T11:22:07Z</time>
      </trkpt>
      <trkpt lat="36.013587014749646" lon="-5.605677030980587">
        <ele>24.170000000000002</ele>
        <time>2025-05-08T11:22:08Z</time>
      </trkpt>
      <trkpt lat="36.013559019193053" lon="-5.605732016265392">
        <ele>24.170000000000002</ele>
        <time>2025-05-08T11:22:09Z</time>
      </trkpt>
      <trkpt lat="36.013407977297902" lon="-5.606004009023309">
        <ele>24.170000000000002</ele>
        <time>2025-05-08T11:22:14Z</time>
      </trkpt>
      <trkpt lat="36.013376964256167" lon="-5.606052959337831">
        <ele>24.170000000000002</ele>
        <time>2025-05-08T11:22:15Z</time>
      </trkpt>
      <trkpt lat="36.013362966477871" lon="-5.606076009571552">
        <ele>23.690000000000001</ele>
        <time>2025-05-08T11:22:16Z</time>
      </trkpt>
      <trkpt lat="36.013347962871194" lon="-5.606101993471384">
        <ele>23.210000000000001</ele>
        <time>2025-05-08T11:22:17Z</time>
      </trkpt>
      <trkpt lat="36.013334970921278" lon="-5.606124037876725">
        <ele>23.210000000000001</ele>
        <time>2025-05-08T11:22:18Z</time>
      </trkpt>
      <trkpt lat="36.013320973142982" lon="-5.606145998463035">
        <ele>23.210000000000001</ele>
        <time>2025-05-08T11:22:19Z</time>
      </trkpt>
      <trkpt lat="36.013132967054844" lon="-5.606492003425956">
        <ele>21.77</ele>
        <time>2025-05-08T11:22:27Z</time>
      </trkpt>
      <trkpt lat="36.01310396566987" lon="-5.606545982882381">
        <ele>21.289999999999999</ele>
        <time>2025-05-08T11:22:28Z</time>
      </trkpt>
      <trkpt lat="36.013074964284897" lon="-5.606598034501076">
        <ele>20.809999999999999</ele>
        <time>2025-05-08T11:22:29Z</time>
      </trkpt>
      <trkpt lat="36.013046968728304" lon="-5.60665100812912">
        <ele>20.809999999999999</ele>
        <time>2025-05-08T11:22:30Z</time>
      </trkpt>
      <trkpt lat="36.013019979000092" lon="-5.606701970100403">
        <ele>20.809999999999999</ele>
        <time>2025-05-08T11:22:31Z</time>
      </trkpt>
      <trkpt lat="36.01299500092864" lon="-5.606754021719098">
        <ele>20.32</ele>
        <time>2025-05-08T11:22:32Z</time>
      </trkpt>
      <trkpt lat="36.012968011200428" lon="-5.606808001175523">
        <ele>20.809999999999999</ele>
        <time>2025-05-08T11:22:33Z</time>
      </trkpt>
      <trkpt lat="36.012789979577065" lon="-5.607141014188528">
        <ele>20.809999999999999</ele>
        <time>2025-05-08T11:22:39Z</time>
      </trkpt>
      <trkpt lat="36.012722002342343" lon="-5.60723103582859">
        <ele>20.32</ele>
        <time>2025-05-08T11:22:41Z</time>
      </trkpt>
      <trkpt lat="36.012623012065887" lon="-5.607399009168148">
        <ele>19.84</ele>
        <time>2025-05-08T11:22:44Z</time>
      </trkpt>
      <trkpt lat="36.012604990974069" lon="-5.60742599889636">
        <ele>19.84</ele>
        <time>2025-05-08T11:22:45Z</time>
      </trkpt>
      <trkpt lat="36.012539025396109" lon="-5.607459023594856">
        <ele>19.84</ele>
        <time>2025-05-08T11:22:46Z</time>
      </trkpt>
      <trkpt lat="36.012488985434175" lon="-5.607484001666307">
        <ele>18.879999999999999</ele>
        <time>2025-05-08T11:22:47Z</time>
      </trkpt>
      <trkpt lat="36.012441040948033" lon="-5.607507973909378">
        <ele>18.399999999999999</ele>
        <time>2025-05-08T11:22:48Z</time>
      </trkpt>
      <trkpt lat="36.012389995157719" lon="-5.607534041628242">
        <ele>17.920000000000002</ele>
        <time>2025-05-08T11:22:49Z</time>
      </trkpt>
      <trkpt lat="36.012352025136352" lon="-5.607521971687675">
        <ele>17.440000000000001</ele>
        <time>2025-05-08T11:22:50Z</time>
      </trkpt>
      <trkpt lat="36.012305002659559" lon="-5.607507973909378">
        <ele>16.960000000000001</ele>
        <time>2025-05-08T11:22:51Z</time>
      </trkpt>
      <trkpt lat="36.012123031541705" lon="-5.607452988624573">
        <ele>15.52</ele>
        <time>2025-05-08T11:22:55Z</time>
      </trkpt>
      <trkpt lat="36.01196302101016" lon="-5.6074049603194">
        <ele>13.6</ele>
        <time>2025-05-08T11:22:58Z</time>
      </trkpt>
      <trkpt lat="36.011664960533381" lon="-5.607313010841608">
        <ele>10.23</ele>
        <time>2025-05-08T11:23:04Z</time>
      </trkpt>
      <trkpt lat="36.011610981076956" lon="-5.60729599557817">
        <ele>9.75</ele>
        <time>2025-05-08T11:23:05Z</time>
      </trkpt>
      <trkpt lat="36.011034976691008" lon="-5.607106983661652">
        <ele>5.42</ele>
        <time>2025-05-08T11:23:18Z</time>
      </trkpt>
      <trkpt lat="36.010731970891356" lon="-5.607019979506731">
        <ele>3.5</ele>
        <time>2025-05-08T11:23:25Z</time>
      </trkpt>
      <trkpt lat="36.010697018355131" lon="-5.607010005041957">
        <ele>3.02</ele>
        <time>2025-05-08T11:23:26Z</time>
      </trkpt>
      <trkpt lat="36.010669022798538" lon="-5.607001958414912">
        <ele>3.02</ele>
        <time>2025-05-08T11:23:27Z</time>
      </trkpt>
      <trkpt lat="36.010643038898706" lon="-5.60699600726366">
        <ele>2.54</ele>
        <time>2025-05-08T11:23:28Z</time>
      </trkpt>
      <trkpt lat="36.010608002543449" lon="-5.606988966464996">
        <ele>2.54</ele>
        <time>2025-05-08T11:23:29Z</time>
      </trkpt>
      <trkpt lat="36.010562991723418" lon="-5.606981003656983">
        <ele>2.06</ele>
        <time>2025-05-08T11:23:30Z</time>
      </trkpt>
      <trkpt lat="36.010511023923755" lon="-5.60697203502059">
        <ele>1.58</ele>
        <time>2025-05-08T11:23:31Z</time>
      </trkpt>
      <trkpt lat="36.010362999513745" lon="-5.606945967301726">
        <ele>0.62</ele>
        <time>2025-05-08T11:23:34Z</time>
      </trkpt>
      <trkpt lat="36.010286975651979" lon="-5.606932975351811">
        <ele>0.14</ele>
        <time>2025-05-08T11:23:35Z</time>
      </trkpt>
      <trkpt lat="36.010220004245639" lon="-5.606887964531779">
        <ele>-0.34</ele>
        <time>2025-05-08T11:23:37Z</time>
      </trkpt>
      <trkpt lat="36.010094024240971" lon="-5.606803977862001">
        <ele>-0.34</ele>
        <time>2025-05-08T11:23:40Z</time>
      </trkpt>
      <trkpt lat="36.010074997320771" lon="-5.606758967041969">
        <ele>-0.34</ele>
        <time>2025-05-08T11:23:41Z</time>
      </trkpt>
      <trkpt lat="36.010055970400572" lon="-5.60671404004097">
        <ele>-0.34</ele>
        <time>2025-05-08T11:23:42Z</time>
      </trkpt>
      <trkpt lat="36.009881962090731" lon="-5.606317995116115">
        <ele>0.62</ele>
        <time>2025-05-08T11:23:53Z</time>
      </trkpt>
      <trkpt lat="36.009812979027629" lon="-5.606162007898092">
        <ele>0.62</ele>
        <time>2025-05-08T11:24:03Z</time>
      </trkpt>
      <trkpt lat="36.009756987914443" lon="-5.606141975149512">
        <ele>0.62</ele>
        <time>2025-05-08T11:24:06Z</time>
      </trkpt>
      <trkpt lat="36.009737960994244" lon="-5.606154967099428">
        <ele>0.62</ele>
        <time>2025-05-08T11:24:07Z</time>
      </trkpt>
      <trkpt lat="36.009708037599921" lon="-5.606173994019628">
        <ele>0.62</ele>
        <time>2025-05-08T11:24:08Z</time>
      </trkpt>
      <trkpt lat="36.009665960446" lon="-5.606202995404601">
        <ele>0.62</ele>
        <time>2025-05-08T11:24:09Z</time>
      </trkpt>
      <trkpt lat="36.009614998474717" lon="-5.606237025931478">
        <ele>0.62</ele>
        <time>2025-05-08T11:24:10Z</time>
      </trkpt>
      <trkpt lat="36.00938499905169" lon="-5.606388989835978">
        <ele>0.62</ele>
        <time>2025-05-08T11:24:14Z</time>
      </trkpt>
      <trkpt lat="36.008921982720494" lon="-5.606693001464009">
        <ele>0.14</ele>
        <time>2025-05-08T11:24:25Z</time>
      </trkpt>
      <trkpt lat="36.008880995213985" lon="-5.606719991192222">
        <ele>1.1</ele>
        <time>2025-05-08T11:24:36Z</time>
      </trkpt>
      <trkpt lat="36.008880995213985" lon="-5.606719991192222">
        <ele>1.58</ele>
        <time>2025-05-08T11:24:52Z</time>
      </trkpt>
      <trkpt lat="36.008880995213985" lon="-5.606719991192222">
        <ele>1.58</ele>
        <time>2025-05-08T11:25:09Z</time>
      </trkpt>
      <trkpt lat="36.008879989385605" lon="-5.606719991192222">
        <ele>2.06</ele>
        <time>2025-05-08T12:18:24Z</time>
      </trkpt>
      <trkpt lat="36.008861968293786" lon="-5.606746980920434">
        <ele>1.58</ele>
        <time>2025-05-08T12:18:49Z</time>
      </trkpt>
      <trkpt lat="36.008749986067414" lon="-5.60680297203362">
        <ele>0.62</ele>
        <time>2025-05-08T12:18:54Z</time>
      </trkpt>
      <trkpt lat="36.008707992732525" lon="-5.606830967590213">
        <ele>0.14</ele>
        <time>2025-05-08T12:18:55Z</time>
      </trkpt>
      <trkpt lat="36.008674968034029" lon="-5.606852006167173">
        <ele>-0.34</ele>
        <time>2025-05-08T12:18:56Z</time>
      </trkpt>
      <trkpt lat="36.008648984134197" lon="-5.606869021430612">
        <ele>-0.34</ele>
        <time>2025-05-08T12:18:57Z</time>
      </trkpt>
      <trkpt lat="36.008627023547888" lon="-5.606883019208908">
        <ele>-0.34</ele>
        <time>2025-05-08T12:18:58Z</time>
      </trkpt>
      <trkpt lat="36.008621994405985" lon="-5.607001036405563">
        <ele>-0.82</ele>
        <time>2025-05-08T12:18:59Z</time>
      </trkpt>
      <trkpt lat="36.008640015497804" lon="-5.60701796784997">
        <ele>-1.3</ele>
        <time>2025-05-08T12:19:00Z</time>
      </trkpt>
      <trkpt lat="36.008665999397635" lon="-5.607042023912072">
        <ele>-1.79</ele>
        <time>2025-05-08T12:19:01Z</time>
      </trkpt>
      <trkpt lat="36.00869600661099" lon="-5.607070019468665">
        <ele>-2.27</ele>
        <time>2025-05-08T12:19:02Z</time>
      </trkpt>
      <trkpt lat="36.008728025481105" lon="-5.607100026682019">
        <ele>-2.75</ele>
        <time>2025-05-08T12:19:03Z</time>
      </trkpt>
      <trkpt lat="36.00876297801733" lon="-5.607131961733103">
        <ele>-3.23</ele>
        <time>2025-05-08T12:19:04Z</time>
      </trkpt>
      <trkpt lat="36.009300006553531" lon="-5.607634959742427">
        <ele>-6.59</ele>
        <time>2025-05-08T12:19:18Z</time>
      </trkpt>
      <trkpt lat="36.009317021816969" lon="-5.607650969177485">
        <ele>-5.63</ele>
        <time>2025-05-08T12:19:29Z</time>
      </trkpt>
      <trkpt lat="36.009436966851354" lon="-5.607763035222888">
        <ele>-3.23</ele>
        <time>2025-05-08T12:19:45Z</time>
      </trkpt>
      <trkpt lat="36.009553978219628" lon="-5.607807962223887">
        <ele>-2.27</ele>
        <time>2025-05-08T12:19:54Z</time>
      </trkpt>
      <trkpt lat="36.009562024846673" lon="-5.60778901912272">
        <ele>-2.27</ele>
        <time>2025-05-08T12:19:55Z</time>
      </trkpt>
      <trkpt lat="36.009571999311447" lon="-5.607763035222888">
        <ele>-1.79</ele>
        <time>2025-05-08T12:19:56Z</time>
      </trkpt>
      <trkpt lat="36.009587002918124" lon="-5.607722969725728">
        <ele>-1.3</ele>
        <time>2025-05-08T12:19:57Z</time>
      </trkpt>
      <trkpt lat="36.009607035666704" lon="-5.607672007754445">
        <ele>-0.82</ele>
        <time>2025-05-08T12:19:58Z</time>
      </trkpt>
      <trkpt lat="36.009625978767872" lon="-5.60762096196413">
        <ele>-0.82</ele>
        <time>2025-05-08T12:19:59Z</time>
      </trkpt>
      <trkpt lat="36.009646011516452" lon="-5.607568994164467">
        <ele>-0.82</ele>
        <time>2025-05-08T12:20:00Z</time>
      </trkpt>
      <trkpt lat="36.009786995127797" lon="-5.60718996450305">
        <ele>-0.82</ele>
        <time>2025-05-08T12:20:06Z</time>
      </trkpt>
      <trkpt lat="36.010035015642643" lon="-5.606667017564178">
        <ele>-1.79</ele>
        <time>2025-05-08T12:20:16Z</time>
      </trkpt>
      <trkpt lat="36.010018000379205" lon="-5.606627035886049">
        <ele>-1.79</ele>
        <time>2025-05-08T12:20:17Z</time>
      </trkpt>
      <trkpt lat="36.009994028136134" lon="-5.606571966782212">
        <ele>-2.27</ele>
        <time>2025-05-08T12:20:18Z</time>
      </trkpt>
      <trkpt lat="36.009807027876377" lon="-5.606109034270048">
        <ele>-2.27</ele>
        <time>2025-05-08T12:20:26Z</time>
      </trkpt>
      <trkpt lat="36.009837035089731" lon="-5.606089001521468">
        <ele>-2.27</ele>
        <time>2025-05-08T12:20:27Z</time>
      </trkpt>
      <trkpt lat="36.009881962090731" lon="-5.606060000136495">
        <ele>-2.75</ele>
        <time>2025-05-08T12:20:28Z</time>
      </trkpt>
      <trkpt lat="36.009929990395904" lon="-5.606029992923141">
        <ele>-2.27</ele>
        <time>2025-05-08T12:20:29Z</time>
      </trkpt>
      <trkpt lat="36.009980030357838" lon="-5.605996968224645">
        <ele>-2.75</ele>
        <time>2025-05-08T12:20:30Z</time>
      </trkpt>
      <trkpt lat="36.010236013680696" lon="-5.605832012370229">
        <ele>-3.71</ele>
        <time>2025-05-08T12:20:35Z</time>
      </trkpt>
      <trkpt lat="36.010283036157489" lon="-5.605802005156875">
        <ele>-3.71</ele>
        <time>2025-05-08T12:20:36Z</time>
      </trkpt>
      <trkpt lat="36.010481016710401" lon="-5.605674013495445">
        <ele>-3.23</ele>
        <time>2025-05-08T12:20:40Z</time>
      </trkpt>
      <trkpt lat="36.010793996974826" lon="-5.605442002415657">
        <ele>-4.19</ele>
        <time>2025-05-08T12:20:49Z</time>
      </trkpt>
      <trkpt lat="36.010821992531419" lon="-5.605401014909148">
        <ele>-4.19</ele>
        <time>2025-05-08T12:20:50Z</time>
      </trkpt>
      <trkpt lat="36.010851999744773" lon="-5.605356004089117">
        <ele>-4.67</ele>
        <time>2025-05-08T12:20:51Z</time>
      </trkpt>
      <trkpt lat="36.010887958109379" lon="-5.605302024632692">
        <ele>-4.67</ele>
        <time>2025-05-08T12:20:52Z</time>
      </trkpt>
      <trkpt lat="36.010907990857959" lon="-5.605262964963913">
        <ele>-4.67</ele>
        <time>2025-05-08T12:20:53Z</time>
      </trkpt>
      <trkpt lat="36.01093296892941" lon="-5.60521200299263">
        <ele>-4.67</ele>
        <time>2025-05-08T12:20:54Z</time>
      </trkpt>
      <trkpt lat="36.01127402856946" lon="-5.604528961703181">
        <ele>-3.71</ele>
        <time>2025-05-08T12:21:06Z</time>
      </trkpt>
      <trkpt lat="36.011541998013854" lon="-5.60392102226615">
        <ele>-1.79</ele>
        <time>2025-05-08T12:21:18Z</time>
      </trkpt>
      <trkpt lat="36.011605029925704" lon="-5.603541992604733">
        <ele>1.1</ele>
        <time>2025-05-08T12:21:30Z</time>
      </trkpt>
      <trkpt lat="36.011668983846903" lon="-5.603430010378361">
        <ele>1.1</ele>
        <time>2025-05-08T12:21:33Z</time>
      </trkpt>
      <trkpt lat="36.011739978566766" lon="-5.603334037587047">
        <ele>1.58</ele>
        <time>2025-05-08T12:21:35Z</time>
      </trkpt>
      <trkpt lat="36.011774009093642" lon="-5.603288020938635">
        <ele>1.58</ele>
        <time>2025-05-08T12:21:36Z</time>
      </trkpt>
      <trkpt lat="36.011946005746722" lon="-5.603056009858847">
        <ele>1.58</ele>
        <time>2025-05-08T12:21:41Z</time>
      </trkpt>
      <trkpt lat="36.012123031541705" lon="-5.602808995172381">
        <ele>2.06</ele>
        <time>2025-05-08T12:21:46Z</time>
      </trkpt>
      <trkpt lat="36.012154966592789" lon="-5.60276297852397">
        <ele>2.54</ele>
        <time>2025-05-08T12:21:47Z</time>
      </trkpt>
      <trkpt lat="36.012277007102966" lon="-5.602584024891257">
        <ele>2.06</ele>
        <time>2025-05-08T12:21:56Z</time>
      </trkpt>
      <trkpt lat="36.012277007102966" lon="-5.602584024891257">
        <ele>2.54</ele>
        <time>2025-05-08T12:22:28Z</time>
      </trkpt>
      <trkpt lat="36.012277007102966" lon="-5.602584024891257">
        <ele>3.02</ele>
        <time>2025-05-08T12:23:04Z</time>
      </trkpt>
      <trkpt lat="36.012277007102966" lon="-5.602584024891257">
        <ele>3.02</ele>
        <time>2025-05-08T12:23:28Z</time>
      </trkpt>
      <trkpt lat="36.012089001014829" lon="-5.602508001029491">
        <ele>14.56</ele>
        <time>2025-05-08T12:50:01Z</time>
      </trkpt>
      <trkpt lat="36.012319000437856" lon="-5.602595005184412">
        <ele>5.91</ele>
        <time>2025-05-08T12:50:20Z</time>
      </trkpt>
      <trkpt lat="36.012283964082599" lon="-5.602615037932992">
        <ele>5.42</ele>
        <time>2025-05-08T12:50:38Z</time>
      </trkpt>
      <trkpt lat="36.012267032638192" lon="-5.602645967155695">
        <ele>9.27</ele>
        <time>2025-05-08T12:51:04Z</time>
      </trkpt>
      <trkpt lat="36.012235013768077" lon="-5.602683015167713">
        <ele>8.310000000000001</ele>
        <time>2025-05-08T12:51:20Z</time>
      </trkpt>
      <trkpt lat="36.012454032897949" lon="-5.602942015975714">
        <ele>7.35</ele>
        <time>2025-05-08T12:51:30Z</time>
      </trkpt>
      <trkpt lat="36.011668983846903" lon="-5.603394974023104">
        <ele>6.39</ele>
        <time>2025-05-08T12:51:43Z</time>
      </trkpt>
      <trkpt lat="36.01157502271235" lon="-5.603532018139958">
        <ele>5.42</ele>
        <time>2025-05-08T12:51:48Z</time>
      </trkpt>
      <trkpt lat="36.011578962206841" lon="-5.603603012859821">
        <ele>4.94</ele>
        <time>2025-05-08T12:51:56Z</time>
      </trkpt>
      <trkpt lat="36.011616010218859" lon="-5.603653974831104">
        <ele>4.46</ele>
        <time>2025-05-08T12:52:12Z</time>
      </trkpt>
      <trkpt lat="36.011616010218859" lon="-5.603653974831104">
        <ele>4.46</ele>
        <time>2025-05-08T12:52:22Z</time>
      </trkpt>
      <trkpt lat="36.011745007708669" lon="-5.603700997307897">
        <ele>2.06</ele>
        <time>2025-05-08T12:52:32Z</time>
      </trkpt>
      <trkpt lat="36.011825976893306" lon="-5.603581974282861">
        <ele>-0.82</ele>
        <time>2025-05-08T12:52:45Z</time>
      </trkpt>
      <trkpt lat="36.011818014085293" lon="-5.60355800203979">
        <ele>-1.3</ele>
        <time>2025-05-08T12:58:52Z</time>
      </trkpt>
      <trkpt lat="36.011896971613169" lon="-5.603541992604733">
        <ele>-5.63</ele>
        <time>2025-05-08T12:59:01Z</time>
      </trkpt>
      <trkpt lat="36.012176005169749" lon="-5.603584991768003">
        <ele>-6.11</ele>
        <time>2025-05-08T12:59:13Z</time>
      </trkpt>
      <trkpt lat="36.012180028483272" lon="-5.603574011474848">
        <ele>-6.59</ele>
        <time>2025-05-08T12:59:14Z</time>
      </trkpt>
      <trkpt lat="36.012193020433187" lon="-5.603539980947971">
        <ele>-7.55</ele>
        <time>2025-05-08T12:59:16Z</time>
      </trkpt>
      <trkpt lat="36.012326963245869" lon="-5.603199005126953">
        <ele>-10.44</ele>
        <time>2025-05-08T12:59:27Z</time>
      </trkpt>
      <trkpt lat="36.012326963245869" lon="-5.603199005126953">
        <ele>-6.11</ele>
        <time>2025-05-08T12:59:40Z</time>
      </trkpt>
      <trkpt lat="36.012326963245869" lon="-5.603199005126953">
        <ele>-2.75</ele>
        <time>2025-05-08T13:00:03Z</time>
      </trkpt>
      <trkpt lat="36.012326963245869" lon="-5.603199005126953">
        <ele>-1.3</ele>
        <time>2025-05-08T13:00:40Z</time>
      </trkpt>
      <trkpt lat="36.012326963245869" lon="-5.603199005126953">
        <ele>-1.3</ele>
        <time>2025-05-08T13:01:06Z</time>
      </trkpt>
      <trkpt lat="36.012326963245869" lon="-5.603199005126953">
        <ele>-1.3</ele>
        <time>2025-05-08T13:01:54Z</time>
      </trkpt>
      <trkpt lat="36.012398041784763" lon="-5.60304100625217">
        <ele>-0.82</ele>
        <time>2025-05-08T13:02:13Z</time>
      </trkpt>
      <trkpt lat="36.01241597905755" lon="-5.603007981553674">
        <ele>-1.3</ele>
        <time>2025-05-08T13:02:14Z</time>
      </trkpt>
      <trkpt lat="36.012454032897949" lon="-5.602942015975714">
        <ele>-2.27</ele>
        <time>2025-05-08T13:02:15Z</time>
      </trkpt>
      <trkpt lat="36.012469036504626" lon="-5.602936986833811">
        <ele>-2.75</ele>
        <time>2025-05-08T13:02:16Z</time>
      </trkpt>
      <trkpt lat="36.012529972940683" lon="-5.602922989055514">
        <ele>-2.75</ele>
        <time>2025-05-08T13:02:17Z</time>
      </trkpt>
      <trkpt lat="36.012561991810799" lon="-5.602932963520289">
        <ele>-3.23</ele>
        <time>2025-05-08T13:02:18Z</time>
      </trkpt>
      <trkpt lat="36.012593004852533" lon="-5.602942015975714">
        <ele>-3.71</ele>
        <time>2025-05-08T13:02:19Z</time>
      </trkpt>
      <trkpt lat="36.012622006237507" lon="-5.602950984612107">
        <ele>-4.19</ele>
        <time>2025-05-08T13:02:20Z</time>
      </trkpt>
      <trkpt lat="36.013064989820123" lon="-5.60293204151094">
        <ele>-5.15</ele>
        <time>2025-05-08T13:02:33Z</time>
      </trkpt>
      <trkpt lat="36.013213014230132" lon="-5.602640016004443">
        <ele>-11.880000000000001</ele>
        <time>2025-05-08T13:02:49Z</time>
      </trkpt>
      <trkpt lat="36.013298006728292" lon="-5.602422002702951">
        <ele>-13.32</ele>
        <time>2025-05-08T13:03:07Z</time>
      </trkpt>
      <trkpt lat="36.013384005054832" lon="-5.602241959422827">
        <ele>-13.800000000000001</ele>
        <time>2025-05-08T13:03:20Z</time>
      </trkpt>
      <trkpt lat="36.01344502530992" lon="-5.602169036865234">
        <ele>-13.800000000000001</ele>
        <time>2025-05-08T13:03:23Z</time>
      </trkpt>
      <trkpt lat="36.013468997552991" lon="-5.602169036865234">
        <ele>-14.279999999999999</ele>
        <time>2025-05-08T13:03:24Z</time>
      </trkpt>
      <trkpt lat="36.013504033908248" lon="-5.602169036865234">
        <ele>-13.800000000000001</ele>
        <time>2025-05-08T13:03:25Z</time>
      </trkpt>
      <trkpt lat="36.013505961745977" lon="-5.602169036865234">
        <ele>-13.800000000000001</ele>
        <time>2025-05-08T13:03:26Z</time>
      </trkpt>
      <trkpt lat="36.013522977009416" lon="-5.602145986631513">
        <ele>-14.279999999999999</ele>
        <time>2025-05-08T13:03:27Z</time>
      </trkpt>
      <trkpt lat="36.013535968959332" lon="-5.602128971368074">
        <ele>-14.76</ele>
        <time>2025-05-08T13:03:28Z</time>
      </trkpt>
      <trkpt lat="36.013551978394389" lon="-5.602108016610146">
        <ele>-15.24</ele>
        <time>2025-05-08T13:03:29Z</time>
      </trkpt>
      <trkpt lat="36.013569999486208" lon="-5.602083038538694">
        <ele>-15.720000000000001</ele>
        <time>2025-05-08T13:03:30Z</time>
      </trkpt>
      <trkpt lat="36.0137689858675" lon="-5.601584985852242">
        <ele>-20.050000000000001</ele>
        <time>2025-05-08T13:03:46Z</time>
      </trkpt>
      <trkpt lat="36.013868981972337" lon="-5.601362027227879">
        <ele>-20.050000000000001</ele>
        <time>2025-05-08T13:03:57Z</time>
      </trkpt>
      <trkpt lat="36.013879962265491" lon="-5.601338976994157">
        <ele>-19.57</ele>
        <time>2025-05-08T13:03:58Z</time>
      </trkpt>
      <trkpt lat="36.013955986127257" lon="-5.601332020014525">
        <ele>-19.57</ele>
        <time>2025-05-08T13:03:59Z</time>
      </trkpt>
      <trkpt lat="36.01396000944078" lon="-5.60132497921586">
        <ele>-19.09</ele>
        <time>2025-05-08T13:04:00Z</time>
      </trkpt>
      <trkpt lat="36.013970989733934" lon="-5.601298995316029">
        <ele>-19.09</ele>
        <time>2025-05-08T13:04:01Z</time>
      </trkpt>
      <trkpt lat="36.013955986127257" lon="-5.601332020014525">
        <ele>-18.609999999999999</ele>
        <time>2025-05-08T13:04:02Z</time>
      </trkpt>
      <trkpt lat="36.014072997495532" lon="-5.60123797506094">
        <ele>-17.170000000000002</ele>
        <time>2025-05-08T13:04:03Z</time>
      </trkpt>
      <trkpt lat="36.014086995273829" lon="-5.601253984495997">
        <ele>-15.720000000000001</ele>
        <time>2025-05-08T13:04:04Z</time>
      </trkpt>
      <trkpt lat="36.014100993052125" lon="-5.601268988102675">
        <ele>-14.76</ele>
        <time>2025-05-08T13:04:05Z</time>
      </trkpt>
      <trkpt lat="36.014100993052125" lon="-5.601268988102675">
        <ele>-13.32</ele>
        <time>2025-05-08T13:04:06Z</time>
      </trkpt>
      <trkpt lat="36.014211969450116" lon="-5.601391028612852">
        <ele>-11.4</ele>
        <time>2025-05-08T13:04:12Z</time>
      </trkpt>
      <trkpt lat="36.014306014403701" lon="-5.601552966982126">
        <ele>-9.48</ele>
        <time>2025-05-08T13:04:16Z</time>
      </trkpt>
      <trkpt lat="36.014321018010378" lon="-5.601590014994144">
        <ele>-9</ele>
        <time>2025-05-08T13:04:17Z</time>
      </trkpt>
      <trkpt lat="36.014353036880493" lon="-5.601642988622189">
        <ele>-8.029999999999999</ele>
        <time>2025-05-08T13:04:18Z</time>
      </trkpt>
      <trkpt lat="36.014495026320219" lon="-5.601894026622176">
        <ele>-4.67</ele>
        <time>2025-05-08T13:04:24Z</time>
      </trkpt>
      <trkpt lat="36.014627041295171" lon="-5.602112039923668">
        <ele>-2.27</ele>
        <time>2025-05-08T13:04:28Z</time>
      </trkpt>
      <trkpt lat="36.014665011316538" lon="-5.602170964702964">
        <ele>-1.3</ele>
        <time>2025-05-08T13:04:29Z</time>
      </trkpt>
      <trkpt lat="36.014968017116189" lon="-5.602626018226147">
        <ele>5.42</ele>
        <time>2025-05-08T13:04:37Z</time>
      </trkpt>
      <trkpt lat="36.015009004622698" lon="-5.602669017389417">
        <ele>6.39</ele>
        <time>2025-05-08T13:04:38Z</time>
      </trkpt>
      <trkpt lat="36.015130039304495" lon="-5.602798014879227">
        <ele>8.789999999999999</ele>
        <time>2025-05-08T13:04:41Z</time>
      </trkpt>
      <trkpt lat="36.015160968527198" lon="-5.602831039577723">
        <ele>9.27</ele>
        <time>2025-05-08T13:04:42Z</time>
      </trkpt>
      <trkpt lat="36.015203967690468" lon="-5.602875966578722">
        <ele>11.67</ele>
        <time>2025-05-08T13:04:45Z</time>
      </trkpt>
      <trkpt lat="36.015278985723853" lon="-5.602919971570373">
        <ele>12.630000000000001</ele>
        <time>2025-05-08T13:04:46Z</time>
      </trkpt>
      <trkpt lat="36.015325002372265" lon="-5.602844031527638">
        <ele>13.6</ele>
        <time>2025-05-08T13:04:48Z</time>
      </trkpt>
      <trkpt lat="36.015363978222013" lon="-5.602778987959027">
        <ele>14.56</ele>
        <time>2025-05-08T13:04:49Z</time>
      </trkpt>
      <trkpt lat="36.015779972076416" lon="-5.602141041308641">
        <ele>20.32</ele>
        <time>2025-05-08T13:04:57Z</time>
      </trkpt>
      <trkpt lat="36.015837974846363" lon="-5.602063005790114">
        <ele>21.289999999999999</ele>
        <time>2025-05-08T13:04:58Z</time>
      </trkpt>
      <trkpt lat="36.015910981222987" lon="-5.601985976099968">
        <ele>22.25</ele>
        <time>2025-05-08T13:04:59Z</time>
      </trkpt>
      <trkpt lat="36.015992034226656" lon="-5.601948006078601">
        <ele>22.73</ele>
        <time>2025-05-08T13:05:00Z</time>
      </trkpt>
      <trkpt lat="36.01606504060328" lon="-5.601913975551724">
        <ele>23.690000000000001</ele>
        <time>2025-05-08T13:05:01Z</time>
      </trkpt>
      <trkpt lat="36.01613100618124" lon="-5.60188296250999">
        <ele>24.649999999999999</ele>
        <time>2025-05-08T13:05:02Z</time>
      </trkpt>
      <trkpt lat="36.016197977587581" lon="-5.601851027458906">
        <ele>25.129999999999999</ele>
        <time>2025-05-08T13:05:03Z</time>
      </trkpt>
      <trkpt lat="36.016276013106108" lon="-5.601820014417172">
        <ele>25.609999999999999</ele>
        <time>2025-05-08T13:05:04Z</time>
      </trkpt>
      <trkpt lat="36.016424037516117" lon="-5.601782966405153">
        <ele>28.5</ele>
        <time>2025-05-08T13:05:09Z</time>
      </trkpt>
      <trkpt lat="36.016714973375201" lon="-5.601649023592472">
        <ele>32.340000000000003</ele>
        <time>2025-05-08T13:05:18Z</time>
      </trkpt>
      <trkpt lat="36.017008004710078" lon="-5.601491024717689">
        <ele>32.340000000000003</ele>
        <time>2025-05-08T13:05:22Z</time>
      </trkpt>
      <trkpt lat="36.017081011086702" lon="-5.601445008069277">
        <ele>31.379999999999999</ele>
        <time>2025-05-08T13:05:23Z</time>
      </trkpt>
      <trkpt lat="36.017641006037593" lon="-5.600956007838249">
        <ele>30.420000000000002</ele>
        <time>2025-05-08T13:05:32Z</time>
      </trkpt>
      <trkpt lat="36.017782995477319" lon="-5.600849976763129">
        <ele>30.899999999999999</ele>
        <time>2025-05-08T13:05:34Z</time>
      </trkpt>
      <trkpt lat="36.018084995448589" lon="-5.600651996210218">
        <ele>32.340000000000003</ele>
        <time>2025-05-08T13:05:38Z</time>
      </trkpt>
      <trkpt lat="36.018162025138736" lon="-5.60061402618885">
        <ele>32.82</ele>
        <time>2025-05-08T13:05:39Z</time>
      </trkpt>
      <trkpt lat="36.018835008144379" lon="-5.600276989862323">
        <ele>32.82</ele>
        <time>2025-05-08T13:05:48Z</time>
      </trkpt>
      <trkpt lat="36.018908014521003" lon="-5.600241031497717">
        <ele>32.82</ele>
        <time>2025-05-08T13:05:49Z</time>
      </trkpt>
      <trkpt lat="36.018981020897627" lon="-5.600203983485699">
        <ele>32.82</ele>
        <time>2025-05-08T13:05:50Z</time>
      </trkpt>
      <trkpt lat="36.019549984484911" lon="-5.599897960200906">
        <ele>31.379999999999999</ele>
        <time>2025-05-08T13:06:00Z</time>
      </trkpt>
      <trkpt lat="36.019663978368044" lon="-5.599840963259339">
        <ele>31.379999999999999</ele>
        <time>2025-05-08T13:06:02Z</time>
      </trkpt>
      <trkpt lat="36.01972097530961" lon="-5.599812967702746">
        <ele>30.899999999999999</ele>
        <time>2025-05-08T13:06:03Z</time>
      </trkpt>
      <trkpt lat="36.019878974184394" lon="-5.599696040153503">
        <ele>30.899999999999999</ele>
        <time>2025-05-08T13:06:06Z</time>
      </trkpt>
      <trkpt lat="36.01993496529758" lon="-5.599653962999582">
        <ele>31.379999999999999</ele>
        <time>2025-05-08T13:06:07Z</time>
      </trkpt>
      <trkpt lat="36.019986011087894" lon="-5.599529994651675">
        <ele>31.859999999999999</ele>
        <time>2025-05-08T13:06:08Z</time>
      </trkpt>
      <trkpt lat="36.019993973895907" lon="-5.599513985216618">
        <ele>31.859999999999999</ele>
        <time>2025-05-08T13:06:09Z</time>
      </trkpt>
      <trkpt lat="36.020135963335633" lon="-5.599486995488405">
        <ele>31.859999999999999</ele>
        <time>2025-05-08T13:06:10Z</time>
      </trkpt>
      <trkpt lat="36.020151972770691" lon="-5.599472997710109">
        <ele>31.859999999999999</ele>
        <time>2025-05-08T13:06:11Z</time>
      </trkpt>
      <trkpt lat="36.02021299302578" lon="-5.599421029910445">
        <ele>32.340000000000003</ele>
        <time>2025-05-08T13:06:12Z</time>
      </trkpt>
      <trkpt lat="36.02027996443212" lon="-5.599364032968879">
        <ele>32.82</ele>
        <time>2025-05-08T13:06:13Z</time>
      </trkpt>
      <trkpt lat="36.020357999950647" lon="-5.599297983571887">
        <ele>32.82</ele>
        <time>2025-05-08T13:06:14Z</time>
      </trkpt>
      <trkpt lat="36.021156962960958" lon="-5.598627012223005">
        <ele>35.710000000000001</ele>
        <time>2025-05-08T13:06:23Z</time>
      </trkpt>
      <trkpt lat="36.022058017551899" lon="-5.597725035622716">
        <ele>41.950000000000003</ele>
        <time>2025-05-08T13:06:35Z</time>
      </trkpt>
      <trkpt lat="36.023036018013954" lon="-5.596268009394407">
        <ele>53.490000000000002</ele>
        <time>2025-05-08T13:06:48Z</time>
      </trkpt>
      <trkpt lat="36.023616967722774" lon="-5.595066966488957">
        <ele>60.700000000000003</ele>
        <time>2025-05-08T13:06:56Z</time>
      </trkpt>
      <trkpt lat="36.024461025372148" lon="-5.592560023069382">
        <ele>61.659999999999997</ele>
        <time>2025-05-08T13:07:09Z</time>
      </trkpt>
      <trkpt lat="36.025600964203477" lon="-5.590095994994044">
        <ele>72.719999999999999</ele>
        <time>2025-05-08T13:07:22Z</time>
      </trkpt>
      <trkpt lat="36.026902003213763" lon="-5.58742200024426">
        <ele>91.939999999999998</ele>
        <time>2025-05-08T13:07:36Z</time>
      </trkpt>
      <trkpt lat="36.028254004195333" lon="-5.585502963513136">
        <ele>103.95999999999999</ele>
        <time>2025-05-08T13:07:47Z</time>
      </trkpt>
      <trkpt lat="36.029973970726132" lon="-5.58344797231257">
        <ele>117.42</ele>
        <time>2025-05-08T13:08:00Z</time>
      </trkpt>
      <trkpt lat="36.031164033338428" lon="-5.5816850066185">
        <ele>126.55</ele>
        <time>2025-05-08T13:08:10Z</time>
      </trkpt>
      <trkpt lat="36.031831987202168" lon="-5.580016002058983">
        <ele>135.68000000000001</ele>
        <time>2025-05-08T13:08:18Z</time>
      </trkpt>
      <trkpt lat="36.032453002408147" lon="-5.577487014234066">
        <ele>151.06</ele>
        <time>2025-05-08T13:08:29Z</time>
      </trkpt>
      <trkpt lat="36.032635979354382" lon="-5.576600963249803">
        <ele>155.87</ele>
        <time>2025-05-08T13:08:33Z</time>
      </trkpt>
      <trkpt lat="36.032707979902625" lon="-5.576398959383369">
        <ele>156.83000000000001</ele>
        <time>2025-05-08T13:08:34Z</time>
      </trkpt>
      <trkpt lat="36.032800013199449" lon="-5.576208019629121">
        <ele>157.78999999999999</ele>
        <time>2025-05-08T13:08:35Z</time>
      </trkpt>
      <trkpt lat="36.032909983769059" lon="-5.576037028804421">
        <ele>158.75</ele>
        <time>2025-05-08T13:08:36Z</time>
      </trkpt>
      <trkpt lat="36.033032024279237" lon="-5.575840976089239">
        <ele>159.72</ele>
        <time>2025-05-08T13:08:37Z</time>
      </trkpt>
      <trkpt lat="36.033149035647511" lon="-5.575703009963036">
        <ele>160.68000000000001</ele>
        <time>2025-05-08T13:08:38Z</time>
      </trkpt>
      <trkpt lat="36.033291025087237" lon="-5.575560014694929">
        <ele>161.63999999999999</ele>
        <time>2025-05-08T13:08:39Z</time>
      </trkpt>
      <trkpt lat="36.034143967553973" lon="-5.574430972337723">
        <ele>167.41</ele>
        <time>2025-05-08T13:08:46Z</time>
      </trkpt>
      <trkpt lat="36.034228960052133" lon="-5.574226034805179">
        <ele>168.37</ele>
        <time>2025-05-08T13:08:47Z</time>
      </trkpt>
      <trkpt lat="36.034775963053107" lon="-5.572777977213264">
        <ele>172.69</ele>
        <time>2025-05-08T13:08:55Z</time>
      </trkpt>
      <trkpt lat="36.034915018826723" lon="-5.572445970028639">
        <ele>173.16999999999999</ele>
        <time>2025-05-08T13:08:57Z</time>
      </trkpt>
      <trkpt lat="36.035007974132895" lon="-5.572294006124139">
        <ele>173.16999999999999</ele>
        <time>2025-05-08T13:08:58Z</time>
      </trkpt>
      <trkpt lat="36.035112999379635" lon="-5.572158973664045">
        <ele>173.16999999999999</ele>
        <time>2025-05-08T13:08:59Z</time>
      </trkpt>
      <trkpt lat="36.035243002697825" lon="-5.572055038064718">
        <ele>172.69</ele>
        <time>2025-05-08T13:09:00Z</time>
      </trkpt>
      <trkpt lat="36.03538197465241" lon="-5.571983037516475">
        <ele>172.69</ele>
        <time>2025-05-08T13:09:01Z</time>
      </trkpt>
      <trkpt lat="36.035533016547561" lon="-5.571926962584257">
        <ele>172.21000000000001</ele>
        <time>2025-05-08T13:09:02Z</time>
      </trkpt>
      <trkpt lat="36.035696966573596" lon="-5.571885975077748">
        <ele>171.72999999999999</ele>
        <time>2025-05-08T13:09:03Z</time>
      </trkpt>
      <trkpt lat="36.035864017903805" lon="-5.571843981742859">
        <ele>171.25</ele>
        <time>2025-05-08T13:09:04Z</time>
      </trkpt>
      <trkpt lat="36.036207005381584" lon="-5.571733005344868">
        <ele>169.81</ele>
        <time>2025-05-08T13:09:06Z</time>
      </trkpt>
      <trkpt lat="36.036372967064381" lon="-5.571639966219664">
        <ele>169.33000000000001</ele>
        <time>2025-05-08T13:09:07Z</time>
      </trkpt>
      <trkpt lat="36.036526020616293" lon="-5.57152496650815">
        <ele>168.84999999999999</ele>
        <time>2025-05-08T13:09:08Z</time>
      </trkpt>
      <trkpt lat="36.036672033369541" lon="-5.571404015645385">
        <ele>167.88999999999999</ele>
        <time>2025-05-08T13:09:09Z</time>
      </trkpt>
      <trkpt lat="36.036804970353842" lon="-5.571258002892137">
        <ele>167.41</ele>
        <time>2025-05-08T13:09:10Z</time>
      </trkpt>
      <trkpt lat="36.036938996985555" lon="-5.571111990138888">
        <ele>166.44999999999999</ele>
        <time>2025-05-08T13:09:11Z</time>
      </trkpt>
      <trkpt lat="36.038589980453253" lon="-5.569403003901243">
        <ele>159.24000000000001</ele>
        <time>2025-05-08T13:09:23Z</time>
      </trkpt>
      <trkpt lat="36.038769017904997" lon="-5.569329997524619">
        <ele>158.75</ele>
        <time>2025-05-08T13:09:24Z</time>
      </trkpt>
      <trkpt lat="36.038931962102652" lon="-5.569263026118279">
        <ele>158.75</ele>
        <time>2025-05-08T13:09:25Z</time>
      </trkpt>
      <trkpt lat="36.039092978462577" lon="-5.569206029176712">
        <ele>158.27000000000001</ele>
        <time>2025-05-08T13:09:26Z</time>
      </trkpt>
      <trkpt lat="36.039265980944037" lon="-5.569179961457849">
        <ele>157.78999999999999</ele>
        <time>2025-05-08T13:09:27Z</time>
      </trkpt>
      <trkpt lat="36.039440995082259" lon="-5.569152971729636">
        <ele>157.78999999999999</ele>
        <time>2025-05-08T13:09:28Z</time>
      </trkpt>
      <trkpt lat="36.040120013058186" lon="-5.569020034745336">
        <ele>156.34999999999999</ele>
        <time>2025-05-08T13:09:32Z</time>
      </trkpt>
      <trkpt lat="36.040273988619447" lon="-5.568933030590415">
        <ele>156.34999999999999</ele>
        <time>2025-05-08T13:09:33Z</time>
      </trkpt>
      <trkpt lat="36.040422013029456" lon="-5.568842003121972">
        <ele>155.87</ele>
        <time>2025-05-08T13:09:34Z</time>
      </trkpt>
      <trkpt lat="36.040556961670518" lon="-5.568719040602446">
        <ele>155.38999999999999</ele>
        <time>2025-05-08T13:09:35Z</time>
      </trkpt>
      <trkpt lat="36.040683025494218" lon="-5.568575039505959">
        <ele>155.38999999999999</ele>
        <time>2025-05-08T13:09:36Z</time>
      </trkpt>
      <trkpt lat="36.040910007432103" lon="-5.568243032321334">
        <ele>154.91</ele>
        <time>2025-05-08T13:09:38Z</time>
      </trkpt>
      <trkpt lat="36.041001034900546" lon="-5.568068018183112">
        <ele>155.38999999999999</ele>
        <time>2025-05-08T13:09:39Z</time>
      </trkpt>
      <trkpt lat="36.041058031842113" lon="-5.567873977124691">
        <ele>155.38999999999999</ele>
        <time>2025-05-08T13:09:40Z</time>
      </trkpt>
      <trkpt lat="36.041104970499873" lon="-5.56767700240016">
        <ele>155.87</ele>
        <time>2025-05-08T13:09:41Z</time>
      </trkpt>
      <trkpt lat="36.041122991591692" lon="-5.567457983270288">
        <ele>156.83000000000001</ele>
        <time>2025-05-08T13:09:42Z</time>
      </trkpt>
      <trkpt lat="36.041142018511891" lon="-5.567232007160783">
        <ele>157.31</ele>
        <time>2025-05-08T13:09:43Z</time>
      </trkpt>
      <trkpt lat="36.041123997420073" lon="-5.567004019394517">
        <ele>158.27000000000001</ele>
        <time>2025-05-08T13:09:44Z</time>
      </trkpt>
      <trkpt lat="36.041100025177002" lon="-5.566742001101375">
        <ele>159.24000000000001</ele>
        <time>2025-05-08T13:09:45Z</time>
      </trkpt>
      <trkpt lat="36.041039004921913" lon="-5.566547038033605">
        <ele>160.68000000000001</ele>
        <time>2025-05-08T13:09:46Z</time>
      </trkpt>
      <trkpt lat="36.040944959968328" lon="-5.566338999196887">
        <ele>161.63999999999999</ele>
        <time>2025-05-08T13:09:47Z</time>
      </trkpt>
      <trkpt lat="36.04081504046917" lon="-5.566175971180201">
        <ele>162.59999999999999</ele>
        <time>2025-05-08T13:09:48Z</time>
      </trkpt>
      <trkpt lat="36.040683025494218" lon="-5.566011015325785">
        <ele>163.56</ele>
        <time>2025-05-08T13:09:49Z</time>
      </trkpt>
      <trkpt lat="36.040551010519266" lon="-5.565846981480718">
        <ele>164.52000000000001</ele>
        <time>2025-05-08T13:09:50Z</time>
      </trkpt>
      <trkpt lat="36.040424024686217" lon="-5.565687976777554">
        <ele>166.44999999999999</ele>
        <time>2025-05-08T13:09:51Z</time>
      </trkpt>
      <trkpt lat="36.040328973904252" lon="-5.565506005659699">
        <ele>167.88999999999999</ele>
        <time>2025-05-08T13:09:52Z</time>
      </trkpt>
      <trkpt lat="36.040273988619447" lon="-5.565301990136504">
        <ele>168.84999999999999</ele>
        <time>2025-05-08T13:09:53Z</time>
      </trkpt>
      <trkpt lat="36.040230989456177" lon="-5.565095040947199">
        <ele>170.77000000000001</ele>
        <time>2025-05-08T13:09:54Z</time>
      </trkpt>
      <trkpt lat="36.040221014991403" lon="-5.56486101821065">
        <ele>172.21000000000001</ele>
        <time>2025-05-08T13:09:55Z</time>
      </trkpt>
      <trkpt lat="36.040234006941319" lon="-5.564601011574268">
        <ele>173.66</ele>
        <time>2025-05-08T13:09:56Z</time>
      </trkpt>
      <trkpt lat="36.040310030803084" lon="-5.564380986616015">
        <ele>175.09999999999999</ele>
        <time>2025-05-08T13:09:57Z</time>
      </trkpt>
      <trkpt lat="36.040386976674199" lon="-5.564156016334891">
        <ele>177.02000000000001</ele>
        <time>2025-05-08T13:09:58Z</time>
      </trkpt>
      <trkpt lat="36.040991982445121" lon="-5.562366982921958">
        <ele>188.08000000000001</ele>
        <time>2025-05-08T13:10:06Z</time>
      </trkpt>
      <trkpt lat="36.041155010461807" lon="-5.561719983816147">
        <ele>191.91999999999999</ele>
        <time>2025-05-08T13:10:09Z</time>
      </trkpt>
      <trkpt lat="36.041246959939599" lon="-5.561536001041532">
        <ele>193.36000000000001</ele>
        <time>2025-05-08T13:10:10Z</time>
      </trkpt>
      <trkpt lat="36.041351985186338" lon="-5.561367021873593">
        <ele>194.31999999999999</ele>
        <time>2025-05-08T13:10:11Z</time>
      </trkpt>
      <trkpt lat="36.041497997939587" lon="-5.561241041868925">
        <ele>195.77000000000001</ele>
        <time>2025-05-08T13:10:12Z</time>
      </trkpt>
      <trkpt lat="36.041636969894171" lon="-5.561121013015509">
        <ele>196.72999999999999</ele>
        <time>2025-05-08T13:10:13Z</time>
      </trkpt>
      <trkpt lat="36.041813995689154" lon="-5.561035014688969">
        <ele>198.16999999999999</ele>
        <time>2025-05-08T13:10:14Z</time>
      </trkpt>
      <trkpt lat="36.041989009827375" lon="-5.56095102801919">
        <ele>199.13</ele>
        <time>2025-05-08T13:10:15Z</time>
      </trkpt>
      <trkpt lat="36.043243026360869" lon="-5.56047803722322">
        <ele>206.81999999999999</ele>
        <time>2025-05-08T13:10:22Z</time>
      </trkpt>
      <trkpt lat="36.043427009135485" lon="-5.560483988374472">
        <ele>208.25999999999999</ele>
        <time>2025-05-08T13:10:23Z</time>
      </trkpt>
      <trkpt lat="36.0436109919101" lon="-5.560489017516375">
        <ele>209.22</ele>
        <time>2025-05-08T13:10:24Z</time>
      </trkpt>
      <trkpt lat="36.043787011876702" lon="-5.560493962839246">
        <ele>210.66999999999999</ele>
        <time>2025-05-08T13:10:25Z</time>
      </trkpt>
      <trkpt lat="36.043951967731118" lon="-5.560503015294671">
        <ele>212.11000000000001</ele>
        <time>2025-05-08T13:10:26Z</time>
      </trkpt>
      <trkpt lat="36.044962992891669" lon="-5.560606028884649">
        <ele>221.72</ele>
        <time>2025-05-08T13:10:34Z</time>
      </trkpt>
      <trkpt lat="36.045282008126378" lon="-5.560626983642578">
        <ele>224.12</ele>
        <time>2025-05-08T13:10:37Z</time>
      </trkpt>
      <trkpt lat="36.045378986746073" lon="-5.560588007792831">
        <ele>224.61000000000001</ele>
        <time>2025-05-08T13:10:38Z</time>
      </trkpt>
      <trkpt lat="36.045483006164432" lon="-5.560546014457941">
        <ele>225.09</ele>
        <time>2025-05-08T13:10:39Z</time>
      </trkpt>
      <trkpt lat="36.04558702558279" lon="-5.560503015294671">
        <ele>225.56999999999999</ele>
        <time>2025-05-08T13:10:40Z</time>
      </trkpt>
      <trkpt lat="36.045648967847228" lon="-5.560477031394839">
        <ele>226.05000000000001</ele>
        <time>2025-05-08T13:10:41Z</time>
      </trkpt>
      <trkpt lat="36.045757010579109" lon="-5.560355996713042">
        <ele>226.53</ele>
        <time>2025-05-08T13:10:42Z</time>
      </trkpt>
      <trkpt lat="36.045842003077269" lon="-5.560262035578489">
        <ele>226.53</ele>
        <time>2025-05-08T13:10:43Z</time>
      </trkpt>
      <trkpt lat="36.04593001306057" lon="-5.560163967311382">
        <ele>226.53</ele>
        <time>2025-05-08T13:10:44Z</time>
      </trkpt>
      <trkpt lat="36.046015005558729" lon="-5.560065982863307">
        <ele>226.05000000000001</ele>
        <time>2025-05-08T13:10:45Z</time>
      </trkpt>
      <trkpt lat="36.046066973358393" lon="-5.559928016737104">
        <ele>226.05000000000001</ele>
        <time>2025-05-08T13:10:46Z</time>
      </trkpt>
      <trkpt lat="36.046119024977088" lon="-5.559788960963488">
        <ele>226.05000000000001</ele>
        <time>2025-05-08T13:10:47Z</time>
      </trkpt>
      <trkpt lat="36.046149032190442" lon="-5.559656023979187">
        <ele>226.05000000000001</ele>
        <time>2025-05-08T13:10:48Z</time>
      </trkpt>
      <trkpt lat="36.046162024140358" lon="-5.559502970427275">
        <ele>226.53</ele>
        <time>2025-05-08T13:10:49Z</time>
      </trkpt>
      <trkpt lat="36.046176021918654" lon="-5.559346983209252">
        <ele>227.49000000000001</ele>
        <time>2025-05-08T13:10:50Z</time>
      </trkpt>
      <trkpt lat="36.046348018571734" lon="-5.55775098502636">
        <ele>237.09999999999999</ele>
        <time>2025-05-08T13:11:00Z</time>
      </trkpt>
      <trkpt lat="36.046389006078243" lon="-5.55759902112186">
        <ele>238.06</ele>
        <time>2025-05-08T13:11:01Z</time>
      </trkpt>
      <trkpt lat="36.046471986919641" lon="-5.557462982833386">
        <ele>239.02000000000001</ele>
        <time>2025-05-08T13:11:02Z</time>
      </trkpt>
      <trkpt lat="36.046565026044846" lon="-5.557339014485478">
        <ele>239.99000000000001</ele>
        <time>2025-05-08T13:11:03Z</time>
      </trkpt>
      <trkpt lat="36.046686982735991" lon="-5.5572550278157">
        <ele>240.94999999999999</ele>
        <time>2025-05-08T13:11:04Z</time>
      </trkpt>
      <trkpt lat="36.04681103490293" lon="-5.55719300173223">
        <ele>241.91</ele>
        <time>2025-05-08T13:11:05Z</time>
      </trkpt>
      <trkpt lat="36.04694196023047" lon="-5.55717196315527">
        <ele>242.87</ele>
        <time>2025-05-08T13:11:06Z</time>
      </trkpt>
      <trkpt lat="36.047074981033802" lon="-5.55717196315527">
        <ele>243.83000000000001</ele>
        <time>2025-05-08T13:11:07Z</time>
      </trkpt>
      <trkpt lat="36.047214036807418" lon="-5.55717196315527">
        <ele>244.78999999999999</ele>
        <time>2025-05-08T13:11:08Z</time>
      </trkpt>
      <trkpt lat="36.047352002933621" lon="-5.557151008397341">
        <ele>245.27000000000001</ele>
        <time>2025-05-08T13:11:09Z</time>
      </trkpt>
      <trkpt lat="36.04747898876667" lon="-5.557096023112536">
        <ele>246.22999999999999</ele>
        <time>2025-05-08T13:11:10Z</time>
      </trkpt>
      <trkpt lat="36.047604968771338" lon="-5.55704103782773">
        <ele>246.72</ele>
        <time>2025-05-08T13:11:11Z</time>
      </trkpt>
      <trkpt lat="36.047721980139613" lon="-5.556944981217384">
        <ele>247.68000000000001</ele>
        <time>2025-05-08T13:11:12Z</time>
      </trkpt>
      <trkpt lat="36.04784200899303" lon="-5.556844985112548">
        <ele>248.16</ele>
        <time>2025-05-08T13:11:13Z</time>
      </trkpt>
      <trkpt lat="36.04833503253758" lon="-5.55639898404479">
        <ele>251.52000000000001</ele>
        <time>2025-05-08T13:11:17Z</time>
      </trkpt>
      <trkpt lat="36.048427987843752" lon="-5.556236039847136">
        <ele>252.47999999999999</ele>
        <time>2025-05-08T13:11:18Z</time>
      </trkpt>
      <trkpt lat="36.048514991998672" lon="-5.556071000173688">
        <ele>253.44</ele>
        <time>2025-05-08T13:11:19Z</time>
      </trkpt>
      <trkpt lat="36.04876896366477" lon="-5.555595997720957">
        <ele>257.29000000000002</ele>
        <time>2025-05-08T13:11:22Z</time>
      </trkpt>
      <trkpt lat="36.048871977254748" lon="-5.555467000231147">
        <ele>258.73000000000002</ele>
        <time>2025-05-08T13:11:23Z</time>
      </trkpt>
      <trkpt lat="36.048997035250068" lon="-5.555370021611452">
        <ele>259.69</ele>
        <time>2025-05-08T13:11:24Z</time>
      </trkpt>
      <trkpt lat="36.049141036346555" lon="-5.555315036326647">
        <ele>260.64999999999998</ele>
        <time>2025-05-08T13:11:25Z</time>
      </trkpt>
      <trkpt lat="36.049288976937532" lon="-5.555254016071558">
        <ele>261.62</ele>
        <time>2025-05-08T13:11:26Z</time>
      </trkpt>
      <trkpt lat="36.049716034904122" lon="-5.555028961971402">
        <ele>264.01999999999998</ele>
        <time>2025-05-08T13:11:29Z</time>
      </trkpt>
      <trkpt lat="36.049833968281746" lon="-5.554941035807133">
        <ele>264.98000000000002</ele>
        <time>2025-05-08T13:11:30Z</time>
      </trkpt>
      <trkpt lat="36.049946034327149" lon="-5.554797034710646">
        <ele>265.94</ele>
        <time>2025-05-08T13:11:31Z</time>
      </trkpt>
      <trkpt lat="36.050051981583238" lon="-5.554660996422172">
        <ele>266.89999999999998</ele>
        <time>2025-05-08T13:11:32Z</time>
      </trkpt>
      <trkpt lat="36.050157006829977" lon="-5.554524958133698">
        <ele>267.86000000000001</ele>
        <time>2025-05-08T13:11:33Z</time>
      </trkpt>
      <trkpt lat="36.050387006253004" lon="-5.554293030872941">
        <ele>269.79000000000002</ele>
        <time>2025-05-08T13:11:35Z</time>
      </trkpt>
      <trkpt lat="36.050512986257672" lon="-5.554208960384131">
        <ele>270.75</ele>
        <time>2025-05-08T13:11:36Z</time>
      </trkpt>
      <trkpt lat="36.050651958212256" lon="-5.554147018119693">
        <ele>271.70999999999998</ele>
        <time>2025-05-08T13:11:37Z</time>
      </trkpt>
      <trkpt lat="36.050799982622266" lon="-5.554147018119693">
        <ele>272.67000000000002</ele>
        <time>2025-05-08T13:11:38Z</time>
      </trkpt>
      <trkpt lat="36.050950018689036" lon="-5.554147018119693">
        <ele>273.63</ele>
        <time>2025-05-08T13:11:39Z</time>
      </trkpt>
      <trkpt lat="36.051080022007227" lon="-5.554225975647569">
        <ele>274.58999999999997</ele>
        <time>2025-05-08T13:11:40Z</time>
      </trkpt>
      <trkpt lat="36.051212958991528" lon="-5.554307028651238">
        <ele>275.56</ele>
        <time>2025-05-08T13:11:41Z</time>
      </trkpt>
      <trkpt lat="36.051348997280002" lon="-5.554390009492636">
        <ele>276.51999999999998</ele>
        <time>2025-05-08T13:11:42Z</time>
      </trkpt>
      <trkpt lat="36.051491992548108" lon="-5.554458992555738">
        <ele>277</ele>
        <time>2025-05-08T13:11:43Z</time>
      </trkpt>
      <trkpt lat="36.051636999472976" lon="-5.554496040567756">
        <ele>277.95999999999998</ele>
        <time>2025-05-08T13:11:44Z</time>
      </trkpt>
      <trkpt lat="36.051782006397843" lon="-5.554501991719008">
        <ele>278.44</ele>
        <time>2025-05-08T13:11:45Z</time>
      </trkpt>
      <trkpt lat="36.05192600749433" lon="-5.554461004212499">
        <ele>279.39999999999998</ele>
        <time>2025-05-08T13:11:46Z</time>
      </trkpt>
      <trkpt lat="36.052062967792153" lon="-5.554385986179113">
        <ele>280.36000000000001</ele>
        <time>2025-05-08T13:11:47Z</time>
      </trkpt>
      <trkpt lat="36.052194982767105" lon="-5.554284984245896">
        <ele>281.31999999999999</ele>
        <time>2025-05-08T13:11:48Z</time>
      </trkpt>
      <trkpt lat="36.052320962771773" lon="-5.554181970655918">
        <ele>282.27999999999997</ele>
        <time>2025-05-08T13:11:49Z</time>
      </trkpt>
      <trkpt lat="36.052445014938712" lon="-5.554091027006507">
        <ele>283.25</ele>
        <time>2025-05-08T13:11:50Z</time>
      </trkpt>
      <trkpt lat="36.052573006600142" lon="-5.554018020629883">
        <ele>284.20999999999998</ele>
        <time>2025-05-08T13:11:51Z</time>
      </trkpt>
      <trkpt lat="36.052705021575093" lon="-5.553968986496329">
        <ele>285.17000000000002</ele>
        <time>2025-05-08T13:11:52Z</time>
      </trkpt>
      <trkpt lat="36.052837036550045" lon="-5.553919030353427">
        <ele>286.13</ele>
        <time>2025-05-08T13:11:53Z</time>
      </trkpt>
      <trkpt lat="36.053096037358046" lon="-5.553799001500011">
        <ele>287.56999999999999</ele>
        <time>2025-05-08T13:11:55Z</time>
      </trkpt>
      <trkpt lat="36.053213970735669" lon="-5.553713003173471">
        <ele>288.05000000000001</ele>
        <time>2025-05-08T13:11:56Z</time>
      </trkpt>
      <trkpt lat="36.053317990154028" lon="-5.553594985976815">
        <ele>289.00999999999999</ele>
        <time>2025-05-08T13:11:57Z</time>
      </trkpt>
      <trkpt lat="36.053416980430484" lon="-5.553438998758793">
        <ele>289.97000000000003</ele>
        <time>2025-05-08T13:11:58Z</time>
      </trkpt>
      <trkpt lat="36.053469032049179" lon="-5.553297009319067">
        <ele>290.94</ele>
        <time>2025-05-08T13:11:59Z</time>
      </trkpt>
      <trkpt lat="36.053588977083564" lon="-5.552967013791204">
        <ele>292.38</ele>
        <time>2025-05-08T13:12:01Z</time>
      </trkpt>
      <trkpt lat="36.053683022037148" lon="-5.552844973281026">
        <ele>293.33999999999997</ele>
        <time>2025-05-08T13:12:02Z</time>
      </trkpt>
      <trkpt lat="36.053979992866516" lon="-5.552441971376538">
        <ele>296.22000000000003</ele>
        <time>2025-05-08T13:12:05Z</time>
      </trkpt>
      <trkpt lat="36.054055010899901" lon="-5.55229302495718">
        <ele>296.22000000000003</ele>
        <time>2025-05-08T13:12:06Z</time>
      </trkpt>
      <trkpt lat="36.054086023941636" lon="-5.55212002247572">
        <ele>297.18000000000001</ele>
        <time>2025-05-08T13:12:07Z</time>
      </trkpt>
      <trkpt lat="36.054113013669848" lon="-5.551947019994259">
        <ele>297.67000000000002</ele>
        <time>2025-05-08T13:12:08Z</time>
      </trkpt>
      <trkpt lat="36.054136985912919" lon="-5.55177703499794">
        <ele>299.11000000000001</ele>
        <time>2025-05-08T13:12:09Z</time>
      </trkpt>
      <trkpt lat="36.05418099090457" lon="-5.550887966528535">
        <ele>303.91000000000003</ele>
        <time>2025-05-08T13:12:15Z</time>
      </trkpt>
      <trkpt lat="36.054187025874853" lon="-5.550756035372615">
        <ele>304.88</ele>
        <time>2025-05-08T13:12:16Z</time>
      </trkpt>
      <trkpt lat="36.05420102365315" lon="-5.550624020397663">
        <ele>305.83999999999997</ele>
        <time>2025-05-08T13:12:17Z</time>
      </trkpt>
      <trkpt lat="36.054222984239459" lon="-5.550490999594331">
        <ele>306.31999999999999</ele>
        <time>2025-05-08T13:12:18Z</time>
      </trkpt>
      <trkpt lat="36.054276963695884" lon="-5.550358984619379">
        <ele>306.80000000000001</ele>
        <time>2025-05-08T13:12:19Z</time>
      </trkpt>
      <trkpt lat="36.054345024749637" lon="-5.550242979079485">
        <ele>307.27999999999997</ele>
        <time>2025-05-08T13:12:20Z</time>
      </trkpt>
      <trkpt lat="36.054414007812738" lon="-5.550126973539591">
        <ele>307.75999999999999</ele>
        <time>2025-05-08T13:12:21Z</time>
      </trkpt>
      <trkpt lat="36.054489025846124" lon="-5.550012979656458">
        <ele>307.75999999999999</ele>
        <time>2025-05-08T13:12:22Z</time>
      </trkpt>
      <trkpt lat="36.054565971717238" lon="-5.549906026571989">
        <ele>307.75999999999999</ele>
        <time>2025-05-08T13:12:23Z</time>
      </trkpt>
      <trkpt lat="36.055283965542912" lon="-5.549253998324275">
        <ele>308.24000000000001</ele>
        <time>2025-05-08T13:12:31Z</time>
      </trkpt>
      <trkpt lat="36.055602980777621" lon="-5.548849990591407">
        <ele>308.72000000000003</ele>
        <time>2025-05-08T13:12:39Z</time>
      </trkpt>
      <trkpt lat="36.055609015747905" lon="-5.548843033611774">
        <ele>309.19999999999999</ele>
        <time>2025-05-08T13:12:40Z</time>
      </trkpt>
      <trkpt lat="36.055613039061427" lon="-5.548838004469872">
        <ele>309.68000000000001</ele>
        <time>2025-05-08T13:12:43Z</time>
      </trkpt>
      <trkpt lat="36.055581020191312" lon="-5.548877986148">
        <ele>310.16000000000003</ele>
        <time>2025-05-08T13:12:44Z</time>
      </trkpt>
      <trkpt lat="36.055526034906507" lon="-5.548946969211102">
        <ele>310.16000000000003</ele>
        <time>2025-05-08T13:12:45Z</time>
      </trkpt>
      <trkpt lat="36.055452022701502" lon="-5.549040008336306">
        <ele>310.16000000000003</ele>
        <time>2025-05-08T13:12:46Z</time>
      </trkpt>
      <trkpt lat="36.055242978036404" lon="-5.549290040507913">
        <ele>309.68000000000001</ele>
        <time>2025-05-08T13:12:48Z</time>
      </trkpt>
      <trkpt lat="36.054793037474155" lon="-5.549681978300214">
        <ele>308.24000000000001</ele>
        <time>2025-05-08T13:12:51Z</time>
      </trkpt>
      <trkpt lat="36.054663034155965" lon="-5.549795972183347">
        <ele>307.75999999999999</ele>
        <time>2025-05-08T13:12:52Z</time>
      </trkpt>
      <trkpt lat="36.054324992001057" lon="-5.550278015434742">
        <ele>306.31999999999999</ele>
        <time>2025-05-08T13:12:57Z</time>
      </trkpt>
      <trkpt lat="36.054249973967671" lon="-5.550405001267791">
        <ele>304.88</ele>
        <time>2025-05-08T13:13:04Z</time>
      </trkpt>
      <trkpt lat="36.054232958704233" lon="-5.550435008481145">
        <ele>304.88</ele>
        <time>2025-05-08T13:13:10Z</time>
      </trkpt>
      <trkpt lat="36.054232958704233" lon="-5.550435008481145">
        <ele>304.38999999999999</ele>
        <time>2025-05-08T13:13:11Z</time>
      </trkpt>
      <trkpt lat="36.054232958704233" lon="-5.550435008481145">
        <ele>304.38999999999999</ele>
        <time>2025-05-08T13:13:12Z</time>
      </trkpt>
      <trkpt lat="36.054232958704233" lon="-5.550435008481145">
        <ele>304.38999999999999</ele>
        <time>2025-05-08T13:13:13Z</time>
      </trkpt>
      <trkpt lat="36.054232958704233" lon="-5.550435008481145">
        <ele>304.38999999999999</ele>
        <time>2025-05-08T13:13:14Z</time>
      </trkpt>
      <trkpt lat="36.054232958704233" lon="-5.550435008481145">
        <ele>304.38999999999999</ele>
        <time>2025-05-08T13:13:15Z</time>
      </trkpt>
      <trkpt lat="36.05387999676168" lon="-5.550579009577632">
        <ele>303.43000000000001</ele>
        <time>2025-05-08T13:13:27Z</time>
      </trkpt>
      <trkpt lat="36.053957026451826" lon="-5.550583032891154">
        <ele>303.91000000000003</ele>
        <time>2025-05-08T13:15:25Z</time>
      </trkpt>
      <trkpt lat="36.053906986489892" lon="-5.550572974607348">
        <ele>306.31999999999999</ele>
        <time>2025-05-08T13:15:55Z</time>
      </trkpt>
      <trkpt lat="36.05390296317637" lon="-5.550508014857769">
        <ele>307.75999999999999</ele>
        <time>2025-05-08T13:16:42Z</time>
      </trkpt>
      <trkpt lat="36.05390296317637" lon="-5.550518995150924">
        <ele>304.88</ele>
        <time>2025-05-08T13:16:51Z</time>
      </trkpt>
      <trkpt lat="36.054232958704233" lon="-5.550435008481145">
        <ele>304.88</ele>
        <time>2025-05-08T13:16:55Z</time>
      </trkpt>
      <trkpt lat="36.054232958704233" lon="-5.550435008481145">
        <ele>304.88</ele>
        <time>2025-05-08T13:16:56Z</time>
      </trkpt>
      <trkpt lat="36.054232958704233" lon="-5.550435008481145">
        <ele>304.88</ele>
        <time>2025-05-08T13:16:57Z</time>
      </trkpt>
      <trkpt lat="36.054252991452813" lon="-5.550398966297507">
        <ele>304.88</ele>
        <time>2025-05-08T13:16:58Z</time>
      </trkpt>
      <trkpt lat="36.054272018373013" lon="-5.550367031246424">
        <ele>303.91000000000003</ele>
        <time>2025-05-08T13:16:59Z</time>
      </trkpt>
      <trkpt lat="36.054272018373013" lon="-5.550367031246424">
        <ele>303.91000000000003</ele>
        <time>2025-05-08T13:17:00Z</time>
      </trkpt>
      <trkpt lat="36.054272018373013" lon="-5.550367031246424">
        <ele>300.06999999999999</ele>
        <time>2025-05-08T13:17:11Z</time>
      </trkpt>
      <trkpt lat="36.054317029193044" lon="-5.550291007384658">
        <ele>299.11000000000001</ele>
        <time>2025-05-08T13:17:22Z</time>
      </trkpt>
      <trkpt lat="36.054356005042791" lon="-5.550225041806698">
        <ele>299.11000000000001</ele>
        <time>2025-05-08T13:17:23Z</time>
      </trkpt>
      <trkpt lat="36.054862020537257" lon="-5.549621963873506">
        <ele>299.58999999999997</ele>
        <time>2025-05-08T13:17:30Z</time>
      </trkpt>
      <trkpt lat="36.055228980258107" lon="-5.549302026629448">
        <ele>300.55000000000001</ele>
        <time>2025-05-08T13:17:34Z</time>
      </trkpt>
      <trkpt lat="36.055314978584647" lon="-5.549215022474527">
        <ele>300.55000000000001</ele>
        <time>2025-05-08T13:17:35Z</time>
      </trkpt>
      <trkpt lat="36.055394019931555" lon="-5.54911402054131">
        <ele>300.55000000000001</ele>
        <time>2025-05-08T13:17:36Z</time>
      </trkpt>
      <trkpt lat="36.056380989030004" lon="-5.548102995380759">
        <ele>303.43000000000001</ele>
        <time>2025-05-08T13:17:47Z</time>
      </trkpt>
      <trkpt lat="36.057032011449337" lon="-5.547711979597807">
        <ele>305.83999999999997</ele>
        <time>2025-05-08T13:17:53Z</time>
      </trkpt>
      <trkpt lat="36.057114992290735" lon="-5.547604020684958">
        <ele>306.31999999999999</ele>
        <time>2025-05-08T13:17:54Z</time>
      </trkpt>
      <trkpt lat="36.057199984788895" lon="-5.547492960467935">
        <ele>306.31999999999999</ele>
        <time>2025-05-08T13:17:55Z</time>
      </trkpt>
      <trkpt lat="36.057272991165519" lon="-5.547366980463266">
        <ele>306.80000000000001</ele>
        <time>2025-05-08T13:17:56Z</time>
      </trkpt>
      <trkpt lat="36.057343985885382" lon="-5.547236977145076">
        <ele>307.27999999999997</ele>
        <time>2025-05-08T13:17:57Z</time>
      </trkpt>
      <trkpt lat="36.057384973391891" lon="-5.547074032947421">
        <ele>307.75999999999999</ele>
        <time>2025-05-08T13:17:58Z</time>
      </trkpt>
      <trkpt lat="36.05742503888905" lon="-5.546911004930735">
        <ele>308.24000000000001</ele>
        <time>2025-05-08T13:17:59Z</time>
      </trkpt>
      <trkpt lat="36.057930970564485" lon="-5.545212998986244">
        <ele>312.08999999999997</ele>
        <time>2025-05-08T13:18:08Z</time>
      </trkpt>
      <trkpt lat="36.058125011622906" lon="-5.544601958245039">
        <ele>313.05000000000001</ele>
        <time>2025-05-08T13:18:11Z</time>
      </trkpt>
      <trkpt lat="36.058149989694357" lon="-5.544384028762579">
        <ele>313.52999999999997</ele>
        <time>2025-05-08T13:18:12Z</time>
      </trkpt>
      <trkpt lat="36.058143032714725" lon="-5.544186970219016">
        <ele>313.52999999999997</ele>
        <time>2025-05-08T13:18:13Z</time>
      </trkpt>
      <trkpt lat="36.058115037158132" lon="-5.543985972180963">
        <ele>313.52999999999997</ele>
        <time>2025-05-08T13:18:14Z</time>
      </trkpt>
      <trkpt lat="36.058088969439268" lon="-5.543781034648418">
        <ele>314.00999999999999</ele>
        <time>2025-05-08T13:18:15Z</time>
      </trkpt>
      <trkpt lat="36.058058962225914" lon="-5.543194971978664">
        <ele>315.44999999999999</ele>
        <time>2025-05-08T13:18:18Z</time>
      </trkpt>
      <trkpt lat="36.058052005246282" lon="-5.54298902861774">
        <ele>316.41000000000003</ele>
        <time>2025-05-08T13:18:19Z</time>
      </trkpt>
      <trkpt lat="36.058105984702706" lon="-5.542815020307899">
        <ele>316.41000000000003</ele>
        <time>2025-05-08T13:18:20Z</time>
      </trkpt>
      <trkpt lat="36.058163987472653" lon="-5.542633971199393">
        <ele>316.88999999999999</ele>
        <time>2025-05-08T13:18:21Z</time>
      </trkpt>
      <trkpt lat="36.058236993849277" lon="-5.542455017566681">
        <ele>316.88999999999999</ele>
        <time>2025-05-08T13:18:22Z</time>
      </trkpt>
      <trkpt lat="36.058312011882663" lon="-5.542270028963685">
        <ele>316.88999999999999</ele>
        <time>2025-05-08T13:18:23Z</time>
      </trkpt>
      <trkpt lat="36.059194039553404" lon="-5.540166003629565">
        <ele>309.68000000000001</ele>
        <time>2025-05-08T13:18:33Z</time>
      </trkpt>
      <trkpt lat="36.059581032022834" lon="-5.539400987327099">
        <ele>308.24000000000001</ele>
        <time>2025-05-08T13:18:37Z</time>
      </trkpt>
      <trkpt lat="36.059683039784431" lon="-5.539234019815922">
        <ele>308.24000000000001</ele>
        <time>2025-05-08T13:18:38Z</time>
      </trkpt>
      <trkpt lat="36.059827962890267" lon="-5.539108961820602">
        <ele>307.75999999999999</ele>
        <time>2025-05-08T13:18:39Z</time>
      </trkpt>
      <trkpt lat="36.059971963986754" lon="-5.538983987644315">
        <ele>307.75999999999999</ele>
        <time>2025-05-08T13:18:40Z</time>
      </trkpt>
      <trkpt lat="36.060119988396764" lon="-5.538857001811266">
        <ele>306.80000000000001</ele>
        <time>2025-05-08T13:18:41Z</time>
      </trkpt>
      <trkpt lat="36.060269018635154" lon="-5.538729010149837">
        <ele>306.80000000000001</ele>
        <time>2025-05-08T13:18:42Z</time>
      </trkpt>
      <trkpt lat="36.060572024434805" lon="-5.538471015170217">
        <ele>305.36000000000001</ele>
        <time>2025-05-08T13:18:44Z</time>
      </trkpt>
      <trkpt lat="36.06071300804615" lon="-5.538314022123814">
        <ele>304.38999999999999</ele>
        <time>2025-05-08T13:18:45Z</time>
      </trkpt>
      <trkpt lat="36.060856003314257" lon="-5.538168009370565">
        <ele>303.43000000000001</ele>
        <time>2025-05-08T13:18:46Z</time>
      </trkpt>
      <trkpt lat="36.061003021895885" lon="-5.538020990788937">
        <ele>302.47000000000003</ele>
        <time>2025-05-08T13:18:47Z</time>
      </trkpt>
      <trkpt lat="36.061148028820753" lon="-5.537875983864069">
        <ele>301.50999999999999</ele>
        <time>2025-05-08T13:18:48Z</time>
      </trkpt>
      <trkpt lat="36.061299992725253" lon="-5.537775987759233">
        <ele>300.06999999999999</ele>
        <time>2025-05-08T13:18:49Z</time>
      </trkpt>
      <trkpt lat="36.06146696023643" lon="-5.537701975554228">
        <ele>299.11000000000001</ele>
        <time>2025-05-08T13:18:50Z</time>
      </trkpt>
      <trkpt lat="36.061630994081497" lon="-5.537628969177604">
        <ele>298.14999999999998</ele>
        <time>2025-05-08T13:18:51Z</time>
      </trkpt>
      <trkpt lat="36.061952020972967" lon="-5.537485973909497">
        <ele>295.74000000000001</ele>
        <time>2025-05-08T13:18:53Z</time>
      </trkpt>
      <trkpt lat="36.062097027897835" lon="-5.537367034703493">
        <ele>294.77999999999997</ele>
        <time>2025-05-08T13:18:54Z</time>
      </trkpt>
      <trkpt lat="36.062232982367277" lon="-5.537226973101497">
        <ele>293.81999999999999</ele>
        <time>2025-05-08T13:18:55Z</time>
      </trkpt>
      <trkpt lat="36.062337001785636" lon="-5.537042990326881">
        <ele>292.38</ele>
        <time>2025-05-08T13:18:56Z</time>
      </trkpt>
      <trkpt lat="36.062442027032375" lon="-5.536858001723886">
        <ele>290.94</ele>
        <time>2025-05-08T13:18:57Z</time>
      </trkpt>
      <trkpt lat="36.062550991773605" lon="-5.536666978150606">
        <ele>289.97000000000003</ele>
        <time>2025-05-08T13:18:58Z</time>
      </trkpt>
      <trkpt lat="36.063042003661394" lon="-5.535636004060507">
        <ele>285.17000000000002</ele>
        <time>2025-05-08T13:19:03Z</time>
      </trkpt>
      <trkpt lat="36.063146023079753" lon="-5.53542603738606">
        <ele>284.20999999999998</ele>
        <time>2025-05-08T13:19:04Z</time>
      </trkpt>
      <trkpt lat="36.063896035775542" lon="-5.534323984757066">
        <ele>278.92000000000002</ele>
        <time>2025-05-08T13:19:10Z</time>
      </trkpt>
      <trkpt lat="36.063971975818276" lon="-5.534111000597477">
        <ele>277.95999999999998</ele>
        <time>2025-05-08T13:19:11Z</time>
      </trkpt>
      <trkpt lat="36.064173979684711" lon="-5.533468024805188">
        <ele>275.06999999999999</ele>
        <time>2025-05-08T13:19:14Z</time>
      </trkpt>
      <trkpt lat="36.064275987446308" lon="-5.533294016495347">
        <ele>274.11000000000001</ele>
        <time>2025-05-08T13:19:15Z</time>
      </trkpt>
      <trkpt lat="36.064389981329441" lon="-5.533131994307041">
        <ele>273.14999999999998</ele>
        <time>2025-05-08T13:19:16Z</time>
      </trkpt>
      <trkpt lat="36.064501963555813" lon="-5.532982964068651">
        <ele>272.19</ele>
        <time>2025-05-08T13:19:17Z</time>
      </trkpt>
      <trkpt lat="36.064657028764486" lon="-5.532898977398872">
        <ele>271.70999999999998</ele>
        <time>2025-05-08T13:19:18Z</time>
      </trkpt>
      <trkpt lat="36.06481502763927" lon="-5.532823037356138">
        <ele>270.75</ele>
        <time>2025-05-08T13:19:19Z</time>
      </trkpt>
      <trkpt lat="36.064984006807208" lon="-5.532764028757811">
        <ele>269.79000000000002</ele>
        <time>2025-05-08T13:19:20Z</time>
      </trkpt>
      <trkpt lat="36.065154997631907" lon="-5.532704014331102">
        <ele>268.82999999999998</ele>
        <time>2025-05-08T13:19:21Z</time>
      </trkpt>
      <trkpt lat="36.065333029255271" lon="-5.532665038481355">
        <ele>267.38</ele>
        <time>2025-05-08T13:19:22Z</time>
      </trkpt>
      <trkpt lat="36.065501002594829" lon="-5.532592032104731">
        <ele>266.42000000000002</ele>
        <time>2025-05-08T13:19:23Z</time>
      </trkpt>
      <trkpt lat="36.065637040883303" lon="-5.532493963837624">
        <ele>264.98000000000002</ele>
        <time>2025-05-08T13:19:24Z</time>
      </trkpt>
      <trkpt lat="36.065766960382462" lon="-5.532402014359832">
        <ele>264.01999999999998</ele>
        <time>2025-05-08T13:19:25Z</time>
      </trkpt>
      <trkpt lat="36.065906016156077" lon="-5.532303024083376">
        <ele>263.06</ele>
        <time>2025-05-08T13:19:26Z</time>
      </trkpt>
      <trkpt lat="36.066005006432533" lon="-5.532211996614933">
        <ele>262.10000000000002</ele>
        <time>2025-05-08T13:19:27Z</time>
      </trkpt>
      <trkpt lat="36.06737301684916" lon="-5.53102201782167">
        <ele>255.84999999999999</ele>
        <time>2025-05-08T13:19:40Z</time>
      </trkpt>
      <trkpt lat="36.067944997921586" lon="-5.530715994536877">
        <ele>255.37</ele>
        <time>2025-05-08T13:19:45Z</time>
      </trkpt>
      <trkpt lat="36.068071983754635" lon="-5.53067802451551">
        <ele>255.37</ele>
        <time>2025-05-08T13:19:46Z</time>
      </trkpt>
      <trkpt lat="36.068874970078468" lon="-5.530461017042399">
        <ele>255.37</ele>
        <time>2025-05-08T13:19:52Z</time>
      </trkpt>
      <trkpt lat="36.068994998931885" lon="-5.530415000393987">
        <ele>255.84999999999999</ele>
        <time>2025-05-08T13:19:53Z</time>
      </trkpt>
      <trkpt lat="36.069126008078456" lon="-5.530295977368951">
        <ele>255.84999999999999</ele>
        <time>2025-05-08T13:19:54Z</time>
      </trkpt>
      <trkpt lat="36.069238996133208" lon="-5.530189024284482">
        <ele>255.84999999999999</ele>
        <time>2025-05-08T13:19:55Z</time>
      </trkpt>
      <trkpt lat="36.069338992238045" lon="-5.530048962682486">
        <ele>256.32999999999998</ele>
        <time>2025-05-08T13:19:56Z</time>
      </trkpt>
      <trkpt lat="36.069442005828023" lon="-5.529904961585999">
        <ele>256.81</ele>
        <time>2025-05-08T13:19:57Z</time>
      </trkpt>
      <trkpt lat="36.069493973627687" lon="-5.529726007953286">
        <ele>257.29000000000002</ele>
        <time>2025-05-08T13:19:58Z</time>
      </trkpt>
      <trkpt lat="36.069552982226014" lon="-5.529513023793697">
        <ele>257.29000000000002</ele>
        <time>2025-05-08T13:19:59Z</time>
      </trkpt>
      <trkpt lat="36.069575026631355" lon="-5.529362987726927">
        <ele>258.25</ele>
        <time>2025-05-08T13:20:00Z</time>
      </trkpt>
      <trkpt lat="36.069549964740872" lon="-5.529155032709241">
        <ele>258.73000000000002</ele>
        <time>2025-05-08T13:20:01Z</time>
      </trkpt>
      <trkpt lat="36.069526998326182" lon="-5.52896099165082">
        <ele>259.69</ele>
        <time>2025-05-08T13:20:02Z</time>
      </trkpt>
      <trkpt lat="36.069490034133196" lon="-5.528776003047824">
        <ele>260.64999999999998</ele>
        <time>2025-05-08T13:20:03Z</time>
      </trkpt>
      <trkpt lat="36.069419039413333" lon="-5.52859503775835">
        <ele>261.13999999999999</ele>
        <time>2025-05-08T13:20:04Z</time>
      </trkpt>
      <trkpt lat="36.069347038865089" lon="-5.528412982821465">
        <ele>262.10000000000002</ele>
        <time>2025-05-08T13:20:05Z</time>
      </trkpt>
      <trkpt lat="36.069274032488465" lon="-5.528227994218469">
        <ele>263.06</ele>
        <time>2025-05-08T13:20:06Z</time>
      </trkpt>
      <trkpt lat="36.068919980898499" lon="-5.527245970442891">
        <ele>265.45999999999998</ele>
        <time>2025-05-08T13:20:11Z</time>
      </trkpt>
      <trkpt lat="36.068872036412358" lon="-5.527033992111683">
        <ele>265.45999999999998</ele>
        <time>2025-05-08T13:20:12Z</time>
      </trkpt>
      <trkpt lat="36.068841023370624" lon="-5.526814972981811">
        <ele>265.45999999999998</ele>
        <time>2025-05-08T13:20:13Z</time>
      </trkpt>
      <trkpt lat="36.068830965086818" lon="-5.526588996872306">
        <ele>264.98000000000002</ele>
        <time>2025-05-08T13:20:14Z</time>
      </trkpt>
      <trkpt lat="36.068833982571959" lon="-5.526357991620898">
        <ele>264.98000000000002</ele>
        <time>2025-05-08T13:20:15Z</time>
      </trkpt>
      <trkpt lat="36.068870024755597" lon="-5.526126986369491">
        <ele>264.5</ele>
        <time>2025-05-08T13:20:16Z</time>
      </trkpt>
      <trkpt lat="36.068906988948584" lon="-5.525889024138451">
        <ele>264.01999999999998</ele>
        <time>2025-05-08T13:20:17Z</time>
      </trkpt>
      <trkpt lat="36.068955017253757" lon="-5.525653995573521">
        <ele>264.01999999999998</ele>
        <time>2025-05-08T13:20:18Z</time>
      </trkpt>
      <trkpt lat="36.069390038028359" lon="-5.523763038218021">
        <ele>264.5</ele>
        <time>2025-05-08T13:20:26Z</time>
      </trkpt>
      <trkpt lat="36.069515012204647" lon="-5.523050995543599">
        <ele>265.45999999999998</ele>
        <time>2025-05-08T13:20:29Z</time>
      </trkpt>
      <trkpt lat="36.06956597417593" lon="-5.522824013605714">
        <ele>266.42000000000002</ele>
        <time>2025-05-08T13:20:30Z</time>
      </trkpt>
      <trkpt lat="36.069652978330851" lon="-5.522607006132603">
        <ele>266.42000000000002</ele>
        <time>2025-05-08T13:20:31Z</time>
      </trkpt>
      <trkpt lat="36.069774013012648" lon="-5.522428974509239">
        <ele>266.89999999999998</ele>
        <time>2025-05-08T13:20:32Z</time>
      </trkpt>
      <trkpt lat="36.069895969703794" lon="-5.522251026704907">
        <ele>266.89999999999998</ele>
        <time>2025-05-08T13:20:33Z</time>
      </trkpt>
      <trkpt lat="36.070343982428312" lon="-5.521514005959034">
        <ele>268.35000000000002</ele>
        <time>2025-05-08T13:20:37Z</time>
      </trkpt>
      <trkpt lat="36.070417994633317" lon="-5.521301021799445">
        <ele>269.31</ele>
        <time>2025-05-08T13:20:38Z</time>
      </trkpt>
      <trkpt lat="36.070482032373548" lon="-5.521082002669573">
        <ele>269.79000000000002</ele>
        <time>2025-05-08T13:20:39Z</time>
      </trkpt>
      <trkpt lat="36.071127019822598" lon="-5.518745966255665">
        <ele>279.39999999999998</ele>
        <time>2025-05-08T13:20:49Z</time>
      </trkpt>
      <trkpt lat="36.071964036673307" lon="-5.515630999580026">
        <ele>295.25999999999999</ele>
        <time>2025-05-08T13:21:02Z</time>
      </trkpt>
      <trkpt lat="36.072729974985123" lon="-5.512794982641935">
        <ele>307.27999999999997</ele>
        <time>2025-05-08T13:21:14Z</time>
      </trkpt>
      <trkpt lat="36.073035998269916" lon="-5.512014040723443">
        <ele>308.72000000000003</ele>
        <time>2025-05-08T13:21:18Z</time>
      </trkpt>
      <trkpt lat="36.073147980496287" lon="-5.511841038241983">
        <ele>309.19999999999999</ele>
        <time>2025-05-08T13:21:19Z</time>
      </trkpt>
      <trkpt lat="36.07326197437942" lon="-5.511666024103761">
        <ele>308.72000000000003</ele>
        <time>2025-05-08T13:21:20Z</time>
      </trkpt>
      <trkpt lat="36.073391977697611" lon="-5.511520011350513">
        <ele>308.72000000000003</ele>
        <time>2025-05-08T13:21:21Z</time>
      </trkpt>
      <trkpt lat="36.073528015986085" lon="-5.511368969455361">
        <ele>308.24000000000001</ele>
        <time>2025-05-08T13:21:22Z</time>
      </trkpt>
      <trkpt lat="36.073665982112288" lon="-5.511222034692764">
        <ele>307.75999999999999</ele>
        <time>2025-05-08T13:21:23Z</time>
      </trkpt>
      <trkpt lat="36.073830015957355" lon="-5.511110974475741">
        <ele>307.27999999999997</ele>
        <time>2025-05-08T13:21:24Z</time>
      </trkpt>
      <trkpt lat="36.075798003003001" lon="-5.50977498292923">
        <ele>296.69999999999999</ele>
        <time>2025-05-08T13:21:35Z</time>
      </trkpt>
      <trkpt lat="36.07648397795856" lon="-5.509210964664817">
        <ele>292.38</ele>
        <time>2025-05-08T13:21:39Z</time>
      </trkpt>
      <trkpt lat="36.076628984883428" lon="-5.509041985496879">
        <ele>290.94</ele>
        <time>2025-05-08T13:21:40Z</time>
      </trkpt>
      <trkpt lat="36.076754964888096" lon="-5.508853979408741">
        <ele>289.49000000000001</ele>
        <time>2025-05-08T13:21:41Z</time>
      </trkpt>
      <trkpt lat="36.076844986528158" lon="-5.50863797776401">
        <ele>288.52999999999997</ele>
        <time>2025-05-08T13:21:42Z</time>
      </trkpt>
      <trkpt lat="36.076924027875066" lon="-5.508407978340983">
        <ele>287.08999999999997</ele>
        <time>2025-05-08T13:21:43Z</time>
      </trkpt>
      <trkpt lat="36.076987981796265" lon="-5.508172027766705">
        <ele>286.13</ele>
        <time>2025-05-08T13:21:44Z</time>
      </trkpt>
      <trkpt lat="36.077262992039323" lon="-5.507302992045879">
        <ele>282.27999999999997</ele>
        <time>2025-05-08T13:21:48Z</time>
      </trkpt>
      <trkpt lat="36.077351002022624" lon="-5.507119009271264">
        <ele>281.31999999999999</ele>
        <time>2025-05-08T13:21:49Z</time>
      </trkpt>
      <trkpt lat="36.077467007562518" lon="-5.506970984861255">
        <ele>280.36000000000001</ele>
        <time>2025-05-08T13:21:50Z</time>
      </trkpt>
      <trkpt lat="36.077590975910425" lon="-5.506840981543064">
        <ele>279.39999999999998</ele>
        <time>2025-05-08T13:21:51Z</time>
      </trkpt>
      <trkpt lat="36.077717961743474" lon="-5.506715001538396">
        <ele>278.44</ele>
        <time>2025-05-08T13:21:52Z</time>
      </trkpt>
      <trkpt lat="36.077859029173851" lon="-5.506617017090321">
        <ele>277.48000000000002</ele>
        <time>2025-05-08T13:21:53Z</time>
      </trkpt>
      <trkpt lat="36.078010993078351" lon="-5.506540993228555">
        <ele>276.51999999999998</ele>
        <time>2025-05-08T13:21:54Z</time>
      </trkpt>
      <trkpt lat="36.078172009438276" lon="-5.506504029035568">
        <ele>276.04000000000002</ele>
        <time>2025-05-08T13:21:55Z</time>
      </trkpt>
      <trkpt lat="36.078338976949453" lon="-5.506469998508692">
        <ele>275.06999999999999</ele>
        <time>2025-05-08T13:21:56Z</time>
      </trkpt>
      <trkpt lat="36.078512985259295" lon="-5.506436973810196">
        <ele>274.11000000000001</ele>
        <time>2025-05-08T13:21:57Z</time>
      </trkpt>
      <trkpt lat="36.078693028539419" lon="-5.506418030709028">
        <ele>273.14999999999998</ele>
        <time>2025-05-08T13:21:58Z</time>
      </trkpt>
      <trkpt lat="36.080631008371711" lon="-5.506218960508704">
        <ele>263.06</ele>
        <time>2025-05-08T13:22:09Z</time>
      </trkpt>
      <trkpt lat="36.080957986414433" lon="-5.506044030189514">
        <ele>260.64999999999998</ele>
        <time>2025-05-08T13:22:11Z</time>
      </trkpt>
      <trkpt lat="36.081107016652822" lon="-5.505921989679337">
        <ele>259.20999999999998</ele>
        <time>2025-05-08T13:22:12Z</time>
      </trkpt>
      <trkpt lat="36.081250011920929" lon="-5.50577899441123">
        <ele>258.25</ele>
        <time>2025-05-08T13:22:13Z</time>
      </trkpt>
      <trkpt lat="36.081392001360655" lon="-5.505637004971504">
        <ele>256.81</ele>
        <time>2025-05-08T13:22:14Z</time>
      </trkpt>
      <trkpt lat="36.081530973315239" lon="-5.50549803301692">
        <ele>255.84999999999999</ele>
        <time>2025-05-08T13:22:15Z</time>
      </trkpt>
      <trkpt lat="36.081927018240094" lon="-5.504821026697755">
        <ele>250.56</ele>
        <time>2025-05-08T13:22:19Z</time>
      </trkpt>
      <trkpt lat="36.082002958282828" lon="-5.504631008952856">
        <ele>249.59999999999999</ele>
        <time>2025-05-08T13:22:20Z</time>
      </trkpt>
      <trkpt lat="36.082621961832047" lon="-5.502670984715223">
        <ele>239.50999999999999</ele>
        <time>2025-05-08T13:22:30Z</time>
      </trkpt>
      <trkpt lat="36.083167959004641" lon="-5.500570982694626">
        <ele>228.44999999999999</ele>
        <time>2025-05-08T13:22:40Z</time>
      </trkpt>
      <trkpt lat="36.083521004766226" lon="-5.498725958168507">
        <ele>218.36000000000001</ele>
        <time>2025-05-08T13:22:50Z</time>
      </trkpt>
      <trkpt lat="36.083664000034332" lon="-5.497843008488417">
        <ele>211.63</ele>
        <time>2025-05-08T13:22:57Z</time>
      </trkpt>
      <trkpt lat="36.083675986155868" lon="-5.497782994061709">
        <ele>210.66999999999999</ele>
        <time>2025-05-08T13:22:58Z</time>
      </trkpt>
      <trkpt lat="36.083685960620642" lon="-5.497733037918806">
        <ele>210.19</ele>
        <time>2025-05-08T13:22:59Z</time>
      </trkpt>
      <trkpt lat="36.083698030561209" lon="-5.497674029320478">
        <ele>208.74000000000001</ele>
        <time>2025-05-08T13:23:01Z</time>
      </trkpt>
      <trkpt lat="36.08370297588408" lon="-5.49765600822866">
        <ele>208.25999999999999</ele>
        <time>2025-05-08T13:23:02Z</time>
      </trkpt>
      <trkpt lat="36.083742035552859" lon="-5.497499015182257">
        <ele>205.38</ele>
        <time>2025-05-08T13:23:10Z</time>
      </trkpt>
      <trkpt lat="36.083755027502775" lon="-5.497445035725832">
        <ele>204.90000000000001</ele>
        <time>2025-05-08T13:23:11Z</time>
      </trkpt>
      <trkpt lat="36.08376600779593" lon="-5.497402036562562">
        <ele>203.94</ele>
        <time>2025-05-08T13:23:12Z</time>
      </trkpt>
      <trkpt lat="36.083774976432323" lon="-5.497365994378924">
        <ele>203.46000000000001</ele>
        <time>2025-05-08T13:23:13Z</time>
      </trkpt>
      <trkpt lat="36.083780005574226" lon="-5.497347973287106">
        <ele>202.97999999999999</ele>
        <time>2025-05-08T13:23:14Z</time>
      </trkpt>
      <trkpt lat="36.083780005574226" lon="-5.497347973287106">
        <ele>202.49000000000001</ele>
        <time>2025-05-08T13:23:15Z</time>
      </trkpt>
      <trkpt lat="36.083796015009284" lon="-5.497315032407641">
        <ele>202.00999999999999</ele>
        <time>2025-05-08T13:23:16Z</time>
      </trkpt>
      <trkpt lat="36.083803977817297" lon="-5.497298017144203">
        <ele>201.53</ele>
        <time>2025-05-08T13:23:17Z</time>
      </trkpt>
      <trkpt lat="36.083803977817297" lon="-5.497298017144203">
        <ele>201.53</ele>
        <time>2025-05-08T13:23:18Z</time>
      </trkpt>
      <trkpt lat="36.083845971152186" lon="-5.497204978018999">
        <ele>198.65000000000001</ele>
        <time>2025-05-08T13:23:30Z</time>
      </trkpt>
      <trkpt lat="36.083845971152186" lon="-5.497204978018999">
        <ele>198.65000000000001</ele>
        <time>2025-05-08T13:23:47Z</time>
      </trkpt>
      <trkpt lat="36.083845971152186" lon="-5.497204978018999">
        <ele>198.16999999999999</ele>
        <time>2025-05-08T13:24:20Z</time>
      </trkpt>
      <trkpt lat="36.083845971152186" lon="-5.497204978018999">
        <ele>199.13</ele>
        <time>2025-05-08T13:25:08Z</time>
      </trkpt>
      <trkpt lat="36.083845971152186" lon="-5.497204978018999">
        <ele>199.61000000000001</ele>
        <time>2025-05-08T13:25:38Z</time>
      </trkpt>
      <trkpt lat="36.08387497253716" lon="-5.49714001826942">
        <ele>199.61000000000001</ele>
        <time>2025-05-08T13:26:08Z</time>
      </trkpt>
      <trkpt lat="36.083883019164205" lon="-5.497123003005981">
        <ele>200.09</ele>
        <time>2025-05-08T13:26:09Z</time>
      </trkpt>
      <trkpt lat="36.083901962265372" lon="-5.497081009671092">
        <ele>199.61000000000001</ele>
        <time>2025-05-08T13:26:10Z</time>
      </trkpt>
      <trkpt lat="36.083932975307107" lon="-5.497010014951229">
        <ele>199.61000000000001</ele>
        <time>2025-05-08T13:26:11Z</time>
      </trkpt>
      <trkpt lat="36.083973962813616" lon="-5.496919993311167">
        <ele>199.13</ele>
        <time>2025-05-08T13:26:12Z</time>
      </trkpt>
      <trkpt lat="36.084491964429617" lon="-5.496004018932581">
        <ele>195.28</ele>
        <time>2025-05-08T13:26:19Z</time>
      </trkpt>
      <trkpt lat="36.085186991840601" lon="-5.494918981567025">
        <ele>189.52000000000001</ele>
        <time>2025-05-08T13:26:26Z</time>
      </trkpt>
      <trkpt lat="36.085987966507673" lon="-5.493200020864606">
        <ele>181.83000000000001</ele>
        <time>2025-05-08T13:26:36Z</time>
      </trkpt>
      <trkpt lat="36.08617203310132" lon="-5.492833983153105">
        <ele>180.38</ele>
        <time>2025-05-08T13:26:38Z</time>
      </trkpt>
      <trkpt lat="36.08628099784255" lon="-5.492655029520392">
        <ele>180.38</ele>
        <time>2025-05-08T13:26:39Z</time>
      </trkpt>
      <trkpt lat="36.08716000802815" lon="-5.491349967196584">
        <ele>176.53999999999999</ele>
        <time>2025-05-08T13:26:47Z</time>
      </trkpt>
      <trkpt lat="36.087235026061535" lon="-5.491160033270717">
        <ele>175.58000000000001</ele>
        <time>2025-05-08T13:26:48Z</time>
      </trkpt>
      <trkpt lat="36.087294034659863" lon="-5.490974960848689">
        <ele>175.09999999999999</ele>
        <time>2025-05-08T13:26:49Z</time>
      </trkpt>
      <trkpt lat="36.087348014116287" lon="-5.490793995559216">
        <ele>174.13999999999999</ele>
        <time>2025-05-08T13:26:50Z</time>
      </trkpt>
      <trkpt lat="36.087384978309274" lon="-5.49060900695622">
        <ele>173.16999999999999</ele>
        <time>2025-05-08T13:26:51Z</time>
      </trkpt>
      <trkpt lat="36.087407022714615" lon="-5.490427035838366">
        <ele>172.21000000000001</ele>
        <time>2025-05-08T13:26:52Z</time>
      </trkpt>
      <trkpt lat="36.087428983300924" lon="-5.490237018093467">
        <ele>171.25</ele>
        <time>2025-05-08T13:26:53Z</time>
      </trkpt>
      <trkpt lat="36.087899962440133" lon="-5.487778019160032">
        <ele>161.16</ele>
        <time>2025-05-08T13:27:06Z</time>
      </trkpt>
      <trkpt lat="36.088512009009719" lon="-5.485896030440927">
        <ele>156.83000000000001</ele>
        <time>2025-05-08T13:27:16Z</time>
      </trkpt>
      <trkpt lat="36.089020036160946" lon="-5.484252003952861">
        <ele>153.47</ele>
        <time>2025-05-08T13:27:24Z</time>
      </trkpt>
      <trkpt lat="36.089653037488461" lon="-5.482434974983335">
        <ele>144.81999999999999</ele>
        <time>2025-05-08T13:27:33Z</time>
      </trkpt>
      <trkpt lat="36.090583009645343" lon="-5.48087602481246">
        <ele>139.53</ele>
        <time>2025-05-08T13:27:42Z</time>
      </trkpt>
      <trkpt lat="36.09079398214817" lon="-5.480587016791105">
        <ele>139.05000000000001</ele>
        <time>2025-05-08T13:27:44Z</time>
      </trkpt>
      <trkpt lat="36.090913005173206" lon="-5.480470005422831">
        <ele>139.05000000000001</ele>
        <time>2025-05-08T13:27:45Z</time>
      </trkpt>
      <trkpt lat="36.091046025976539" lon="-5.480370009317994">
        <ele>138.56999999999999</ele>
        <time>2025-05-08T13:27:46Z</time>
      </trkpt>
      <trkpt lat="36.091178962960839" lon="-5.480271019041538">
        <ele>138.56999999999999</ele>
        <time>2025-05-08T13:27:47Z</time>
      </trkpt>
      <trkpt lat="36.091312989592552" lon="-5.480171022936702">
        <ele>138.09</ele>
        <time>2025-05-08T13:27:48Z</time>
      </trkpt>
      <trkpt lat="36.091464031487703" lon="-5.480101034045219">
        <ele>137.61000000000001</ele>
        <time>2025-05-08T13:27:49Z</time>
      </trkpt>
      <trkpt lat="36.091619012877345" lon="-5.480045964941382">
        <ele>137.61000000000001</ele>
        <time>2025-05-08T13:27:50Z</time>
      </trkpt>
      <trkpt lat="36.092386040836573" lon="-5.479770032688975">
        <ele>134.72</ele>
        <time>2025-05-08T13:27:55Z</time>
      </trkpt>
      <trkpt lat="36.092535993084311" lon="-5.479689985513687">
        <ele>133.75999999999999</ele>
        <time>2025-05-08T13:27:56Z</time>
      </trkpt>
      <trkpt lat="36.092667002230883" lon="-5.479568028822541">
        <ele>132.80000000000001</ele>
        <time>2025-05-08T13:27:57Z</time>
      </trkpt>
      <trkpt lat="36.092798011377454" lon="-5.479443976655603">
        <ele>131.84</ele>
        <time>2025-05-08T13:27:58Z</time>
      </trkpt>
      <trkpt lat="36.092907981947064" lon="-5.479296036064625">
        <ele>130.40000000000001</ele>
        <time>2025-05-08T13:27:59Z</time>
      </trkpt>
      <trkpt lat="36.09300596639514" lon="-5.479143988341093">
        <ele>129.43000000000001</ele>
        <time>2025-05-08T13:28:00Z</time>
      </trkpt>
      <trkpt lat="36.093072015792131" lon="-5.478955982252955">
        <ele>128.47</ele>
        <time>2025-05-08T13:28:01Z</time>
      </trkpt>
      <trkpt lat="36.093118032440543" lon="-5.478762025013566">
        <ele>127.03</ele>
        <time>2025-05-08T13:28:02Z</time>
      </trkpt>
      <trkpt lat="36.093137981370091" lon="-5.478561026975513">
        <ele>126.06999999999999</ele>
        <time>2025-05-08T13:28:03Z</time>
      </trkpt>
      <trkpt lat="36.093158014118671" lon="-5.478352988138795">
        <ele>125.11</ele>
        <time>2025-05-08T13:28:04Z</time>
      </trkpt>
      <trkpt lat="36.0931789688766" lon="-5.478142015635967">
        <ele>123.67</ele>
        <time>2025-05-08T13:28:05Z</time>
      </trkpt>
      <trkpt lat="36.093478035181761" lon="-5.476521039381623">
        <ele>115.5</ele>
        <time>2025-05-08T13:28:13Z</time>
      </trkpt>
      <trkpt lat="36.09377701766789" lon="-5.474837031215429">
        <ele>108.77</ele>
        <time>2025-05-08T13:28:21Z</time>
      </trkpt>
      <trkpt lat="36.093839965760708" lon="-5.47421601600945">
        <ele>106.36</ele>
        <time>2025-05-08T13:28:24Z</time>
      </trkpt>
      <trkpt lat="36.093873996287584" lon="-5.474010994657874">
        <ele>105.88</ele>
        <time>2025-05-08T13:28:25Z</time>
      </trkpt>
      <trkpt lat="36.093924958258867" lon="-5.473816031590104">
        <ele>104.92</ele>
        <time>2025-05-08T13:28:26Z</time>
      </trkpt>
      <trkpt lat="36.093984972685575" lon="-5.473627019673586">
        <ele>104.44</ele>
        <time>2025-05-08T13:28:27Z</time>
      </trkpt>
      <trkpt lat="36.094056973233819" lon="-5.473445970565081">
        <ele>103.95999999999999</ele>
        <time>2025-05-08T13:28:28Z</time>
      </trkpt>
      <trkpt lat="36.094142971560359" lon="-5.473274979740381">
        <ele>103</ele>
        <time>2025-05-08T13:28:29Z</time>
      </trkpt>
      <trkpt lat="36.094243973493576" lon="-5.473111029714346">
        <ele>102.52</ele>
        <time>2025-05-08T13:28:30Z</time>
      </trkpt>
      <trkpt lat="36.094354027882218" lon="-5.472964011132717">
        <ele>101.56</ele>
        <time>2025-05-08T13:28:31Z</time>
      </trkpt>
      <trkpt lat="36.094471039250493" lon="-5.472821015864611">
        <ele>100.59999999999999</ele>
        <time>2025-05-08T13:28:32Z</time>
      </trkpt>
      <trkpt lat="36.094602970406413" lon="-5.472710961475968">
        <ele>99.629999999999995</ele>
        <time>2025-05-08T13:28:33Z</time>
      </trkpt>
      <trkpt lat="36.094736997038126" lon="-5.472606020048261">
        <ele>98.670000000000002</ele>
        <time>2025-05-08T13:28:34Z</time>
      </trkpt>
      <trkpt lat="36.09487496316433" lon="-5.472513986751437">
        <ele>97.230000000000004</ele>
        <time>2025-05-08T13:28:35Z</time>
      </trkpt>
      <trkpt lat="36.095722960308194" lon="-5.471860030665994">
        <ele>90.980000000000004</ele>
        <time>2025-05-08T13:28:41Z</time>
      </trkpt>
      <trkpt lat="36.095829997211695" lon="-5.471697002649307">
        <ele>90.019999999999996</ele>
        <time>2025-05-08T13:28:42Z</time>
      </trkpt>
      <trkpt lat="36.096930038183928" lon="-5.470119025558233">
        <ele>80.890000000000001</ele>
        <time>2025-05-08T13:28:52Z</time>
      </trkpt>
      <trkpt lat="36.09781701117754" lon="-5.469041028991342">
        <ele>74.159999999999997</ele>
        <time>2025-05-08T13:28:59Z</time>
      </trkpt>
      <trkpt lat="36.097938967868686" lon="-5.468872971832752">
        <ele>73.200000000000003</ele>
        <time>2025-05-08T13:29:00Z</time>
      </trkpt>
      <trkpt lat="36.098023038357496" lon="-5.468681026250124">
        <ele>72.239999999999995</ele>
        <time>2025-05-08T13:29:01Z</time>
      </trkpt>
      <trkpt lat="36.098443977534771" lon="-5.467796986922622">
        <ele>68.390000000000001</ele>
        <time>2025-05-08T13:29:06Z</time>
      </trkpt>
      <trkpt lat="36.098564006388187" lon="-5.467629013583064">
        <ele>67.430000000000007</ele>
        <time>2025-05-08T13:29:07Z</time>
      </trkpt>
      <trkpt lat="36.098672971129417" lon="-5.467520970851183">
        <ele>66.469999999999999</ele>
        <time>2025-05-08T13:29:08Z</time>
      </trkpt>
      <trkpt lat="36.098814960569143" lon="-5.467421980574727">
        <ele>65.510000000000005</ele>
        <time>2025-05-08T13:29:09Z</time>
      </trkpt>
      <trkpt lat="36.098962984979153" lon="-5.467326007783413">
        <ele>64.549999999999997</ele>
        <time>2025-05-08T13:29:10Z</time>
      </trkpt>
      <trkpt lat="36.099544018507004" lon="-5.466875983402133">
        <ele>59.740000000000002</ele>
        <time>2025-05-08T13:29:14Z</time>
      </trkpt>
      <trkpt lat="36.099676033481956" lon="-5.466733993962407">
        <ele>58.299999999999997</ele>
        <time>2025-05-08T13:29:15Z</time>
      </trkpt>
      <trkpt lat="36.099776029586792" lon="-5.46654598787427">
        <ele>57.340000000000003</ele>
        <time>2025-05-08T13:29:16Z</time>
      </trkpt>
      <trkpt lat="36.099865967407823" lon="-5.466350018978119">
        <ele>56.369999999999997</ele>
        <time>2025-05-08T13:29:17Z</time>
      </trkpt>
      <trkpt lat="36.099959006533027" lon="-5.466148015111685">
        <ele>55.890000000000001</ele>
        <time>2025-05-08T13:29:18Z</time>
      </trkpt>
      <trkpt lat="36.100367959588766" lon="-5.465376041829586">
        <ele>55.409999999999997</ele>
        <time>2025-05-08T13:29:22Z</time>
      </trkpt>
      <trkpt lat="36.100491005927324" lon="-5.465203039348126">
        <ele>54.93</ele>
        <time>2025-05-08T13:29:23Z</time>
      </trkpt>
      <trkpt lat="36.100621009245515" lon="-5.465043028816581">
        <ele>54.450000000000003</ele>
        <time>2025-05-08T13:29:24Z</time>
      </trkpt>
      <trkpt lat="36.100775990635157" lon="-5.464914031326771">
        <ele>53.490000000000002</ele>
        <time>2025-05-08T13:29:25Z</time>
      </trkpt>
      <trkpt lat="36.100931977853179" lon="-5.46478402800858">
        <ele>52.530000000000001</ele>
        <time>2025-05-08T13:29:26Z</time>
      </trkpt>
      <trkpt lat="36.10207200050354" lon="-5.463995039463043">
        <ele>44.359999999999999</ele>
        <time>2025-05-08T13:29:33Z</time>
      </trkpt>
      <trkpt lat="36.102245002985001" lon="-5.463919015601277">
        <ele>43.399999999999999</ele>
        <time>2025-05-08T13:29:34Z</time>
      </trkpt>
      <trkpt lat="36.104153981432319" lon="-5.463095996528864">
        <ele>32.340000000000003</ele>
        <time>2025-05-08T13:29:45Z</time>
      </trkpt>
      <trkpt lat="36.104465033859015" lon="-5.462900027632713">
        <ele>31.379999999999999</ele>
        <time>2025-05-08T13:29:47Z</time>
      </trkpt>
      <trkpt lat="36.10460601747036" lon="-5.462791984900832">
        <ele>30.899999999999999</ele>
        <time>2025-05-08T13:29:48Z</time>
      </trkpt>
      <trkpt lat="36.105458959937096" lon="-5.462062004953623">
        <ele>28.5</ele>
        <time>2025-05-08T13:29:56Z</time>
      </trkpt>
      <trkpt lat="36.105865985155106" lon="-5.461539980024099">
        <ele>27.530000000000001</ele>
        <time>2025-05-08T13:30:03Z</time>
      </trkpt>
      <trkpt lat="36.105915019288659" lon="-5.461473008617759">
        <ele>27.530000000000001</ele>
        <time>2025-05-08T13:30:04Z</time>
      </trkpt>
      <trkpt lat="36.105971010401845" lon="-5.461406959220767">
        <ele>27.530000000000001</ele>
        <time>2025-05-08T13:30:05Z</time>
      </trkpt>
      <trkpt lat="36.105958018451929" lon="-5.461258012801409">
        <ele>27.050000000000001</ele>
        <time>2025-05-08T13:30:06Z</time>
      </trkpt>
      <trkpt lat="36.106005040928721" lon="-5.461179977282882">
        <ele>27.530000000000001</ele>
        <time>2025-05-08T13:30:07Z</time>
      </trkpt>
      <trkpt lat="36.106138983741403" lon="-5.461191963404417">
        <ele>27.050000000000001</ele>
        <time>2025-05-08T13:30:08Z</time>
      </trkpt>
      <trkpt lat="36.10619698651135" lon="-5.46113396063447">
        <ele>27.050000000000001</ele>
        <time>2025-05-08T13:30:09Z</time>
      </trkpt>
      <trkpt lat="36.1062600184232" lon="-5.461066989228129">
        <ele>27.050000000000001</ele>
        <time>2025-05-08T13:30:10Z</time>
      </trkpt>
      <trkpt lat="36.106319027021527" lon="-5.460990965366364">
        <ele>27.050000000000001</ele>
        <time>2025-05-08T13:30:11Z</time>
      </trkpt>
      <trkpt lat="36.107048001140356" lon="-5.460098963230848">
        <ele>26.57</ele>
        <time>2025-05-08T13:30:21Z</time>
      </trkpt>
      <trkpt lat="36.108093978837132" lon="-5.459220036864281">
        <ele>20.809999999999999</ele>
        <time>2025-05-08T13:30:30Z</time>
      </trkpt>
      <trkpt lat="36.108783977106214" lon="-5.458760038018227">
        <ele>20.32</ele>
        <time>2025-05-08T13:30:37Z</time>
      </trkpt>
      <trkpt lat="36.109454026445746" lon="-5.458321999758482">
        <ele>23.210000000000001</ele>
        <time>2025-05-08T13:30:47Z</time>
      </trkpt>
      <trkpt lat="36.109604984521866" lon="-5.458246981725097">
        <ele>24.170000000000002</ele>
        <time>2025-05-08T13:30:55Z</time>
      </trkpt>
      <trkpt lat="36.109690982848406" lon="-5.458203982561827">
        <ele>25.129999999999999</ele>
        <time>2025-05-08T13:31:24Z</time>
      </trkpt>
      <trkpt lat="36.109818974509835" lon="-5.458140028640628">
        <ele>26.09</ele>
        <time>2025-05-08T13:31:33Z</time>
      </trkpt>
      <trkpt lat="36.109818974509835" lon="-5.458140028640628">
        <ele>26.09</ele>
        <time>2025-05-08T13:31:58Z</time>
      </trkpt>
      <trkpt lat="36.109960963949561" lon="-5.458065010607243">
        <ele>26.09</ele>
        <time>2025-05-08T13:32:10Z</time>
      </trkpt>
      <trkpt lat="36.109960963949561" lon="-5.458065010607243">
        <ele>25.609999999999999</ele>
        <time>2025-05-08T13:32:26Z</time>
      </trkpt>
      <trkpt lat="36.110087027773261" lon="-5.45790902338922">
        <ele>24.170000000000002</ele>
        <time>2025-05-08T13:32:41Z</time>
      </trkpt>
      <trkpt lat="36.110118962824345" lon="-5.457869041711092">
        <ele>23.690000000000001</ele>
        <time>2025-05-08T13:32:50Z</time>
      </trkpt>
      <trkpt lat="36.110212001949549" lon="-5.457795029506087">
        <ele>22.73</ele>
        <time>2025-05-08T13:32:54Z</time>
      </trkpt>
      <trkpt lat="36.110261958092451" lon="-5.457786982879043">
        <ele>22.25</ele>
        <time>2025-05-08T13:32:55Z</time>
      </trkpt>
      <trkpt lat="36.11030101776123" lon="-5.45778002589941">
        <ele>22.25</ele>
        <time>2025-05-08T13:32:56Z</time>
      </trkpt>
      <trkpt lat="36.11030101776123" lon="-5.45778002589941">
        <ele>22.25</ele>
        <time>2025-05-08T13:32:57Z</time>
      </trkpt>
      <trkpt lat="36.110367989167571" lon="-5.457886978983879">
        <ele>22.25</ele>
        <time>2025-05-08T13:32:58Z</time>
      </trkpt>
      <trkpt lat="36.110390033572912" lon="-5.457883039489389">
        <ele>22.25</ele>
        <time>2025-05-08T13:32:59Z</time>
      </trkpt>
      <trkpt lat="36.110390033572912" lon="-5.457883039489389">
        <ele>22.25</ele>
        <time>2025-05-08T13:33:11Z</time>
      </trkpt>
      <trkpt lat="36.110632019117475" lon="-5.457830987870693">
        <ele>22.25</ele>
        <time>2025-05-08T13:33:20Z</time>
      </trkpt>
      <trkpt lat="36.11092303879559" lon="-5.457730991765857">
        <ele>23.210000000000001</ele>
        <time>2025-05-08T13:33:36Z</time>
      </trkpt>
      <trkpt lat="36.110957991331816" lon="-5.457719005644321">
        <ele>23.210000000000001</ele>
        <time>2025-05-08T13:33:51Z</time>
      </trkpt>
      <trkpt lat="36.111278012394905" lon="-5.457600988447666">
        <ele>24.170000000000002</ele>
        <time>2025-05-08T13:34:01Z</time>
      </trkpt>
      <trkpt lat="36.111509017646313" lon="-5.457485988736153">
        <ele>24.170000000000002</ele>
        <time>2025-05-08T13:34:06Z</time>
      </trkpt>
      <trkpt lat="36.111551010981202" lon="-5.457462016493082">
        <ele>23.690000000000001</ele>
        <time>2025-05-08T13:34:07Z</time>
      </trkpt>
      <trkpt lat="36.111596021801233" lon="-5.45743603259325">
        <ele>23.690000000000001</ele>
        <time>2025-05-08T13:34:08Z</time>
      </trkpt>
      <trkpt lat="36.111920988187194" lon="-5.457202009856701">
        <ele>20.32</ele>
        <time>2025-05-08T13:34:18Z</time>
      </trkpt>
      <trkpt lat="36.112030036747456" lon="-5.457098996266723">
        <ele>17.440000000000001</ele>
        <time>2025-05-08T13:34:27Z</time>
      </trkpt>
      <trkpt lat="36.112232962623239" lon="-5.45687897130847">
        <ele>15.52</ele>
        <time>2025-05-08T13:34:42Z</time>
      </trkpt>
      <trkpt lat="36.112332958728075" lon="-5.456716027110815">
        <ele>13.119999999999999</ele>
        <time>2025-05-08T13:34:59Z</time>
      </trkpt>
      <trkpt lat="36.112396996468306" lon="-5.456612007692456">
        <ele>13.119999999999999</ele>
        <time>2025-05-08T13:35:13Z</time>
      </trkpt>
      <trkpt lat="36.112519958987832" lon="-5.456402041018009">
        <ele>12.630000000000001</ele>
        <time>2025-05-08T13:35:25Z</time>
      </trkpt>
      <trkpt lat="36.11262196674943" lon="-5.456229038536549">
        <ele>12.15</ele>
        <time>2025-05-08T13:35:38Z</time>
      </trkpt>
      <trkpt lat="36.112690027803183" lon="-5.456114038825035">
        <ele>12.15</ele>
        <time>2025-05-08T13:35:42Z</time>
      </trkpt>
      <trkpt lat="36.112712994217873" lon="-5.456072967499495">
        <ele>12.15</ele>
        <time>2025-05-08T13:35:43Z</time>
      </trkpt>
      <trkpt lat="36.1125130020082" lon="-5.455768033862114">
        <ele>11.19</ele>
        <time>2025-05-08T13:35:45Z</time>
      </trkpt>
      <trkpt lat="36.112525993958116" lon="-5.455724028870463">
        <ele>10.710000000000001</ele>
        <time>2025-05-08T13:35:46Z</time>
      </trkpt>
      <trkpt lat="36.11253404058516" lon="-5.455694021657109">
        <ele>10.23</ele>
        <time>2025-05-08T13:35:47Z</time>
      </trkpt>
      <trkpt lat="36.112545020878315" lon="-5.455657979473472">
        <ele>9.75</ele>
        <time>2025-05-08T13:35:48Z</time>
      </trkpt>
      <trkpt lat="36.11255700699985" lon="-5.455614980310202">
        <ele>9.75</ele>
        <time>2025-05-08T13:35:49Z</time>
      </trkpt>
      <trkpt lat="36.112586008384824" lon="-5.455507021397352">
        <ele>8.789999999999999</ele>
        <time>2025-05-08T13:35:51Z</time>
      </trkpt>
      <trkpt lat="36.112726991996169" lon="-5.455066971480846">
        <ele>8.789999999999999</ele>
        <time>2025-05-08T13:35:57Z</time>
      </trkpt>
      <trkpt lat="36.112754987552762" lon="-5.454996982589364">
        <ele>9.27</ele>
        <time>2025-05-08T13:35:58Z</time>
      </trkpt>
      <trkpt lat="36.1127910297364" lon="-5.454905033111572">
        <ele>9.27</ele>
        <time>2025-05-08T13:35:59Z</time>
      </trkpt>
      <trkpt lat="36.112846015021205" lon="-5.454867985099554">
        <ele>9.27</ele>
        <time>2025-05-08T13:36:00Z</time>
      </trkpt>
      <trkpt lat="36.112902006134391" lon="-5.454831020906568">
        <ele>9.27</ele>
        <time>2025-05-08T13:36:01Z</time>
      </trkpt>
      <trkpt lat="36.11296403221786" lon="-5.45481501147151">
        <ele>9.27</ele>
        <time>2025-05-08T13:36:02Z</time>
      </trkpt>
      <trkpt lat="36.113014994189143" lon="-5.454810988157988">
        <ele>8.789999999999999</ele>
        <time>2025-05-08T13:36:03Z</time>
      </trkpt>
      <trkpt lat="36.113066039979458" lon="-5.454805959016085">
        <ele>9.27</ele>
        <time>2025-05-08T13:36:04Z</time>
      </trkpt>
      <trkpt lat="36.113120019435883" lon="-5.454801013693214">
        <ele>9.27</ele>
        <time>2025-05-08T13:36:05Z</time>
      </trkpt>
      <trkpt lat="36.113154971972108" lon="-5.454797996208072">
        <ele>9.75</ele>
        <time>2025-05-08T13:36:06Z</time>
      </trkpt>
      <trkpt lat="36.113226972520351" lon="-5.454846024513245">
        <ele>9.75</ele>
        <time>2025-05-08T13:36:07Z</time>
      </trkpt>
      <trkpt lat="36.113278018310666" lon="-5.454879971221089">
        <ele>9.75</ele>
        <time>2025-05-08T13:36:08Z</time>
      </trkpt>
      <trkpt lat="36.113283969461918" lon="-5.454883994534612">
        <ele>10.23</ele>
        <time>2025-05-08T13:36:09Z</time>
      </trkpt>
      <trkpt lat="36.113339038565755" lon="-5.454970998689532">
        <ele>10.23</ele>
        <time>2025-05-08T13:36:10Z</time>
      </trkpt>
      <trkpt lat="36.113380026072264" lon="-5.455034030601382">
        <ele>10.710000000000001</ele>
        <time>2025-05-08T13:36:11Z</time>
      </trkpt>
      <trkpt lat="36.113424031063914" lon="-5.455104019492865">
        <ele>10.710000000000001</ele>
        <time>2025-05-08T13:36:12Z</time>
      </trkpt>
      <trkpt lat="36.11343702301383" lon="-5.455156993120909">
        <ele>11.19</ele>
        <time>2025-05-08T13:36:13Z</time>
      </trkpt>
      <trkpt lat="36.113444985821843" lon="-5.455250032246113">
        <ele>11.19</ele>
        <time>2025-05-08T13:36:14Z</time>
      </trkpt>
      <trkpt lat="36.113454038277268" lon="-5.455352040007711">
        <ele>11.67</ele>
        <time>2025-05-08T13:36:15Z</time>
      </trkpt>
      <trkpt lat="36.113498965278268" lon="-5.455479025840759">
        <ele>11.67</ele>
        <time>2025-05-08T13:36:16Z</time>
      </trkpt>
      <trkpt lat="36.113540958613157" lon="-5.455577010288835">
        <ele>11.67</ele>
        <time>2025-05-08T13:36:17Z</time>
      </trkpt>
      <trkpt lat="36.113584041595459" lon="-5.455678012222052">
        <ele>12.15</ele>
        <time>2025-05-08T13:36:18Z</time>
      </trkpt>
      <trkpt lat="36.113649001345038" lon="-5.455768033862114">
        <ele>12.630000000000001</ele>
        <time>2025-05-08T13:36:19Z</time>
      </trkpt>
      <trkpt lat="36.113711027428508" lon="-5.455854032188654">
        <ele>13.119999999999999</ele>
        <time>2025-05-08T13:36:20Z</time>
      </trkpt>
      <trkpt lat="36.113768024370074" lon="-5.455935001373291">
        <ele>13.6</ele>
        <time>2025-05-08T13:36:21Z</time>
      </trkpt>
      <trkpt lat="36.113820997998118" lon="-5.456009013578296">
        <ele>14.56</ele>
        <time>2025-05-08T13:36:22Z</time>
      </trkpt>
      <trkpt lat="36.113871037960052" lon="-5.456079002469778">
        <ele>15.039999999999999</ele>
        <time>2025-05-08T13:36:23Z</time>
      </trkpt>
      <trkpt lat="36.113923005759716" lon="-5.456152008846402">
        <ele>16</ele>
        <time>2025-05-08T13:36:24Z</time>
      </trkpt>
      <trkpt lat="36.113977991044521" lon="-5.456229038536549">
        <ele>16.960000000000001</ele>
        <time>2025-05-08T13:36:25Z</time>
      </trkpt>
      <trkpt lat="36.114301029592752" lon="-5.457011992111802">
        <ele>23.690000000000001</ele>
        <time>2025-05-08T13:36:34Z</time>
      </trkpt>
      <trkpt lat="36.114542009308934" lon="-5.45743603259325">
        <ele>26.09</ele>
        <time>2025-05-08T13:36:38Z</time>
      </trkpt>
      <trkpt lat="36.114607974886894" lon="-5.457534017041326">
        <ele>26.57</ele>
        <time>2025-05-08T13:36:39Z</time>
      </trkpt>
      <trkpt lat="36.114740995690227" lon="-5.457734009250999">
        <ele>28.5</ele>
        <time>2025-05-08T13:36:41Z</time>
      </trkpt>
      <trkpt lat="36.114797992631793" lon="-5.457826964557171">
        <ele>28.98</ele>
        <time>2025-05-08T13:36:42Z</time>
      </trkpt>
      <trkpt lat="36.114847026765347" lon="-5.457924026995897">
        <ele>29.460000000000001</ele>
        <time>2025-05-08T13:36:43Z</time>
      </trkpt>
      <trkpt lat="36.115382965654135" lon="-5.458848970010877">
        <ele>32.82</ele>
        <time>2025-05-08T13:36:51Z</time>
      </trkpt>
      <trkpt lat="36.116061983630061" lon="-5.459883967414498">
        <ele>39.07</ele>
        <time>2025-05-08T13:36:57Z</time>
      </trkpt>
      <trkpt lat="36.116868993267417" lon="-5.460640015080571">
        <ele>44.359999999999999</ele>
        <time>2025-05-08T13:37:02Z</time>
      </trkpt>
      <trkpt lat="36.117233019322157" lon="-5.460831960663199">
        <ele>46.280000000000001</ele>
        <time>2025-05-08T13:37:04Z</time>
      </trkpt>
      <trkpt lat="36.117420019581914" lon="-5.460906978696585">
        <ele>46.759999999999998</ele>
        <time>2025-05-08T13:37:05Z</time>
      </trkpt>
      <trkpt lat="36.118952985852957" lon="-5.461032036691904">
        <ele>48.200000000000003</ele>
        <time>2025-05-08T13:37:13Z</time>
      </trkpt>
      <trkpt lat="36.121551040560007" lon="-5.460788039490581">
        <ele>39.549999999999997</ele>
        <time>2025-05-08T13:37:27Z</time>
      </trkpt>
      <trkpt lat="36.123539982363582" lon="-5.460857022553682">
        <ele>33.780000000000001</ele>
        <time>2025-05-08T13:37:38Z</time>
      </trkpt>
      <trkpt lat="36.124495016410947" lon="-5.461490023881197">
        <ele>29.940000000000001</ele>
        <time>2025-05-08T13:37:44Z</time>
      </trkpt>
      <trkpt lat="36.125909965485334" lon="-5.46287203207612">
        <ele>24.649999999999999</ele>
        <time>2025-05-08T13:37:54Z</time>
      </trkpt>
      <trkpt lat="36.127132968977094" lon="-5.463386010378599">
        <ele>21.289999999999999</ele>
        <time>2025-05-08T13:38:01Z</time>
      </trkpt>
      <trkpt lat="36.129621975123882" lon="-5.464046001434326">
        <ele>16</ele>
        <time>2025-05-08T13:38:15Z</time>
      </trkpt>
      <trkpt lat="36.131471022963524" lon="-5.464243981987238">
        <ele>13.6</ele>
        <time>2025-05-08T13:38:26Z</time>
      </trkpt>
      <trkpt lat="36.13180504180491" lon="-5.464123031124473">
        <ele>13.6</ele>
        <time>2025-05-08T13:38:28Z</time>
      </trkpt>
      <trkpt lat="36.131969997659326" lon="-5.464049018919468">
        <ele>13.6</ele>
        <time>2025-05-08T13:38:29Z</time>
      </trkpt>
      <trkpt lat="36.132131014019251" lon="-5.463976012542844">
        <ele>13.119999999999999</ele>
        <time>2025-05-08T13:38:30Z</time>
      </trkpt>
      <trkpt lat="36.13228197209537" lon="-5.463886996731162">
        <ele>12.630000000000001</ele>
        <time>2025-05-08T13:38:31Z</time>
      </trkpt>
      <trkpt lat="36.132434019818902" lon="-5.463790018111467">
        <ele>12.15</ele>
        <time>2025-05-08T13:38:32Z</time>
      </trkpt>
      <trkpt lat="36.132576009258628" lon="-5.463676024228334">
        <ele>11.67</ele>
        <time>2025-05-08T13:38:33Z</time>
      </trkpt>
      <trkpt lat="36.133693987503648" lon="-5.46237800270319">
        <ele>13.119999999999999</ele>
        <time>2025-05-08T13:38:42Z</time>
      </trkpt>
      <trkpt lat="36.135197030380368" lon="-5.460712015628815">
        <ele>21.77</ele>
        <time>2025-05-08T13:38:53Z</time>
      </trkpt>
      <trkpt lat="36.136472001671791" lon="-5.460069961845875">
        <ele>28.5</ele>
        <time>2025-05-08T13:39:01Z</time>
      </trkpt>
      <trkpt lat="36.137873958796263" lon="-5.45999201014638">
        <ele>32.340000000000003</ele>
        <time>2025-05-08T13:39:09Z</time>
      </trkpt>
      <trkpt lat="36.138951033353806" lon="-5.46020801179111">
        <ele>32.82</ele>
        <time>2025-05-08T13:39:15Z</time>
      </trkpt>
      <trkpt lat="36.141107026487589" lon="-5.460502970963717">
        <ele>32.82</ele>
        <time>2025-05-08T13:39:28Z</time>
      </trkpt>
      <trkpt lat="36.142041021957994" lon="-5.460071973502636">
        <ele>34.259999999999998</ele>
        <time>2025-05-08T13:39:34Z</time>
      </trkpt>
      <trkpt lat="36.142189968377352" lon="-5.459967032074928">
        <ele>34.259999999999998</ele>
        <time>2025-05-08T13:39:35Z</time>
      </trkpt>
      <trkpt lat="36.142312008887529" lon="-5.459828982129693">
        <ele>34.259999999999998</ele>
        <time>2025-05-08T13:39:36Z</time>
      </trkpt>
      <trkpt lat="36.142436983063817" lon="-5.459687998518348">
        <ele>33.780000000000001</ele>
        <time>2025-05-08T13:39:37Z</time>
      </trkpt>
      <trkpt lat="36.142560029402375" lon="-5.459538968279958">
        <ele>33.299999999999997</ele>
        <time>2025-05-08T13:39:38Z</time>
      </trkpt>
      <trkpt lat="36.142666982486844" lon="-5.459378035739064">
        <ele>32.82</ele>
        <time>2025-05-08T13:39:39Z</time>
      </trkpt>
      <trkpt lat="36.142775025218725" lon="-5.459216013550758">
        <ele>31.859999999999999</ele>
        <time>2025-05-08T13:39:40Z</time>
      </trkpt>
      <trkpt lat="36.142865968868136" lon="-5.459029013291001">
        <ele>31.379999999999999</ele>
        <time>2025-05-08T13:39:41Z</time>
      </trkpt>
      <trkpt lat="36.142951967194676" lon="-5.458841007202864">
        <ele>29.940000000000001</ele>
        <time>2025-05-08T13:39:42Z</time>
      </trkpt>
      <trkpt lat="36.143037965521216" lon="-5.458655012771487">
        <ele>28.5</ele>
        <time>2025-05-08T13:39:43Z</time>
      </trkpt>
      <trkpt lat="36.143116001039743" lon="-5.458461977541447">
        <ele>27.530000000000001</ele>
        <time>2025-05-08T13:39:44Z</time>
      </trkpt>
      <trkpt lat="36.143842963501811" lon="-5.45653598383069">
        <ele>20.809999999999999</ele>
        <time>2025-05-08T13:39:54Z</time>
      </trkpt>
      <trkpt lat="36.144474959000945" lon="-5.454762959852815">
        <ele>20.809999999999999</ele>
        <time>2025-05-08T13:40:04Z</time>
      </trkpt>
      <trkpt lat="36.144816018640995" lon="-5.454123001545668">
        <ele>22.73</ele>
        <time>2025-05-08T13:40:09Z</time>
      </trkpt>
      <trkpt lat="36.14489103667438" lon="-5.454014036804438">
        <ele>23.210000000000001</ele>
        <time>2025-05-08T13:40:10Z</time>
      </trkpt>
      <trkpt lat="36.14497703500092" lon="-5.453917980194092">
        <ele>23.690000000000001</ele>
        <time>2025-05-08T13:40:11Z</time>
      </trkpt>
      <trkpt lat="36.145068984478712" lon="-5.453827036544681">
        <ele>24.170000000000002</ele>
        <time>2025-05-08T13:40:12Z</time>
      </trkpt>
      <trkpt lat="36.145169986411929" lon="-5.453746989369392">
        <ele>24.170000000000002</ele>
        <time>2025-05-08T13:40:13Z</time>
      </trkpt>
      <trkpt lat="36.145378025248647" lon="-5.453608017414808">
        <ele>25.129999999999999</ele>
        <time>2025-05-08T13:40:15Z</time>
      </trkpt>
      <trkpt lat="36.14549302496016" lon="-5.453558983281255">
        <ele>25.129999999999999</ele>
        <time>2025-05-08T13:40:16Z</time>
      </trkpt>
      <trkpt lat="36.145610036328435" lon="-5.453530987724662">
        <ele>25.609999999999999</ele>
        <time>2025-05-08T13:40:17Z</time>
      </trkpt>
      <trkpt lat="36.14572998136282" lon="-5.453501986339688">
        <ele>25.609999999999999</ele>
        <time>2025-05-08T13:40:18Z</time>
      </trkpt>
      <trkpt lat="36.145850010216236" lon="-5.453472984954715">
        <ele>26.09</ele>
        <time>2025-05-08T13:40:19Z</time>
      </trkpt>
      <trkpt lat="36.145971966907382" lon="-5.453445995226502">
        <ele>26.09</ele>
        <time>2025-05-08T13:40:20Z</time>
      </trkpt>
      <trkpt lat="36.146089984104037" lon="-5.453451024368405">
        <ele>26.57</ele>
        <time>2025-05-08T13:40:21Z</time>
      </trkpt>
      <trkpt lat="36.146199032664299" lon="-5.453464016318321">
        <ele>26.57</ele>
        <time>2025-05-08T13:40:22Z</time>
      </trkpt>
      <trkpt lat="36.146399024873972" lon="-5.453507015481591">
        <ele>26.57</ele>
        <time>2025-05-08T13:40:24Z</time>
      </trkpt>
      <trkpt lat="36.146494997665286" lon="-5.45352797023952">
        <ele>26.57</ele>
        <time>2025-05-08T13:40:25Z</time>
      </trkpt>
      <trkpt lat="36.146607985720038" lon="-5.453553032130003">
        <ele>26.57</ele>
        <time>2025-05-08T13:40:26Z</time>
      </trkpt>
      <trkpt lat="36.146966982632875" lon="-5.453744977712631">
        <ele>27.530000000000001</ele>
        <time>2025-05-08T13:40:33Z</time>
      </trkpt>
      <trkpt lat="36.147030014544725" lon="-5.453778002411127">
        <ele>27.530000000000001</ele>
        <time>2025-05-08T13:40:41Z</time>
      </trkpt>
      <trkpt lat="36.14714602008462" lon="-5.453840028494597">
        <ele>27.530000000000001</ele>
        <time>2025-05-08T13:40:54Z</time>
      </trkpt>
      <trkpt lat="36.14714602008462" lon="-5.453840028494597">
        <ele>28.02</ele>
        <time>2025-05-08T13:41:06Z</time>
      </trkpt>
      <trkpt lat="36.147308964282274" lon="-5.453927032649517">
        <ele>28.02</ele>
        <time>2025-05-08T13:41:35Z</time>
      </trkpt>
      <trkpt lat="36.147897038608789" lon="-5.454241018742323">
        <ele>25.129999999999999</ele>
        <time>2025-05-08T13:41:44Z</time>
      </trkpt>
      <trkpt lat="36.148104993626475" lon="-5.454345038160682">
        <ele>24.170000000000002</ele>
        <time>2025-05-08T13:41:46Z</time>
      </trkpt>
      <trkpt lat="36.148214964196086" lon="-5.454402035102248">
        <ele>24.170000000000002</ele>
        <time>2025-05-08T13:41:47Z</time>
      </trkpt>
      <trkpt lat="36.148322001099586" lon="-5.454458026215434">
        <ele>23.690000000000001</ele>
        <time>2025-05-08T13:41:48Z</time>
      </trkpt>
      <trkpt lat="36.148420991376042" lon="-5.454509994015098">
        <ele>23.210000000000001</ele>
        <time>2025-05-08T13:41:49Z</time>
      </trkpt>
      <trkpt lat="36.148525010794401" lon="-5.454563973471522">
        <ele>23.210000000000001</ele>
        <time>2025-05-08T13:41:50Z</time>
      </trkpt>
      <trkpt lat="36.149569982662797" lon="-5.454797996208072">
        <ele>22.73</ele>
        <time>2025-05-08T13:41:59Z</time>
      </trkpt>
      <trkpt lat="36.150827016681433" lon="-5.454760026186705">
        <ele>23.210000000000001</ele>
        <time>2025-05-08T13:42:09Z</time>
      </trkpt>
      <trkpt lat="36.152154039591551" lon="-5.454698000103235">
        <ele>24.649999999999999</ele>
        <time>2025-05-08T13:42:20Z</time>
      </trkpt>
      <trkpt lat="36.153971990570426" lon="-5.454639997333288">
        <ele>19.359999999999999</ele>
        <time>2025-05-08T13:42:35Z</time>
      </trkpt>
      <trkpt lat="36.154671963304281" lon="-5.454627005383372">
        <ele>16.960000000000001</ele>
        <time>2025-05-08T13:42:43Z</time>
      </trkpt>
      <trkpt lat="36.154797021299601" lon="-5.454642008990049">
        <ele>16</ele>
        <time>2025-05-08T13:42:52Z</time>
      </trkpt>
      <trkpt lat="36.155060967430472" lon="-5.454682996496558">
        <ele>15.039999999999999</ele>
        <time>2025-05-08T13:43:09Z</time>
      </trkpt>
      <trkpt lat="36.155745014548302" lon="-5.455003017559648">
        <ele>14.56</ele>
        <time>2025-05-08T13:43:16Z</time>
      </trkpt>
      <trkpt lat="36.156315989792347" lon="-5.455540968105197">
        <ele>15.52</ele>
        <time>2025-05-08T13:43:22Z</time>
      </trkpt>
      <trkpt lat="36.156412968412042" lon="-5.455635013058782">
        <ele>15.52</ele>
        <time>2025-05-08T13:43:23Z</time>
      </trkpt>
      <trkpt lat="36.157346041873097" lon="-5.456782998517156">
        <ele>12.630000000000001</ele>
        <time>2025-05-08T13:43:33Z</time>
      </trkpt>
      <trkpt lat="36.158353965729475" lon="-5.458056963980198">
        <ele>6.87</ele>
        <time>2025-05-08T13:43:43Z</time>
      </trkpt>
      <trkpt lat="36.159542016685009" lon="-5.459091039374471">
        <ele>1.58</ele>
        <time>2025-05-08T13:43:52Z</time>
      </trkpt>
      <trkpt lat="36.160768959671259" lon="-5.459561012685299">
        <ele>-0.34</ele>
        <time>2025-05-08T13:44:00Z</time>
      </trkpt>
      <trkpt lat="36.162032028660178" lon="-5.459394967183471">
        <ele>-4.19</ele>
        <time>2025-05-08T13:44:08Z</time>
      </trkpt>
      <trkpt lat="36.163813015446067" lon="-5.45874604023993">
        <ele>-6.11</ele>
        <time>2025-05-08T13:44:20Z</time>
      </trkpt>
      <trkpt lat="36.16491599008441" lon="-5.458298027515411">
        <ele>-8.029999999999999</ele>
        <time>2025-05-08T13:44:27Z</time>
      </trkpt>
      <trkpt lat="36.166693959385157" lon="-5.457420023158193">
        <ele>-10.92</ele>
        <time>2025-05-08T13:44:37Z</time>
      </trkpt>
      <trkpt lat="36.168788010254502" lon="-5.456720972433686">
        <ele>-11.880000000000001</ele>
        <time>2025-05-08T13:44:48Z</time>
      </trkpt>
      <trkpt lat="36.170794973149896" lon="-5.456177992746234">
        <ele>-11.4</ele>
        <time>2025-05-08T13:44:58Z</time>
      </trkpt>
      <trkpt lat="36.172941997647285" lon="-5.455375006422401">
        <ele>-14.279999999999999</ele>
        <time>2025-05-08T13:45:09Z</time>
      </trkpt>
      <trkpt lat="36.174844019114971" lon="-5.454398011788726">
        <ele>-13.800000000000001</ele>
        <time>2025-05-08T13:45:20Z</time>
      </trkpt>
      <trkpt lat="36.175851020962" lon="-5.453114993870258">
        <ele>-11.880000000000001</ele>
        <time>2025-05-08T13:45:28Z</time>
      </trkpt>
      <trkpt lat="36.17759102024138" lon="-5.450165988877416">
        <ele>-13.800000000000001</ele>
        <time>2025-05-08T13:45:44Z</time>
      </trkpt>
      <trkpt lat="36.179286008700728" lon="-5.447337012737989">
        <ele>-14.279999999999999</ele>
        <time>2025-05-08T13:45:59Z</time>
      </trkpt>
      <trkpt lat="36.180806988850236" lon="-5.444860998541117">
        <ele>-13.800000000000001</ele>
        <time>2025-05-08T13:46:12Z</time>
      </trkpt>
      <trkpt lat="36.18281596340239" lon="-5.441549979150295">
        <ele>-13.800000000000001</ele>
        <time>2025-05-08T13:46:29Z</time>
      </trkpt>
      <trkpt lat="36.184195959940553" lon="-5.439483001828194">
        <ele>-12.84</ele>
        <time>2025-05-08T13:46:40Z</time>
      </trkpt>
      <trkpt lat="36.184336021542549" lon="-5.439328020438552">
        <ele>-12.84</ele>
        <time>2025-05-08T13:46:41Z</time>
      </trkpt>
      <trkpt lat="36.185783995315433" lon="-5.438018012791872">
        <ele>-11.880000000000001</ele>
        <time>2025-05-08T13:46:50Z</time>
      </trkpt>
      <trkpt lat="36.187923979014158" lon="-5.436121020466089">
        <ele>-9.960000000000001</ele>
        <time>2025-05-08T13:47:03Z</time>
      </trkpt>
      <trkpt lat="36.189762968569994" lon="-5.434481017291546">
        <ele>-11.4</ele>
        <time>2025-05-08T13:47:13Z</time>
      </trkpt>
      <trkpt lat="36.191830029711127" lon="-5.432653008028865">
        <ele>-9.48</ele>
        <time>2025-05-08T13:47:25Z</time>
      </trkpt>
      <trkpt lat="36.193913016468287" lon="-5.430894987657666">
        <ele>-8.51</ele>
        <time>2025-05-08T13:47:37Z</time>
      </trkpt>
      <trkpt lat="36.196001032367349" lon="-5.429307958111167">
        <ele>-6.59</ele>
        <time>2025-05-08T13:47:49Z</time>
      </trkpt>
      <trkpt lat="36.198836965486407" lon="-5.427047023549676">
        <ele>-8.029999999999999</ele>
        <time>2025-05-08T13:48:05Z</time>
      </trkpt>
      <trkpt lat="36.200585011392832" lon="-5.425307024270296">
        <ele>-7.07</ele>
        <time>2025-05-08T13:48:16Z</time>
      </trkpt>
      <trkpt lat="36.2025379948318" lon="-5.42321196757257">
        <ele>-9</ele>
        <time>2025-05-08T13:48:29Z</time>
      </trkpt>
      <trkpt lat="36.202809987589717" lon="-5.422873003408313">
        <ele>-9.48</ele>
        <time>2025-05-08T13:48:31Z</time>
      </trkpt>
      <trkpt lat="36.202926998957992" lon="-5.422677034512162">
        <ele>-9.48</ele>
        <time>2025-05-08T13:48:32Z</time>
      </trkpt>
      <trkpt lat="36.203040992841125" lon="-5.422478970140219">
        <ele>-9.960000000000001</ele>
        <time>2025-05-08T13:48:33Z</time>
      </trkpt>
      <trkpt lat="36.203530998900533" lon="-5.42086897417903">
        <ele>-10.92</ele>
        <time>2025-05-08T13:48:40Z</time>
      </trkpt>
      <trkpt lat="36.203754963353276" lon="-5.418665958568454">
        <ele>-10.92</ele>
        <time>2025-05-08T13:48:49Z</time>
      </trkpt>
      <trkpt lat="36.203808020800352" lon="-5.418435037136078">
        <ele>-10.92</ele>
        <time>2025-05-08T13:48:50Z</time>
      </trkpt>
      <trkpt lat="36.203859988600016" lon="-5.41820302605629">
        <ele>-10.44</ele>
        <time>2025-05-08T13:48:51Z</time>
      </trkpt>
      <trkpt lat="36.20391296222806" lon="-5.417972020804882">
        <ele>-10.44</ele>
        <time>2025-05-08T13:48:52Z</time>
      </trkpt>
      <trkpt lat="36.20399703271687" lon="-5.417758030816913">
        <ele>-10.44</ele>
        <time>2025-05-08T13:48:53Z</time>
      </trkpt>
      <trkpt lat="36.204087976366282" lon="-5.417544040828943">
        <ele>-9.960000000000001</ele>
        <time>2025-05-08T13:48:54Z</time>
      </trkpt>
      <trkpt lat="36.20483698323369" lon="-5.416083997115493">
        <ele>-10.44</ele>
        <time>2025-05-08T13:49:02Z</time>
      </trkpt>
      <trkpt lat="36.20556796900928" lon="-5.414290018379688">
        <ele>-11.4</ele>
        <time>2025-05-08T13:49:12Z</time>
      </trkpt>
      <trkpt lat="36.206482015550137" lon="-5.411576963961124">
        <ele>-11.880000000000001</ele>
        <time>2025-05-08T13:49:25Z</time>
      </trkpt>
      <trkpt lat="36.207020971924067" lon="-5.409187031909823">
        <ele>-12.84</ele>
        <time>2025-05-08T13:49:36Z</time>
      </trkpt>
      <trkpt lat="36.207490023225546" lon="-5.406515970826149">
        <ele>-13.32</ele>
        <time>2025-05-08T13:49:48Z</time>
      </trkpt>
      <trkpt lat="36.207762015983462" lon="-5.404555024579167">
        <ele>-10.92</ele>
        <time>2025-05-08T13:49:57Z</time>
      </trkpt>
      <trkpt lat="36.207772996276617" lon="-5.404343968257308">
        <ele>-10.44</ele>
        <time>2025-05-08T13:49:58Z</time>
      </trkpt>
      <trkpt lat="36.207639975473285" lon="-5.402243966236711">
        <ele>-7.07</ele>
        <time>2025-05-08T13:50:08Z</time>
      </trkpt>
      <trkpt lat="36.207620026543736" lon="-5.402020001783967">
        <ele>-6.59</ele>
        <time>2025-05-08T13:50:09Z</time>
      </trkpt>
      <trkpt lat="36.207376029342413" lon="-5.399593021720648">
        <ele>-7.07</ele>
        <time>2025-05-08T13:50:19Z</time>
      </trkpt>
      <trkpt lat="36.207077968865633" lon="-5.396585008129478">
        <ele>-1.3</ele>
        <time>2025-05-08T13:50:32Z</time>
      </trkpt>
      <trkpt lat="36.206983001902699" lon="-5.393814034759998">
        <ele>10.23</ele>
        <time>2025-05-08T13:50:44Z</time>
      </trkpt>
      <trkpt lat="36.20743696577847" lon="-5.390602005645633">
        <ele>24.649999999999999</ele>
        <time>2025-05-08T13:50:58Z</time>
      </trkpt>
      <trkpt lat="36.207461021840572" lon="-5.388388009741902">
        <ele>32.82</ele>
        <time>2025-05-08T13:51:08Z</time>
      </trkpt>
      <trkpt lat="36.207203026860952" lon="-5.387423001229763">
        <ele>38.109999999999999</ele>
        <time>2025-05-08T13:51:13Z</time>
      </trkpt>
      <trkpt lat="36.207048967480659" lon="-5.387108009308577">
        <ele>40.030000000000001</ele>
        <time>2025-05-08T13:51:15Z</time>
      </trkpt>
      <trkpt lat="36.205938030034304" lon="-5.385394999757409">
        <ele>49.159999999999997</ele>
        <time>2025-05-08T13:51:27Z</time>
      </trkpt>
      <trkpt lat="36.205833004787564" lon="-5.38526801392436">
        <ele>49.649999999999999</ele>
        <time>2025-05-08T13:51:28Z</time>
      </trkpt>
      <trkpt lat="36.204870007932186" lon="-5.384640041738749">
        <ele>51.090000000000003</ele>
        <time>2025-05-08T13:51:35Z</time>
      </trkpt>
      <trkpt lat="36.203524963930249" lon="-5.38406596519053">
        <ele>50.130000000000003</ele>
        <time>2025-05-08T13:51:44Z</time>
      </trkpt>
      <trkpt lat="36.201476007699966" lon="-5.383488032966852">
        <ele>39.07</ele>
        <time>2025-05-08T13:51:56Z</time>
      </trkpt>
      <trkpt lat="36.198621969670057" lon="-5.382711030542851">
        <ele>20.32</ele>
        <time>2025-05-08T13:52:11Z</time>
      </trkpt>
      <trkpt lat="36.197484964504838" lon="-5.382708013057709">
        <ele>12.630000000000001</ele>
        <time>2025-05-08T13:52:17Z</time>
      </trkpt>
      <trkpt lat="36.197300981730223" lon="-5.382756041362882">
        <ele>11.19</ele>
        <time>2025-05-08T13:52:18Z</time>
      </trkpt>
      <trkpt lat="36.195383034646511" lon="-5.383612001314759">
        <ele>5.42</ele>
        <time>2025-05-08T13:52:29Z</time>
      </trkpt>
      <trkpt lat="36.193183036521077" lon="-5.384564017876983">
        <ele>0.14</ele>
        <time>2025-05-08T13:52:41Z</time>
      </trkpt>
      <trkpt lat="36.191907981410623" lon="-5.385065004229546">
        <ele>-1.3</ele>
        <time>2025-05-08T13:52:49Z</time>
      </trkpt>
      <trkpt lat="36.191691979765892" lon="-5.385209005326033">
        <ele>-1.3</ele>
        <time>2025-05-08T13:52:51Z</time>
      </trkpt>
      <trkpt lat="36.191598018631339" lon="-5.385282011702657">
        <ele>-1.79</ele>
        <time>2025-05-08T13:52:52Z</time>
      </trkpt>
      <trkpt lat="36.191515037789941" lon="-5.385363986715674">
        <ele>-1.79</ele>
        <time>2025-05-08T13:52:53Z</time>
      </trkpt>
      <trkpt lat="36.191398026421666" lon="-5.385436993092299">
        <ele>-1.79</ele>
        <time>2025-05-08T13:52:54Z</time>
      </trkpt>
      <trkpt lat="36.191295012831688" lon="-5.385406985878944">
        <ele>-1.79</ele>
        <time>2025-05-08T13:52:55Z</time>
      </trkpt>
      <trkpt lat="36.191190993413329" lon="-5.385436993092299">
        <ele>-1.79</ele>
        <time>2025-05-08T13:52:56Z</time>
      </trkpt>
      <trkpt lat="36.191074987873435" lon="-5.385478986427188">
        <ele>-1.79</ele>
        <time>2025-05-08T13:52:57Z</time>
      </trkpt>
      <trkpt lat="36.190945990383625" lon="-5.38552600890398">
        <ele>-1.79</ele>
        <time>2025-05-08T13:52:58Z</time>
      </trkpt>
      <trkpt lat="36.190809030085802" lon="-5.385575965046883">
        <ele>-1.79</ele>
        <time>2025-05-08T13:52:59Z</time>
      </trkpt>
      <trkpt lat="36.189833963289857" lon="-5.385908978059888">
        <ele>-2.75</ele>
        <time>2025-05-08T13:53:05Z</time>
      </trkpt>
      <trkpt lat="36.189657021313906" lon="-5.385949965566397">
        <ele>-3.23</ele>
        <time>2025-05-08T13:53:06Z</time>
      </trkpt>
      <trkpt lat="36.189476978033781" lon="-5.38597603328526">
        <ele>-3.23</ele>
        <time>2025-05-08T13:53:07Z</time>
      </trkpt>
      <trkpt lat="36.18930003605783" lon="-5.385966980829835">
        <ele>-3.23</ele>
        <time>2025-05-08T13:53:08Z</time>
      </trkpt>
      <trkpt lat="36.189122004434466" lon="-5.385945020243526">
        <ele>-3.23</ele>
        <time>2025-05-08T13:53:09Z</time>
      </trkpt>
      <trkpt lat="36.188947996124625" lon="-5.385923981666565">
        <ele>-3.23</ele>
        <time>2025-05-08T13:53:10Z</time>
      </trkpt>
      <trkpt lat="36.188783962279558" lon="-5.385862961411476">
        <ele>-3.23</ele>
        <time>2025-05-08T13:53:11Z</time>
      </trkpt>
      <trkpt lat="36.188623029738665" lon="-5.385786015540361">
        <ele>-2.75</ele>
        <time>2025-05-08T13:53:12Z</time>
      </trkpt>
      <trkpt lat="36.188461007550359" lon="-5.385708985850215">
        <ele>-3.23</ele>
        <time>2025-05-08T13:53:13Z</time>
      </trkpt>
      <trkpt lat="36.18831398896873" lon="-5.385607983916998">
        <ele>-3.23</ele>
        <time>2025-05-08T13:53:14Z</time>
      </trkpt>
      <trkpt lat="36.188168982043862" lon="-5.385491978377104">
        <ele>-3.23</ele>
        <time>2025-05-08T13:53:15Z</time>
      </trkpt>
      <trkpt lat="36.188023975118995" lon="-5.38537597283721">
        <ele>-3.71</ele>
        <time>2025-05-08T13:53:16Z</time>
      </trkpt>
      <trkpt lat="36.185855995863676" lon="-5.383440004661679">
        <ele>-8.51</ele>
        <time>2025-05-08T13:53:31Z</time>
      </trkpt>
      <trkpt lat="36.184263015165925" lon="-5.382129997014999">
        <ele>-10.44</ele>
        <time>2025-05-08T13:53:43Z</time>
      </trkpt>
      <trkpt lat="36.183051997795701" lon="-5.381418038159609">
        <ele>-9.48</ele>
        <time>2025-05-08T13:53:52Z</time>
      </trkpt>
      <trkpt lat="36.182503988966346" lon="-5.381176974624395">
        <ele>-8.51</ele>
        <time>2025-05-08T13:53:58Z</time>
      </trkpt>
      <trkpt lat="36.182263009250164" lon="-5.381215028464794">
        <ele>-8.029999999999999</ele>
        <time>2025-05-08T13:54:01Z</time>
      </trkpt>
      <trkpt lat="36.182196037843823" lon="-5.381172029301524">
        <ele>-7.55</ele>
        <time>2025-05-08T13:54:02Z</time>
      </trkpt>
      <trkpt lat="36.182124959304929" lon="-5.381127018481493">
        <ele>-7.55</ele>
        <time>2025-05-08T13:54:03Z</time>
      </trkpt>
      <trkpt lat="36.182052958756685" lon="-5.381081001833081">
        <ele>-7.55</ele>
        <time>2025-05-08T13:54:04Z</time>
      </trkpt>
      <trkpt lat="36.181996967643499" lon="-5.380987040698528">
        <ele>-7.55</ele>
        <time>2025-05-08T13:54:05Z</time>
      </trkpt>
      <trkpt lat="36.18195497430861" lon="-5.380894001573324">
        <ele>-7.55</ele>
        <time>2025-05-08T13:54:06Z</time>
      </trkpt>
      <trkpt lat="36.181886997073889" lon="-5.380805991590023">
        <ele>-7.55</ele>
        <time>2025-05-08T13:54:07Z</time>
      </trkpt>
      <trkpt lat="36.181795969605446" lon="-5.380743965506554">
        <ele>-7.07</ele>
        <time>2025-05-08T13:54:08Z</time>
      </trkpt>
      <trkpt lat="36.18169697932899" lon="-5.380675988271833">
        <ele>-7.07</ele>
        <time>2025-05-08T13:54:09Z</time>
      </trkpt>
      <trkpt lat="36.180727025493979" lon="-5.380052961409092">
        <ele>-5.15</ele>
        <time>2025-05-08T13:54:19Z</time>
      </trkpt>
      <trkpt lat="36.179653974249959" lon="-5.379260033369064">
        <ele>-0.34</ele>
        <time>2025-05-08T13:54:30Z</time>
      </trkpt>
      <trkpt lat="36.179475020617247" lon="-5.379089964553714">
        <ele>0.62</ele>
        <time>2025-05-08T13:54:32Z</time>
      </trkpt>
      <trkpt lat="36.179395979270339" lon="-5.379010001197457">
        <ele>1.1</ele>
        <time>2025-05-08T13:54:33Z</time>
      </trkpt>
      <trkpt lat="36.179321967065334" lon="-5.378936994820833">
        <ele>1.58</ele>
        <time>2025-05-08T13:54:34Z</time>
      </trkpt>
      <trkpt lat="36.179190035909414" lon="-5.378814032301307">
        <ele>2.06</ele>
        <time>2025-05-08T13:54:36Z</time>
      </trkpt>
      <trkpt lat="36.178529961034656" lon="-5.378159992396832">
        <ele>5.42</ele>
        <time>2025-05-08T13:54:47Z</time>
      </trkpt>
      <trkpt lat="36.178458966314793" lon="-5.378104001283646">
        <ele>5.91</ele>
        <time>2025-05-08T13:54:48Z</time>
      </trkpt>
      <trkpt lat="36.178100975230336" lon="-5.377759002149105">
        <ele>6.39</ele>
        <time>2025-05-08T13:54:53Z</time>
      </trkpt>
      <trkpt lat="36.178041966632009" lon="-5.377674009650946">
        <ele>6.39</ele>
        <time>2025-05-08T13:54:54Z</time>
      </trkpt>
      <trkpt lat="36.177489012479782" lon="-5.376710006967187">
        <ele>5.42</ele>
        <time>2025-05-08T13:55:05Z</time>
      </trkpt>
      <trkpt lat="36.177340988069773" lon="-5.376474978402257">
        <ele>5.42</ele>
        <time>2025-05-08T13:55:08Z</time>
      </trkpt>
      <trkpt lat="36.177172008901834" lon="-5.376252019777894">
        <ele>5.91</ele>
        <time>2025-05-08T13:55:11Z</time>
      </trkpt>
      <trkpt lat="36.177109982818365" lon="-5.376182030886412">
        <ele>6.39</ele>
        <time>2025-05-08T13:55:12Z</time>
      </trkpt>
      <trkpt lat="36.176688959822059" lon="-5.375703005120158">
        <ele>8.789999999999999</ele>
        <time>2025-05-08T13:55:18Z</time>
      </trkpt>
      <trkpt lat="36.175760999321938" lon="-5.374595001339912">
        <ele>9.75</ele>
        <time>2025-05-08T13:55:30Z</time>
      </trkpt>
      <trkpt lat="36.17567902430892" lon="-5.37450397387147">
        <ele>9.75</ele>
        <time>2025-05-08T13:55:31Z</time>
      </trkpt>
      <trkpt lat="36.17540099658072" lon="-5.374280009418726">
        <ele>10.23</ele>
        <time>2025-05-08T13:55:34Z</time>
      </trkpt>
      <trkpt lat="36.174447974190116" lon="-5.37362102419138">
        <ele>9.27</ele>
        <time>2025-05-08T13:55:45Z</time>
      </trkpt>
      <trkpt lat="36.173428986221552" lon="-5.372835975140333">
        <ele>7.83</ele>
        <time>2025-05-08T13:55:57Z</time>
      </trkpt>
      <trkpt lat="36.173032019287348" lon="-5.37250597961247">
        <ele>6.87</ele>
        <time>2025-05-08T13:56:04Z</time>
      </trkpt>
      <trkpt lat="36.173032019287348" lon="-5.37250597961247">
        <ele>6.87</ele>
        <time>2025-05-08T13:56:15Z</time>
      </trkpt>
      <trkpt lat="36.172900004312396" lon="-5.372399026528001">
        <ele>6.87</ele>
        <time>2025-05-08T13:56:52Z</time>
      </trkpt>
      <trkpt lat="36.172164995223284" lon="-5.371768958866596">
        <ele>4.46</ele>
        <time>2025-05-08T13:57:02Z</time>
      </trkpt>
      <trkpt lat="36.171027990058064" lon="-5.37113101221621">
        <ele>3.02</ele>
        <time>2025-05-08T13:57:13Z</time>
      </trkpt>
      <trkpt lat="36.170916007831693" lon="-5.371086001396179">
        <ele>3.02</ele>
        <time>2025-05-08T13:57:14Z</time>
      </trkpt>
      <trkpt lat="36.170078990980983" lon="-5.370775032788515">
        <ele>3.02</ele>
        <time>2025-05-08T13:57:21Z</time>
      </trkpt>
      <trkpt lat="36.169962985441089" lon="-5.370696997269988">
        <ele>3.02</ele>
        <time>2025-05-08T13:57:22Z</time>
      </trkpt>
      <trkpt lat="36.169845974072814" lon="-5.370618961751461">
        <ele>3.02</ele>
        <time>2025-05-08T13:57:23Z</time>
      </trkpt>
      <trkpt lat="36.168851964175701" lon="-5.369635010138154">
        <ele>3.5</ele>
        <time>2025-05-08T13:57:33Z</time>
      </trkpt>
      <trkpt lat="36.168785998597741" lon="-5.369524033740163">
        <ele>3.5</ele>
        <time>2025-05-08T13:57:34Z</time>
      </trkpt>
      <trkpt lat="36.168560022488236" lon="-5.369103010743856">
        <ele>3.02</ele>
        <time>2025-05-08T13:57:38Z</time>
      </trkpt>
      <trkpt lat="36.168496990576386" lon="-5.369012989103794">
        <ele>2.54</ele>
        <time>2025-05-08T13:57:39Z</time>
      </trkpt>
      <trkpt lat="36.168436976149678" lon="-5.368951968848705">
        <ele>2.54</ele>
        <time>2025-05-08T13:57:40Z</time>
      </trkpt>
      <trkpt lat="36.168378973379731" lon="-5.368894971907139">
        <ele>2.54</ele>
        <time>2025-05-08T13:57:41Z</time>
      </trkpt>
      <trkpt lat="36.168325999751687" lon="-5.368840992450714">
        <ele>2.06</ele>
        <time>2025-05-08T13:57:42Z</time>
      </trkpt>
      <trkpt lat="36.168275037780404" lon="-5.368791036307812">
        <ele>2.06</ele>
        <time>2025-05-08T13:57:43Z</time>
      </trkpt>
      <trkpt lat="36.168226003646851" lon="-5.368748037144542">
        <ele>1.58</ele>
        <time>2025-05-08T13:57:44Z</time>
      </trkpt>
      <trkpt lat="36.168177975341678" lon="-5.368709983304143">
        <ele>1.58</ele>
        <time>2025-05-08T13:57:45Z</time>
      </trkpt>
      <trkpt lat="36.168142016977072" lon="-5.368648041039705">
        <ele>1.1</ele>
        <time>2025-05-08T13:57:46Z</time>
      </trkpt>
      <trkpt lat="36.168127013370395" lon="-5.368576962500811">
        <ele>0.14</ele>
        <time>2025-05-08T13:57:47Z</time>
      </trkpt>
      <trkpt lat="36.168107986450195" lon="-5.368494987487793">
        <ele>-0.34</ele>
        <time>2025-05-08T13:57:48Z</time>
      </trkpt>
      <trkpt lat="36.168107986450195" lon="-5.368418963626027">
        <ele>-0.82</ele>
        <time>2025-05-08T13:57:49Z</time>
      </trkpt>
      <trkpt lat="36.168098011985421" lon="-5.368148982524872">
        <ele>-2.27</ele>
        <time>2025-05-08T13:57:52Z</time>
      </trkpt>
      <trkpt lat="36.168088959529996" lon="-5.36805996671319">
        <ele>-2.75</ele>
        <time>2025-05-08T13:57:53Z</time>
      </trkpt>
      <trkpt lat="36.16807596758008" lon="-5.367917977273464">
        <ele>-3.71</ele>
        <time>2025-05-08T13:57:55Z</time>
      </trkpt>
      <trkpt lat="36.167988041415811" lon="-5.367580018937588">
        <ele>-6.11</ele>
        <time>2025-05-08T13:58:06Z</time>
      </trkpt>
      <trkpt lat="36.16794403642416" lon="-5.367455966770649">
        <ele>-5.15</ele>
        <time>2025-05-08T13:58:43Z</time>
      </trkpt>
      <trkpt lat="36.16753701120615" lon="-5.36638199351728">
        <ele>-4.19</ele>
        <time>2025-05-08T13:58:56Z</time>
      </trkpt>
      <trkpt lat="36.167158987373114" lon="-5.365339033305645">
        <ele>-3.71</ele>
        <time>2025-05-08T13:59:07Z</time>
      </trkpt>
      <trkpt lat="36.16704298183322" lon="-5.365102998912334">
        <ele>-3.71</ele>
        <time>2025-05-08T13:59:10Z</time>
      </trkpt>
      <trkpt lat="36.166953966021538" lon="-5.364966038614512">
        <ele>-3.23</ele>
        <time>2025-05-08T13:59:12Z</time>
      </trkpt>
      <trkpt lat="36.166908033192158" lon="-5.364895965903997">
        <ele>-2.75</ele>
        <time>2025-05-08T13:59:13Z</time>
      </trkpt>
      <trkpt lat="36.16676302626729" lon="-5.364675018936396">
        <ele>-2.27</ele>
        <time>2025-05-08T13:59:16Z</time>
      </trkpt>
      <trkpt lat="36.166714997962117" lon="-5.364603018388152">
        <ele>-2.27</ele>
        <time>2025-05-08T13:59:17Z</time>
      </trkpt>
      <trkpt lat="36.166710974648595" lon="-5.364520037546754">
        <ele>-2.27</ele>
        <time>2025-05-08T13:59:18Z</time>
      </trkpt>
      <trkpt lat="36.166727989912033" lon="-5.364253995940089">
        <ele>-2.27</ele>
        <time>2025-05-08T13:59:20Z</time>
      </trkpt>
      <trkpt lat="36.166687002405524" lon="-5.364171015098691">
        <ele>-2.27</ele>
        <time>2025-05-08T13:59:21Z</time>
      </trkpt>
      <trkpt lat="36.166457002982497" lon="-5.363711016252637">
        <ele>-1.79</ele>
        <time>2025-05-08T13:59:26Z</time>
      </trkpt>
      <trkpt lat="36.166408974677324" lon="-5.363618982955813">
        <ele>-1.79</ele>
        <time>2025-05-08T13:59:27Z</time>
      </trkpt>
      <trkpt lat="36.165935983881354" lon="-5.362728992477059">
        <ele>0.62</ele>
        <time>2025-05-08T13:59:38Z</time>
      </trkpt>
      <trkpt lat="36.165399961173534" lon="-5.361841013655067">
        <ele>2.06</ele>
        <time>2025-05-08T13:59:49Z</time>
      </trkpt>
      <trkpt lat="36.164939040318131" lon="-5.361207006499171">
        <ele>2.06</ele>
        <time>2025-05-08T13:59:58Z</time>
      </trkpt>
      <trkpt lat="36.16487299092114" lon="-5.361150009557605">
        <ele>2.06</ele>
        <time>2025-05-08T13:59:59Z</time>
      </trkpt>
      <trkpt lat="36.164741981774569" lon="-5.361029980704188">
        <ele>2.06</ele>
        <time>2025-05-08T14:00:01Z</time>
      </trkpt>
      <trkpt lat="36.16467903368175" lon="-5.360968038439751">
        <ele>2.06</ele>
        <time>2025-05-08T14:00:02Z</time>
      </trkpt>
      <trkpt lat="36.164626982063055" lon="-5.360871981829405">
        <ele>2.06</ele>
        <time>2025-05-08T14:00:03Z</time>
      </trkpt>
      <trkpt lat="36.164617007598281" lon="-5.360780032351613">
        <ele>1.58</ele>
        <time>2025-05-08T14:00:04Z</time>
      </trkpt>
      <trkpt lat="36.164606027305126" lon="-5.360683975741267">
        <ele>1.1</ele>
        <time>2025-05-08T14:00:05Z</time>
      </trkpt>
      <trkpt lat="36.16459496319294" lon="-5.360583979636431">
        <ele>1.1</ele>
        <time>2025-05-08T14:00:06Z</time>
      </trkpt>
      <trkpt lat="36.164577025920153" lon="-5.360475014895201">
        <ele>1.1</ele>
        <time>2025-05-08T14:00:07Z</time>
      </trkpt>
      <trkpt lat="36.164535032585263" lon="-5.360263036563993">
        <ele>0.62</ele>
        <time>2025-05-08T14:00:09Z</time>
      </trkpt>
      <trkpt lat="36.164513994008303" lon="-5.360157005488873">
        <ele>0.62</ele>
        <time>2025-05-08T14:00:10Z</time>
      </trkpt>
      <trkpt lat="36.164472000673413" lon="-5.360048040747643">
        <ele>0.62</ele>
        <time>2025-05-08T14:00:11Z</time>
      </trkpt>
      <trkpt lat="36.16442296653986" lon="-5.359960030764341">
        <ele>0.62</ele>
        <time>2025-05-08T14:00:12Z</time>
      </trkpt>
      <trkpt lat="36.164374016225338" lon="-5.35987202078104">
        <ele>1.1</ele>
        <time>2025-05-08T14:00:13Z</time>
      </trkpt>
      <trkpt lat="36.163688963279128" lon="-5.3587999753654">
        <ele>3.5</ele>
        <time>2025-05-08T14:00:25Z</time>
      </trkpt>
      <trkpt lat="36.163026038557291" lon="-5.357871009036899">
        <ele>3.02</ele>
        <time>2025-05-08T14:00:37Z</time>
      </trkpt>
      <trkpt lat="36.162767959758639" lon="-5.357578983530402">
        <ele>3.98</ele>
        <time>2025-05-08T14:00:42Z</time>
      </trkpt>
      <trkpt lat="36.162711968645453" lon="-5.357539001852274">
        <ele>4.46</ele>
        <time>2025-05-08T14:00:43Z</time>
      </trkpt>
      <trkpt lat="36.162653965875506" lon="-5.357498014345765">
        <ele>4.94</ele>
        <time>2025-05-08T14:00:44Z</time>
      </trkpt>
      <trkpt lat="36.162597974762321" lon="-5.357459038496018">
        <ele>4.94</ele>
        <time>2025-05-08T14:00:45Z</time>
      </trkpt>
      <trkpt lat="36.162540977820754" lon="-5.357418972998858">
        <ele>5.42</ele>
        <time>2025-05-08T14:00:46Z</time>
      </trkpt>
      <trkpt lat="36.162401000037789" lon="-5.357358958572149">
        <ele>5.91</ele>
        <time>2025-05-08T14:00:48Z</time>
      </trkpt>
      <trkpt lat="36.162361018359661" lon="-5.357318976894021">
        <ele>6.39</ele>
        <time>2025-05-08T14:00:49Z</time>
      </trkpt>
      <trkpt lat="36.162307038903236" lon="-5.357264997437596">
        <ele>6.39</ele>
        <time>2025-05-08T14:00:50Z</time>
      </trkpt>
      <trkpt lat="36.162251969799399" lon="-5.357210012152791">
        <ele>6.87</ele>
        <time>2025-05-08T14:00:51Z</time>
      </trkpt>
      <trkpt lat="36.162202013656497" lon="-5.357137005776167">
        <ele>6.87</ele>
        <time>2025-05-08T14:00:52Z</time>
      </trkpt>
      <trkpt lat="36.162186004221439" lon="-5.35705603659153">
        <ele>6.87</ele>
        <time>2025-05-08T14:00:53Z</time>
      </trkpt>
      <trkpt lat="36.162168988958001" lon="-5.356971966102719">
        <ele>7.35</ele>
        <time>2025-05-08T14:00:54Z</time>
      </trkpt>
      <trkpt lat="36.162059018388391" lon="-5.356826959177852">
        <ele>6.87</ele>
        <time>2025-05-08T14:00:56Z</time>
      </trkpt>
      <trkpt lat="36.162005960941315" lon="-5.356763005256653">
        <ele>6.87</ele>
        <time>2025-05-08T14:00:57Z</time>
      </trkpt>
      <trkpt lat="36.16195198148489" lon="-5.356699973344803">
        <ele>6.87</ele>
        <time>2025-05-08T14:00:58Z</time>
      </trkpt>
      <trkpt lat="36.161898002028465" lon="-5.356636019423604">
        <ele>7.35</ele>
        <time>2025-05-08T14:00:59Z</time>
      </trkpt>
      <trkpt lat="36.161844022572041" lon="-5.356572987511754">
        <ele>7.35</ele>
        <time>2025-05-08T14:01:00Z</time>
      </trkpt>
      <trkpt lat="36.161791970953345" lon="-5.356511967256665">
        <ele>7.83</ele>
        <time>2025-05-08T14:01:01Z</time>
      </trkpt>
      <trkpt lat="36.161737991496921" lon="-5.356449019163847">
        <ele>8.310000000000001</ele>
        <time>2025-05-08T14:01:02Z</time>
      </trkpt>
      <trkpt lat="36.160926036536694" lon="-5.355627005919814">
        <ele>8.789999999999999</ele>
        <time>2025-05-08T14:01:14Z</time>
      </trkpt>
      <trkpt lat="36.16016898304224" lon="-5.354912029579282">
        <ele>7.83</ele>
        <time>2025-05-08T14:01:25Z</time>
      </trkpt>
      <trkpt lat="36.159450989216566" lon="-5.354261007159948">
        <ele>6.87</ele>
        <time>2025-05-08T14:01:35Z</time>
      </trkpt>
      <trkpt lat="36.158735007047653" lon="-5.35362197086215">
        <ele>6.87</ele>
        <time>2025-05-08T14:01:47Z</time>
      </trkpt>
      <trkpt lat="36.158520011231303" lon="-5.353601016104221">
        <ele>7.83</ele>
        <time>2025-05-08T14:01:52Z</time>
      </trkpt>
      <trkpt lat="36.158463014289737" lon="-5.353566985577345">
        <ele>7.83</ele>
        <time>2025-05-08T14:01:53Z</time>
      </trkpt>
      <trkpt lat="36.158452033996582" lon="-5.353561034426093">
        <ele>7.83</ele>
        <time>2025-05-08T14:01:54Z</time>
      </trkpt>
      <trkpt lat="36.158386990427971" lon="-5.35340596921742">
        <ele>7.83</ele>
        <time>2025-05-08T14:01:55Z</time>
      </trkpt>
      <trkpt lat="36.158330999314785" lon="-5.353373028337956">
        <ele>7.35</ele>
        <time>2025-05-08T14:01:56Z</time>
      </trkpt>
      <trkpt lat="36.158269979059696" lon="-5.353337991982698">
        <ele>7.35</ele>
        <time>2025-05-08T14:01:57Z</time>
      </trkpt>
      <trkpt lat="36.158199990168214" lon="-5.35329700447619">
        <ele>7.35</ele>
        <time>2025-05-08T14:01:58Z</time>
      </trkpt>
      <trkpt lat="36.158120026811957" lon="-5.353251993656158">
        <ele>7.35</ele>
        <time>2025-05-08T14:01:59Z</time>
      </trkpt>
      <trkpt lat="36.158036040142179" lon="-5.353205977007747">
        <ele>7.83</ele>
        <time>2025-05-08T14:02:00Z</time>
      </trkpt>
      <trkpt lat="36.157037001103163" lon="-5.352581022307277">
        <ele>7.35</ele>
        <time>2025-05-08T14:02:11Z</time>
      </trkpt>
      <trkpt lat="36.15660298615694" lon="-5.35213896073401">
        <ele>5.42</ele>
        <time>2025-05-08T14:02:17Z</time>
      </trkpt>
      <trkpt lat="36.156545989215374" lon="-5.352054974064231">
        <ele>5.42</ele>
        <time>2025-05-08T14:02:18Z</time>
      </trkpt>
      <trkpt lat="36.15649402141571" lon="-5.351980039849877">
        <ele>5.42</ele>
        <time>2025-05-08T14:02:19Z</time>
      </trkpt>
      <trkpt lat="36.156445993110538" lon="-5.351910972967744">
        <ele>5.42</ele>
        <time>2025-05-08T14:02:20Z</time>
      </trkpt>
      <trkpt lat="36.156370975077152" lon="-5.351801002398133">
        <ele>5.42</ele>
        <time>2025-05-08T14:02:21Z</time>
      </trkpt>
      <trkpt lat="36.156324958428741" lon="-5.351769989356399">
        <ele>5.42</ele>
        <time>2025-05-08T14:02:22Z</time>
      </trkpt>
      <trkpt lat="36.156185986474156" lon="-5.351818017661572">
        <ele>4.94</ele>
        <time>2025-05-08T14:02:23Z</time>
      </trkpt>
      <trkpt lat="36.156117003411055" lon="-5.351852970197797">
        <ele>4.94</ele>
        <time>2025-05-08T14:02:24Z</time>
      </trkpt>
      <trkpt lat="36.156048020347953" lon="-5.351894963532686">
        <ele>4.46</ele>
        <time>2025-05-08T14:02:25Z</time>
      </trkpt>
      <trkpt lat="36.1559799592942" lon="-5.351939974352717">
        <ele>4.46</ele>
        <time>2025-05-08T14:02:26Z</time>
      </trkpt>
      <trkpt lat="36.155914999544621" lon="-5.351982973515987">
        <ele>3.98</ele>
        <time>2025-05-08T14:02:27Z</time>
      </trkpt>
      <trkpt lat="36.155853979289532" lon="-5.35207400098443">
        <ele>3.98</ele>
        <time>2025-05-08T14:02:28Z</time>
      </trkpt>
      <trkpt lat="36.155815003439784" lon="-5.352144995704293">
        <ele>3.5</ele>
        <time>2025-05-08T14:02:29Z</time>
      </trkpt>
      <trkpt lat="36.155776027590036" lon="-5.352186989039183">
        <ele>3.5</ele>
        <time>2025-05-08T14:02:30Z</time>
      </trkpt>
      <trkpt lat="36.155706960707903" lon="-5.352186989039183">
        <ele>3.02</ele>
        <time>2025-05-08T14:02:31Z</time>
      </trkpt>
      <trkpt lat="36.155642000958323" lon="-5.352186989039183">
        <ele>3.02</ele>
        <time>2025-05-08T14:02:32Z</time>
      </trkpt>
      <trkpt lat="36.155587015673518" lon="-5.352147007361054">
        <ele>3.02</ele>
        <time>2025-05-08T14:02:33Z</time>
      </trkpt>
      <trkpt lat="36.155548961833119" lon="-5.352107025682926">
        <ele>3.02</ele>
        <time>2025-05-08T14:02:34Z</time>
      </trkpt>
      <trkpt lat="36.155528007075191" lon="-5.352054974064231">
        <ele>3.02</ele>
        <time>2025-05-08T14:02:35Z</time>
      </trkpt>
      <trkpt lat="36.155513003468513" lon="-5.352015998214483">
        <ele>3.02</ele>
        <time>2025-05-08T14:02:36Z</time>
      </trkpt>
      <trkpt lat="36.155476961284876" lon="-5.351980039849877">
        <ele>3.02</ele>
        <time>2025-05-08T14:02:37Z</time>
      </trkpt>
      <trkpt lat="36.155445026233792" lon="-5.351948020979762">
        <ele>3.02</ele>
        <time>2025-05-08T14:02:38Z</time>
      </trkpt>
      <trkpt lat="36.155398003757" lon="-5.351916002109647">
        <ele>3.02</ele>
        <time>2025-05-08T14:02:39Z</time>
      </trkpt>
      <trkpt lat="36.155343018472195" lon="-5.351888006553054">
        <ele>3.02</ele>
        <time>2025-05-08T14:02:40Z</time>
      </trkpt>
      <trkpt lat="36.155284009873867" lon="-5.3518579993397">
        <ele>3.02</ele>
        <time>2025-05-08T14:02:41Z</time>
      </trkpt>
      <trkpt lat="36.155221983790398" lon="-5.351826986297965">
        <ele>3.02</ele>
        <time>2025-05-08T14:02:42Z</time>
      </trkpt>
      <trkpt lat="36.155159035697579" lon="-5.351784992963076">
        <ele>3.02</ele>
        <time>2025-05-08T14:02:43Z</time>
      </trkpt>
      <trkpt lat="36.155106984078884" lon="-5.351710980758071">
        <ele>3.02</ele>
        <time>2025-05-08T14:02:44Z</time>
      </trkpt>
      <trkpt lat="36.15505401045084" lon="-5.351635962724686">
        <ele>3.02</ele>
        <time>2025-05-08T14:02:45Z</time>
      </trkpt>
      <trkpt lat="36.155012017115951" lon="-5.351552981883287">
        <ele>2.54</ele>
        <time>2025-05-08T14:02:46Z</time>
      </trkpt>
      <trkpt lat="36.154991984367371" lon="-5.351463966071606">
        <ele>2.06</ele>
        <time>2025-05-08T14:02:47Z</time>
      </trkpt>
      <trkpt lat="36.154977986589074" lon="-5.351368999108672">
        <ele>1.58</ele>
        <time>2025-05-08T14:02:48Z</time>
      </trkpt>
      <trkpt lat="36.154985027387738" lon="-5.351286018267274">
        <ele>1.1</ele>
        <time>2025-05-08T14:02:49Z</time>
      </trkpt>
      <trkpt lat="36.154988966882229" lon="-5.351227009668946">
        <ele>0.62</ele>
        <time>2025-05-08T14:02:50Z</time>
      </trkpt>
      <trkpt lat="36.155016040429473" lon="-5.350878993049264">
        <ele>-3.23</ele>
        <time>2025-05-08T14:02:59Z</time>
      </trkpt>
      <trkpt lat="36.155022997409105" lon="-5.350785031914711">
        <ele>-4.19</ele>
        <time>2025-05-08T14:03:06Z</time>
      </trkpt>
      <trkpt lat="36.155022997409105" lon="-5.350785031914711">
        <ele>-5.15</ele>
        <time>2025-05-08T14:03:23Z</time>
      </trkpt>
      <trkpt lat="36.155041018500924" lon="-5.350556038320065">
        <ele>-6.11</ele>
        <time>2025-05-08T14:03:55Z</time>
      </trkpt>
      <trkpt lat="36.155111007392406" lon="-5.349628999829292">
        <ele>-7.07</ele>
        <time>2025-05-08T14:04:04Z</time>
      </trkpt>
      <trkpt lat="36.155142020434141" lon="-5.349544007331133">
        <ele>-7.07</ele>
        <time>2025-05-08T14:04:05Z</time>
      </trkpt>
      <trkpt lat="36.155212009325624" lon="-5.349520035088062">
        <ele>-6.59</ele>
        <time>2025-05-08T14:04:06Z</time>
      </trkpt>
      <trkpt lat="36.155293984338641" lon="-5.349511988461018">
        <ele>-6.59</ele>
        <time>2025-05-08T14:04:07Z</time>
      </trkpt>
      <trkpt lat="36.15537797100842" lon="-5.349503019824624">
        <ele>-6.11</ele>
        <time>2025-05-08T14:04:08Z</time>
      </trkpt>
      <trkpt lat="36.155897984281182" lon="-5.349449962377548">
        <ele>-5.63</ele>
        <time>2025-05-08T14:04:15Z</time>
      </trkpt>
      <trkpt lat="36.155936038121581" lon="-5.349446022883058">
        <ele>-5.63</ele>
        <time>2025-05-08T14:04:16Z</time>
      </trkpt>
      <trkpt lat="36.155967973172665" lon="-5.349443005397916">
        <ele>-5.63</ele>
        <time>2025-05-08T14:04:17Z</time>
      </trkpt>
      <trkpt lat="36.156003009527922" lon="-5.349385002627969">
        <ele>-5.63</ele>
        <time>2025-05-08T14:04:18Z</time>
      </trkpt>
      <trkpt lat="36.156018013134599" lon="-5.349339991807938">
        <ele>-6.11</ele>
        <time>2025-05-08T14:04:19Z</time>
      </trkpt>
      <trkpt lat="36.156027987599373" lon="-5.349272014573216">
        <ele>-6.11</ele>
        <time>2025-05-08T14:04:20Z</time>
      </trkpt>
      <trkpt lat="36.156027987599373" lon="-5.349193979054689">
        <ele>-6.11</ele>
        <time>2025-05-08T14:04:21Z</time>
      </trkpt>
      <trkpt lat="36.156027987599373" lon="-5.349116027355194">
        <ele>-6.11</ele>
        <time>2025-05-08T14:04:22Z</time>
      </trkpt>
      <trkpt lat="36.156027987599373" lon="-5.349044026806951">
        <ele>-6.59</ele>
        <time>2025-05-08T14:04:23Z</time>
      </trkpt>
      <trkpt lat="36.156027987599373" lon="-5.348471039906144">
        <ele>-5.15</ele>
        <time>2025-05-08T14:04:32Z</time>
      </trkpt>
      <trkpt lat="36.155922962352633" lon="-5.348345981910825">
        <ele>-2.27</ele>
        <time>2025-05-08T14:04:37Z</time>
      </trkpt>
      <trkpt lat="36.155889015644789" lon="-5.348345981910825">
        <ele>-1.79</ele>
        <time>2025-05-08T14:04:38Z</time>
      </trkpt>
      <trkpt lat="36.155850039795041" lon="-5.348345981910825">
        <ele>-1.3</ele>
        <time>2025-05-08T14:04:39Z</time>
      </trkpt>
      <trkpt lat="36.155819026753306" lon="-5.348345981910825">
        <ele>-0.82</ele>
        <time>2025-05-08T14:04:40Z</time>
      </trkpt>
      <trkpt lat="36.155797988176346" lon="-5.348345981910825">
        <ele>-0.82</ele>
        <time>2025-05-08T14:04:41Z</time>
      </trkpt>
      <trkpt lat="36.155779967084527" lon="-5.348345981910825">
        <ele>-0.34</ele>
        <time>2025-05-08T14:04:42Z</time>
      </trkpt>
      <trkpt lat="36.155763035640121" lon="-5.348345981910825">
        <ele>0.14</ele>
        <time>2025-05-08T14:04:43Z</time>
      </trkpt>
      <trkpt lat="36.155649963766336" lon="-5.348350005224347">
        <ele>1.1</ele>
        <time>2025-05-08T14:04:49Z</time>
      </trkpt>
      <trkpt lat="36.155609982088208" lon="-5.348352016881108">
        <ele>1.1</ele>
        <time>2025-05-08T14:04:50Z</time>
      </trkpt>
      <trkpt lat="36.155573017895222" lon="-5.348353022709489">
        <ele>1.1</ele>
        <time>2025-05-08T14:04:51Z</time>
      </trkpt>
      <trkpt lat="36.155544016510248" lon="-5.34835402853787">
        <ele>1.1</ele>
        <time>2025-05-08T14:04:52Z</time>
      </trkpt>
      <trkpt lat="36.155519038438797" lon="-5.34835503436625">
        <ele>0.62</ele>
        <time>2025-05-08T14:04:53Z</time>
      </trkpt>
      <trkpt lat="36.155493976548314" lon="-5.348356040194631">
        <ele>0.62</ele>
        <time>2025-05-08T14:04:54Z</time>
      </trkpt>
      <trkpt lat="36.15546396933496" lon="-5.34835696220398">
        <ele>0.14</ele>
        <time>2025-05-08T14:04:55Z</time>
      </trkpt>
      <trkpt lat="36.155434967949986" lon="-5.34835796803236">
        <ele>-0.34</ele>
        <time>2025-05-08T14:04:56Z</time>
      </trkpt>
      <trkpt lat="36.155407978221774" lon="-5.348358973860741">
        <ele>-0.34</ele>
        <time>2025-05-08T14:04:57Z</time>
      </trkpt>
      <trkpt lat="36.155375959351659" lon="-5.348359979689121">
        <ele>-0.34</ele>
        <time>2025-05-08T14:04:58Z</time>
      </trkpt>
      <trkpt lat="36.155335977673531" lon="-5.348360985517502">
        <ele>-0.34</ele>
        <time>2025-05-08T14:04:59Z</time>
      </trkpt>
      <trkpt lat="36.155295995995402" lon="-5.348362997174263">
        <ele>-0.34</ele>
        <time>2025-05-08T14:05:00Z</time>
      </trkpt>
      <trkpt lat="36.155073959380388" lon="-5.348373977467418">
        <ele>0.14</ele>
        <time>2025-05-08T14:05:12Z</time>
      </trkpt>
      <trkpt lat="36.155073959380388" lon="-5.348373977467418">
        <ele>0.14</ele>
        <time>2025-05-08T14:05:47Z</time>
      </trkpt>
      <trkpt lat="36.155073959380388" lon="-5.348373977467418">
        <ele>0.14</ele>
        <time>2025-05-08T14:06:20Z</time>
      </trkpt>
      <trkpt lat="36.155030038207769" lon="-5.34837699495256">
        <ele>-0.34</ele>
        <time>2025-05-08T14:07:04Z</time>
      </trkpt>
      <trkpt lat="36.155007993802428" lon="-5.348379006609321">
        <ele>-0.82</ele>
        <time>2025-05-08T14:07:05Z</time>
      </trkpt>
      <trkpt lat="36.154983015730977" lon="-5.348381018266082">
        <ele>-1.79</ele>
        <time>2025-05-08T14:07:18Z</time>
      </trkpt>
      <trkpt lat="36.154957031831145" lon="-5.348384035751224">
        <ele>-2.75</ele>
        <time>2025-05-08T14:07:21Z</time>
      </trkpt>
      <trkpt lat="36.154917972162366" lon="-5.348386969417334">
        <ele>-3.71</ele>
        <time>2025-05-08T14:07:22Z</time>
      </trkpt>
      <trkpt lat="36.154852006584406" lon="-5.348388981074095">
        <ele>-4.67</ele>
        <time>2025-05-08T14:07:23Z</time>
      </trkpt>
      <trkpt lat="36.154669029638171" lon="-5.348388981074095">
        <ele>-9.48</ele>
        <time>2025-05-08T14:07:31Z</time>
      </trkpt>
      <trkpt lat="36.154394019395113" lon="-5.348411025479436">
        <ele>-12.359999999999999</ele>
        <time>2025-05-08T14:07:40Z</time>
      </trkpt>
      <trkpt lat="36.154329981654882" lon="-5.348387975245714">
        <ele>-11.4</ele>
        <time>2025-05-08T14:07:43Z</time>
      </trkpt>
      <trkpt lat="36.154327969998121" lon="-5.348361991345882">
        <ele>-11.4</ele>
        <time>2025-05-08T14:07:44Z</time>
      </trkpt>
      <trkpt lat="36.15432595834136" lon="-5.348340030759573">
        <ele>-11.4</ele>
        <time>2025-05-08T14:07:45Z</time>
      </trkpt>
      <trkpt lat="36.154311960563064" lon="-5.348198041319847">
        <ele>-10.44</ele>
        <time>2025-05-08T14:07:56Z</time>
      </trkpt>
      <trkpt lat="36.154331993311644" lon="-5.347853964194655">
        <ele>-9</ele>
        <time>2025-05-08T14:08:05Z</time>
      </trkpt>
      <trkpt lat="36.154389996081591" lon="-5.34704796038568">
        <ele>-7.07</ele>
        <time>2025-05-08T14:08:16Z</time>
      </trkpt>
      <trkpt lat="36.154397036880255" lon="-5.346428034827113">
        <ele>-5.15</ele>
        <time>2025-05-08T14:08:22Z</time>
      </trkpt>
      <trkpt lat="36.154397036880255" lon="-5.34596904180944">
        <ele>-5.15</ele>
        <time>2025-05-08T14:08:26Z</time>
      </trkpt>
      <trkpt lat="36.154397036880255" lon="-5.345594035461545">
        <ele>-5.15</ele>
        <time>2025-05-08T14:08:30Z</time>
      </trkpt>
      <trkpt lat="36.154268039390445" lon="-5.345450034365058">
        <ele>-5.15</ele>
        <time>2025-05-08T14:08:31Z</time>
      </trkpt>
      <trkpt lat="36.154252029955387" lon="-5.345365963876247">
        <ele>-5.63</ele>
        <time>2025-05-08T14:08:33Z</time>
      </trkpt>
      <trkpt lat="36.154247000813484" lon="-5.345341991633177">
        <ele>-5.63</ele>
        <time>2025-05-08T14:08:34Z</time>
      </trkpt>
      <trkpt lat="36.154305003583431" lon="-5.345226991921663">
        <ele>-5.63</ele>
        <time>2025-05-08T14:08:35Z</time>
      </trkpt>
      <trkpt lat="36.15432595834136" lon="-5.345106041058898">
        <ele>-6.11</ele>
        <time>2025-05-08T14:08:36Z</time>
      </trkpt>
      <trkpt lat="36.154315983876586" lon="-5.345005039125681">
        <ele>-6.59</ele>
        <time>2025-05-08T14:08:37Z</time>
      </trkpt>
      <trkpt lat="36.154305003583431" lon="-5.344892973080277">
        <ele>-6.59</ele>
        <time>2025-05-08T14:08:38Z</time>
      </trkpt>
      <trkpt lat="36.154289999976754" lon="-5.344741009175777">
        <ele>-6.59</ele>
        <time>2025-05-08T14:08:39Z</time>
      </trkpt>
      <trkpt lat="36.154268039390445" lon="-5.344643024727702">
        <ele>-6.59</ele>
        <time>2025-05-08T14:08:40Z</time>
      </trkpt>
      <trkpt lat="36.15423996001482" lon="-5.344516038894653">
        <ele>-6.11</ele>
        <time>2025-05-08T14:08:41Z</time>
      </trkpt>
      <trkpt lat="36.153796976432204" lon="-5.342713007703424">
        <ele>-5.63</ele>
        <time>2025-05-08T14:08:55Z</time>
      </trkpt>
      <trkpt lat="36.153260031715035" lon="-5.34120099619031">
        <ele>-11.4</ele>
        <time>2025-05-08T14:09:06Z</time>
      </trkpt>
      <trkpt lat="36.153191970661283" lon="-5.34109496511519">
        <ele>-12.359999999999999</ele>
        <time>2025-05-08T14:09:07Z</time>
      </trkpt>
      <trkpt lat="36.153046041727066" lon="-5.340864965692163">
        <ele>-13.800000000000001</ele>
        <time>2025-05-08T14:09:09Z</time>
      </trkpt>
      <trkpt lat="36.152963982895017" lon="-5.340736974030733">
        <ele>-14.76</ele>
        <time>2025-05-08T14:09:10Z</time>
      </trkpt>
      <trkpt lat="36.152959037572145" lon="-5.34072901122272">
        <ele>-15.720000000000001</ele>
        <time>2025-05-08T14:09:11Z</time>
      </trkpt>
      <trkpt lat="36.152766002342105" lon="-5.34055701456964">
        <ele>-16.690000000000001</ele>
        <time>2025-05-08T14:09:12Z</time>
      </trkpt>
      <trkpt lat="36.152659971266985" lon="-5.340462969616056">
        <ele>-17.649999999999999</ele>
        <time>2025-05-08T14:09:13Z</time>
      </trkpt>
      <trkpt lat="36.149706020951271" lon="-5.340168010443449">
        <ele>-16.210000000000001</ele>
        <time>2025-05-08T14:09:40Z</time>
      </trkpt>
      <trkpt lat="36.149585992097855" lon="-5.340207992121577">
        <ele>-15.24</ele>
        <time>2025-05-08T14:09:41Z</time>
      </trkpt>
      <trkpt lat="36.148493997752666" lon="-5.340519966557622">
        <ele>4.94</ele>
        <time>2025-05-08T14:09:50Z</time>
      </trkpt>
      <trkpt lat="36.147124981507659" lon="-5.340749965980649">
        <ele>2.54</ele>
        <time>2025-05-08T14:10:02Z</time>
      </trkpt>
      <trkpt lat="36.146908979862928" lon="-5.340820038691163">
        <ele>0.62</ele>
        <time>2025-05-08T14:10:09Z</time>
      </trkpt>
      <trkpt lat="36.146831028163433" lon="-5.340849040076137">
        <ele>1.1</ele>
        <time>2025-05-08T14:10:19Z</time>
      </trkpt>
      <trkpt lat="36.146801020950079" lon="-5.340860020369291">
        <ele>1.1</ele>
        <time>2025-05-08T14:10:20Z</time>
      </trkpt>
      <trkpt lat="36.14675902761519" lon="-5.340876029804349">
        <ele>1.1</ele>
        <time>2025-05-08T14:10:21Z</time>
      </trkpt>
      <trkpt lat="36.146704964339733" lon="-5.340895978733897">
        <ele>1.1</ele>
        <time>2025-05-08T14:10:22Z</time>
      </trkpt>
      <trkpt lat="36.146641010418534" lon="-5.340920034796">
        <ele>1.1</ele>
        <time>2025-05-08T14:10:23Z</time>
      </trkpt>
      <trkpt lat="36.146425008773804" lon="-5.341016007587314">
        <ele>0.62</ele>
        <time>2025-05-08T14:10:26Z</time>
      </trkpt>
      <trkpt lat="36.146356025710702" lon="-5.34105196595192">
        <ele>0.62</ele>
        <time>2025-05-08T14:10:27Z</time>
      </trkpt>
      <trkpt lat="36.146293999627233" lon="-5.341084990650415">
        <ele>0.62</ele>
        <time>2025-05-08T14:10:28Z</time>
      </trkpt>
      <trkpt lat="36.146239014342427" lon="-5.341113992035389">
        <ele>0.14</ele>
        <time>2025-05-08T14:10:29Z</time>
      </trkpt>
      <trkpt lat="36.146136000752449" lon="-5.341414986178279">
        <ele>0.14</ele>
        <time>2025-05-08T14:10:30Z</time>
      </trkpt>
      <trkpt lat="36.146136000752449" lon="-5.341414986178279">
        <ele>-0.34</ele>
        <time>2025-05-08T14:10:31Z</time>
      </trkpt>
      <trkpt lat="36.146136000752449" lon="-5.341414986178279">
        <ele>-0.34</ele>
        <time>2025-05-08T14:10:33Z</time>
      </trkpt>
      <trkpt lat="36.14607104100287" lon="-5.34156602807343">
        <ele>-0.82</ele>
        <time>2025-05-08T14:10:34Z</time>
      </trkpt>
      <trkpt lat="36.146013038232923" lon="-5.341600980609655">
        <ele>-0.82</ele>
        <time>2025-05-08T14:10:35Z</time>
      </trkpt>
      <trkpt lat="36.145856967195868" lon="-5.3416090272367">
        <ele>-0.82</ele>
        <time>2025-05-08T14:10:36Z</time>
      </trkpt>
      <trkpt lat="36.145841963589191" lon="-5.341615984216332">
        <ele>-0.82</ele>
        <time>2025-05-08T14:10:37Z</time>
      </trkpt>
      <trkpt lat="36.145754959434271" lon="-5.341658983379602">
        <ele>-0.82</ele>
        <time>2025-05-08T14:10:38Z</time>
      </trkpt>
      <trkpt lat="36.145667033270001" lon="-5.341702988371253">
        <ele>-0.34</ele>
        <time>2025-05-08T14:10:39Z</time>
      </trkpt>
      <trkpt lat="36.145581034943461" lon="-5.341654038056731">
        <ele>-0.34</ele>
        <time>2025-05-08T14:10:40Z</time>
      </trkpt>
      <trkpt lat="36.145511968061328" lon="-5.341585977002978">
        <ele>-0.34</ele>
        <time>2025-05-08T14:10:41Z</time>
      </trkpt>
      <trkpt lat="36.145438961684704" lon="-5.341512970626354">
        <ele>-0.34</ele>
        <time>2025-05-08T14:10:42Z</time>
      </trkpt>
      <trkpt lat="36.145362015813589" lon="-5.34143602475524">
        <ele>-0.34</ele>
        <time>2025-05-08T14:10:43Z</time>
      </trkpt>
      <trkpt lat="36.145093962550163" lon="-5.341195967048407">
        <ele>0.14</ele>
        <time>2025-05-08T14:10:46Z</time>
      </trkpt>
      <trkpt lat="36.144137000665069" lon="-5.340358028188348">
        <ele>-3.23</ele>
        <time>2025-05-08T14:10:57Z</time>
      </trkpt>
      <trkpt lat="36.143840029835701" lon="-5.340128028765321">
        <ele>-3.23</ele>
        <time>2025-05-08T14:11:00Z</time>
      </trkpt>
      <trkpt lat="36.143757971003652" lon="-5.340087041258812">
        <ele>-2.75</ele>
        <time>2025-05-08T14:11:01Z</time>
      </trkpt>
      <trkpt lat="36.14272297360003" lon="-5.339913032948971">
        <ele>0.14</ele>
        <time>2025-05-08T14:11:10Z</time>
      </trkpt>
      <trkpt lat="36.141886040568352" lon="-5.339931976050139">
        <ele>2.06</ele>
        <time>2025-05-08T14:11:17Z</time>
      </trkpt>
      <trkpt lat="36.141769029200077" lon="-5.339963994920254">
        <ele>2.54</ele>
        <time>2025-05-08T14:11:18Z</time>
      </trkpt>
      <trkpt lat="36.141414977610111" lon="-5.34006399102509">
        <ele>2.54</ele>
        <time>2025-05-08T14:11:21Z</time>
      </trkpt>
      <trkpt lat="36.141320010647178" lon="-5.340141020715237">
        <ele>2.06</ele>
        <time>2025-05-08T14:11:22Z</time>
      </trkpt>
      <trkpt lat="36.140932012349367" lon="-5.340460035949945">
        <ele>1.58</ele>
        <time>2025-05-08T14:11:27Z</time>
      </trkpt>
      <trkpt lat="36.140882978215814" lon="-5.340504962950945">
        <ele>1.58</ele>
        <time>2025-05-08T14:11:28Z</time>
      </trkpt>
      <trkpt lat="36.140839979052544" lon="-5.340544022619724">
        <ele>1.58</ele>
        <time>2025-05-08T14:11:29Z</time>
      </trkpt>
      <trkpt lat="36.140789017081261" lon="-5.340590961277485">
        <ele>1.1</ele>
        <time>2025-05-08T14:11:30Z</time>
      </trkpt>
      <trkpt lat="36.140735037624836" lon="-5.340639995411038">
        <ele>1.1</ele>
        <time>2025-05-08T14:11:31Z</time>
      </trkpt>
      <trkpt lat="36.140683991834521" lon="-5.340687017887831">
        <ele>1.1</ele>
        <time>2025-05-08T14:11:32Z</time>
      </trkpt>
      <trkpt lat="36.140630012378097" lon="-5.340735968202353">
        <ele>1.1</ele>
        <time>2025-05-08T14:11:33Z</time>
      </trkpt>
      <trkpt lat="36.140518030151725" lon="-5.34083797596395">
        <ele>0.62</ele>
        <time>2025-05-08T14:11:35Z</time>
      </trkpt>
      <trkpt lat="36.140462039038539" lon="-5.340890027582645">
        <ele>0.62</ele>
        <time>2025-05-08T14:11:36Z</time>
      </trkpt>
      <trkpt lat="36.140405964106321" lon="-5.340939983725548">
        <ele>0.62</ele>
        <time>2025-05-08T14:11:37Z</time>
      </trkpt>
      <trkpt lat="36.140073034912348" lon="-5.34124500118196">
        <ele>0.14</ele>
        <time>2025-05-08T14:11:43Z</time>
      </trkpt>
      <trkpt lat="36.14001302048564" lon="-5.341299986466765">
        <ele>0.14</ele>
        <time>2025-05-08T14:11:44Z</time>
      </trkpt>
      <trkpt lat="36.139953006058931" lon="-5.341354971751571">
        <ele>-0.34</ele>
        <time>2025-05-08T14:11:45Z</time>
      </trkpt>
      <trkpt lat="36.139892991632223" lon="-5.341410040855408">
        <ele>-0.34</ele>
        <time>2025-05-08T14:11:46Z</time>
      </trkpt>
      <trkpt lat="36.139831971377134" lon="-5.341465026140213">
        <ele>-0.82</ele>
        <time>2025-05-08T14:11:47Z</time>
      </trkpt>
      <trkpt lat="36.13930600695312" lon="-5.341944973915815">
        <ele>-2.27</ele>
        <time>2025-05-08T14:11:56Z</time>
      </trkpt>
      <trkpt lat="36.139254039153457" lon="-5.341993002220988">
        <ele>-2.27</ele>
        <time>2025-05-08T14:11:57Z</time>
      </trkpt>
      <trkpt lat="36.139193018898368" lon="-5.342041030526161">
        <ele>-2.27</ele>
        <time>2025-05-08T14:11:58Z</time>
      </trkpt>
      <trkpt lat="36.139121018350124" lon="-5.342058967798948">
        <ele>-2.27</ele>
        <time>2025-05-08T14:11:59Z</time>
      </trkpt>
      <trkpt lat="36.139040971174836" lon="-5.342058967798948">
        <ele>-2.27</ele>
        <time>2025-05-08T14:12:00Z</time>
      </trkpt>
      <trkpt lat="36.138960001990199" lon="-5.342058967798948">
        <ele>-2.27</ele>
        <time>2025-05-08T14:12:01Z</time>
      </trkpt>
      <trkpt lat="36.138487011194229" lon="-5.342058967798948">
        <ele>-1.3</ele>
        <time>2025-05-08T14:12:07Z</time>
      </trkpt>
      <trkpt lat="36.13840201869607" lon="-5.342033989727497">
        <ele>-0.82</ele>
        <time>2025-05-08T14:12:08Z</time>
      </trkpt>
      <trkpt lat="36.138337980955839" lon="-5.341980010271072">
        <ele>0.14</ele>
        <time>2025-05-08T14:12:09Z</time>
      </trkpt>
      <trkpt lat="36.138203032314777" lon="-5.34186601638794">
        <ele>2.54</ele>
        <time>2025-05-08T14:12:11Z</time>
      </trkpt>
      <trkpt lat="36.138133965432644" lon="-5.341808013617992">
        <ele>3.98</ele>
        <time>2025-05-08T14:12:12Z</time>
      </trkpt>
      <trkpt lat="36.137917041778564" lon="-5.341625036671758">
        <ele>6.87</ele>
        <time>2025-05-08T14:12:15Z</time>
      </trkpt>
      <trkpt lat="36.137849986553192" lon="-5.341568039730191">
        <ele>7.83</ele>
        <time>2025-05-08T14:12:16Z</time>
      </trkpt>
      <trkpt lat="36.137784020975232" lon="-5.341511964797974">
        <ele>8.310000000000001</ele>
        <time>2025-05-08T14:12:17Z</time>
      </trkpt>
      <trkpt lat="36.13771696574986" lon="-5.341455973684788">
        <ele>9.27</ele>
        <time>2025-05-08T14:12:18Z</time>
      </trkpt>
      <trkpt lat="36.137648988515139" lon="-5.341397970914841">
        <ele>10.23</ele>
        <time>2025-05-08T14:12:19Z</time>
      </trkpt>
      <trkpt lat="36.137374984100461" lon="-5.341167971491814">
        <ele>13.119999999999999</ele>
        <time>2025-05-08T14:12:23Z</time>
      </trkpt>
      <trkpt lat="36.137294014915824" lon="-5.341117009520531">
        <ele>13.119999999999999</ele>
        <time>2025-05-08T14:12:24Z</time>
      </trkpt>
      <trkpt lat="36.1372210085392" lon="-5.341087002307177">
        <ele>13.6</ele>
        <time>2025-05-08T14:12:25Z</time>
      </trkpt>
      <trkpt lat="36.137083964422345" lon="-5.341027993708849">
        <ele>14.08</ele>
        <time>2025-05-08T14:12:27Z</time>
      </trkpt>
      <trkpt lat="36.13700601272285" lon="-5.34100896678865">
        <ele>14.08</ele>
        <time>2025-05-08T14:12:28Z</time>
      </trkpt>
      <trkpt lat="36.136863017454743" lon="-5.341012990102172">
        <ele>14.56</ele>
        <time>2025-05-08T14:12:30Z</time>
      </trkpt>
      <trkpt lat="36.136711975559592" lon="-5.341018019244075">
        <ele>15.039999999999999</ele>
        <time>2025-05-08T14:12:32Z</time>
      </trkpt>
      <trkpt lat="36.136282989755273" lon="-5.341010978445411">
        <ele>16</ele>
        <time>2025-05-08T14:12:37Z</time>
      </trkpt>
      <trkpt lat="36.135749984532595" lon="-5.34090000204742">
        <ele>16</ele>
        <time>2025-05-08T14:12:43Z</time>
      </trkpt>
      <trkpt lat="36.135701034218073" lon="-5.340906037017703">
        <ele>16</ele>
        <time>2025-05-08T14:12:44Z</time>
      </trkpt>
      <trkpt lat="36.134690009057522" lon="-5.340992035344243">
        <ele>15.039999999999999</ele>
        <time>2025-05-08T14:12:56Z</time>
      </trkpt>
      <trkpt lat="36.133994981646538" lon="-5.34107300452888">
        <ele>13.119999999999999</ele>
        <time>2025-05-08T14:13:07Z</time>
      </trkpt>
      <trkpt lat="36.133877970278263" lon="-5.341091025620699">
        <ele>12.630000000000001</ele>
        <time>2025-05-08T14:13:18Z</time>
      </trkpt>
      <trkpt lat="36.133877970278263" lon="-5.341091025620699">
        <ele>12.15</ele>
        <time>2025-05-08T14:14:08Z</time>
      </trkpt>
      <trkpt lat="36.133877970278263" lon="-5.341091025620699">
        <ele>12.15</ele>
        <time>2025-05-08T14:15:05Z</time>
      </trkpt>
      <trkpt lat="36.133549986407161" lon="-5.341064035892487">
        <ele>12.630000000000001</ele>
        <time>2025-05-08T14:15:11Z</time>
      </trkpt>
      <trkpt lat="36.133453007787466" lon="-5.341053977608681">
        <ele>12.630000000000001</ele>
        <time>2025-05-08T14:15:12Z</time>
      </trkpt>
      <trkpt lat="36.13335301168263" lon="-5.341044003143907">
        <ele>12.15</ele>
        <time>2025-05-08T14:15:13Z</time>
      </trkpt>
      <trkpt lat="36.132510965690017" lon="-5.341303003951907">
        <ele>8.789999999999999</ele>
        <time>2025-05-08T14:15:22Z</time>
      </trkpt>
      <trkpt lat="36.132332012057304" lon="-5.341410962864757">
        <ele>8.310000000000001</ele>
        <time>2025-05-08T14:15:24Z</time>
      </trkpt>
      <trkpt lat="36.132236961275339" lon="-5.341467959806323">
        <ele>7.83</ele>
        <time>2025-05-08T14:15:25Z</time>
      </trkpt>
      <trkpt lat="36.132140988484025" lon="-5.341524034738541">
        <ele>7.83</ele>
        <time>2025-05-08T14:15:26Z</time>
      </trkpt>
      <trkpt lat="36.13073400221765" lon="-5.342013034969568">
        <ele>5.42</ele>
        <time>2025-05-08T14:15:40Z</time>
      </trkpt>
      <trkpt lat="36.130639035254717" lon="-5.342045975849032">
        <ele>5.42</ele>
        <time>2025-05-08T14:15:41Z</time>
      </trkpt>
      <trkpt lat="36.13053903914988" lon="-5.342069026082754">
        <ele>5.42</ele>
        <time>2025-05-08T14:15:42Z</time>
      </trkpt>
      <trkpt lat="36.130438037216663" lon="-5.342085035517812">
        <ele>5.42</ele>
        <time>2025-05-08T14:15:43Z</time>
      </trkpt>
      <trkpt lat="36.130336029455066" lon="-5.342100039124489">
        <ele>5.42</ele>
        <time>2025-05-08T14:15:44Z</time>
      </trkpt>
      <trkpt lat="36.130233015865088" lon="-5.342115964740515">
        <ele>5.91</ele>
        <time>2025-05-08T14:15:45Z</time>
      </trkpt>
      <trkpt lat="36.129940990358591" lon="-5.342161981388927">
        <ele>7.35</ele>
        <time>2025-05-08T14:15:48Z</time>
      </trkpt>
      <trkpt lat="36.129828002303839" lon="-5.342138009145856">
        <ele>8.310000000000001</ele>
        <time>2025-05-08T14:15:49Z</time>
      </trkpt>
      <trkpt lat="36.129720965400338" lon="-5.342101966962218">
        <ele>8.789999999999999</ele>
        <time>2025-05-08T14:15:50Z</time>
      </trkpt>
      <trkpt lat="36.129634967073798" lon="-5.342038013041019">
        <ele>9.27</ele>
        <time>2025-05-08T14:15:51Z</time>
      </trkpt>
      <trkpt lat="36.129548968747258" lon="-5.341973975300789">
        <ele>9.75</ele>
        <time>2025-05-08T14:15:52Z</time>
      </trkpt>
      <trkpt lat="36.12946598790586" lon="-5.341912033036351">
        <ele>10.23</ele>
        <time>2025-05-08T14:15:53Z</time>
      </trkpt>
      <trkpt lat="36.129080001264811" lon="-5.341629981994629">
        <ele>10.710000000000001</ele>
        <time>2025-05-08T14:15:58Z</time>
      </trkpt>
      <trkpt lat="36.12901302985847" lon="-5.341582037508488">
        <ele>10.710000000000001</ele>
        <time>2025-05-08T14:15:59Z</time>
      </trkpt>
      <trkpt lat="36.128917979076505" lon="-5.341574996709824">
        <ele>10.710000000000001</ele>
        <time>2025-05-08T14:16:00Z</time>
      </trkpt>
      <trkpt lat="36.128822006285191" lon="-5.341586982831359">
        <ele>10.710000000000001</ele>
        <time>2025-05-08T14:16:01Z</time>
      </trkpt>
      <trkpt lat="36.12871496938169" lon="-5.341600980609655">
        <ele>11.19</ele>
        <time>2025-05-08T14:16:02Z</time>
      </trkpt>
      <trkpt lat="36.127950958907604" lon="-5.341635011136532">
        <ele>12.15</ele>
        <time>2025-05-08T14:16:09Z</time>
      </trkpt>
      <trkpt lat="36.12781098112464" lon="-5.3416090272367">
        <ele>13.119999999999999</ele>
        <time>2025-05-08T14:16:10Z</time>
      </trkpt>
      <trkpt lat="36.127677960321307" lon="-5.341533003374934">
        <ele>14.08</ele>
        <time>2025-05-08T14:16:12Z</time>
      </trkpt>
      <trkpt lat="36.12714403308928" lon="-5.341226980090141">
        <ele>15.52</ele>
        <time>2025-05-08T14:16:18Z</time>
      </trkpt>
      <trkpt lat="36.12705996260047" lon="-5.341179035604">
        <ele>16</ele>
        <time>2025-05-08T14:16:19Z</time>
      </trkpt>
      <trkpt lat="36.12701796926558" lon="-5.341098988428712">
        <ele>16.48</ele>
        <time>2025-05-08T14:16:20Z</time>
      </trkpt>
      <trkpt lat="36.126963989809155" lon="-5.340994969010353">
        <ele>17.440000000000001</ele>
        <time>2025-05-08T14:16:21Z</time>
      </trkpt>
      <trkpt lat="36.12690799869597" lon="-5.340888015925884">
        <ele>17.920000000000002</ele>
        <time>2025-05-08T14:16:22Z</time>
      </trkpt>
      <trkpt lat="36.126848990097642" lon="-5.340775027871132">
        <ele>18.399999999999999</ele>
        <time>2025-05-08T14:16:23Z</time>
      </trkpt>
      <trkpt lat="36.126788975670934" lon="-5.340659022331238">
        <ele>18.399999999999999</ele>
        <time>2025-05-08T14:16:24Z</time>
      </trkpt>
      <trkpt lat="36.126709012314677" lon="-5.340561959892511">
        <ele>17.920000000000002</ele>
        <time>2025-05-08T14:16:25Z</time>
      </trkpt>
      <trkpt lat="36.12663097679615" lon="-5.340475039556623">
        <ele>17.920000000000002</ele>
        <time>2025-05-08T14:16:26Z</time>
      </trkpt>
      <trkpt lat="36.126538021489978" lon="-5.340426005423069">
        <ele>17.920000000000002</ele>
        <time>2025-05-08T14:16:27Z</time>
      </trkpt>
      <trkpt lat="36.126439031213522" lon="-5.340392980724573">
        <ele>17.440000000000001</ele>
        <time>2025-05-08T14:16:28Z</time>
      </trkpt>
      <trkpt lat="36.126340962946415" lon="-5.340360961854458">
        <ele>17.440000000000001</ele>
        <time>2025-05-08T14:16:29Z</time>
      </trkpt>
      <trkpt lat="36.126252030953765" lon="-5.340350987389684">
        <ele>17.440000000000001</ele>
        <time>2025-05-08T14:16:30Z</time>
      </trkpt>
      <trkpt lat="36.126149017363787" lon="-5.340374959632754">
        <ele>17.440000000000001</ele>
        <time>2025-05-08T14:16:31Z</time>
      </trkpt>
      <trkpt lat="36.126051032915711" lon="-5.340397004038096">
        <ele>17.440000000000001</ele>
        <time>2025-05-08T14:16:32Z</time>
      </trkpt>
      <trkpt lat="36.125972997397184" lon="-5.340442014858127">
        <ele>17.440000000000001</ele>
        <time>2025-05-08T14:16:33Z</time>
      </trkpt>
      <trkpt lat="36.125894039869308" lon="-5.340521978214383">
        <ele>17.920000000000002</ele>
        <time>2025-05-08T14:16:34Z</time>
      </trkpt>
      <trkpt lat="36.125821033492684" lon="-5.340602025389671">
        <ele>17.920000000000002</ele>
        <time>2025-05-08T14:16:35Z</time>
      </trkpt>
      <trkpt lat="36.125751966610551" lon="-5.340702021494508">
        <ele>18.399999999999999</ele>
        <time>2025-05-08T14:16:36Z</time>
      </trkpt>
      <trkpt lat="36.125678038224578" lon="-5.340809980407357">
        <ele>18.399999999999999</ele>
        <time>2025-05-08T14:16:37Z</time>
      </trkpt>
      <trkpt lat="36.122078010812402" lon="-5.342397009953857">
        <ele>18.399999999999999</ele>
        <time>2025-05-08T14:17:08Z</time>
      </trkpt>
      <trkpt lat="36.121851028874516" lon="-5.342507986351848">
        <ele>18.399999999999999</ele>
        <time>2025-05-08T14:17:10Z</time>
      </trkpt>
      <trkpt lat="36.121102022007108" lon="-5.343025987967849">
        <ele>18.399999999999999</ele>
        <time>2025-05-08T14:17:17Z</time>
      </trkpt>
      <trkpt lat="36.120760040357709" lon="-5.343181975185871">
        <ele>18.399999999999999</ele>
        <time>2025-05-08T14:17:20Z</time>
      </trkpt>
      <trkpt lat="36.119552040472627" lon="-5.343210976570845">
        <ele>18.399999999999999</ele>
        <time>2025-05-08T14:17:30Z</time>
      </trkpt>
      <trkpt lat="36.119436034932733" lon="-5.342971002683044">
        <ele>18.399999999999999</ele>
        <time>2025-05-08T14:17:32Z</time>
      </trkpt>
      <trkpt lat="36.119270995259285" lon="-5.342789031565189">
        <ele>18.399999999999999</ele>
        <time>2025-05-08T14:17:34Z</time>
      </trkpt>
      <trkpt lat="36.119149038568139" lon="-5.342758018523455">
        <ele>18.399999999999999</ele>
        <time>2025-05-08T14:17:35Z</time>
      </trkpt>
      <trkpt lat="36.11818696372211" lon="-5.342546040192246">
        <ele>18.399999999999999</ele>
        <time>2025-05-08T14:17:43Z</time>
      </trkpt>
      <trkpt lat="36.119600990787148" lon="-5.343252969905734">
        <ele>13.6</ele>
        <time>2025-05-08T14:17:45Z</time>
      </trkpt>
      <trkpt lat="36.119172004982829" lon="-5.342763969674707">
        <ele>47.240000000000002</ele>
        <time>2025-05-08T14:17:50Z</time>
      </trkpt>
      <trkpt lat="36.119013000279665" lon="-5.342723987996578">
        <ele>51.57</ele>
        <time>2025-05-08T14:17:52Z</time>
      </trkpt>
      <trkpt lat="36.118992967531085" lon="-5.342720970511437">
        <ele>52.530000000000001</ele>
        <time>2025-05-08T14:17:53Z</time>
      </trkpt>
      <trkpt lat="36.118842009454966" lon="-5.342696998268366">
        <ele>53.969999999999999</ele>
        <time>2025-05-08T14:17:55Z</time>
      </trkpt>
      <trkpt lat="36.117978002876043" lon="-5.342454006895423">
        <ele>45.799999999999997</ele>
        <time>2025-05-08T14:18:05Z</time>
      </trkpt>
      <trkpt lat="36.117386994883418" lon="-5.342209003865719">
        <ele>37.630000000000003</ele>
        <time>2025-05-08T14:18:12Z</time>
      </trkpt>
      <trkpt lat="36.117318011820316" lon="-5.342209003865719">
        <ele>36.670000000000002</ele>
        <time>2025-05-08T14:18:13Z</time>
      </trkpt>
      <trkpt lat="36.117253974080086" lon="-5.342257032170892">
        <ele>36.189999999999998</ele>
        <time>2025-05-08T14:18:14Z</time>
      </trkpt>
      <trkpt lat="36.117192031815648" lon="-5.342303970828652">
        <ele>35.229999999999997</ele>
        <time>2025-05-08T14:18:15Z</time>
      </trkpt>
      <trkpt lat="36.117122964933515" lon="-5.342356022447348">
        <ele>34.740000000000002</ele>
        <time>2025-05-08T14:18:16Z</time>
      </trkpt>
      <trkpt lat="36.11704995855689" lon="-5.342411007732153">
        <ele>34.259999999999998</ele>
        <time>2025-05-08T14:18:17Z</time>
      </trkpt>
      <trkpt lat="36.11663899384439" lon="-5.34285600297153">
        <ele>33.299999999999997</ele>
        <time>2025-05-08T14:18:23Z</time>
      </trkpt>
      <trkpt lat="36.116564981639385" lon="-5.342939989641309">
        <ele>32.82</ele>
        <time>2025-05-08T14:18:24Z</time>
      </trkpt>
      <trkpt lat="36.116473032161593" lon="-5.342987012118101">
        <ele>32.82</ele>
        <time>2025-05-08T14:18:25Z</time>
      </trkpt>
      <trkpt lat="36.116379993036389" lon="-5.343035040423274">
        <ele>32.340000000000003</ele>
        <time>2025-05-08T14:18:26Z</time>
      </trkpt>
      <trkpt lat="36.116285026073456" lon="-5.343083990737796">
        <ele>31.859999999999999</ele>
        <time>2025-05-08T14:18:27Z</time>
      </trkpt>
      <trkpt lat="36.116189975291491" lon="-5.343132019042969">
        <ele>31.859999999999999</ele>
        <time>2025-05-08T14:18:28Z</time>
      </trkpt>
      <trkpt lat="36.115568038076162" lon="-5.34343502484262">
        <ele>28.02</ele>
        <time>2025-05-08T14:18:35Z</time>
      </trkpt>
      <trkpt lat="36.115482039749622" lon="-5.343470983207226">
        <ele>27.530000000000001</ele>
        <time>2025-05-08T14:18:36Z</time>
      </trkpt>
      <trkpt lat="36.115393023937941" lon="-5.343509959056974">
        <ele>27.050000000000001</ele>
        <time>2025-05-08T14:18:37Z</time>
      </trkpt>
      <trkpt lat="36.115192025899887" lon="-5.343550024554133">
        <ele>26.57</ele>
        <time>2025-05-08T14:18:39Z</time>
      </trkpt>
      <trkpt lat="36.114998990669847" lon="-5.343566033989191">
        <ele>26.57</ele>
        <time>2025-05-08T14:18:41Z</time>
      </trkpt>
      <trkpt lat="36.114894971251488" lon="-5.343573996797204">
        <ele>26.57</ele>
        <time>2025-05-08T14:18:42Z</time>
      </trkpt>
      <trkpt lat="36.113623017445207" lon="-5.343676004558802">
        <ele>27.530000000000001</ele>
        <time>2025-05-08T14:18:55Z</time>
      </trkpt>
      <trkpt lat="36.113539030775428" lon="-5.343682039529085">
        <ele>28.02</ele>
        <time>2025-05-08T14:18:56Z</time>
      </trkpt>
      <trkpt lat="36.113456971943378" lon="-5.343688996508718">
        <ele>28.02</ele>
        <time>2025-05-08T14:18:57Z</time>
      </trkpt>
      <trkpt lat="36.113371979445219" lon="-5.343696037307382">
        <ele>28.5</ele>
        <time>2025-05-08T14:18:58Z</time>
      </trkpt>
      <trkpt lat="36.113278018310666" lon="-5.343702994287014">
        <ele>28.5</ele>
        <time>2025-05-08T14:18:59Z</time>
      </trkpt>
      <trkpt lat="36.113184979185462" lon="-5.343711040914059">
        <ele>28.5</ele>
        <time>2025-05-08T14:19:00Z</time>
      </trkpt>
      <trkpt lat="36.113107027485967" lon="-5.343776000663638">
        <ele>28.5</ele>
        <time>2025-05-08T14:19:01Z</time>
      </trkpt>
      <trkpt lat="36.113033015280962" lon="-5.343843977898359">
        <ele>28.98</ele>
        <time>2025-05-08T14:19:02Z</time>
      </trkpt>
      <trkpt lat="36.112960008904338" lon="-5.343911033123732">
        <ele>28.98</ele>
        <time>2025-05-08T14:19:03Z</time>
      </trkpt>
      <trkpt lat="36.112890020012856" lon="-5.343974987044931">
        <ele>29.460000000000001</ele>
        <time>2025-05-08T14:19:04Z</time>
      </trkpt>
      <trkpt lat="36.112822964787483" lon="-5.344036007300019">
        <ele>30.420000000000002</ele>
        <time>2025-05-08T14:19:05Z</time>
      </trkpt>
      <trkpt lat="36.112639987841249" lon="-5.344204986467958">
        <ele>33.780000000000001</ele>
        <time>2025-05-08T14:19:08Z</time>
      </trkpt>
      <trkpt lat="36.112618027254939" lon="-5.34427497535944">
        <ele>34.259999999999998</ele>
        <time>2025-05-08T14:19:09Z</time>
      </trkpt>
      <trkpt lat="36.112591037526727" lon="-5.34436097368598">
        <ele>34.740000000000002</ele>
        <time>2025-05-08T14:19:10Z</time>
      </trkpt>
      <trkpt lat="36.112425997853279" lon="-5.344891967251897">
        <ele>35.710000000000001</ele>
        <time>2025-05-08T14:19:17Z</time>
      </trkpt>
      <trkpt lat="36.112376963719726" lon="-5.344964973628521">
        <ele>35.710000000000001</ele>
        <time>2025-05-08T14:19:18Z</time>
      </trkpt>
      <trkpt lat="36.112382998690009" lon="-5.345128001645207">
        <ele>36.189999999999998</ele>
        <time>2025-05-08T14:19:19Z</time>
      </trkpt>
      <trkpt lat="36.112382998690009" lon="-5.345203019678593">
        <ele>36.189999999999998</ele>
        <time>2025-05-08T14:19:21Z</time>
      </trkpt>
      <trkpt lat="36.112374030053616" lon="-5.345248030498624">
        <ele>36.189999999999998</ele>
        <time>2025-05-08T14:19:22Z</time>
      </trkpt>
      <trkpt lat="36.112339999526739" lon="-5.345298992469907">
        <ele>36.670000000000002</ele>
        <time>2025-05-08T14:19:23Z</time>
      </trkpt>
      <trkpt lat="36.112294988706708" lon="-5.345298992469907">
        <ele>36.670000000000002</ele>
        <time>2025-05-08T14:19:24Z</time>
      </trkpt>
      <trkpt lat="36.112238997593522" lon="-5.345298992469907">
        <ele>37.149999999999999</ele>
        <time>2025-05-08T14:19:25Z</time>
      </trkpt>
      <trkpt lat="36.112182000651956" lon="-5.345212994143367">
        <ele>37.149999999999999</ele>
        <time>2025-05-08T14:19:26Z</time>
      </trkpt>
      <trkpt lat="36.11212701536715" lon="-5.345212994143367">
        <ele>37.630000000000003</ele>
        <time>2025-05-08T14:19:27Z</time>
      </trkpt>
      <trkpt lat="36.112017966806889" lon="-5.345212994143367">
        <ele>38.109999999999999</ele>
        <time>2025-05-08T14:19:29Z</time>
      </trkpt>
      <trkpt lat="36.111958958208561" lon="-5.345212994143367">
        <ele>38.109999999999999</ele>
        <time>2025-05-08T14:19:30Z</time>
      </trkpt>
      <trkpt lat="36.111206011846662" lon="-5.345144011080265">
        <ele>37.630000000000003</ele>
        <time>2025-05-08T14:19:42Z</time>
      </trkpt>
      <trkpt lat="36.110522970557213" lon="-5.345124984160066">
        <ele>36.189999999999998</ele>
        <time>2025-05-08T14:19:53Z</time>
      </trkpt>
      <trkpt lat="36.11047301441431" lon="-5.34513303078711">
        <ele>35.710000000000001</ele>
        <time>2025-05-08T14:19:54Z</time>
      </trkpt>
      <trkpt lat="36.110425991937518" lon="-5.345139987766743">
        <ele>35.710000000000001</ele>
        <time>2025-05-08T14:19:55Z</time>
      </trkpt>
      <trkpt lat="36.11032297834754" lon="-5.345321036875248">
        <ele>35.229999999999997</ele>
        <time>2025-05-08T14:19:56Z</time>
      </trkpt>
      <trkpt lat="36.11032297834754" lon="-5.345321036875248">
        <ele>34.740000000000002</ele>
        <time>2025-05-08T14:19:57Z</time>
      </trkpt>
      <trkpt lat="36.110307974740863" lon="-5.3453269880265">
        <ele>34.259999999999998</ele>
        <time>2025-05-08T14:19:58Z</time>
      </trkpt>
      <trkpt lat="36.110267993062735" lon="-5.345342997461557">
        <ele>34.259999999999998</ele>
        <time>2025-05-08T14:19:59Z</time>
      </trkpt>
      <trkpt lat="36.110216025263071" lon="-5.345364036038518">
        <ele>34.259999999999998</ele>
        <time>2025-05-08T14:20:00Z</time>
      </trkpt>
      <trkpt lat="36.110206972807646" lon="-5.345330005511642">
        <ele>34.740000000000002</ele>
        <time>2025-05-08T14:20:01Z</time>
      </trkpt>
      <trkpt lat="36.110198004171252" lon="-5.345294969156385">
        <ele>34.740000000000002</ele>
        <time>2025-05-08T14:20:02Z</time>
      </trkpt>
      <trkpt lat="36.11019398085773" lon="-5.345278037711978">
        <ele>34.740000000000002</ele>
        <time>2025-05-08T14:20:03Z</time>
      </trkpt>
      <trkpt lat="36.11019398085773" lon="-5.345278037711978">
        <ele>34.740000000000002</ele>
        <time>2025-05-08T14:20:04Z</time>
      </trkpt>
      <trkpt lat="36.11019398085773" lon="-5.345278037711978">
        <ele>35.229999999999997</ele>
        <time>2025-05-08T14:20:16Z</time>
      </trkpt>
      <trkpt lat="36.110216025263071" lon="-5.345364036038518">
        <ele>35.229999999999997</ele>
        <time>2025-05-08T14:20:21Z</time>
      </trkpt>
      <trkpt lat="36.110216025263071" lon="-5.345364036038518">
        <ele>34.740000000000002</ele>
        <time>2025-05-08T14:20:22Z</time>
      </trkpt>
      <trkpt lat="36.110216025263071" lon="-5.345364036038518">
        <ele>34.740000000000002</ele>
        <time>2025-05-08T14:20:23Z</time>
      </trkpt>
      <trkpt lat="36.110216025263071" lon="-5.345364036038518">
        <ele>34.740000000000002</ele>
        <time>2025-05-08T14:20:24Z</time>
      </trkpt>
      <trkpt lat="36.110216025263071" lon="-5.345364036038518">
        <ele>34.740000000000002</ele>
        <time>2025-05-08T14:20:25Z</time>
      </trkpt>
      <trkpt lat="36.110216025263071" lon="-5.345364036038518">
        <ele>38.590000000000003</ele>
        <time>2025-05-08T14:21:11Z</time>
      </trkpt>
      <trkpt lat="36.110216025263071" lon="-5.345364036038518">
        <ele>36.189999999999998</ele>
        <time>2025-05-08T14:21:55Z</time>
      </trkpt>
      <trkpt lat="36.110216025263071" lon="-5.345364036038518">
        <ele>35.710000000000001</ele>
        <time>2025-05-08T14:22:32Z</time>
      </trkpt>
      <trkpt lat="36.110216025263071" lon="-5.345364036038518">
        <ele>35.710000000000001</ele>
        <time>2025-05-08T14:23:14Z</time>
      </trkpt>
      <trkpt lat="36.110216025263071" lon="-5.345364036038518">
        <ele>36.670000000000002</ele>
        <time>2025-05-08T14:23:58Z</time>
      </trkpt>
      <trkpt lat="36.110216025263071" lon="-5.345364036038518">
        <ele>37.149999999999999</ele>
        <time>2025-05-08T14:24:41Z</time>
      </trkpt>
      <trkpt lat="36.11019398085773" lon="-5.345344003289938">
        <ele>46.759999999999998</ele>
        <time>2025-05-08T14:44:12Z</time>
      </trkpt>
      <trkpt lat="36.110177971422672" lon="-5.345239983871579">
        <ele>46.759999999999998</ele>
        <time>2025-05-08T14:44:26Z</time>
      </trkpt>
      <trkpt lat="36.110188029706478" lon="-5.345203019678593">
        <ele>45.799999999999997</ele>
        <time>2025-05-08T14:44:28Z</time>
      </trkpt>
      <trkpt lat="36.110234968364239" lon="-5.345191033557057">
        <ele>40.990000000000002</ele>
        <time>2025-05-08T14:44:35Z</time>
      </trkpt>
      <trkpt lat="36.110271010547876" lon="-5.345149040222168">
        <ele>39.549999999999997</ele>
        <time>2025-05-08T14:44:37Z</time>
      </trkpt>
      <trkpt lat="36.110308980569243" lon="-5.345149040222168">
        <ele>38.590000000000003</ele>
        <time>2025-05-08T14:44:38Z</time>
      </trkpt>
      <trkpt lat="36.110364971682429" lon="-5.345149040222168">
        <ele>38.109999999999999</ele>
        <time>2025-05-08T14:44:39Z</time>
      </trkpt>
      <trkpt lat="36.11043001525104" lon="-5.345139987766743">
        <ele>37.149999999999999</ele>
        <time>2025-05-08T14:44:40Z</time>
      </trkpt>
      <trkpt lat="36.110511990264058" lon="-5.345126995816827">
        <ele>36.670000000000002</ele>
        <time>2025-05-08T14:44:41Z</time>
      </trkpt>
      <trkpt lat="36.111422013491392" lon="-5.345169994980097">
        <ele>31.859999999999999</ele>
        <time>2025-05-08T14:44:51Z</time>
      </trkpt>
      <trkpt lat="36.111991982907057" lon="-5.345212994143367">
        <ele>30.420000000000002</ele>
        <time>2025-05-08T14:44:59Z</time>
      </trkpt>
      <trkpt lat="36.112059038132429" lon="-5.345212994143367">
        <ele>30.420000000000002</ele>
        <time>2025-05-08T14:45:00Z</time>
      </trkpt>
      <trkpt lat="36.112117962911725" lon="-5.345212994143367">
        <ele>30.420000000000002</ele>
        <time>2025-05-08T14:45:01Z</time>
      </trkpt>
      <trkpt lat="36.112211002036929" lon="-5.345128001645207">
        <ele>30.420000000000002</ele>
        <time>2025-05-08T14:45:02Z</time>
      </trkpt>
      <trkpt lat="36.112241009250283" lon="-5.34511299803853">
        <ele>30.899999999999999</ele>
        <time>2025-05-08T14:45:03Z</time>
      </trkpt>
      <trkpt lat="36.112291971221566" lon="-5.345088019967079">
        <ele>30.899999999999999</ele>
        <time>2025-05-08T14:45:04Z</time>
      </trkpt>
      <trkpt lat="36.112331030890346" lon="-5.345102017745376">
        <ele>30.899999999999999</ele>
        <time>2025-05-08T14:45:05Z</time>
      </trkpt>
      <trkpt lat="36.112374030053616" lon="-5.345122972503305">
        <ele>30.899999999999999</ele>
        <time>2025-05-08T14:45:06Z</time>
      </trkpt>
      <trkpt lat="36.112382998690009" lon="-5.345189021900296">
        <ele>30.899999999999999</ele>
        <time>2025-05-08T14:45:07Z</time>
      </trkpt>
      <trkpt lat="36.112382998690009" lon="-5.345235038548708">
        <ele>30.899999999999999</ele>
        <time>2025-05-08T14:45:08Z</time>
      </trkpt>
      <trkpt lat="36.112339999526739" lon="-5.34536998718977">
        <ele>31.379999999999999</ele>
        <time>2025-05-08T14:45:09Z</time>
      </trkpt>
      <trkpt lat="36.112330025061965" lon="-5.346329966560006">
        <ele>34.259999999999998</ele>
        <time>2025-05-08T14:45:16Z</time>
      </trkpt>
      <trkpt lat="36.112587014213204" lon="-5.347365969792008">
        <ele>40.030000000000001</ele>
        <time>2025-05-08T14:45:25Z</time>
      </trkpt>
      <trkpt lat="36.113012982532382" lon="-5.34816300496459">
        <ele>48.200000000000003</ele>
        <time>2025-05-08T14:45:35Z</time>
      </trkpt>
      <trkpt lat="36.113051036372781" lon="-5.34822503104806">
        <ele>48.68</ele>
        <time>2025-05-08T14:45:36Z</time>
      </trkpt>
      <trkpt lat="36.113089006394148" lon="-5.348285967484117">
        <ele>49.159999999999997</ele>
        <time>2025-05-08T14:45:37Z</time>
      </trkpt>
      <trkpt lat="36.113132005557418" lon="-5.348342964425683">
        <ele>50.130000000000003</ele>
        <time>2025-05-08T14:45:38Z</time>
      </trkpt>
      <trkpt lat="36.113185985013843" lon="-5.348394010215998">
        <ele>50.609999999999999</ele>
        <time>2025-05-08T14:45:39Z</time>
      </trkpt>
      <trkpt lat="36.113240970298648" lon="-5.348445978015661">
        <ele>51.090000000000003</ele>
        <time>2025-05-08T14:45:40Z</time>
      </trkpt>
      <trkpt lat="36.113628968596458" lon="-5.348738003522158">
        <ele>53.969999999999999</ele>
        <time>2025-05-08T14:45:47Z</time>
      </trkpt>
      <trkpt lat="36.113696023821831" lon="-5.348769016563892">
        <ele>53.969999999999999</ele>
        <time>2025-05-08T14:45:48Z</time>
      </trkpt>
      <trkpt lat="36.113770036026835" lon="-5.348796006292105">
        <ele>54.450000000000003</ele>
        <time>2025-05-08T14:45:49Z</time>
      </trkpt>
      <trkpt lat="36.113842958584428" lon="-5.34878795966506">
        <ele>54.93</ele>
        <time>2025-05-08T14:45:50Z</time>
      </trkpt>
      <trkpt lat="36.113914959132671" lon="-5.348781002685428">
        <ele>55.409999999999997</ele>
        <time>2025-05-08T14:45:51Z</time>
      </trkpt>
      <trkpt lat="36.113971034064889" lon="-5.348774967715144">
        <ele>55.890000000000001</ele>
        <time>2025-05-08T14:45:52Z</time>
      </trkpt>
      <trkpt lat="36.114044962450862" lon="-5.34874202683568">
        <ele>56.369999999999997</ele>
        <time>2025-05-08T14:45:53Z</time>
      </trkpt>
      <trkpt lat="36.114113023504615" lon="-5.348711013793945">
        <ele>56.859999999999999</ele>
        <time>2025-05-08T14:45:54Z</time>
      </trkpt>
      <trkpt lat="36.114179994910955" lon="-5.348681006580591">
        <ele>57.340000000000003</ele>
        <time>2025-05-08T14:45:55Z</time>
      </trkpt>
      <trkpt lat="36.11436297185719" lon="-5.348572041839361">
        <ele>59.259999999999998</ele>
        <time>2025-05-08T14:45:58Z</time>
      </trkpt>
      <trkpt lat="36.115126982331276" lon="-5.34822603687644">
        <ele>64.549999999999997</ele>
        <time>2025-05-08T14:46:09Z</time>
      </trkpt>
      <trkpt lat="36.115461001172662" lon="-5.348132997751236">
        <ele>65.510000000000005</ele>
        <time>2025-05-08T14:46:13Z</time>
      </trkpt>
      <trkpt lat="36.115540964528918" lon="-5.348111037164927">
        <ele>65.989999999999995</ele>
        <time>2025-05-08T14:46:14Z</time>
      </trkpt>
      <trkpt lat="36.115623023360968" lon="-5.348088992759585">
        <ele>66.469999999999999</ele>
        <time>2025-05-08T14:46:15Z</time>
      </trkpt>
      <trkpt lat="36.11569301225245" lon="-5.348111959174275">
        <ele>66.950000000000003</ele>
        <time>2025-05-08T14:46:16Z</time>
      </trkpt>
      <trkpt lat="36.115769036114216" lon="-5.348137021064758">
        <ele>66.950000000000003</ele>
        <time>2025-05-08T14:46:17Z</time>
      </trkpt>
      <trkpt lat="36.11584497615695" lon="-5.348173985257745">
        <ele>66.950000000000003</ele>
        <time>2025-05-08T14:46:18Z</time>
      </trkpt>
      <trkpt lat="36.115916976705194" lon="-5.348226958885789">
        <ele>67.430000000000007</ele>
        <time>2025-05-08T14:46:19Z</time>
      </trkpt>
      <trkpt lat="36.1160599719733" lon="-5.348331984132528">
        <ele>67.909999999999997</ele>
        <time>2025-05-08T14:46:21Z</time>
      </trkpt>
      <trkpt lat="36.116138007491827" lon="-5.348388981074095">
        <ele>67.909999999999997</ele>
        <time>2025-05-08T14:46:22Z</time>
      </trkpt>
      <trkpt lat="36.116212019696832" lon="-5.34839803352952">
        <ele>68.390000000000001</ele>
        <time>2025-05-08T14:46:23Z</time>
      </trkpt>
      <trkpt lat="36.116528017446399" lon="-5.348411025479436">
        <ele>69.349999999999994</ele>
        <time>2025-05-08T14:46:27Z</time>
      </trkpt>
      <trkpt lat="36.116606974974275" lon="-5.348411025479436">
        <ele>69.349999999999994</ele>
        <time>2025-05-08T14:46:28Z</time>
      </trkpt>
      <trkpt lat="36.116990027949214" lon="-5.348399039357901">
        <ele>70.790000000000006</ele>
        <time>2025-05-08T14:46:33Z</time>
      </trkpt>
      <trkpt lat="36.117058005183935" lon="-5.348375989124179">
        <ele>70.790000000000006</ele>
        <time>2025-05-08T14:46:34Z</time>
      </trkpt>
      <trkpt lat="36.117126988247037" lon="-5.348344976082444">
        <ele>71.269999999999996</ele>
        <time>2025-05-08T14:46:35Z</time>
      </trkpt>
      <trkpt lat="36.117275012657046" lon="-5.34827096387744">
        <ele>72.239999999999995</ele>
        <time>2025-05-08T14:46:37Z</time>
      </trkpt>
      <trkpt lat="36.117339972406626" lon="-5.348239028826356">
        <ele>72.719999999999999</ele>
        <time>2025-05-08T14:46:38Z</time>
      </trkpt>
      <trkpt lat="36.117405015975237" lon="-5.348215978592634">
        <ele>73.680000000000007</ele>
        <time>2025-05-08T14:46:39Z</time>
      </trkpt>
      <trkpt lat="36.117481039837003" lon="-5.348211033269763">
        <ele>74.159999999999997</ele>
        <time>2025-05-08T14:46:40Z</time>
      </trkpt>
      <trkpt lat="36.117552034556866" lon="-5.348207009956241">
        <ele>75.120000000000005</ele>
        <time>2025-05-08T14:46:41Z</time>
      </trkpt>
      <trkpt lat="36.117613976821303" lon="-5.348202986642718">
        <ele>75.599999999999994</ele>
        <time>2025-05-08T14:46:42Z</time>
      </trkpt>
      <trkpt lat="36.117859985679388" lon="-5.348213966935873">
        <ele>78</ele>
        <time>2025-05-08T14:46:46Z</time>
      </trkpt>
      <trkpt lat="36.117922011762857" lon="-5.348223019391298">
        <ele>78.480000000000004</ele>
        <time>2025-05-08T14:46:47Z</time>
      </trkpt>
      <trkpt lat="36.117985965684056" lon="-5.348231988027692">
        <ele>78.969999999999999</ele>
        <time>2025-05-08T14:46:48Z</time>
      </trkpt>
      <trkpt lat="36.118048997595906" lon="-5.348240034654737">
        <ele>79.450000000000003</ele>
        <time>2025-05-08T14:46:49Z</time>
      </trkpt>
      <trkpt lat="36.118113035336137" lon="-5.34824900329113">
        <ele>80.409999999999997</ele>
        <time>2025-05-08T14:46:50Z</time>
      </trkpt>
      <trkpt lat="36.118174977600574" lon="-5.348256966099143">
        <ele>80.890000000000001</ele>
        <time>2025-05-08T14:46:51Z</time>
      </trkpt>
      <trkpt lat="36.118367007002234" lon="-5.348274987190962">
        <ele>83.290000000000006</ele>
        <time>2025-05-08T14:46:54Z</time>
      </trkpt>
      <trkpt lat="36.118428027257323" lon="-5.348280016332865">
        <ele>83.769999999999996</ele>
        <time>2025-05-08T14:46:55Z</time>
      </trkpt>
      <trkpt lat="36.118490975350142" lon="-5.34827196970582">
        <ele>84.25</ele>
        <time>2025-05-08T14:46:56Z</time>
      </trkpt>
      <trkpt lat="36.118549983948469" lon="-5.348255038261414">
        <ele>85.209999999999994</ele>
        <time>2025-05-08T14:46:57Z</time>
      </trkpt>
      <trkpt lat="36.1186140216887" lon="-5.34822796471417">
        <ele>85.689999999999998</ele>
        <time>2025-05-08T14:46:58Z</time>
      </trkpt>
      <trkpt lat="36.11866096034646" lon="-5.348169961944223">
        <ele>85.689999999999998</ele>
        <time>2025-05-08T14:46:59Z</time>
      </trkpt>
      <trkpt lat="36.118707982823253" lon="-5.348111037164927">
        <ele>86.180000000000007</ele>
        <time>2025-05-08T14:47:00Z</time>
      </trkpt>
      <trkpt lat="36.118776965886354" lon="-5.348024033010006">
        <ele>86.180000000000007</ele>
        <time>2025-05-08T14:47:01Z</time>
      </trkpt>
      <trkpt lat="36.118800016120076" lon="-5.347964018583298">
        <ele>86.659999999999997</ele>
        <time>2025-05-08T14:47:02Z</time>
      </trkpt>
      <trkpt lat="36.11883002333343" lon="-5.347886988893151">
        <ele>86.659999999999997</ele>
        <time>2025-05-08T14:47:03Z</time>
      </trkpt>
      <trkpt lat="36.118860030546784" lon="-5.347807025536895">
        <ele>87.140000000000001</ele>
        <time>2025-05-08T14:47:04Z</time>
      </trkpt>
      <trkpt lat="36.118948962539434" lon="-5.347574008628726">
        <ele>88.579999999999998</ele>
        <time>2025-05-08T14:47:07Z</time>
      </trkpt>
      <trkpt lat="36.119005037471652" lon="-5.347546013072133">
        <ele>89.060000000000002</ele>
        <time>2025-05-08T14:47:08Z</time>
      </trkpt>
      <trkpt lat="36.119378032162786" lon="-5.347359012812376">
        <ele>92.420000000000002</ele>
        <time>2025-05-08T14:47:14Z</time>
      </trkpt>
      <trkpt lat="36.119442991912365" lon="-5.347330011427403">
        <ele>92.900000000000006</ele>
        <time>2025-05-08T14:47:15Z</time>
      </trkpt>
      <trkpt lat="36.119710961356759" lon="-5.34730201587081">
        <ele>96.269999999999996</ele>
        <time>2025-05-08T14:47:22Z</time>
      </trkpt>
      <trkpt lat="36.120016984641552" lon="-5.34738801419735">
        <ele>96.269999999999996</ele>
        <time>2025-05-08T14:47:29Z</time>
      </trkpt>
      <trkpt lat="36.120069036260247" lon="-5.347396982833743">
        <ele>96.75</ele>
        <time>2025-05-08T14:47:30Z</time>
      </trkpt>
      <trkpt lat="36.120214965194464" lon="-5.347423972561956">
        <ele>96.75</ele>
        <time>2025-05-08T14:47:33Z</time>
      </trkpt>
      <trkpt lat="36.120259976014495" lon="-5.347436964511871">
        <ele>97.230000000000004</ele>
        <time>2025-05-08T14:47:34Z</time>
      </trkpt>
      <trkpt lat="36.120303981006145" lon="-5.347450040280819">
        <ele>97.230000000000004</ele>
        <time>2025-05-08T14:47:35Z</time>
      </trkpt>
      <trkpt lat="36.120346980169415" lon="-5.347463032230735">
        <ele>97.709999999999994</ele>
        <time>2025-05-08T14:47:36Z</time>
      </trkpt>
      <trkpt lat="36.120385034009814" lon="-5.34747501835227">
        <ele>97.709999999999994</ele>
        <time>2025-05-08T14:47:37Z</time>
      </trkpt>
      <trkpt lat="36.120501039549708" lon="-5.347534026950598">
        <ele>97.709999999999994</ele>
        <time>2025-05-08T14:47:40Z</time>
      </trkpt>
      <trkpt lat="36.120553007349372" lon="-5.347566967830062">
        <ele>97.230000000000004</ele>
        <time>2025-05-08T14:47:41Z</time>
      </trkpt>
      <trkpt lat="36.120604975149035" lon="-5.347600998356938">
        <ele>96.75</ele>
        <time>2025-05-08T14:47:42Z</time>
      </trkpt>
      <trkpt lat="36.12065602093935" lon="-5.347634023055434">
        <ele>96.269999999999996</ele>
        <time>2025-05-08T14:47:43Z</time>
      </trkpt>
      <trkpt lat="36.120703965425491" lon="-5.347665036097169">
        <ele>95.790000000000006</ele>
        <time>2025-05-08T14:47:44Z</time>
      </trkpt>
      <trkpt lat="36.120750987902284" lon="-5.347694959491491">
        <ele>95.790000000000006</ele>
        <time>2025-05-08T14:47:45Z</time>
      </trkpt>
      <trkpt lat="36.120799016207457" lon="-5.347724966704845">
        <ele>95.790000000000006</ele>
        <time>2025-05-08T14:47:46Z</time>
      </trkpt>
      <trkpt lat="36.120846038684249" lon="-5.34775597974658">
        <ele>95.790000000000006</ele>
        <time>2025-05-08T14:47:47Z</time>
      </trkpt>
      <trkpt lat="36.120895994827151" lon="-5.347787998616695">
        <ele>96.269999999999996</ele>
        <time>2025-05-08T14:47:48Z</time>
      </trkpt>
      <trkpt lat="36.120947040617466" lon="-5.347821023315191">
        <ele>96.75</ele>
        <time>2025-05-08T14:47:49Z</time>
      </trkpt>
      <trkpt lat="36.121125994250178" lon="-5.347922025248408">
        <ele>98.670000000000002</ele>
        <time>2025-05-08T14:47:53Z</time>
      </trkpt>
      <trkpt lat="36.121175028383732" lon="-5.347945997491479">
        <ele>98.670000000000002</ele>
        <time>2025-05-08T14:47:54Z</time>
      </trkpt>
      <trkpt lat="36.121230013668537" lon="-5.347973993048072">
        <ele>98.670000000000002</ele>
        <time>2025-05-08T14:47:55Z</time>
      </trkpt>
      <trkpt lat="36.1215790361166" lon="-5.348193012177944">
        <ele>98.670000000000002</ele>
        <time>2025-05-08T14:48:01Z</time>
      </trkpt>
      <trkpt lat="36.121637038886547" lon="-5.348243974149227">
        <ele>99.150000000000006</ele>
        <time>2025-05-08T14:48:02Z</time>
      </trkpt>
      <trkpt lat="36.121694035828114" lon="-5.348295019939542">
        <ele>99.150000000000006</ele>
        <time>2025-05-08T14:48:03Z</time>
      </trkpt>
      <trkpt lat="36.121740974485874" lon="-5.348336007446051">
        <ele>99.150000000000006</ele>
        <time>2025-05-08T14:48:04Z</time>
      </trkpt>
      <trkpt lat="36.121780034154654" lon="-5.348370959982276">
        <ele>98.670000000000002</ele>
        <time>2025-05-08T14:48:05Z</time>
      </trkpt>
      <trkpt lat="36.121809035539627" lon="-5.348396021872759">
        <ele>98.670000000000002</ele>
        <time>2025-05-08T14:48:06Z</time>
      </trkpt>
      <trkpt lat="36.122058983892202" lon="-5.34861596301198">
        <ele>98.189999999999998</ele>
        <time>2025-05-08T14:48:16Z</time>
      </trkpt>
      <trkpt lat="36.122167026624084" lon="-5.348710007965565">
        <ele>97.230000000000004</ele>
        <time>2025-05-08T14:48:20Z</time>
      </trkpt>
      <trkpt lat="36.122198961675167" lon="-5.348738003522158">
        <ele>97.230000000000004</ele>
        <time>2025-05-08T14:48:21Z</time>
      </trkpt>
      <trkpt lat="36.122388979420066" lon="-5.348917040973902">
        <ele>95.310000000000002</ele>
        <time>2025-05-08T14:48:27Z</time>
      </trkpt>
      <trkpt lat="36.122759962454438" lon="-5.349290035665035">
        <ele>92.420000000000002</ele>
        <time>2025-05-08T14:48:36Z</time>
      </trkpt>
      <trkpt lat="36.122851995751262" lon="-5.34932398237288">
        <ele>91.459999999999994</ele>
        <time>2025-05-08T14:48:38Z</time>
      </trkpt>
      <trkpt lat="36.122887032106519" lon="-5.349335968494415">
        <ele>90.980000000000004</ele>
        <time>2025-05-08T14:48:39Z</time>
      </trkpt>
      <trkpt lat="36.122995996847749" lon="-5.349376033991575">
        <ele>88.099999999999994</ele>
        <time>2025-05-08T14:48:44Z</time>
      </trkpt>
      <trkpt lat="36.123402016237378" lon="-5.349451974034309">
        <ele>85.209999999999994</ele>
        <time>2025-05-08T14:48:51Z</time>
      </trkpt>
      <trkpt lat="36.123725976794958" lon="-5.349490027874708">
        <ele>83.290000000000006</ele>
        <time>2025-05-08T14:48:55Z</time>
      </trkpt>
      <trkpt lat="36.124522006139159" lon="-5.349580971524119">
        <ele>78.969999999999999</ele>
        <time>2025-05-08T14:49:05Z</time>
      </trkpt>
      <trkpt lat="36.124602975323796" lon="-5.349590023979545">
        <ele>78.480000000000004</ele>
        <time>2025-05-08T14:49:06Z</time>
      </trkpt>
      <trkpt lat="36.125098010525107" lon="-5.34964500926435">
        <ele>78</ele>
        <time>2025-05-08T14:49:12Z</time>
      </trkpt>
      <trkpt lat="36.125262966379523" lon="-5.349663030356169">
        <ele>78.480000000000004</ele>
        <time>2025-05-08T14:49:14Z</time>
      </trkpt>
      <trkpt lat="36.125708967447281" lon="-5.349635034799576">
        <ele>80.890000000000001</ele>
        <time>2025-05-08T14:49:19Z</time>
      </trkpt>
      <trkpt lat="36.126154968515038" lon="-5.349628999829292">
        <ele>81.849999999999994</ele>
        <time>2025-05-08T14:49:24Z</time>
      </trkpt>
      <trkpt lat="36.126231998205185" lon="-5.349637968465686">
        <ele>81.849999999999994</ele>
        <time>2025-05-08T14:49:25Z</time>
      </trkpt>
      <trkpt lat="36.12630701623857" lon="-5.349670993164182">
        <ele>81.370000000000005</ele>
        <time>2025-05-08T14:49:26Z</time>
      </trkpt>
      <trkpt lat="36.126383040100336" lon="-5.349706029519439">
        <ele>80.890000000000001</ele>
        <time>2025-05-08T14:49:27Z</time>
      </trkpt>
      <trkpt lat="36.126455962657928" lon="-5.349737964570522">
        <ele>80.890000000000001</ele>
        <time>2025-05-08T14:49:28Z</time>
      </trkpt>
      <trkpt lat="36.126529974862933" lon="-5.349771995097399">
        <ele>80.890000000000001</ele>
        <time>2025-05-08T14:49:29Z</time>
      </trkpt>
      <trkpt lat="36.126604992896318" lon="-5.349806025624275">
        <ele>80.409999999999997</ele>
        <time>2025-05-08T14:49:30Z</time>
      </trkpt>
      <trkpt lat="36.126674981787801" lon="-5.349823962897062">
        <ele>79.930000000000007</ele>
        <time>2025-05-08T14:49:31Z</time>
      </trkpt>
      <trkpt lat="36.126757962629199" lon="-5.349811976775527">
        <ele>79.930000000000007</ele>
        <time>2025-05-08T14:49:32Z</time>
      </trkpt>
      <trkpt lat="36.126837003976107" lon="-5.349783981218934">
        <ele>79.450000000000003</ele>
        <time>2025-05-08T14:49:33Z</time>
      </trkpt>
      <trkpt lat="36.126915039494634" lon="-5.349735030904412">
        <ele>79.450000000000003</ele>
        <time>2025-05-08T14:49:34Z</time>
      </trkpt>
      <trkpt lat="36.126992991194129" lon="-5.349685996770859">
        <ele>79.450000000000003</ele>
        <time>2025-05-08T14:49:35Z</time>
      </trkpt>
      <trkpt lat="36.127069015055895" lon="-5.349638974294066">
        <ele>79.450000000000003</ele>
        <time>2025-05-08T14:49:36Z</time>
      </trkpt>
      <trkpt lat="36.127142021432519" lon="-5.349593041464686">
        <ele>79.930000000000007</ele>
        <time>2025-05-08T14:49:37Z</time>
      </trkpt>
      <trkpt lat="36.127564972266555" lon="-5.349438982084394">
        <ele>81.370000000000005</ele>
        <time>2025-05-08T14:49:45Z</time>
      </trkpt>
      <trkpt lat="36.127677038311958" lon="-5.349423978477716">
        <ele>81.370000000000005</ele>
        <time>2025-05-08T14:49:47Z</time>
      </trkpt>
      <trkpt lat="36.127732023596764" lon="-5.349428001791239">
        <ele>81.370000000000005</ele>
        <time>2025-05-08T14:49:48Z</time>
      </trkpt>
      <trkpt lat="36.127792038023472" lon="-5.349433030933142">
        <ele>81.370000000000005</ele>
        <time>2025-05-08T14:49:49Z</time>
      </trkpt>
      <trkpt lat="36.128201996907592" lon="-5.349463960155845">
        <ele>79.930000000000007</ele>
        <time>2025-05-08T14:49:56Z</time>
      </trkpt>
      <trkpt lat="36.128304004669189" lon="-5.349469995126128">
        <ele>79.930000000000007</ele>
        <time>2025-05-08T14:49:58Z</time>
      </trkpt>
      <trkpt lat="36.128460997715592" lon="-5.349478963762522">
        <ele>79.930000000000007</ele>
        <time>2025-05-08T14:50:07Z</time>
      </trkpt>
      <trkpt lat="36.128493016585708" lon="-5.349530009552836">
        <ele>78.969999999999999</ele>
        <time>2025-05-08T14:50:10Z</time>
      </trkpt>
      <trkpt lat="36.128479018807411" lon="-5.349545013159514">
        <ele>78.480000000000004</ele>
        <time>2025-05-08T14:50:11Z</time>
      </trkpt>
      <trkpt lat="36.128453034907579" lon="-5.349570997059345">
        <ele>78.480000000000004</ele>
        <time>2025-05-08T14:50:12Z</time>
      </trkpt>
      <trkpt lat="36.128433002158999" lon="-5.349591029807925">
        <ele>78.969999999999999</ele>
        <time>2025-05-08T14:50:13Z</time>
      </trkpt>
      <trkpt lat="36.128409029915929" lon="-5.349588012322784">
        <ele>79.450000000000003</ele>
        <time>2025-05-08T14:50:14Z</time>
      </trkpt>
      <trkpt lat="36.128363013267517" lon="-5.349582983180881">
        <ele>79.930000000000007</ele>
        <time>2025-05-08T14:50:15Z</time>
      </trkpt>
      <trkpt lat="36.128310039639473" lon="-5.349577032029629">
        <ele>79.930000000000007</ele>
        <time>2025-05-08T14:50:16Z</time>
      </trkpt>
      <trkpt lat="36.128165032714605" lon="-5.349580971524119">
        <ele>79.450000000000003</ele>
        <time>2025-05-08T14:50:18Z</time>
      </trkpt>
      <trkpt lat="36.128083979710937" lon="-5.349593963474035">
        <ele>78.969999999999999</ele>
        <time>2025-05-08T14:50:19Z</time>
      </trkpt>
      <trkpt lat="36.127780973911285" lon="-5.349640985950828">
        <ele>77.040000000000006</ele>
        <time>2025-05-08T14:50:23Z</time>
      </trkpt>
      <trkpt lat="36.127706961706281" lon="-5.349652972072363">
        <ele>76.560000000000002</ele>
        <time>2025-05-08T14:50:24Z</time>
      </trkpt>
      <trkpt lat="36.127634039148688" lon="-5.349664036184549">
        <ele>75.599999999999994</ele>
        <time>2025-05-08T14:50:25Z</time>
      </trkpt>
      <trkpt lat="36.127544017508626" lon="-5.349684990942478">
        <ele>75.120000000000005</ele>
        <time>2025-05-08T14:50:26Z</time>
      </trkpt>
      <trkpt lat="36.127499006688595" lon="-5.349722960963845">
        <ele>74.159999999999997</ele>
        <time>2025-05-08T14:50:27Z</time>
      </trkpt>
      <trkpt lat="36.127461958676577" lon="-5.349754979833961">
        <ele>72.719999999999999</ele>
        <time>2025-05-08T14:50:28Z</time>
      </trkpt>
      <trkpt lat="36.127396998926997" lon="-5.349823040887713">
        <ele>72.239999999999995</ele>
        <time>2025-05-08T14:50:29Z</time>
      </trkpt>
      <trkpt lat="36.127364980056882" lon="-5.349910967051983">
        <ele>71.269999999999996</ele>
        <time>2025-05-08T14:50:30Z</time>
      </trkpt>
      <trkpt lat="36.127332039177418" lon="-5.349999982863665">
        <ele>70.310000000000002</ele>
        <time>2025-05-08T14:50:31Z</time>
      </trkpt>
      <trkpt lat="36.127297002822161" lon="-5.350092016160488">
        <ele>69.349999999999994</ele>
        <time>2025-05-08T14:50:32Z</time>
      </trkpt>
      <trkpt lat="36.12723003141582" lon="-5.350259989500046">
        <ele>67.430000000000007</ele>
        <time>2025-05-08T14:50:34Z</time>
      </trkpt>
      <trkpt lat="36.127200024202466" lon="-5.350335007533431">
        <ele>66.469999999999999</ele>
        <time>2025-05-08T14:50:35Z</time>
      </trkpt>
      <trkpt lat="36.127177979797125" lon="-5.350370965898037">
        <ele>65.510000000000005</ele>
        <time>2025-05-08T14:50:36Z</time>
      </trkpt>
      <trkpt lat="36.127120982855558" lon="-5.350408013910055">
        <ele>64.069999999999993</ele>
        <time>2025-05-08T14:50:37Z</time>
      </trkpt>
      <trkpt lat="36.127068009227514" lon="-5.350443972274661">
        <ele>63.100000000000001</ele>
        <time>2025-05-08T14:50:38Z</time>
      </trkpt>
      <trkpt lat="36.127021992579103" lon="-5.350474985316396">
        <ele>62.140000000000001</ele>
        <time>2025-05-08T14:50:39Z</time>
      </trkpt>
      <trkpt lat="36.126978993415833" lon="-5.350502980872989">
        <ele>61.659999999999997</ele>
        <time>2025-05-08T14:50:40Z</time>
      </trkpt>
      <trkpt lat="36.12654497846961" lon="-5.350642036646605">
        <ele>54.93</ele>
        <time>2025-05-08T14:50:48Z</time>
      </trkpt>
      <trkpt lat="36.126451017335057" lon="-5.350637007504702">
        <ele>54.450000000000003</ele>
        <time>2025-05-08T14:50:49Z</time>
      </trkpt>
      <trkpt lat="36.126033011823893" lon="-5.350614963099361">
        <ele>48.68</ele>
        <time>2025-05-08T14:50:57Z</time>
      </trkpt>
      <trkpt lat="36.125927986577153" lon="-5.350609011948109">
        <ele>47.240000000000002</ele>
        <time>2025-05-08T14:50:59Z</time>
      </trkpt>
      <trkpt lat="36.12575096078217" lon="-5.350599037483335">
        <ele>46.280000000000001</ele>
        <time>2025-05-08T14:51:01Z</time>
      </trkpt>
      <trkpt lat="36.125461030751467" lon="-5.350889973342419">
        <ele>42.920000000000002</ele>
        <time>2025-05-08T14:51:07Z</time>
      </trkpt>
      <trkpt lat="36.125422976911068" lon="-5.350928027182818">
        <ele>42.920000000000002</ele>
        <time>2025-05-08T14:51:08Z</time>
      </trkpt>
      <trkpt lat="36.125396993011236" lon="-5.350954011082649">
        <ele>42.920000000000002</ele>
        <time>2025-05-08T14:51:09Z</time>
      </trkpt>
      <trkpt lat="36.12536296248436" lon="-5.350987035781145">
        <ele>42.920000000000002</ele>
        <time>2025-05-08T14:51:11Z</time>
      </trkpt>
      <trkpt lat="36.125300014391541" lon="-5.351049983873963">
        <ele>42.920000000000002</ele>
        <time>2025-05-08T14:51:12Z</time>
      </trkpt>
      <trkpt lat="36.125300014391541" lon="-5.351049983873963">
        <ele>43.399999999999999</ele>
        <time>2025-05-08T14:51:13Z</time>
      </trkpt>
      <trkpt lat="36.125295991078019" lon="-5.351071022450924">
        <ele>42.920000000000002</ele>
        <time>2025-05-08T14:51:14Z</time>
      </trkpt>
      <trkpt lat="36.125282999128103" lon="-5.35112701356411">
        <ele>42.439999999999998</ele>
        <time>2025-05-08T14:51:15Z</time>
      </trkpt>
      <trkpt lat="36.125257015228271" lon="-5.351243019104004">
        <ele>42.439999999999998</ele>
        <time>2025-05-08T14:51:16Z</time>
      </trkpt>
      <trkpt lat="36.125257015228271" lon="-5.351294986903667">
        <ele>41.950000000000003</ele>
        <time>2025-05-08T14:51:17Z</time>
      </trkpt>
      <trkpt lat="36.125257015228271" lon="-5.351375034078956">
        <ele>41.469999999999999</ele>
        <time>2025-05-08T14:51:18Z</time>
      </trkpt>
      <trkpt lat="36.12523203715682" lon="-5.351402023807168">
        <ele>40.990000000000002</ele>
        <time>2025-05-08T14:51:19Z</time>
      </trkpt>
      <trkpt lat="36.125193983316422" lon="-5.351416021585465">
        <ele>41.469999999999999</ele>
        <time>2025-05-08T14:51:20Z</time>
      </trkpt>
      <trkpt lat="36.12514897249639" lon="-5.351432031020522">
        <ele>41.469999999999999</ele>
        <time>2025-05-08T14:51:21Z</time>
      </trkpt>
      <trkpt lat="36.125103961676359" lon="-5.35144804045558">
        <ele>41.469999999999999</ele>
        <time>2025-05-08T14:51:22Z</time>
      </trkpt>
      <trkpt lat="36.124998014420271" lon="-5.351486010476947">
        <ele>41.469999999999999</ele>
        <time>2025-05-08T14:51:24Z</time>
      </trkpt>
      <trkpt lat="36.124930959194899" lon="-5.351538984104991">
        <ele>40.990000000000002</ele>
        <time>2025-05-08T14:51:25Z</time>
      </trkpt>
      <trkpt lat="36.124898018315434" lon="-5.351589024066925">
        <ele>40.509999999999998</ele>
        <time>2025-05-08T14:51:26Z</time>
      </trkpt>
      <trkpt lat="36.124865999445319" lon="-5.351670999079943">
        <ele>40.030000000000001</ele>
        <time>2025-05-08T14:51:27Z</time>
      </trkpt>
      <trkpt lat="36.124857030808926" lon="-5.351744005456567">
        <ele>39.549999999999997</ele>
        <time>2025-05-08T14:51:28Z</time>
      </trkpt>
      <trkpt lat="36.12484697252512" lon="-5.351822040975094">
        <ele>39.07</ele>
        <time>2025-05-08T14:51:29Z</time>
      </trkpt>
      <trkpt lat="36.124838003888726" lon="-5.351897981017828">
        <ele>38.590000000000003</ele>
        <time>2025-05-08T14:51:30Z</time>
      </trkpt>
      <trkpt lat="36.124820988625288" lon="-5.352035025134683">
        <ele>37.630000000000003</ele>
        <time>2025-05-08T14:51:32Z</time>
      </trkpt>
      <trkpt lat="36.124813025817275" lon="-5.352095039561391">
        <ele>37.149999999999999</ele>
        <time>2025-05-08T14:51:33Z</time>
      </trkpt>
      <trkpt lat="36.12480103969574" lon="-5.352143989875913">
        <ele>37.149999999999999</ele>
        <time>2025-05-08T14:51:34Z</time>
      </trkpt>
      <trkpt lat="36.124745970591903" lon="-5.352141978219152">
        <ele>37.149999999999999</ele>
        <time>2025-05-08T14:51:35Z</time>
      </trkpt>
      <trkpt lat="36.124670030549169" lon="-5.35213896073401">
        <ele>37.149999999999999</ele>
        <time>2025-05-08T14:51:36Z</time>
      </trkpt>
      <trkpt lat="36.124585038051009" lon="-5.3521360270679">
        <ele>36.670000000000002</ele>
        <time>2025-05-08T14:51:37Z</time>
      </trkpt>
      <trkpt lat="36.124367024749517" lon="-5.352127980440855">
        <ele>35.710000000000001</ele>
        <time>2025-05-08T14:51:40Z</time>
      </trkpt>
      <trkpt lat="36.124170972034335" lon="-5.352172991260886">
        <ele>34.740000000000002</ele>
        <time>2025-05-08T14:51:43Z</time>
      </trkpt>
      <trkpt lat="36.124105006456375" lon="-5.352215990424156">
        <ele>34.259999999999998</ele>
        <time>2025-05-08T14:51:44Z</time>
      </trkpt>
      <trkpt lat="36.124038035050035" lon="-5.352258989587426">
        <ele>33.780000000000001</ele>
        <time>2025-05-08T14:51:45Z</time>
      </trkpt>
      <trkpt lat="36.12368599511683" lon="-5.352469962090254">
        <ele>27.050000000000001</ele>
        <time>2025-05-08T14:51:53Z</time>
      </trkpt>
      <trkpt lat="36.123583987355232" lon="-5.352527964860201">
        <ele>23.690000000000001</ele>
        <time>2025-05-08T14:52:06Z</time>
      </trkpt>
      <trkpt lat="36.123568983748555" lon="-5.352606000378728">
        <ele>24.170000000000002</ele>
        <time>2025-05-08T14:52:08Z</time>
      </trkpt>
      <trkpt lat="36.123582981526852" lon="-5.35263198427856">
        <ele>23.690000000000001</ele>
        <time>2025-05-08T14:52:09Z</time>
      </trkpt>
      <trkpt lat="36.123603014275432" lon="-5.352669032290578">
        <ele>22.73</ele>
        <time>2025-05-08T14:52:10Z</time>
      </trkpt>
      <trkpt lat="36.123690018430352" lon="-5.352832982316613">
        <ele>19.359999999999999</ele>
        <time>2025-05-08T14:52:13Z</time>
      </trkpt>
      <trkpt lat="36.123734023422003" lon="-5.352928033098579">
        <ele>18.399999999999999</ele>
        <time>2025-05-08T14:52:14Z</time>
      </trkpt>
      <trkpt lat="36.123724970966578" lon="-5.353226009756327">
        <ele>15.52</ele>
        <time>2025-05-08T14:52:18Z</time>
      </trkpt>
      <trkpt lat="36.123722959309816" lon="-5.353283006697893">
        <ele>14.56</ele>
        <time>2025-05-08T14:52:19Z</time>
      </trkpt>
      <trkpt lat="36.123721031472087" lon="-5.353336986154318">
        <ele>13.6</ele>
        <time>2025-05-08T14:52:20Z</time>
      </trkpt>
      <trkpt lat="36.123720025643706" lon="-5.353387026116252">
        <ele>13.119999999999999</ele>
        <time>2025-05-08T14:52:21Z</time>
      </trkpt>
      <trkpt lat="36.123718013986945" lon="-5.353434970602393">
        <ele>12.630000000000001</ele>
        <time>2025-05-08T14:52:22Z</time>
      </trkpt>
      <trkpt lat="36.123717008158565" lon="-5.35348903387785">
        <ele>11.67</ele>
        <time>2025-05-08T14:52:23Z</time>
      </trkpt>
      <trkpt lat="36.123714996501803" lon="-5.353531027212739">
        <ele>11.19</ele>
        <time>2025-05-08T14:52:24Z</time>
      </trkpt>
      <trkpt lat="36.123751038685441" lon="-5.353624988347292">
        <ele>10.23</ele>
        <time>2025-05-08T14:52:25Z</time>
      </trkpt>
      <trkpt lat="36.123805018141866" lon="-5.353624988347292">
        <ele>9.75</ele>
        <time>2025-05-08T14:52:26Z</time>
      </trkpt>
      <trkpt lat="36.124504990875721" lon="-5.353647032752633">
        <ele>5.42</ele>
        <time>2025-05-08T14:52:37Z</time>
      </trkpt>
      <trkpt lat="36.124992985278368" lon="-5.353486016392708">
        <ele>3.02</ele>
        <time>2025-05-08T14:52:43Z</time>
      </trkpt>
      <trkpt lat="36.125074038282037" lon="-5.353443017229438">
        <ele>2.54</ele>
        <time>2025-05-08T14:52:44Z</time>
      </trkpt>
      <trkpt lat="36.125214016065001" lon="-5.353370010852814">
        <ele>1.58</ele>
        <time>2025-05-08T14:52:46Z</time>
      </trkpt>
      <trkpt lat="36.125300014391541" lon="-5.353323994204402">
        <ele>1.1</ele>
        <time>2025-05-08T14:52:47Z</time>
      </trkpt>
      <trkpt lat="36.125300014391541" lon="-5.353323994204402">
        <ele>2.06</ele>
        <time>2025-05-08T14:52:50Z</time>
      </trkpt>
      <trkpt lat="36.125448038801551" lon="-5.353162977844477">
        <ele>2.06</ele>
        <time>2025-05-08T14:52:51Z</time>
      </trkpt>
      <trkpt lat="36.125621041283011" lon="-5.352973965927959">
        <ele>2.54</ele>
        <time>2025-05-08T14:52:55Z</time>
      </trkpt>
      <trkpt lat="36.125666974112391" lon="-5.352924009785056">
        <ele>2.54</ele>
        <time>2025-05-08T14:52:56Z</time>
      </trkpt>
      <trkpt lat="36.125718019902706" lon="-5.352869024500251">
        <ele>2.54</ele>
        <time>2025-05-08T14:52:57Z</time>
      </trkpt>
      <trkpt lat="36.125771999359131" lon="-5.352809010073543">
        <ele>3.02</ele>
        <time>2025-05-08T14:52:58Z</time>
      </trkpt>
      <trkpt lat="36.125822961330414" lon="-5.352740027010441">
        <ele>3.5</ele>
        <time>2025-05-08T14:52:59Z</time>
      </trkpt>
      <trkpt lat="36.125867972150445" lon="-5.352678000926971">
        <ele>3.98</ele>
        <time>2025-05-08T14:53:00Z</time>
      </trkpt>
      <trkpt lat="36.125916000455618" lon="-5.352612035349011">
        <ele>3.98</ele>
        <time>2025-05-08T14:53:01Z</time>
      </trkpt>
      <trkpt lat="36.126017002388835" lon="-5.352472979575396">
        <ele>5.91</ele>
        <time>2025-05-08T14:53:03Z</time>
      </trkpt>
      <trkpt lat="36.126115992665291" lon="-5.352337025105953">
        <ele>7.83</ele>
        <time>2025-05-08T14:53:06Z</time>
      </trkpt>
      <trkpt lat="36.126171983778477" lon="-5.35231196321547">
        <ele>8.310000000000001</ele>
        <time>2025-05-08T14:53:07Z</time>
      </trkpt>
      <trkpt lat="36.126229986548424" lon="-5.352283967658877">
        <ele>8.310000000000001</ele>
        <time>2025-05-08T14:53:08Z</time>
      </trkpt>
      <trkpt lat="36.126340040937066" lon="-5.352234011515975">
        <ele>9.75</ele>
        <time>2025-05-08T14:53:10Z</time>
      </trkpt>
      <trkpt lat="36.126397037878633" lon="-5.352207021787763">
        <ele>10.23</ele>
        <time>2025-05-08T14:53:11Z</time>
      </trkpt>
      <trkpt lat="36.127142021432519" lon="-5.35194399766624">
        <ele>13.6</ele>
        <time>2025-05-08T14:53:22Z</time>
      </trkpt>
      <trkpt lat="36.127214021980762" lon="-5.35192497074604">
        <ele>13.6</ele>
        <time>2025-05-08T14:53:23Z</time>
      </trkpt>
      <trkpt lat="36.127274036407471" lon="-5.351908039301634">
        <ele>14.08</ele>
        <time>2025-05-08T14:53:24Z</time>
      </trkpt>
      <trkpt lat="36.128012984991074" lon="-5.351957995444536">
        <ele>21.77</ele>
        <time>2025-05-08T14:53:33Z</time>
      </trkpt>
      <trkpt lat="36.128093032166362" lon="-5.351960007101297">
        <ele>22.25</ele>
        <time>2025-05-08T14:53:34Z</time>
      </trkpt>
      <trkpt lat="36.128177018836141" lon="-5.351962018758059">
        <ele>22.73</ele>
        <time>2025-05-08T14:53:35Z</time>
      </trkpt>
      <trkpt lat="36.128340968862176" lon="-5.351965958252549">
        <ele>23.210000000000001</ele>
        <time>2025-05-08T14:53:37Z</time>
      </trkpt>
      <trkpt lat="36.128416992723942" lon="-5.35196796990931">
        <ele>23.690000000000001</ele>
        <time>2025-05-08T14:53:38Z</time>
      </trkpt>
      <trkpt lat="36.128494022414088" lon="-5.351969981566072">
        <ele>24.649999999999999</ele>
        <time>2025-05-08T14:53:39Z</time>
      </trkpt>
      <trkpt lat="36.128742964938283" lon="-5.352004012092948">
        <ele>26.09</ele>
        <time>2025-05-08T14:53:42Z</time>
      </trkpt>
      <trkpt lat="36.128913033753633" lon="-5.352044999599457">
        <ele>26.09</ele>
        <time>2025-05-08T14:53:44Z</time>
      </trkpt>
      <trkpt lat="36.129675032570958" lon="-5.352273993194103">
        <ele>25.129999999999999</ele>
        <time>2025-05-08T14:53:52Z</time>
      </trkpt>
      <trkpt lat="36.13058203831315" lon="-5.352520002052188">
        <ele>23.690000000000001</ele>
        <time>2025-05-08T14:54:02Z</time>
      </trkpt>
      <trkpt lat="36.131187966093421" lon="-5.352684035897255">
        <ele>23.210000000000001</ele>
        <time>2025-05-08T14:54:09Z</time>
      </trkpt>
      <trkpt lat="36.131276981905103" lon="-5.352708008140326">
        <ele>22.73</ele>
        <time>2025-05-08T14:54:10Z</time>
      </trkpt>
      <trkpt lat="36.131361974403262" lon="-5.352730974555016">
        <ele>22.25</ele>
        <time>2025-05-08T14:54:11Z</time>
      </trkpt>
      <trkpt lat="36.132051972672343" lon="-5.352875981479883">
        <ele>22.25</ele>
        <time>2025-05-08T14:54:20Z</time>
      </trkpt>
      <trkpt lat="36.132138976827264" lon="-5.35289098508656">
        <ele>21.77</ele>
        <time>2025-05-08T14:54:21Z</time>
      </trkpt>
      <trkpt lat="36.13260299898684" lon="-5.352968014776707">
        <ele>20.809999999999999</ele>
        <time>2025-05-08T14:54:28Z</time>
      </trkpt>
      <trkpt lat="36.132917990908027" lon="-5.353020988404751">
        <ele>18.879999999999999</ele>
        <time>2025-05-08T14:54:37Z</time>
      </trkpt>
      <trkpt lat="36.132939029484987" lon="-5.353024005889893">
        <ele>18.879999999999999</ele>
        <time>2025-05-08T14:54:38Z</time>
      </trkpt>
      <trkpt lat="36.132968030869961" lon="-5.353026017546654">
        <ele>19.359999999999999</ele>
        <time>2025-05-08T14:54:39Z</time>
      </trkpt>
      <trkpt lat="36.132976999506354" lon="-5.353027023375034">
        <ele>19.359999999999999</ele>
        <time>2025-05-08T14:54:51Z</time>
      </trkpt>
      <trkpt lat="36.133047994226217" lon="-5.353032974526286">
        <ele>21.289999999999999</ele>
        <time>2025-05-08T14:55:01Z</time>
      </trkpt>
      <trkpt lat="36.133283022791147" lon="-5.353052001446486">
        <ele>22.25</ele>
        <time>2025-05-08T14:55:15Z</time>
      </trkpt>
      <trkpt lat="36.133448984473944" lon="-5.353064993396401">
        <ele>22.25</ele>
        <time>2025-05-08T14:55:26Z</time>
      </trkpt>
      <trkpt lat="36.133558033034205" lon="-5.353057030588388">
        <ele>22.25</ele>
        <time>2025-05-08T14:55:34Z</time>
      </trkpt>
      <trkpt lat="36.133618969470263" lon="-5.353048983961344">
        <ele>22.25</ele>
        <time>2025-05-08T14:55:41Z</time>
      </trkpt>
      <trkpt lat="36.133775962516665" lon="-5.352809010073543">
        <ele>23.690000000000001</ele>
        <time>2025-05-08T14:55:48Z</time>
      </trkpt>
      <trkpt lat="36.133798006922007" lon="-5.352799035608769">
        <ele>23.690000000000001</ele>
        <time>2025-05-08T14:55:49Z</time>
      </trkpt>
      <trkpt lat="36.133818961679935" lon="-5.352787971496582">
        <ele>24.170000000000002</ele>
        <time>2025-05-08T14:55:50Z</time>
      </trkpt>
      <trkpt lat="36.133903032168746" lon="-5.352835999801755">
        <ele>24.170000000000002</ele>
        <time>2025-05-08T14:55:51Z</time>
      </trkpt>
      <trkpt lat="36.133946031332016" lon="-5.352809010073543">
        <ele>24.170000000000002</ele>
        <time>2025-05-08T14:55:52Z</time>
      </trkpt>
      <trkpt lat="36.133990036323667" lon="-5.35278202034533">
        <ele>24.170000000000002</ele>
        <time>2025-05-08T14:55:53Z</time>
      </trkpt>
      <trkpt lat="36.134031023830175" lon="-5.352756958454847">
        <ele>24.170000000000002</ele>
        <time>2025-05-08T14:55:54Z</time>
      </trkpt>
      <trkpt lat="36.134069999679923" lon="-5.352732986211777">
        <ele>24.170000000000002</ele>
        <time>2025-05-08T14:55:55Z</time>
      </trkpt>
      <trkpt lat="36.134119033813477" lon="-5.352701973170042">
        <ele>24.170000000000002</ele>
        <time>2025-05-08T14:55:56Z</time>
      </trkpt>
      <trkpt lat="36.134154992178082" lon="-5.352691998705268">
        <ele>24.170000000000002</ele>
        <time>2025-05-08T14:55:57Z</time>
      </trkpt>
      <trkpt lat="36.134269991889596" lon="-5.352658974006772">
        <ele>23.690000000000001</ele>
        <time>2025-05-08T14:56:00Z</time>
      </trkpt>
      <trkpt lat="36.134312991052866" lon="-5.352552020922303">
        <ele>23.210000000000001</ele>
        <time>2025-05-08T14:56:01Z</time>
      </trkpt>
      <trkpt lat="36.134393038228154" lon="-5.352539028972387">
        <ele>23.210000000000001</ele>
        <time>2025-05-08T14:56:02Z</time>
      </trkpt>
      <trkpt lat="36.134438971057534" lon="-5.352560989558697">
        <ele>22.25</ele>
        <time>2025-05-08T14:56:03Z</time>
      </trkpt>
      <trkpt lat="36.134483981877565" lon="-5.352658974006772">
        <ele>21.289999999999999</ele>
        <time>2025-05-08T14:56:04Z</time>
      </trkpt>
      <trkpt lat="36.13445196300745" lon="-5.352725023403764">
        <ele>20.809999999999999</ele>
        <time>2025-05-08T14:56:05Z</time>
      </trkpt>
      <trkpt lat="36.134440982714295" lon="-5.352744972333312">
        <ele>20.32</ele>
        <time>2025-05-08T14:56:06Z</time>
      </trkpt>
      <trkpt lat="36.134327994659543" lon="-5.352757964283228">
        <ele>19.84</ele>
        <time>2025-05-08T14:56:07Z</time>
      </trkpt>
      <trkpt lat="36.134294969961047" lon="-5.352823007851839">
        <ele>18.879999999999999</ele>
        <time>2025-05-08T14:56:08Z</time>
      </trkpt>
      <trkpt lat="36.134262029081583" lon="-5.352888973429799">
        <ele>18.399999999999999</ele>
        <time>2025-05-08T14:56:09Z</time>
      </trkpt>
      <trkpt lat="36.134230010211468" lon="-5.35295301117003">
        <ele>18.399999999999999</ele>
        <time>2025-05-08T14:56:10Z</time>
      </trkpt>
      <trkpt lat="36.13419396802783" lon="-5.353025011718273">
        <ele>17.920000000000002</ele>
        <time>2025-05-08T14:56:11Z</time>
      </trkpt>
      <trkpt lat="36.134152980521321" lon="-5.353106986731291">
        <ele>16.960000000000001</ele>
        <time>2025-05-08T14:56:12Z</time>
      </trkpt>
      <trkpt lat="36.133895991370082" lon="-5.35362096503377">
        <ele>11.67</ele>
        <time>2025-05-08T14:56:20Z</time>
      </trkpt>
      <trkpt lat="36.133905965834856" lon="-5.353862028568983">
        <ele>9.27</ele>
        <time>2025-05-08T14:56:25Z</time>
      </trkpt>
      <trkpt lat="36.133925998583436" lon="-5.353881977498531">
        <ele>8.789999999999999</ele>
        <time>2025-05-08T14:56:26Z</time>
      </trkpt>
      <trkpt lat="36.133990958333015" lon="-5.353904021903873">
        <ele>8.310000000000001</ele>
        <time>2025-05-08T14:56:27Z</time>
      </trkpt>
      <trkpt lat="36.134054996073246" lon="-5.353924976661801">
        <ele>7.83</ele>
        <time>2025-05-08T14:56:28Z</time>
      </trkpt>
      <trkpt lat="36.134111993014812" lon="-5.353950038552284">
        <ele>7.83</ele>
        <time>2025-05-08T14:56:29Z</time>
      </trkpt>
      <trkpt lat="36.134177036583424" lon="-5.353978034108877">
        <ele>7.35</ele>
        <time>2025-05-08T14:56:30Z</time>
      </trkpt>
      <trkpt lat="36.134972982108593" lon="-5.354125974699855">
        <ele>6.87</ele>
        <time>2025-05-08T14:56:41Z</time>
      </trkpt>
      <trkpt lat="36.135035008192062" lon="-5.354137038812041">
        <ele>7.35</ele>
        <time>2025-05-08T14:56:42Z</time>
      </trkpt>
      <trkpt lat="36.135170962661505" lon="-5.354161011055112">
        <ele>4.94</ele>
        <time>2025-05-08T14:56:46Z</time>
      </trkpt>
      <trkpt lat="36.135170962661505" lon="-5.354161011055112">
        <ele>4.46</ele>
        <time>2025-05-08T14:56:47Z</time>
      </trkpt>
      <trkpt lat="36.135170962661505" lon="-5.354161011055112">
        <ele>3.98</ele>
        <time>2025-05-08T14:56:48Z</time>
      </trkpt>
      <trkpt lat="36.13524598069489" lon="-5.354196969419718">
        <ele>3.5</ele>
        <time>2025-05-08T14:56:49Z</time>
      </trkpt>
      <trkpt lat="36.135267019271851" lon="-5.354207027703524">
        <ele>3.02</ele>
        <time>2025-05-08T14:56:50Z</time>
      </trkpt>
      <trkpt lat="36.135297026485205" lon="-5.35422102548182">
        <ele>2.54</ele>
        <time>2025-05-08T14:56:51Z</time>
      </trkpt>
      <trkpt lat="36.135326027870178" lon="-5.354235023260117">
        <ele>1.58</ele>
        <time>2025-05-08T14:56:52Z</time>
      </trkpt>
      <trkpt lat="36.13578200340271" lon="-5.354451024904847">
        <ele>-2.27</ele>
        <time>2025-05-08T14:57:02Z</time>
      </trkpt>
      <trkpt lat="36.135929021984339" lon="-5.35452101379633">
        <ele>-3.23</ele>
        <time>2025-05-08T14:57:05Z</time>
      </trkpt>
      <trkpt lat="36.135986018925905" lon="-5.354548003524542">
        <ele>-3.23</ele>
        <time>2025-05-08T14:57:06Z</time>
      </trkpt>
      <trkpt lat="36.136034969240427" lon="-5.354568036273122">
        <ele>-3.23</ele>
        <time>2025-05-08T14:57:07Z</time>
      </trkpt>
      <trkpt lat="36.136090038344264" lon="-5.354592008516192">
        <ele>-3.23</ele>
        <time>2025-05-08T14:57:08Z</time>
      </trkpt>
      <trkpt lat="36.136148041114211" lon="-5.354615980759263">
        <ele>-3.23</ele>
        <time>2025-05-08T14:57:09Z</time>
      </trkpt>
      <trkpt lat="36.136214006692171" lon="-5.354640036821365">
        <ele>-3.23</ele>
        <time>2025-05-08T14:57:10Z</time>
      </trkpt>
      <trkpt lat="36.136623965576291" lon="-5.354803986847401">
        <ele>-3.71</ele>
        <time>2025-05-08T14:57:16Z</time>
      </trkpt>
      <trkpt lat="36.136665036901832" lon="-5.35482200793922">
        <ele>-3.71</ele>
        <time>2025-05-08T14:57:17Z</time>
      </trkpt>
      <trkpt lat="36.136967036873102" lon="-5.354949999600649">
        <ele>-2.27</ele>
        <time>2025-05-08T14:57:26Z</time>
      </trkpt>
      <trkpt lat="36.137070972472429" lon="-5.3549940045923">
        <ele>-1.3</ele>
        <time>2025-05-08T14:57:30Z</time>
      </trkpt>
      <trkpt lat="36.137081030756235" lon="-5.354998027905822">
        <ele>-1.3</ele>
        <time>2025-05-08T14:57:31Z</time>
      </trkpt>
      <trkpt lat="36.137081030756235" lon="-5.354998027905822">
        <ele>-0.82</ele>
        <time>2025-05-08T14:57:32Z</time>
      </trkpt>
      <trkpt lat="36.137167029082775" lon="-5.355048989877105">
        <ele>-0.34</ele>
        <time>2025-05-08T14:57:34Z</time>
      </trkpt>
      <trkpt lat="36.137206004932523" lon="-5.355072040110827">
        <ele>-0.34</ele>
        <time>2025-05-08T14:57:35Z</time>
      </trkpt>
      <trkpt lat="36.13724104128778" lon="-5.355092994868755">
        <ele>0.14</ele>
        <time>2025-05-08T14:57:36Z</time>
      </trkpt>
      <trkpt lat="36.137270964682102" lon="-5.355110010132194">
        <ele>0.14</ele>
        <time>2025-05-08T14:57:37Z</time>
      </trkpt>
      <trkpt lat="36.137297032400966" lon="-5.355126019567251">
        <ele>0.62</ele>
        <time>2025-05-08T14:57:38Z</time>
      </trkpt>
      <trkpt lat="36.137322010472417" lon="-5.355141023173928">
        <ele>0.62</ele>
        <time>2025-05-08T14:57:39Z</time>
      </trkpt>
      <trkpt lat="36.13735101185739" lon="-5.355158038437367">
        <ele>0.62</ele>
        <time>2025-05-08T14:57:40Z</time>
      </trkpt>
      <trkpt lat="36.137389987707138" lon="-5.355181004852057">
        <ele>1.1</ele>
        <time>2025-05-08T14:57:41Z</time>
      </trkpt>
      <trkpt lat="36.137450002133846" lon="-5.355216041207314">
        <ele>1.1</ele>
        <time>2025-05-08T14:57:42Z</time>
      </trkpt>
      <trkpt lat="36.137506999075413" lon="-5.355249987915158">
        <ele>1.58</ele>
        <time>2025-05-08T14:57:43Z</time>
      </trkpt>
      <trkpt lat="36.137553015723825" lon="-5.355276977643371">
        <ele>1.58</ele>
        <time>2025-05-08T14:57:44Z</time>
      </trkpt>
      <trkpt lat="36.13756600767374" lon="-5.355283012613654">
        <ele>2.06</ele>
        <time>2025-05-08T14:57:45Z</time>
      </trkpt>
      <trkpt lat="36.137586962431669" lon="-5.355291981250048">
        <ele>3.02</ele>
        <time>2025-05-08T14:57:46Z</time>
      </trkpt>
      <trkpt lat="36.137613030150533" lon="-5.355303967371583">
        <ele>3.5</ele>
        <time>2025-05-08T14:57:47Z</time>
      </trkpt>
      <trkpt lat="36.1376510001719" lon="-5.355320982635021">
        <ele>3.98</ele>
        <time>2025-05-08T14:57:48Z</time>
      </trkpt>
      <trkpt lat="36.13769399933517" lon="-5.355340009555221">
        <ele>4.46</ele>
        <time>2025-05-08T14:57:49Z</time>
      </trkpt>
      <trkpt lat="36.137778991833329" lon="-5.355378985404968">
        <ele>5.42</ele>
        <time>2025-05-08T14:57:51Z</time>
      </trkpt>
      <trkpt lat="36.137856021523476" lon="-5.355413015931845">
        <ele>6.87</ele>
        <time>2025-05-08T14:57:53Z</time>
      </trkpt>
      <trkpt lat="36.137894997373223" lon="-5.355431037023664">
        <ele>7.83</ele>
        <time>2025-05-08T14:57:54Z</time>
      </trkpt>
      <trkpt lat="36.137931039556861" lon="-5.355446962639689">
        <ele>8.310000000000001</ele>
        <time>2025-05-08T14:57:55Z</time>
      </trkpt>
      <trkpt lat="36.137960962951183" lon="-5.355460038408637">
        <ele>8.789999999999999</ele>
        <time>2025-05-08T14:57:56Z</time>
      </trkpt>
      <trkpt lat="36.137984013184905" lon="-5.355471018701792">
        <ele>9.27</ele>
        <time>2025-05-08T14:57:57Z</time>
      </trkpt>
      <trkpt lat="36.137984013184905" lon="-5.355471018701792">
        <ele>9.75</ele>
        <time>2025-05-08T14:58:09Z</time>
      </trkpt>
      <trkpt lat="36.138180987909436" lon="-5.355559028685093">
        <ele>12.630000000000001</ele>
        <time>2025-05-08T14:58:27Z</time>
      </trkpt>
      <trkpt lat="36.138267992064357" lon="-5.355598004534841">
        <ele>13.6</ele>
        <time>2025-05-08T14:58:29Z</time>
      </trkpt>
      <trkpt lat="36.138314008712769" lon="-5.355618959292769">
        <ele>14.56</ele>
        <time>2025-05-08T14:58:30Z</time>
      </trkpt>
      <trkpt lat="36.138351978734136" lon="-5.355635974556208">
        <ele>17.920000000000002</ele>
        <time>2025-05-08T14:58:31Z</time>
      </trkpt>
      <trkpt lat="36.138903005048633" lon="-5.355963036417961">
        <ele>16.960000000000001</ele>
        <time>2025-05-08T14:58:41Z</time>
      </trkpt>
      <trkpt lat="36.138937035575509" lon="-5.355995977297425">
        <ele>16.48</ele>
        <time>2025-05-08T14:58:42Z</time>
      </trkpt>
      <trkpt lat="36.138966958969831" lon="-5.356025984510779">
        <ele>16</ele>
        <time>2025-05-08T14:58:43Z</time>
      </trkpt>
      <trkpt lat="36.139023033902049" lon="-5.356033025309444">
        <ele>15.52</ele>
        <time>2025-05-08T14:58:44Z</time>
      </trkpt>
      <trkpt lat="36.139076007530093" lon="-5.356007041409612">
        <ele>15.52</ele>
        <time>2025-05-08T14:58:45Z</time>
      </trkpt>
      <trkpt lat="36.139191007241607" lon="-5.356035958975554">
        <ele>15.52</ele>
        <time>2025-05-08T14:58:46Z</time>
      </trkpt>
      <trkpt lat="36.139283962547779" lon="-5.355972005054355">
        <ele>14.56</ele>
        <time>2025-05-08T14:58:47Z</time>
      </trkpt>
      <trkpt lat="36.139372978359461" lon="-5.355910984799266">
        <ele>13.6</ele>
        <time>2025-05-08T14:58:48Z</time>
      </trkpt>
      <trkpt lat="36.139826020225883" lon="-5.355616025626659">
        <ele>12.630000000000001</ele>
        <time>2025-05-08T14:58:56Z</time>
      </trkpt>
      <trkpt lat="36.139957029372454" lon="-5.355560034513474">
        <ele>11.67</ele>
        <time>2025-05-08T14:59:00Z</time>
      </trkpt>
      <trkpt lat="36.139957029372454" lon="-5.355560034513474">
        <ele>11.67</ele>
        <time>2025-05-08T14:59:01Z</time>
      </trkpt>
      <trkpt lat="36.139986030757427" lon="-5.355547964572907">
        <ele>10.710000000000001</ele>
        <time>2025-05-08T14:59:02Z</time>
      </trkpt>
      <trkpt lat="36.140011008828878" lon="-5.355537990108132">
        <ele>9.75</ele>
        <time>2025-05-08T14:59:03Z</time>
      </trkpt>
      <trkpt lat="36.140046967193484" lon="-5.355521980673075">
        <ele>8.789999999999999</ele>
        <time>2025-05-08T14:59:04Z</time>
      </trkpt>
      <trkpt lat="36.140093989670277" lon="-5.355503037571907">
        <ele>8.789999999999999</ele>
        <time>2025-05-08T14:59:05Z</time>
      </trkpt>
      <trkpt lat="36.140147969126701" lon="-5.355479987338185">
        <ele>8.310000000000001</ele>
        <time>2025-05-08T14:59:06Z</time>
      </trkpt>
      <trkpt lat="36.140178982168436" lon="-5.355473030358553">
        <ele>7.83</ele>
        <time>2025-05-08T14:59:07Z</time>
      </trkpt>
      <trkpt lat="36.140231033787131" lon="-5.355489961802959">
        <ele>7.35</ele>
        <time>2025-05-08T14:59:08Z</time>
      </trkpt>
      <trkpt lat="36.140285013243556" lon="-5.355507982894778">
        <ele>6.87</ele>
        <time>2025-05-08T14:59:09Z</time>
      </trkpt>
      <trkpt lat="36.140346033498645" lon="-5.355529021471739">
        <ele>6.87</ele>
        <time>2025-05-08T14:59:10Z</time>
      </trkpt>
      <trkpt lat="36.140402024611831" lon="-5.355564979836345">
        <ele>6.39</ele>
        <time>2025-05-08T14:59:11Z</time>
      </trkpt>
      <trkpt lat="36.140770995989442" lon="-5.355855999514461">
        <ele>3.98</ele>
        <time>2025-05-08T14:59:17Z</time>
      </trkpt>
      <trkpt lat="36.140893958508968" lon="-5.355882989242673">
        <ele>3.5</ele>
        <time>2025-05-08T14:59:18Z</time>
      </trkpt>
      <trkpt lat="36.140976017341018" lon="-5.355900004506111">
        <ele>3.5</ele>
        <time>2025-05-08T14:59:19Z</time>
      </trkpt>
      <trkpt lat="36.141061009839177" lon="-5.355919031426311">
        <ele>3.02</ele>
        <time>2025-05-08T14:59:20Z</time>
      </trkpt>
      <trkpt lat="36.141071990132332" lon="-5.35592095926404">
        <ele>3.02</ele>
        <time>2025-05-08T14:59:21Z</time>
      </trkpt>
      <trkpt lat="36.141212973743677" lon="-5.355890030041337">
        <ele>3.5</ele>
        <time>2025-05-08T14:59:22Z</time>
      </trkpt>
      <trkpt lat="36.141294026747346" lon="-5.355871003121138">
        <ele>3.02</ele>
        <time>2025-05-08T14:59:23Z</time>
      </trkpt>
      <trkpt lat="36.141472980380058" lon="-5.355831021443009">
        <ele>3.02</ele>
        <time>2025-05-08T14:59:26Z</time>
      </trkpt>
      <trkpt lat="36.141513967886567" lon="-5.355820041149855">
        <ele>3.02</ele>
        <time>2025-05-08T14:59:27Z</time>
      </trkpt>
      <trkpt lat="36.141550010070205" lon="-5.355809982866049">
        <ele>3.5</ele>
        <time>2025-05-08T14:59:28Z</time>
      </trkpt>
      <trkpt lat="36.141576999798417" lon="-5.355803025886416">
        <ele>3.5</ele>
        <time>2025-05-08T14:59:29Z</time>
      </trkpt>
      <trkpt lat="36.141603989526629" lon="-5.355794979259372">
        <ele>3.5</ele>
        <time>2025-05-08T14:59:30Z</time>
      </trkpt>
      <trkpt lat="36.141626033931971" lon="-5.35578902810812">
        <ele>3.98</ele>
        <time>2025-05-08T14:59:31Z</time>
      </trkpt>
      <trkpt lat="36.141626033931971" lon="-5.35578902810812">
        <ele>3.98</ele>
        <time>2025-05-08T14:59:40Z</time>
      </trkpt>
      <trkpt lat="36.141843963414431" lon="-5.355731025338173">
        <ele>4.46</ele>
        <time>2025-05-08T14:59:48Z</time>
      </trkpt>
      <trkpt lat="36.142035992816091" lon="-5.355679979547858">
        <ele>3.98</ele>
        <time>2025-05-08T14:59:51Z</time>
      </trkpt>
      <trkpt lat="36.142088966444135" lon="-5.355665981769562">
        <ele>3.98</ele>
        <time>2025-05-08T14:59:52Z</time>
      </trkpt>
      <trkpt lat="36.142164990305901" lon="-5.355647960677743">
        <ele>4.46</ele>
        <time>2025-05-08T14:59:53Z</time>
      </trkpt>
      <trkpt lat="36.142256017774343" lon="-5.355624994263053">
        <ele>4.46</ele>
        <time>2025-05-08T14:59:54Z</time>
      </trkpt>
      <trkpt lat="36.142355008050799" lon="-5.355600016191602">
        <ele>4.46</ele>
        <time>2025-05-08T14:59:55Z</time>
      </trkpt>
      <trkpt lat="36.142456009984016" lon="-5.355575038120151">
        <ele>4.46</ele>
        <time>2025-05-08T14:59:56Z</time>
      </trkpt>
      <trkpt lat="36.142556006088853" lon="-5.355549976229668">
        <ele>4.46</ele>
        <time>2025-05-08T14:59:57Z</time>
      </trkpt>
      <trkpt lat="36.142646027728915" lon="-5.355527009814978">
        <ele>4.46</ele>
        <time>2025-05-08T14:59:58Z</time>
      </trkpt>
      <trkpt lat="36.142776031047106" lon="-5.355494990944862">
        <ele>4.94</ele>
        <time>2025-05-08T15:00:00Z</time>
      </trkpt>
      <trkpt lat="36.142819030210376" lon="-5.355474958196282">
        <ele>4.94</ele>
        <time>2025-05-08T15:00:01Z</time>
      </trkpt>
      <trkpt lat="36.142861023545265" lon="-5.355452997609973">
        <ele>5.42</ele>
        <time>2025-05-08T15:00:02Z</time>
      </trkpt>
      <trkpt lat="36.142893964424729" lon="-5.355435982346535">
        <ele>5.42</ele>
        <time>2025-05-08T15:00:03Z</time>
      </trkpt>
      <trkpt lat="36.142921959981322" lon="-5.355420978739858">
        <ele>5.91</ele>
        <time>2025-05-08T15:00:04Z</time>
      </trkpt>
      <trkpt lat="36.14295800216496" lon="-5.35540203563869">
        <ele>5.91</ele>
        <time>2025-05-08T15:00:13Z</time>
      </trkpt>
      <trkpt lat="36.143190013244748" lon="-5.35527496598661">
        <ele>4.94</ele>
        <time>2025-05-08T15:00:33Z</time>
      </trkpt>
      <trkpt lat="36.143295960500836" lon="-5.35521000623703">
        <ele>4.46</ele>
        <time>2025-05-08T15:00:35Z</time>
      </trkpt>
      <trkpt lat="36.14398998208344" lon="-5.354869030416012">
        <ele>5.42</ele>
        <time>2025-05-08T15:00:46Z</time>
      </trkpt>
      <trkpt lat="36.144342022016644" lon="-5.354841034859419">
        <ele>5.42</ele>
        <time>2025-05-08T15:00:50Z</time>
      </trkpt>
      <trkpt lat="36.14442097954452" lon="-5.354855032637715">
        <ele>4.94</ele>
        <time>2025-05-08T15:00:51Z</time>
      </trkpt>
      <trkpt lat="36.144504966214299" lon="-5.354880010709167">
        <ele>4.46</ele>
        <time>2025-05-08T15:00:52Z</time>
      </trkpt>
      <trkpt lat="36.145074013620615" lon="-5.355041027069092">
        <ele>2.54</ele>
        <time>2025-05-08T15:00:59Z</time>
      </trkpt>
      <trkpt lat="36.145141990855336" lon="-5.355041027069092">
        <ele>2.54</ele>
        <time>2025-05-08T15:01:00Z</time>
      </trkpt>
      <trkpt lat="36.145205022767186" lon="-5.355041027069092">
        <ele>2.54</ele>
        <time>2025-05-08T15:01:01Z</time>
      </trkpt>
      <trkpt lat="36.145271994173527" lon="-5.355013031512499">
        <ele>2.54</ele>
        <time>2025-05-08T15:01:02Z</time>
      </trkpt>
      <trkpt lat="36.145310970023274" lon="-5.354943964630365">
        <ele>2.54</ele>
        <time>2025-05-08T15:01:03Z</time>
      </trkpt>
      <trkpt lat="36.145349023863673" lon="-5.35486500710249">
        <ele>2.54</ele>
        <time>2025-05-08T15:01:04Z</time>
      </trkpt>
      <trkpt lat="36.145374001935124" lon="-5.35477900877595">
        <ele>2.54</ele>
        <time>2025-05-08T15:01:05Z</time>
      </trkpt>
      <trkpt lat="36.145624034106731" lon="-5.353982979431748">
        <ele>1.1</ele>
        <time>2025-05-08T15:01:15Z</time>
      </trkpt>
      <trkpt lat="36.145701985806227" lon="-5.353825986385346">
        <ele>0.62</ele>
        <time>2025-05-08T15:01:23Z</time>
      </trkpt>
      <trkpt lat="36.145727969706059" lon="-5.353775024414063">
        <ele>0.62</ele>
        <time>2025-05-08T15:01:24Z</time>
      </trkpt>
      <trkpt lat="36.145759988576174" lon="-5.353677961975336">
        <ele>0.62</ele>
        <time>2025-05-08T15:01:25Z</time>
      </trkpt>
      <trkpt lat="36.14581698551774" lon="-5.353622976690531">
        <ele>0.62</ele>
        <time>2025-05-08T15:01:26Z</time>
      </trkpt>
      <trkpt lat="36.145875994116068" lon="-5.353587018325925">
        <ele>0.62</ele>
        <time>2025-05-08T15:01:27Z</time>
      </trkpt>
      <trkpt lat="36.146269021555781" lon="-5.35323103889823">
        <ele>-0.34</ele>
        <time>2025-05-08T15:01:33Z</time>
      </trkpt>
      <trkpt lat="36.14661100320518" lon="-5.352928033098579">
        <ele>1.58</ele>
        <time>2025-05-08T15:01:39Z</time>
      </trkpt>
      <trkpt lat="36.147025991231203" lon="-5.352666014805436">
        <ele>4.94</ele>
        <time>2025-05-08T15:01:46Z</time>
      </trkpt>
      <trkpt lat="36.147057004272938" lon="-5.352618992328644">
        <ele>5.42</ele>
        <time>2025-05-08T15:01:47Z</time>
      </trkpt>
      <trkpt lat="36.147088017314672" lon="-5.352497035637498">
        <ele>6.39</ele>
        <time>2025-05-08T15:01:49Z</time>
      </trkpt>
      <trkpt lat="36.147095980122685" lon="-5.352426962926984">
        <ele>6.87</ele>
        <time>2025-05-08T15:01:50Z</time>
      </trkpt>
      <trkpt lat="36.147100003436208" lon="-5.352377006784082">
        <ele>7.35</ele>
        <time>2025-05-08T15:01:51Z</time>
      </trkpt>
      <trkpt lat="36.147062033414841" lon="-5.35230802372098">
        <ele>7.83</ele>
        <time>2025-05-08T15:01:52Z</time>
      </trkpt>
      <trkpt lat="36.147021967917681" lon="-5.352236023172736">
        <ele>7.83</ele>
        <time>2025-05-08T15:01:53Z</time>
      </trkpt>
      <trkpt lat="36.146558029577136" lon="-5.351301021873951">
        <ele>9.75</ele>
        <time>2025-05-08T15:02:04Z</time>
      </trkpt>
      <trkpt lat="36.146534979343414" lon="-5.351209994405508">
        <ele>9.75</ele>
        <time>2025-05-08T15:02:05Z</time>
      </trkpt>
      <trkpt lat="36.146516036242247" lon="-5.351134976372123">
        <ele>9.27</ele>
        <time>2025-05-08T15:02:06Z</time>
      </trkpt>
      <trkpt lat="36.14650103263557" lon="-5.351071022450924">
        <ele>9.27</ele>
        <time>2025-05-08T15:02:07Z</time>
      </trkpt>
      <trkpt lat="36.146508995443583" lon="-5.351022994145751">
        <ele>9.27</ele>
        <time>2025-05-08T15:02:08Z</time>
      </trkpt>
      <trkpt lat="36.146516036242247" lon="-5.3509789891541">
        <ele>9.27</ele>
        <time>2025-05-08T15:02:09Z</time>
      </trkpt>
      <trkpt lat="36.146516036242247" lon="-5.3509789891541">
        <ele>9.27</ele>
        <time>2025-05-08T15:02:17Z</time>
      </trkpt>
      <trkpt lat="36.146539002656937" lon="-5.350840017199516">
        <ele>10.23</ele>
        <time>2025-05-08T15:02:31Z</time>
      </trkpt>
      <trkpt lat="36.146543025970459" lon="-5.350787965580821">
        <ele>10.23</ele>
        <time>2025-05-08T15:02:32Z</time>
      </trkpt>
      <trkpt lat="36.146543025970459" lon="-5.350731974467635">
        <ele>11.19</ele>
        <time>2025-05-08T15:02:33Z</time>
      </trkpt>
      <trkpt lat="36.146543025970459" lon="-5.350673971697688">
        <ele>11.67</ele>
        <time>2025-05-08T15:02:34Z</time>
      </trkpt>
      <trkpt lat="36.146541014313698" lon="-5.350558971986175">
        <ele>12.630000000000001</ele>
        <time>2025-05-08T15:02:35Z</time>
      </trkpt>
      <trkpt lat="36.146582001820207" lon="-5.350517984479666">
        <ele>13.119999999999999</ele>
        <time>2025-05-08T15:02:36Z</time>
      </trkpt>
      <trkpt lat="36.14663003012538" lon="-5.350470039993525">
        <ele>12.630000000000001</ele>
        <time>2025-05-08T15:02:37Z</time>
      </trkpt>
      <trkpt lat="36.146690966561437" lon="-5.350409019738436">
        <ele>11.19</ele>
        <time>2025-05-08T15:02:38Z</time>
      </trkpt>
      <trkpt lat="36.146761039271951" lon="-5.350339030846953">
        <ele>10.710000000000001</ele>
        <time>2025-05-08T15:02:39Z</time>
      </trkpt>
      <trkpt lat="36.146836979314685" lon="-5.350271975621581">
        <ele>9.75</ele>
        <time>2025-05-08T15:02:40Z</time>
      </trkpt>
      <trkpt lat="36.14691099151969" lon="-5.350209027528763">
        <ele>9.27</ele>
        <time>2025-05-08T15:02:41Z</time>
      </trkpt>
      <trkpt lat="36.146991038694978" lon="-5.35014096647501">
        <ele>8.789999999999999</ele>
        <time>2025-05-08T15:02:42Z</time>
      </trkpt>
      <trkpt lat="36.147418012842536" lon="-5.349827986210585">
        <ele>10.23</ele>
        <time>2025-05-08T15:02:48Z</time>
      </trkpt>
      <trkpt lat="36.147489007562399" lon="-5.349792027845979">
        <ele>10.23</ele>
        <time>2025-05-08T15:02:49Z</time>
      </trkpt>
      <trkpt lat="36.147558996453881" lon="-5.349754979833961">
        <ele>10.23</ele>
        <time>2025-05-08T15:02:50Z</time>
      </trkpt>
      <trkpt lat="36.147634014487267" lon="-5.349716003984213">
        <ele>11.19</ele>
        <time>2025-05-08T15:02:51Z</time>
      </trkpt>
      <trkpt lat="36.147712972015142" lon="-5.349676022306085">
        <ele>11.67</ele>
        <time>2025-05-08T15:02:52Z</time>
      </trkpt>
      <trkpt lat="36.147783966735005" lon="-5.349638974294066">
        <ele>12.15</ele>
        <time>2025-05-08T15:02:53Z</time>
      </trkpt>
      <trkpt lat="36.147852027788758" lon="-5.349604021757841">
        <ele>12.630000000000001</ele>
        <time>2025-05-08T15:02:54Z</time>
      </trkpt>
      <trkpt lat="36.148288976401091" lon="-5.349405035376549">
        <ele>10.710000000000001</ele>
        <time>2025-05-08T15:03:00Z</time>
      </trkpt>
      <trkpt lat="36.148366006091237" lon="-5.349375028163195">
        <ele>10.23</ele>
        <time>2025-05-08T15:03:01Z</time>
      </trkpt>
      <trkpt lat="36.148496009409428" lon="-5.349182998761535">
        <ele>9.75</ele>
        <time>2025-05-08T15:03:02Z</time>
      </trkpt>
      <trkpt lat="36.148496009409428" lon="-5.349182998761535">
        <ele>9.27</ele>
        <time>2025-05-08T15:03:03Z</time>
      </trkpt>
      <trkpt lat="36.148501038551331" lon="-5.349167995154858">
        <ele>8.789999999999999</ele>
        <time>2025-05-08T15:03:04Z</time>
      </trkpt>
      <trkpt lat="36.148524004966021" lon="-5.349105969071388">
        <ele>7.35</ele>
        <time>2025-05-08T15:03:13Z</time>
      </trkpt>
      <trkpt lat="36.148550994694233" lon="-5.349030029028654">
        <ele>6.87</ele>
        <time>2025-05-08T15:03:22Z</time>
      </trkpt>
      <trkpt lat="36.148571027442813" lon="-5.348973032087088">
        <ele>6.39</ele>
        <time>2025-05-08T15:03:23Z</time>
      </trkpt>
      <trkpt lat="36.148602962493896" lon="-5.348883010447025">
        <ele>5.91</ele>
        <time>2025-05-08T15:03:24Z</time>
      </trkpt>
      <trkpt lat="36.148587036877871" lon="-5.348796006292105">
        <ele>5.42</ele>
        <time>2025-05-08T15:03:25Z</time>
      </trkpt>
      <trkpt lat="36.148567004129291" lon="-5.348695004358888">
        <ele>5.42</ele>
        <time>2025-05-08T15:03:26Z</time>
      </trkpt>
      <trkpt lat="36.148258969187737" lon="-5.347629999741912">
        <ele>0.62</ele>
        <time>2025-05-08T15:03:36Z</time>
      </trkpt>
      <trkpt lat="36.148094013333321" lon="-5.347173018381">
        <ele>0.62</ele>
        <time>2025-05-08T15:03:40Z</time>
      </trkpt>
      <trkpt lat="36.148055037483573" lon="-5.347076039761305">
        <ele>1.58</ele>
        <time>2025-05-08T15:03:41Z</time>
      </trkpt>
      <trkpt lat="36.147843981161714" lon="-5.346519984304905">
        <ele>4.94</ele>
        <time>2025-05-08T15:03:46Z</time>
      </trkpt>
      <trkpt lat="36.147790001705289" lon="-5.346351005136967">
        <ele>6.39</ele>
        <time>2025-05-08T15:03:48Z</time>
      </trkpt>
      <trkpt lat="36.147768963128328" lon="-5.346286967396736">
        <ele>6.87</ele>
        <time>2025-05-08T15:03:49Z</time>
      </trkpt>
      <trkpt lat="36.147745996713638" lon="-5.346214966848493">
        <ele>7.83</ele>
        <time>2025-05-08T15:03:50Z</time>
      </trkpt>
      <trkpt lat="36.147696962580085" lon="-5.346060991287231">
        <ele>9.27</ele>
        <time>2025-05-08T15:03:52Z</time>
      </trkpt>
      <trkpt lat="36.147672990337014" lon="-5.345986979082227">
        <ele>10.710000000000001</ele>
        <time>2025-05-08T15:03:53Z</time>
      </trkpt>
      <trkpt lat="36.147646000608802" lon="-5.345903998240829">
        <ele>11.67</ele>
        <time>2025-05-08T15:03:54Z</time>
      </trkpt>
      <trkpt lat="36.147619010880589" lon="-5.345822023227811">
        <ele>12.630000000000001</ele>
        <time>2025-05-08T15:03:55Z</time>
      </trkpt>
      <trkpt lat="36.147593026980758" lon="-5.345742981880903">
        <ele>13.119999999999999</ele>
        <time>2025-05-08T15:03:56Z</time>
      </trkpt>
      <trkpt lat="36.147560002282262" lon="-5.345637034624815">
        <ele>14.08</ele>
        <time>2025-05-08T15:03:57Z</time>
      </trkpt>
      <trkpt lat="36.147528989240527" lon="-5.345523962751031">
        <ele>14.56</ele>
        <time>2025-05-08T15:03:58Z</time>
      </trkpt>
      <trkpt lat="36.147495964542031" lon="-5.345410974696279">
        <ele>14.56</ele>
        <time>2025-05-08T15:03:59Z</time>
      </trkpt>
      <trkpt lat="36.147135039791465" lon="-5.34436197951436">
        <ele>16.48</ele>
        <time>2025-05-08T15:04:08Z</time>
      </trkpt>
      <trkpt lat="36.147043006494641" lon="-5.344147989526391">
        <ele>16.960000000000001</ele>
        <time>2025-05-08T15:04:10Z</time>
      </trkpt>
      <trkpt lat="36.14684502594173" lon="-5.343685979023576">
        <ele>18.399999999999999</ele>
        <time>2025-05-08T15:04:16Z</time>
      </trkpt>
      <trkpt lat="36.1467619612813" lon="-5.343492021784186">
        <ele>19.359999999999999</ele>
        <time>2025-05-08T15:04:24Z</time>
      </trkpt>
      <trkpt lat="36.146658025681973" lon="-5.343254981562495">
        <ele>18.879999999999999</ele>
        <time>2025-05-08T15:04:38Z</time>
      </trkpt>
      <trkpt lat="36.146626006811857" lon="-5.343180969357491">
        <ele>18.399999999999999</ele>
        <time>2025-05-08T15:04:39Z</time>
      </trkpt>
      <trkpt lat="36.146564986556768" lon="-5.343035962432623">
        <ele>18.399999999999999</ele>
        <time>2025-05-08T15:04:41Z</time>
      </trkpt>
      <trkpt lat="36.146499020978808" lon="-5.342877041548491">
        <ele>18.399999999999999</ele>
        <time>2025-05-08T15:04:43Z</time>
      </trkpt>
      <trkpt lat="36.146176988258958" lon="-5.342116970568895">
        <ele>23.690000000000001</ele>
        <time>2025-05-08T15:04:53Z</time>
      </trkpt>
      <trkpt lat="36.146060982719064" lon="-5.341825028881431">
        <ele>24.649999999999999</ele>
        <time>2025-05-08T15:04:57Z</time>
      </trkpt>
      <trkpt lat="36.146027036011219" lon="-5.341755961999297">
        <ele>24.649999999999999</ele>
        <time>2025-05-08T15:04:58Z</time>
      </trkpt>
      <trkpt lat="36.145989987999201" lon="-5.341682033613324">
        <ele>24.170000000000002</ele>
        <time>2025-05-08T15:04:59Z</time>
      </trkpt>
      <trkpt lat="36.14579401910305" lon="-5.34154599532485">
        <ele>24.170000000000002</ele>
        <time>2025-05-08T15:05:02Z</time>
      </trkpt>
      <trkpt lat="36.145738027989864" lon="-5.341467037796974">
        <ele>23.690000000000001</ele>
        <time>2025-05-08T15:05:03Z</time>
      </trkpt>
      <trkpt lat="36.14570701494813" lon="-5.3413500264287">
        <ele>24.170000000000002</ele>
        <time>2025-05-08T15:05:04Z</time>
      </trkpt>
      <trkpt lat="36.145743979141116" lon="-5.341192027553916">
        <ele>23.690000000000001</ele>
        <time>2025-05-08T15:05:05Z</time>
      </trkpt>
      <trkpt lat="36.145796030759811" lon="-5.341119021177292">
        <ele>23.210000000000001</ele>
        <time>2025-05-08T15:05:06Z</time>
      </trkpt>
      <trkpt lat="36.145904995501041" lon="-5.341093959286809">
        <ele>22.73</ele>
        <time>2025-05-08T15:05:07Z</time>
      </trkpt>
      <trkpt lat="36.145975990220904" lon="-5.341093959286809">
        <ele>22.25</ele>
        <time>2025-05-08T15:05:08Z</time>
      </trkpt>
      <trkpt lat="36.1460280418396" lon="-5.341093959286809">
        <ele>21.77</ele>
        <time>2025-05-08T15:05:09Z</time>
      </trkpt>
      <trkpt lat="36.146131977438927" lon="-5.341034028679133">
        <ele>21.289999999999999</ele>
        <time>2025-05-08T15:05:10Z</time>
      </trkpt>
      <trkpt lat="36.146216969937086" lon="-5.340984994545579">
        <ele>20.32</ele>
        <time>2025-05-08T15:05:11Z</time>
      </trkpt>
      <trkpt lat="36.146302968263626" lon="-5.340935038402677">
        <ele>19.359999999999999</ele>
        <time>2025-05-08T15:05:12Z</time>
      </trkpt>
      <trkpt lat="36.146382009610534" lon="-5.340890027582645">
        <ele>18.399999999999999</ele>
        <time>2025-05-08T15:05:13Z</time>
      </trkpt>
      <trkpt lat="36.146451998502016" lon="-5.340849962085486">
        <ele>17.440000000000001</ele>
        <time>2025-05-08T15:05:14Z</time>
      </trkpt>
      <trkpt lat="36.146602034568787" lon="-5.340766981244087">
        <ele>16.48</ele>
        <time>2025-05-08T15:05:17Z</time>
      </trkpt>
      <trkpt lat="36.147207962349057" lon="-5.340603031218052">
        <ele>14.08</ele>
        <time>2025-05-08T15:05:26Z</time>
      </trkpt>
      <trkpt lat="36.148304985836148" lon="-5.340443020686507">
        <ele>10.710000000000001</ele>
        <time>2025-05-08T15:05:37Z</time>
      </trkpt>
      <trkpt lat="36.149531006813049" lon="-5.340118976309896">
        <ele>7.35</ele>
        <time>2025-05-08T15:05:47Z</time>
      </trkpt>
      <trkpt lat="36.149652041494846" lon="-5.340075977146626">
        <ele>6.39</ele>
        <time>2025-05-08T15:05:48Z</time>
      </trkpt>
      <trkpt lat="36.150198960676789" lon="-5.339879002422094">
        <ele>3.5</ele>
        <time>2025-05-08T15:05:53Z</time>
      </trkpt>
      <trkpt lat="36.15318501368165" lon="-5.340849040076137">
        <ele>1.58</ele>
        <time>2025-05-08T15:06:18Z</time>
      </trkpt>
      <trkpt lat="36.152163008227944" lon="-5.341379027813673">
        <ele>1.1</ele>
        <time>2025-05-08T15:06:20Z</time>
      </trkpt>
      <trkpt lat="36.153741991147399" lon="-5.342260971665382">
        <ele>2.06</ele>
        <time>2025-05-08T15:06:29Z</time>
      </trkpt>
      <trkpt lat="36.154178017750382" lon="-5.343884965404868">
        <ele>7.83</ele>
        <time>2025-05-08T15:06:40Z</time>
      </trkpt>
      <trkpt lat="36.154458979144692" lon="-5.345161026343703">
        <ele>7.35</ele>
        <time>2025-05-08T15:06:50Z</time>
      </trkpt>
      <trkpt lat="36.154530979692936" lon="-5.345363030210137">
        <ele>6.87</ele>
        <time>2025-05-08T15:06:52Z</time>
      </trkpt>
      <trkpt lat="36.154497032985091" lon="-5.345453973859549">
        <ele>6.87</ele>
        <time>2025-05-08T15:06:53Z</time>
      </trkpt>
      <trkpt lat="36.154483035206795" lon="-5.345687996596098">
        <ele>6.39</ele>
        <time>2025-05-08T15:06:55Z</time>
      </trkpt>
      <trkpt lat="36.154483035206795" lon="-5.345782963559032">
        <ele>6.39</ele>
        <time>2025-05-08T15:06:56Z</time>
      </trkpt>
      <trkpt lat="36.154483035206795" lon="-5.34588698297739">
        <ele>6.39</ele>
        <time>2025-05-08T15:06:57Z</time>
      </trkpt>
      <trkpt lat="36.154483035206795" lon="-5.346587039530277">
        <ele>5.42</ele>
        <time>2025-05-08T15:07:03Z</time>
      </trkpt>
      <trkpt lat="36.154465014114976" lon="-5.34760401584208">
        <ele>5.91</ele>
        <time>2025-05-08T15:07:12Z</time>
      </trkpt>
      <trkpt lat="36.154523016884923" lon="-5.3478620108217">
        <ele>5.42</ele>
        <time>2025-05-08T15:07:17Z</time>
      </trkpt>
      <trkpt lat="36.154535003006458" lon="-5.347877014428377">
        <ele>5.42</ele>
        <time>2025-05-08T15:07:18Z</time>
      </trkpt>
      <trkpt lat="36.154579007998109" lon="-5.347911966964603">
        <ele>4.46</ele>
        <time>2025-05-08T15:07:19Z</time>
      </trkpt>
      <trkpt lat="36.154617983847857" lon="-5.347849018871784">
        <ele>4.94</ele>
        <time>2025-05-08T15:07:20Z</time>
      </trkpt>
      <trkpt lat="36.154622007161379" lon="-5.347825968638063">
        <ele>4.94</ele>
        <time>2025-05-08T15:07:21Z</time>
      </trkpt>
      <trkpt lat="36.154625024646521" lon="-5.347805013880134">
        <ele>4.94</ele>
        <time>2025-05-08T15:07:22Z</time>
      </trkpt>
      <trkpt lat="36.154627958312631" lon="-5.347782969474793">
        <ele>4.94</ele>
        <time>2025-05-08T15:07:23Z</time>
      </trkpt>
      <trkpt lat="36.154640028253198" lon="-5.347707029432058">
        <ele>5.42</ele>
        <time>2025-05-08T15:07:25Z</time>
      </trkpt>
      <trkpt lat="36.154695013538003" lon="-5.347016025334597">
        <ele>5.91</ele>
        <time>2025-05-08T15:07:32Z</time>
      </trkpt>
      <trkpt lat="36.154729966074228" lon="-5.3468759637326">
        <ele>5.42</ele>
        <time>2025-05-08T15:07:34Z</time>
      </trkpt>
      <trkpt lat="36.15475301630795" lon="-5.346804969012737">
        <ele>5.42</ele>
        <time>2025-05-08T15:07:35Z</time>
      </trkpt>
      <trkpt lat="36.154761984944344" lon="-5.346779990941286">
        <ele>5.91</ele>
        <time>2025-05-08T15:07:36Z</time>
      </trkpt>
      <trkpt lat="36.154761984944344" lon="-5.346779990941286">
        <ele>6.39</ele>
        <time>2025-05-08T15:07:37Z</time>
      </trkpt>
      <trkpt lat="36.154790986329317" lon="-5.34678703173995">
        <ele>6.39</ele>
        <time>2025-05-08T15:07:38Z</time>
      </trkpt>
      <trkpt lat="36.154847983270884" lon="-5.346801029518247">
        <ele>5.91</ele>
        <time>2025-05-08T15:07:39Z</time>
      </trkpt>
      <trkpt lat="36.154847983270884" lon="-5.346801029518247">
        <ele>6.39</ele>
        <time>2025-05-08T15:07:40Z</time>
      </trkpt>
      <trkpt lat="36.154854018241167" lon="-5.346817038953304">
        <ele>5.91</ele>
        <time>2025-05-08T15:07:41Z</time>
      </trkpt>
      <trkpt lat="36.154872961342335" lon="-5.346864983439446">
        <ele>6.39</ele>
        <time>2025-05-08T15:07:42Z</time>
      </trkpt>
      <trkpt lat="36.154889976605773" lon="-5.346908988431096">
        <ele>5.91</ele>
        <time>2025-05-08T15:07:43Z</time>
      </trkpt>
      <trkpt lat="36.154889976605773" lon="-5.346908988431096">
        <ele>5.91</ele>
        <time>2025-05-08T15:07:44Z</time>
      </trkpt>
      <trkpt lat="36.154887964949012" lon="-5.346957016736269">
        <ele>5.91</ele>
        <time>2025-05-08T15:07:45Z</time>
      </trkpt>
      <trkpt lat="36.154885031282902" lon="-5.347028011456132">
        <ele>6.39</ele>
        <time>2025-05-08T15:07:46Z</time>
      </trkpt>
      <trkpt lat="36.154876984655857" lon="-5.347177963703871">
        <ele>6.39</ele>
        <time>2025-05-08T15:07:48Z</time>
      </trkpt>
      <trkpt lat="36.154873967170715" lon="-5.347248036414385">
        <ele>6.39</ele>
        <time>2025-05-08T15:07:49Z</time>
      </trkpt>
      <trkpt lat="36.154870027676225" lon="-5.347315007820725">
        <ele>6.39</ele>
        <time>2025-05-08T15:07:50Z</time>
      </trkpt>
      <trkpt lat="36.154847983270884" lon="-5.347766960039735">
        <ele>7.35</ele>
        <time>2025-05-08T15:08:00Z</time>
      </trkpt>
      <trkpt lat="36.154847983270884" lon="-5.347766960039735">
        <ele>7.83</ele>
        <time>2025-05-08T15:08:21Z</time>
      </trkpt>
      <trkpt lat="36.154874972999096" lon="-5.347959995269775">
        <ele>7.35</ele>
        <time>2025-05-08T15:08:30Z</time>
      </trkpt>
      <trkpt lat="36.154889976605773" lon="-5.348067032173276">
        <ele>7.83</ele>
        <time>2025-05-08T15:08:43Z</time>
      </trkpt>
      <trkpt lat="36.154889976605773" lon="-5.348067032173276">
        <ele>8.789999999999999</ele>
        <time>2025-05-08T15:09:00Z</time>
      </trkpt>
      <trkpt lat="36.154889976605773" lon="-5.348067032173276">
        <ele>8.789999999999999</ele>
        <time>2025-05-08T15:09:15Z</time>
      </trkpt>
      <trkpt lat="36.154944039881229" lon="-5.34807600080967">
        <ele>8.789999999999999</ele>
        <time>2025-05-08T15:09:26Z</time>
      </trkpt>
      <trkpt lat="36.154971029609442" lon="-5.348081029951572">
        <ele>10.23</ele>
        <time>2025-05-08T15:09:27Z</time>
      </trkpt>
      <trkpt lat="36.154971029609442" lon="-5.348081029951572">
        <ele>9.75</ele>
        <time>2025-05-08T15:09:39Z</time>
      </trkpt>
      <trkpt lat="36.15505401045084" lon="-5.347825968638063">
        <ele>10.23</ele>
        <time>2025-05-08T15:09:49Z</time>
      </trkpt>
      <trkpt lat="36.155031966045499" lon="-5.347348032519221">
        <ele>9.27</ele>
        <time>2025-05-08T15:09:54Z</time>
      </trkpt>
      <trkpt lat="36.155028026551008" lon="-5.347257005050778">
        <ele>8.789999999999999</ele>
        <time>2025-05-08T15:09:55Z</time>
      </trkpt>
      <trkpt lat="36.155018974095583" lon="-5.347059024497867">
        <ele>8.789999999999999</ele>
        <time>2025-05-08T15:09:56Z</time>
      </trkpt>
      <trkpt lat="36.155024003237486" lon="-5.347051983699203">
        <ele>7.83</ele>
        <time>2025-05-08T15:09:57Z</time>
      </trkpt>
      <trkpt lat="36.155161969363689" lon="-5.346987023949623">
        <ele>6.87</ele>
        <time>2025-05-08T15:09:58Z</time>
      </trkpt>
      <trkpt lat="36.155184013769031" lon="-5.347008984535933">
        <ele>7.35</ele>
        <time>2025-05-08T15:09:59Z</time>
      </trkpt>
      <trkpt lat="36.155190970748663" lon="-5.347095988690853">
        <ele>7.83</ele>
        <time>2025-05-08T15:10:00Z</time>
      </trkpt>
      <trkpt lat="36.155190970748663" lon="-5.347166983410716">
        <ele>7.83</ele>
        <time>2025-05-08T15:10:01Z</time>
      </trkpt>
      <trkpt lat="36.155190970748663" lon="-5.347246024757624">
        <ele>7.35</ele>
        <time>2025-05-08T15:10:02Z</time>
      </trkpt>
      <trkpt lat="36.155190970748663" lon="-5.347395977005363">
        <ele>7.35</ele>
        <time>2025-05-08T15:10:04Z</time>
      </trkpt>
      <trkpt lat="36.155190970748663" lon="-5.347456997260451">
        <ele>7.35</ele>
        <time>2025-05-08T15:10:05Z</time>
      </trkpt>
      <trkpt lat="36.155190970748663" lon="-5.347515000030398">
        <ele>6.87</ele>
        <time>2025-05-08T15:10:06Z</time>
      </trkpt>
      <trkpt lat="36.155215026810765" lon="-5.347563028335571">
        <ele>6.87</ele>
        <time>2025-05-08T15:10:07Z</time>
      </trkpt>
      <trkpt lat="36.155249979346991" lon="-5.347609966993332">
        <ele>5.91</ele>
        <time>2025-05-08T15:10:08Z</time>
      </trkpt>
      <trkpt lat="36.155302030965686" lon="-5.347608961164951">
        <ele>5.91</ele>
        <time>2025-05-08T15:10:09Z</time>
      </trkpt>
      <trkpt lat="36.155350981280208" lon="-5.347600998356938">
        <ele>5.42</ele>
        <time>2025-05-08T15:10:10Z</time>
      </trkpt>
      <trkpt lat="36.155399009585381" lon="-5.347594963386655">
        <ele>5.42</ele>
        <time>2025-05-08T15:10:11Z</time>
      </trkpt>
      <trkpt lat="36.155693968757987" lon="-5.347581971436739">
        <ele>4.46</ele>
        <time>2025-05-08T15:10:18Z</time>
      </trkpt>
      <trkpt lat="36.155821960419416" lon="-5.347569985315204">
        <ele>3.5</ele>
        <time>2025-05-08T15:10:21Z</time>
      </trkpt>
      <trkpt lat="36.155973002314568" lon="-5.34756001085043">
        <ele>3.02</ele>
        <time>2025-05-08T15:10:24Z</time>
      </trkpt>
      <trkpt lat="36.156022036448121" lon="-5.347556993365288">
        <ele>3.02</ele>
        <time>2025-05-08T15:10:25Z</time>
      </trkpt>
      <trkpt lat="36.156093031167984" lon="-5.347476024180651">
        <ele>3.5</ele>
        <time>2025-05-08T15:10:26Z</time>
      </trkpt>
      <trkpt lat="36.156094959005713" lon="-5.347406035289168">
        <ele>3.5</ele>
        <time>2025-05-08T15:10:27Z</time>
      </trkpt>
      <trkpt lat="36.156095964834094" lon="-5.347321964800358">
        <ele>3.98</ele>
        <time>2025-05-08T15:10:28Z</time>
      </trkpt>
      <trkpt lat="36.156096970662475" lon="-5.347226997837424">
        <ele>3.98</ele>
        <time>2025-05-08T15:10:29Z</time>
      </trkpt>
      <trkpt lat="36.156098982319236" lon="-5.347123984247446">
        <ele>4.46</ele>
        <time>2025-05-08T15:10:30Z</time>
      </trkpt>
      <trkpt lat="36.156109040603042" lon="-5.346525013446808">
        <ele>7.35</ele>
        <time>2025-05-08T15:10:36Z</time>
      </trkpt>
      <trkpt lat="36.156109962612391" lon="-5.346447983756661">
        <ele>7.83</ele>
        <time>2025-05-08T15:10:37Z</time>
      </trkpt>
      <trkpt lat="36.156111974269152" lon="-5.346382018178701">
        <ele>7.83</ele>
        <time>2025-05-08T15:10:38Z</time>
      </trkpt>
      <trkpt lat="36.156111974269152" lon="-5.346333989873529">
        <ele>8.310000000000001</ele>
        <time>2025-05-08T15:10:39Z</time>
      </trkpt>
      <trkpt lat="36.156165031716228" lon="-5.346265006810427">
        <ele>8.789999999999999</ele>
        <time>2025-05-08T15:10:40Z</time>
      </trkpt>
      <trkpt lat="36.156197972595692" lon="-5.346265006810427">
        <ele>9.27</ele>
        <time>2025-05-08T15:10:41Z</time>
      </trkpt>
      <trkpt lat="36.156225968152285" lon="-5.346374977380037">
        <ele>9.27</ele>
        <time>2025-05-08T15:10:42Z</time>
      </trkpt>
      <trkpt lat="36.156229991465807" lon="-5.3464459720999">
        <ele>9.27</ele>
        <time>2025-05-08T15:10:43Z</time>
      </trkpt>
      <trkpt lat="36.156234014779329" lon="-5.34652903676033">
        <ele>9.27</ele>
        <time>2025-05-08T15:10:44Z</time>
      </trkpt>
      <trkpt lat="36.156238960102201" lon="-5.346625009551644">
        <ele>9.27</ele>
        <time>2025-05-08T15:10:45Z</time>
      </trkpt>
      <trkpt lat="36.156244995072484" lon="-5.346731962636113">
        <ele>9.75</ele>
        <time>2025-05-08T15:10:46Z</time>
      </trkpt>
      <trkpt lat="36.156256981194019" lon="-5.346977971494198">
        <ele>10.23</ele>
        <time>2025-05-08T15:10:48Z</time>
      </trkpt>
      <trkpt lat="36.156263016164303" lon="-5.347099006175995">
        <ele>10.23</ele>
        <time>2025-05-08T15:10:49Z</time>
      </trkpt>
      <trkpt lat="36.156268967315555" lon="-5.347204031422734">
        <ele>9.75</ele>
        <time>2025-05-08T15:10:50Z</time>
      </trkpt>
      <trkpt lat="36.156272990629077" lon="-5.347296986728907">
        <ele>9.27</ele>
        <time>2025-05-08T15:10:51Z</time>
      </trkpt>
      <trkpt lat="36.156277013942599" lon="-5.347374016419053">
        <ele>8.789999999999999</ele>
        <time>2025-05-08T15:10:52Z</time>
      </trkpt>
      <trkpt lat="36.156280031427741" lon="-5.347435958683491">
        <ele>8.310000000000001</ele>
        <time>2025-05-08T15:10:53Z</time>
      </trkpt>
      <trkpt lat="36.156347002834082" lon="-5.347531009465456">
        <ele>6.87</ele>
        <time>2025-05-08T15:10:57Z</time>
      </trkpt>
      <trkpt lat="36.156369969248772" lon="-5.347531009465456">
        <ele>6.87</ele>
        <time>2025-05-08T15:10:58Z</time>
      </trkpt>
      <trkpt lat="36.156396036967635" lon="-5.347531009465456">
        <ele>6.39</ele>
        <time>2025-05-08T15:10:59Z</time>
      </trkpt>
      <trkpt lat="36.156427972018719" lon="-5.347531009465456">
        <ele>6.39</ele>
        <time>2025-05-08T15:11:00Z</time>
      </trkpt>
      <trkpt lat="36.156460996717215" lon="-5.347531009465456">
        <ele>6.39</ele>
        <time>2025-05-08T15:11:01Z</time>
      </trkpt>
      <trkpt lat="36.156501984223723" lon="-5.347531009465456">
        <ele>5.91</ele>
        <time>2025-05-08T15:11:02Z</time>
      </trkpt>
      <trkpt lat="36.15705301053822" lon="-5.347508965060115">
        <ele>4.94</ele>
        <time>2025-05-08T15:11:08Z</time>
      </trkpt>
      <trkpt lat="36.15758903324604" lon="-5.347508965060115">
        <ele>5.42</ele>
        <time>2025-05-08T15:11:13Z</time>
      </trkpt>
      <trkpt lat="36.157687017694116" lon="-5.347505025565624">
        <ele>5.42</ele>
        <time>2025-05-08T15:11:14Z</time>
      </trkpt>
      <trkpt lat="36.157778967171907" lon="-5.347499996423721">
        <ele>5.91</ele>
        <time>2025-05-08T15:11:15Z</time>
      </trkpt>
      <trkpt lat="36.157876029610634" lon="-5.347494967281818">
        <ele>6.39</ele>
        <time>2025-05-08T15:11:16Z</time>
      </trkpt>
      <trkpt lat="36.157981976866722" lon="-5.347490021958947">
        <ele>6.87</ele>
        <time>2025-05-08T15:11:17Z</time>
      </trkpt>
      <trkpt lat="36.158088007941842" lon="-5.347488010302186">
        <ele>6.87</ele>
        <time>2025-05-08T15:11:18Z</time>
      </trkpt>
      <trkpt lat="36.15821298211813" lon="-5.347465965896845">
        <ele>7.35</ele>
        <time>2025-05-08T15:11:19Z</time>
      </trkpt>
      <trkpt lat="36.158329993486404" lon="-5.347446016967297">
        <ele>7.83</ele>
        <time>2025-05-08T15:11:20Z</time>
      </trkpt>
      <trkpt lat="36.158789992332458" lon="-5.34738801419735">
        <ele>7.83</ele>
        <time>2025-05-08T15:11:24Z</time>
      </trkpt>
      <trkpt lat="36.159511003643274" lon="-5.347359012812376">
        <ele>8.789999999999999</ele>
        <time>2025-05-08T15:11:32Z</time>
      </trkpt>
      <trkpt lat="36.159602031111717" lon="-5.347359012812376">
        <ele>10.23</ele>
        <time>2025-05-08T15:11:38Z</time>
      </trkpt>
      <trkpt lat="36.159670008346438" lon="-5.347359012812376">
        <ele>11.19</ele>
        <time>2025-05-08T15:11:40Z</time>
      </trkpt>
      <trkpt lat="36.159723987802863" lon="-5.347208976745606">
        <ele>11.19</ele>
        <time>2025-05-08T15:11:41Z</time>
      </trkpt>
      <trkpt lat="36.159776961430907" lon="-5.347208976745606">
        <ele>11.67</ele>
        <time>2025-05-08T15:11:42Z</time>
      </trkpt>
      <trkpt lat="36.159820966422558" lon="-5.347208976745606">
        <ele>12.15</ele>
        <time>2025-05-08T15:11:43Z</time>
      </trkpt>
      <trkpt lat="36.159874023869634" lon="-5.347253987565637">
        <ele>12.630000000000001</ele>
        <time>2025-05-08T15:11:44Z</time>
      </trkpt>
      <trkpt lat="36.159900007769465" lon="-5.347297992557287">
        <ele>12.630000000000001</ele>
        <time>2025-05-08T15:11:45Z</time>
      </trkpt>
      <trkpt lat="36.159881986677647" lon="-5.347391031682491">
        <ele>12.630000000000001</ele>
        <time>2025-05-08T15:11:46Z</time>
      </trkpt>
      <trkpt lat="36.159868994727731" lon="-5.347423972561956">
        <ele>12.630000000000001</ele>
        <time>2025-05-08T15:11:47Z</time>
      </trkpt>
      <trkpt lat="36.159778973087668" lon="-5.347528997808695">
        <ele>12.630000000000001</ele>
        <time>2025-05-08T15:11:48Z</time>
      </trkpt>
      <trkpt lat="36.159774027764797" lon="-5.347614996135235">
        <ele>12.630000000000001</ele>
        <time>2025-05-08T15:11:49Z</time>
      </trkpt>
      <trkpt lat="36.159767992794514" lon="-5.34770904108882">
        <ele>12.630000000000001</ele>
        <time>2025-05-08T15:11:50Z</time>
      </trkpt>
      <trkpt lat="36.159762041643262" lon="-5.347796967253089">
        <ele>12.630000000000001</ele>
        <time>2025-05-08T15:11:51Z</time>
      </trkpt>
      <trkpt lat="36.159761035814881" lon="-5.347879026085138">
        <ele>12.15</ele>
        <time>2025-05-08T15:11:52Z</time>
      </trkpt>
      <trkpt lat="36.159761035814881" lon="-5.348008023574948">
        <ele>12.630000000000001</ele>
        <time>2025-05-08T15:11:54Z</time>
      </trkpt>
      <trkpt lat="36.159782996401191" lon="-5.348577992990613">
        <ele>12.15</ele>
        <time>2025-05-08T15:12:01Z</time>
      </trkpt>
      <trkpt lat="36.159782996401191" lon="-5.348639013245702">
        <ele>12.15</ele>
        <time>2025-05-08T15:12:02Z</time>
      </trkpt>
      <trkpt lat="36.159911993891001" lon="-5.348711013793945">
        <ele>11.67</ele>
        <time>2025-05-08T15:12:03Z</time>
      </trkpt>
      <trkpt lat="36.159911993891001" lon="-5.348711013793945">
        <ele>11.67</ele>
        <time>2025-05-08T15:12:04Z</time>
      </trkpt>
      <trkpt lat="36.159976031631231" lon="-5.348727023229003">
        <ele>11.67</ele>
        <time>2025-05-08T15:12:05Z</time>
      </trkpt>
      <trkpt lat="36.160045014694333" lon="-5.348754012957215">
        <ele>10.710000000000001</ele>
        <time>2025-05-08T15:12:06Z</time>
      </trkpt>
      <trkpt lat="36.16010301746428" lon="-5.348779996857047">
        <ele>10.23</ele>
        <time>2025-05-08T15:12:07Z</time>
      </trkpt>
      <trkpt lat="36.16014501079917" lon="-5.348799023777247">
        <ele>9.75</ele>
        <time>2025-05-08T15:12:08Z</time>
      </trkpt>
      <trkpt lat="36.160181974992156" lon="-5.348816961050034">
        <ele>9.75</ele>
        <time>2025-05-08T15:12:09Z</time>
      </trkpt>
      <trkpt lat="36.160239977762103" lon="-5.34889399074018">
        <ele>9.27</ele>
        <time>2025-05-08T15:12:11Z</time>
      </trkpt>
      <trkpt lat="36.160247018560767" lon="-5.348945036530495">
        <ele>9.27</ele>
        <time>2025-05-08T15:12:12Z</time>
      </trkpt>
      <trkpt lat="36.160252969712019" lon="-5.348992981016636">
        <ele>9.27</ele>
        <time>2025-05-08T15:12:13Z</time>
      </trkpt>
      <trkpt lat="36.160219023004174" lon="-5.349017959088087">
        <ele>8.789999999999999</ele>
        <time>2025-05-08T15:12:15Z</time>
      </trkpt>
      <trkpt lat="36.160191027447581" lon="-5.34902298822999">
        <ele>8.789999999999999</ele>
        <time>2025-05-08T15:12:16Z</time>
      </trkpt>
      <trkpt lat="36.160142999142408" lon="-5.349032040685415">
        <ele>8.310000000000001</ele>
        <time>2025-05-08T15:12:17Z</time>
      </trkpt>
      <trkpt lat="36.160087008029222" lon="-5.349042015150189">
        <ele>8.310000000000001</ele>
        <time>2025-05-08T15:12:18Z</time>
      </trkpt>
      <trkpt lat="36.160036968067288" lon="-5.349050983786583">
        <ele>7.83</ele>
        <time>2025-05-08T15:12:19Z</time>
      </trkpt>
      <trkpt lat="36.160019030794501" lon="-5.349054001271725">
        <ele>7.83</ele>
        <time>2025-05-08T15:12:21Z</time>
      </trkpt>
      <trkpt lat="36.159825995564461" lon="-5.349054001271725">
        <ele>7.83</ele>
        <time>2025-05-08T15:12:22Z</time>
      </trkpt>
      <trkpt lat="36.159784002229571" lon="-5.349054001271725">
        <ele>7.83</ele>
        <time>2025-05-08T15:12:24Z</time>
      </trkpt>
      <trkpt lat="36.159714013338089" lon="-5.349049977958202">
        <ele>7.83</ele>
        <time>2025-05-08T15:12:25Z</time>
      </trkpt>
      <trkpt lat="36.15967302583158" lon="-5.349008990451694">
        <ele>7.83</ele>
        <time>2025-05-08T15:12:26Z</time>
      </trkpt>
      <trkpt lat="36.159610999748111" lon="-5.34893698990345">
        <ele>7.83</ele>
        <time>2025-05-08T15:12:27Z</time>
      </trkpt>
      <trkpt lat="36.159610999748111" lon="-5.348861971870065">
        <ele>7.83</ele>
        <time>2025-05-08T15:12:28Z</time>
      </trkpt>
      <trkpt lat="36.159637989476323" lon="-5.348757030442357">
        <ele>7.83</ele>
        <time>2025-05-08T15:12:29Z</time>
      </trkpt>
      <trkpt lat="36.159704960882664" lon="-5.348666002973914">
        <ele>7.35</ele>
        <time>2025-05-08T15:12:30Z</time>
      </trkpt>
      <trkpt lat="36.159763969480991" lon="-5.348650999367237">
        <ele>7.35</ele>
        <time>2025-05-08T15:12:31Z</time>
      </trkpt>
      <trkpt lat="36.159849967807531" lon="-5.348680000752211">
        <ele>6.87</ele>
        <time>2025-05-08T15:12:32Z</time>
      </trkpt>
      <trkpt lat="36.159911993891001" lon="-5.348711013793945">
        <ele>6.39</ele>
        <time>2025-05-08T15:12:33Z</time>
      </trkpt>
      <trkpt lat="36.160194966942072" lon="-5.348821990191937">
        <ele>4.94</ele>
        <time>2025-05-08T15:12:38Z</time>
      </trkpt>
      <trkpt lat="36.160233020782471" lon="-5.348840011283755">
        <ele>4.94</ele>
        <time>2025-05-08T15:12:39Z</time>
      </trkpt>
      <trkpt lat="36.160289011895657" lon="-5.348816039040685">
        <ele>4.94</ele>
        <time>2025-05-08T15:12:40Z</time>
      </trkpt>
      <trkpt lat="36.160333016887307" lon="-5.348797012120485">
        <ele>4.46</ele>
        <time>2025-05-08T15:12:41Z</time>
      </trkpt>
      <trkpt lat="36.16038397885859" lon="-5.348774967715144">
        <ele>4.46</ele>
        <time>2025-05-08T15:12:42Z</time>
      </trkpt>
      <trkpt lat="36.160420021042228" lon="-5.348757030442357">
        <ele>3.98</ele>
        <time>2025-05-08T15:12:43Z</time>
      </trkpt>
      <trkpt lat="36.160450028255582" lon="-5.348743032664061">
        <ele>3.98</ele>
        <time>2025-05-08T15:12:44Z</time>
      </trkpt>
      <trkpt lat="36.160474000498652" lon="-5.348730962723494">
        <ele>3.98</ele>
        <time>2025-05-08T15:12:45Z</time>
      </trkpt>
      <trkpt lat="36.160493027418852" lon="-5.348720988258719">
        <ele>3.98</ele>
        <time>2025-05-08T15:12:46Z</time>
      </trkpt>
      <trkpt lat="36.160509958863258" lon="-5.348712019622326">
        <ele>3.98</ele>
        <time>2025-05-08T15:12:47Z</time>
      </trkpt>
      <trkpt lat="36.16055496968329" lon="-5.348689975216985">
        <ele>3.98</ele>
        <time>2025-05-08T15:12:52Z</time>
      </trkpt>
      <trkpt lat="36.16055496968329" lon="-5.348689975216985">
        <ele>3.5</ele>
        <time>2025-05-08T15:12:53Z</time>
      </trkpt>
      <trkpt lat="36.16055496968329" lon="-5.348689975216985">
        <ele>2.54</ele>
        <time>2025-05-08T15:12:54Z</time>
      </trkpt>
      <trkpt lat="36.160539966076612" lon="-5.348697016015649">
        <ele>2.54</ele>
        <time>2025-05-08T15:12:55Z</time>
      </trkpt>
      <trkpt lat="36.16046997718513" lon="-5.348731968551874">
        <ele>2.06</ele>
        <time>2025-05-08T15:13:10Z</time>
      </trkpt>
      <trkpt lat="36.160289011895657" lon="-5.348816039040685">
        <ele>1.58</ele>
        <time>2025-05-08T15:13:14Z</time>
      </trkpt>
      <trkpt lat="36.16023201495409" lon="-5.348842022940517">
        <ele>1.58</ele>
        <time>2025-05-08T15:13:15Z</time>
      </trkpt>
      <trkpt lat="36.160201001912355" lon="-5.348872030153871">
        <ele>1.58</ele>
        <time>2025-05-08T15:13:16Z</time>
      </trkpt>
      <trkpt lat="36.160170994699001" lon="-5.348902037367225">
        <ele>1.58</ele>
        <time>2025-05-08T15:13:17Z</time>
      </trkpt>
      <trkpt lat="36.160179963335395" lon="-5.349024999886751">
        <ele>1.58</ele>
        <time>2025-05-08T15:13:18Z</time>
      </trkpt>
      <trkpt lat="36.160129001364112" lon="-5.349033968523145">
        <ele>1.58</ele>
        <time>2025-05-08T15:13:19Z</time>
      </trkpt>
      <trkpt lat="36.16008197888732" lon="-5.34904302097857">
        <ele>1.58</ele>
        <time>2025-05-08T15:13:20Z</time>
      </trkpt>
      <trkpt lat="36.160026993602514" lon="-5.348966997116804">
        <ele>1.58</ele>
        <time>2025-05-08T15:13:21Z</time>
      </trkpt>
      <trkpt lat="36.159980976954103" lon="-5.348975965753198">
        <ele>2.06</ele>
        <time>2025-05-08T15:13:22Z</time>
      </trkpt>
      <trkpt lat="36.15993001498282" lon="-5.348986024037004">
        <ele>1.58</ele>
        <time>2025-05-08T15:13:23Z</time>
      </trkpt>
      <trkpt lat="36.159875029698014" lon="-5.349017959088087">
        <ele>1.58</ele>
        <time>2025-05-08T15:13:24Z</time>
      </trkpt>
      <trkpt lat="36.159832030534744" lon="-5.349049977958202">
        <ele>1.58</ele>
        <time>2025-05-08T15:13:25Z</time>
      </trkpt>
      <trkpt lat="36.159709990024567" lon="-5.349098006263375">
        <ele>1.58</ele>
        <time>2025-05-08T15:13:26Z</time>
      </trkpt>
      <trkpt lat="36.159699009731412" lon="-5.349161960184574">
        <ele>1.58</ele>
        <time>2025-05-08T15:13:27Z</time>
      </trkpt>
      <trkpt lat="36.159687023609877" lon="-5.349230021238327">
        <ele>1.58</ele>
        <time>2025-05-08T15:13:28Z</time>
      </trkpt>
      <trkpt lat="36.159574035555124" lon="-5.349779035896063">
        <ele>1.1</ele>
        <time>2025-05-08T15:13:35Z</time>
      </trkpt>
      <trkpt lat="36.159554002806544" lon="-5.349855981767178">
        <ele>1.1</ele>
        <time>2025-05-08T15:13:36Z</time>
      </trkpt>
      <trkpt lat="36.159537993371487" lon="-5.349918007850647">
        <ele>0.62</ele>
        <time>2025-05-08T15:13:37Z</time>
      </trkpt>
      <trkpt lat="36.15952399559319" lon="-5.349970981478691">
        <ele>0.62</ele>
        <time>2025-05-08T15:13:38Z</time>
      </trkpt>
      <trkpt lat="36.159509997814894" lon="-5.350025966763496">
        <ele>0.62</ele>
        <time>2025-05-08T15:13:39Z</time>
      </trkpt>
      <trkpt lat="36.159322997555137" lon="-5.350773967802525">
        <ele>1.58</ele>
        <time>2025-05-08T15:13:48Z</time>
      </trkpt>
      <trkpt lat="36.159253008663654" lon="-5.351044032722712">
        <ele>1.58</ele>
        <time>2025-05-08T15:13:51Z</time>
      </trkpt>
      <trkpt lat="36.159268012270331" lon="-5.351222986355424">
        <ele>1.58</ele>
        <time>2025-05-08T15:13:53Z</time>
      </trkpt>
      <trkpt lat="36.159268012270331" lon="-5.35130001604557">
        <ele>1.1</ele>
        <time>2025-05-08T15:13:54Z</time>
      </trkpt>
      <trkpt lat="36.158956959843636" lon="-5.352143989875913">
        <ele>3.02</ele>
        <time>2025-05-08T15:14:04Z</time>
      </trkpt>
      <trkpt lat="36.158711034804583" lon="-5.35306298173964">
        <ele>5.91</ele>
        <time>2025-05-08T15:14:15Z</time>
      </trkpt>
      <trkpt lat="36.158730983734131" lon="-5.353366993367672">
        <ele>5.91</ele>
        <time>2025-05-08T15:14:17Z</time>
      </trkpt>
      <trkpt lat="36.158730983734131" lon="-5.353366993367672">
        <ele>6.39</ele>
        <time>2025-05-08T15:14:18Z</time>
      </trkpt>
      <trkpt lat="36.158777000382543" lon="-5.353493979200721">
        <ele>6.39</ele>
        <time>2025-05-08T15:14:21Z</time>
      </trkpt>
      <trkpt lat="36.158837014809251" lon="-5.353548964485526">
        <ele>6.87</ele>
        <time>2025-05-08T15:14:22Z</time>
      </trkpt>
      <trkpt lat="36.158905997872353" lon="-5.353610990568996">
        <ele>7.35</ele>
        <time>2025-05-08T15:14:23Z</time>
      </trkpt>
      <trkpt lat="36.158976992592216" lon="-5.353675028309226">
        <ele>7.35</ele>
        <time>2025-05-08T15:14:24Z</time>
      </trkpt>
      <trkpt lat="36.15905100479722" lon="-5.353743005543947">
        <ele>6.87</ele>
        <time>2025-05-08T15:14:25Z</time>
      </trkpt>
      <trkpt lat="36.159511003643274" lon="-5.354151036590338">
        <ele>5.91</ele>
        <time>2025-05-08T15:14:31Z</time>
      </trkpt>
      <trkpt lat="36.159592978656292" lon="-5.354228988289833">
        <ele>5.91</ele>
        <time>2025-05-08T15:14:32Z</time>
      </trkpt>
      <trkpt lat="36.160180969163775" lon="-5.354795018211007">
        <ele>4.94</ele>
        <time>2025-05-08T15:14:40Z</time>
      </trkpt>
      <trkpt lat="36.16025498136878" lon="-5.354851009324193">
        <ele>4.94</ele>
        <time>2025-05-08T15:14:41Z</time>
      </trkpt>
      <trkpt lat="36.160688996315002" lon="-5.355233978480101">
        <ele>4.46</ele>
        <time>2025-05-08T15:14:47Z</time>
      </trkpt>
      <trkpt lat="36.160756973549724" lon="-5.355298016220331">
        <ele>4.94</ele>
        <time>2025-05-08T15:14:48Z</time>
      </trkpt>
      <trkpt lat="36.160827968269587" lon="-5.355364987626672">
        <ele>5.42</ele>
        <time>2025-05-08T15:14:49Z</time>
      </trkpt>
      <trkpt lat="36.161170033738017" lon="-5.355699006468058">
        <ele>7.35</ele>
        <time>2025-05-08T15:14:54Z</time>
      </trkpt>
      <trkpt lat="36.161231976002455" lon="-5.355761032551527">
        <ele>7.35</ele>
        <time>2025-05-08T15:14:55Z</time>
      </trkpt>
      <trkpt lat="36.161574963480234" lon="-5.356124974787235">
        <ele>7.35</ele>
        <time>2025-05-08T15:15:01Z</time>
      </trkpt>
      <trkpt lat="36.161633972078562" lon="-5.356183983385563">
        <ele>7.35</ele>
        <time>2025-05-08T15:15:02Z</time>
      </trkpt>
      <trkpt lat="36.162138981744647" lon="-5.356642976403236">
        <ele>5.42</ele>
        <time>2025-05-08T15:15:11Z</time>
      </trkpt>
      <trkpt lat="36.162191033363342" lon="-5.356645993888378">
        <ele>5.42</ele>
        <time>2025-05-08T15:15:12Z</time>
      </trkpt>
      <trkpt lat="36.162226991727948" lon="-5.356610035523772">
        <ele>5.42</ele>
        <time>2025-05-08T15:15:13Z</time>
      </trkpt>
      <trkpt lat="36.162254987284541" lon="-5.356582039967179">
        <ele>5.42</ele>
        <time>2025-05-08T15:15:14Z</time>
      </trkpt>
      <trkpt lat="36.162291029468179" lon="-5.356545997783542">
        <ele>5.91</ele>
        <time>2025-05-08T15:15:15Z</time>
      </trkpt>
      <trkpt lat="36.16229304112494" lon="-5.356481960043311">
        <ele>5.42</ele>
        <time>2025-05-08T15:15:16Z</time>
      </trkpt>
      <trkpt lat="36.16229304112494" lon="-5.356410965323448">
        <ele>4.94</ele>
        <time>2025-05-08T15:15:17Z</time>
      </trkpt>
      <trkpt lat="36.16229304112494" lon="-5.356350028887391">
        <ele>4.94</ele>
        <time>2025-05-08T15:15:18Z</time>
      </trkpt>
      <trkpt lat="36.16227300837636" lon="-5.356293031945825">
        <ele>4.46</ele>
        <time>2025-05-08T15:15:19Z</time>
      </trkpt>
      <trkpt lat="36.162255993112922" lon="-5.356245003640652">
        <ele>4.46</ele>
        <time>2025-05-08T15:15:20Z</time>
      </trkpt>
      <trkpt lat="36.162197990342975" lon="-5.356078958138824">
        <ele>4.94</ele>
        <time>2025-05-08T15:15:23Z</time>
      </trkpt>
      <trkpt lat="36.162088019773364" lon="-5.355831021443009">
        <ele>4.94</ele>
        <time>2025-05-08T15:15:26Z</time>
      </trkpt>
      <trkpt lat="36.162044014781713" lon="-5.355744017288089">
        <ele>5.42</ele>
        <time>2025-05-08T15:15:27Z</time>
      </trkpt>
      <trkpt lat="36.161961033940315" lon="-5.355560034513474">
        <ele>6.39</ele>
        <time>2025-05-08T15:15:29Z</time>
      </trkpt>
      <trkpt lat="36.161934966221452" lon="-5.355460960417986">
        <ele>7.35</ele>
        <time>2025-05-08T15:15:30Z</time>
      </trkpt>
      <trkpt lat="36.16190898232162" lon="-5.355359958484769">
        <ele>8.310000000000001</ele>
        <time>2025-05-08T15:15:31Z</time>
      </trkpt>
      <trkpt lat="36.161819966509938" lon="-5.355030968785286">
        <ele>10.23</ele>
        <time>2025-05-08T15:15:34Z</time>
      </trkpt>
      <trkpt lat="36.161792976781726" lon="-5.354934995993972">
        <ele>10.710000000000001</ele>
        <time>2025-05-08T15:15:35Z</time>
      </trkpt>
      <trkpt lat="36.161767998710275" lon="-5.354842962697148">
        <ele>11.19</ele>
        <time>2025-05-08T15:15:36Z</time>
      </trkpt>
      <trkpt lat="36.161659033969045" lon="-5.3543930221349">
        <ele>14.08</ele>
        <time>2025-05-08T15:15:44Z</time>
      </trkpt>
      <trkpt lat="36.161732040345669" lon="-5.354398973286152">
        <ele>14.56</ele>
        <time>2025-05-08T15:15:45Z</time>
      </trkpt>
      <trkpt lat="36.161775961518288" lon="-5.354388998821378">
        <ele>14.56</ele>
        <time>2025-05-08T15:15:46Z</time>
      </trkpt>
      <trkpt lat="36.161936977878213" lon="-5.354351028800011">
        <ele>16.48</ele>
        <time>2025-05-08T15:15:50Z</time>
      </trkpt>
      <trkpt lat="36.162331011146307" lon="-5.354272993281484">
        <ele>20.32</ele>
        <time>2025-05-08T15:15:57Z</time>
      </trkpt>
      <trkpt lat="36.162614990025759" lon="-5.354225970804691">
        <ele>22.73</ele>
        <time>2025-05-08T15:16:02Z</time>
      </trkpt>
      <trkpt lat="36.162614990025759" lon="-5.354225970804691">
        <ele>23.210000000000001</ele>
        <time>2025-05-08T15:16:03Z</time>
      </trkpt>
      <trkpt lat="36.162598980590701" lon="-5.354109965264797">
        <ele>24.649999999999999</ele>
        <time>2025-05-08T15:16:05Z</time>
      </trkpt>
      <trkpt lat="36.162591017782688" lon="-5.354053974151611">
        <ele>25.129999999999999</ele>
        <time>2025-05-08T15:16:06Z</time>
      </trkpt>
      <trkpt lat="36.162583976984024" lon="-5.354007035493851">
        <ele>25.609999999999999</ele>
        <time>2025-05-08T15:16:07Z</time>
      </trkpt>
      <trkpt lat="36.162563022226095" lon="-5.353861022740603">
        <ele>26.09</ele>
        <time>2025-05-08T15:16:10Z</time>
      </trkpt>
      <trkpt lat="36.16255396977067" lon="-5.353800002485514">
        <ele>26.09</ele>
        <time>2025-05-08T15:16:11Z</time>
      </trkpt>
      <trkpt lat="36.162537038326263" lon="-5.353677961975336">
        <ele>25.609999999999999</ele>
        <time>2025-05-08T15:16:13Z</time>
      </trkpt>
      <trkpt lat="36.162528991699219" lon="-5.353624988347292">
        <ele>25.129999999999999</ele>
        <time>2025-05-08T15:16:14Z</time>
      </trkpt>
      <trkpt lat="36.162513988092542" lon="-5.353564973920584">
        <ele>24.649999999999999</ele>
        <time>2025-05-08T15:16:15Z</time>
      </trkpt>
      <trkpt lat="36.162496972829103" lon="-5.353496996685863">
        <ele>24.170000000000002</ele>
        <time>2025-05-08T15:16:16Z</time>
      </trkpt>
      <trkpt lat="36.162480963394046" lon="-5.353432036936283">
        <ele>23.690000000000001</ele>
        <time>2025-05-08T15:16:17Z</time>
      </trkpt>
      <trkpt lat="36.162465959787369" lon="-5.353371016681194">
        <ele>23.210000000000001</ele>
        <time>2025-05-08T15:16:18Z</time>
      </trkpt>
      <trkpt lat="36.162451039999723" lon="-5.353312008082867">
        <ele>22.73</ele>
        <time>2025-05-08T15:16:19Z</time>
      </trkpt>
      <trkpt lat="36.162376021966338" lon="-5.352983018383384">
        <ele>20.809999999999999</ele>
        <time>2025-05-08T15:16:24Z</time>
      </trkpt>
      <trkpt lat="36.162363030016422" lon="-5.352915963158011">
        <ele>20.809999999999999</ele>
        <time>2025-05-08T15:16:25Z</time>
      </trkpt>
      <trkpt lat="36.162351965904236" lon="-5.352855026721954">
        <ele>20.32</ele>
        <time>2025-05-08T15:16:26Z</time>
      </trkpt>
      <trkpt lat="36.162340985611081" lon="-5.352801969274879">
        <ele>19.84</ele>
        <time>2025-05-08T15:16:27Z</time>
      </trkpt>
      <trkpt lat="36.162332016974688" lon="-5.352754024788737">
        <ele>19.359999999999999</ele>
        <time>2025-05-08T15:16:28Z</time>
      </trkpt>
      <trkpt lat="36.162317013368011" lon="-5.35267498344183">
        <ele>17.920000000000002</ele>
        <time>2025-05-08T15:16:36Z</time>
      </trkpt>
      <trkpt lat="36.162276025861502" lon="-5.35245998762548">
        <ele>14.08</ele>
        <time>2025-05-08T15:16:51Z</time>
      </trkpt>
      <trkpt lat="36.162213999778032" lon="-5.352119011804462">
        <ele>6.39</ele>
        <time>2025-05-08T15:17:06Z</time>
      </trkpt>
      <trkpt lat="36.162213999778032" lon="-5.352119011804462">
        <ele>5.91</ele>
        <time>2025-05-08T15:17:27Z</time>
      </trkpt>
    </trkseg>
  </trk>

</gpx>